<?xml version='1.0' encoding='UTF-8'?><gpx version="1.1" creator="JPX - https://github.com/jenetics/jpx" xmlns="http://www.topografix.com/GPX/1/1"><trk><trkseg><trkpt lat="43.7653625" lon="11.278487"><ele>55.0</ele><time>2026-04-25T07:38:43.742Z</time></trkpt><trkpt lat="43.7653614" lon="11.2786134"><ele>55.0</ele><time>2026-04-25T07:38:44.741Z</time></trkpt><trkpt lat="43.7653656" lon="11.2787682"><ele>55.0</ele><time>2026-04-25T07:38:45.742Z</time></trkpt><trkpt lat="43.7653773" lon="11.2789367"><ele>55.0</ele><time>2026-04-25T07:38:46.742Z</time></trkpt><trkpt lat="43.7653943" lon="11.2791166"><ele>55.0</ele><time>2026-04-25T07:38:47.741Z</time></trkpt><trkpt lat="43.7654206" lon="11.2793128"><ele>55.0</ele><time>2026-04-25T07:38:48.741Z</time></trkpt><trkpt lat="43.7654481" lon="11.2795178"><ele>55.0</ele><time>2026-04-25T07:38:49.742Z</time></trkpt><trkpt lat="43.7654694" lon="11.2797057"><ele>55.0</ele><time>2026-04-25T07:38:50.741Z</time></trkpt><trkpt lat="43.7654961" lon="11.2798857"><ele>55.0</ele><time>2026-04-25T07:38:51.743Z</time></trkpt><trkpt lat="43.7655126" lon="11.2800498"><ele>55.0</ele><time>2026-04-25T07:38:52.742Z</time></trkpt><trkpt lat="43.7655334" lon="11.2802147"><ele>55.0</ele><time>2026-04-25T07:38:53.741Z</time></trkpt><trkpt lat="43.7655588" lon="11.2803744"><ele>55.0</ele><time>2026-04-25T07:38:54.741Z</time></trkpt><trkpt lat="43.7655787" lon="11.2805401"><ele>55.0</ele><time>2026-04-25T07:38:55.741Z</time></trkpt><trkpt lat="43.7655964" lon="11.2807071"><ele>55.0</ele><time>2026-04-25T07:38:56.741Z</time></trkpt><trkpt lat="43.7656227" lon="11.2808739"><ele>55.0</ele><time>2026-04-25T07:38:57.742Z</time></trkpt><trkpt lat="43.7656446" lon="11.2810289"><ele>55.0</ele><time>2026-04-25T07:38:58.741Z</time></trkpt><trkpt lat="43.7656671" lon="11.2811769"><ele>54.99999999999999</ele><time>2026-04-25T07:38:59.741Z</time></trkpt><trkpt lat="43.7656801" lon="11.2813047"><ele>55.0</ele><time>2026-04-25T07:39:00.742Z</time></trkpt><trkpt lat="43.7656924" lon="11.2814199"><ele>55.0</ele><time>2026-04-25T07:39:01.741Z</time></trkpt><trkpt lat="43.7657039" lon="11.2815196"><ele>55.0</ele><time>2026-04-25T07:39:02.741Z</time></trkpt><trkpt lat="43.7657128" lon="11.2816085"><ele>54.99999999999999</ele><time>2026-04-25T07:39:03.742Z</time></trkpt><trkpt lat="43.7657439" lon="11.2817781"><ele>55.0</ele><time>2026-04-25T07:39:05.741Z</time></trkpt><trkpt lat="43.7657644" lon="11.2818712"><ele>54.8</ele><time>2026-04-25T07:39:06.741Z</time></trkpt><trkpt lat="43.7657888" lon="11.2819674"><ele>54.6</ele><time>2026-04-25T07:39:07.741Z</time></trkpt><trkpt lat="43.7658138" lon="11.2820741"><ele>54.400000000000006</ele><time>2026-04-25T07:39:08.742Z</time></trkpt><trkpt lat="43.7658348" lon="11.2821931"><ele>54.2</ele><time>2026-04-25T07:39:09.741Z</time></trkpt><trkpt lat="43.7658532" lon="11.2823284"><ele>54.0</ele><time>2026-04-25T07:39:10.741Z</time></trkpt><trkpt lat="43.7658725" lon="11.2824753"><ele>54.0</ele><time>2026-04-25T07:39:11.741Z</time></trkpt><trkpt lat="43.7658924" lon="11.2826222"><ele>54.0</ele><time>2026-04-25T07:39:12.741Z</time></trkpt><trkpt lat="43.7659102" lon="11.2827722"><ele>54.0</ele><time>2026-04-25T07:39:13.742Z</time></trkpt><trkpt lat="43.7659288" lon="11.2829341"><ele>54.0</ele><time>2026-04-25T07:39:14.743Z</time></trkpt><trkpt lat="43.7659504" lon="11.2830996"><ele>53.400000000000006</ele><time>2026-04-25T07:39:15.742Z</time></trkpt><trkpt lat="43.7659686" lon="11.2832559"><ele>52.800000000000004</ele><time>2026-04-25T07:39:16.741Z</time></trkpt><trkpt lat="43.7659816" lon="11.2834037"><ele>52.2</ele><time>2026-04-25T07:39:17.741Z</time></trkpt><trkpt lat="43.7659957" lon="11.2835505"><ele>51.599999999999994</ele><time>2026-04-25T07:39:18.741Z</time></trkpt><trkpt lat="43.7660109" lon="11.2836932"><ele>51.0</ele><time>2026-04-25T07:39:19.741Z</time></trkpt><trkpt lat="43.7660273" lon="11.2838328"><ele>52.599999999999994</ele><time>2026-04-25T07:39:20.742Z</time></trkpt><trkpt lat="43.7660431" lon="11.2839744"><ele>54.2</ele><time>2026-04-25T07:39:21.742Z</time></trkpt><trkpt lat="43.76606" lon="11.2841204"><ele>55.800000000000004</ele><time>2026-04-25T07:39:22.741Z</time></trkpt><trkpt lat="43.7660767" lon="11.2842694"><ele>57.400000000000006</ele><time>2026-04-25T07:39:23.742Z</time></trkpt><trkpt lat="43.7660921" lon="11.2844181"><ele>59.0</ele><time>2026-04-25T07:39:24.741Z</time></trkpt><trkpt lat="43.7661082" lon="11.284551"><ele>59.00000000000001</ele><time>2026-04-25T07:39:25.742Z</time></trkpt><trkpt lat="43.7661203" lon="11.284677"><ele>59.0</ele><time>2026-04-25T07:39:26.741Z</time></trkpt><trkpt lat="43.766133" lon="11.2847916"><ele>59.0</ele><time>2026-04-25T07:39:27.742Z</time></trkpt><trkpt lat="43.7661429" lon="11.2849043"><ele>59.0</ele><time>2026-04-25T07:39:28.741Z</time></trkpt><trkpt lat="43.7661561" lon="11.2850277"><ele>59.00000000000001</ele><time>2026-04-25T07:39:29.741Z</time></trkpt><trkpt lat="43.7661666" lon="11.2851522"><ele>59.0</ele><time>2026-04-25T07:39:30.742Z</time></trkpt><trkpt lat="43.7661796" lon="11.2852746"><ele>58.50000000000001</ele><time>2026-04-25T07:39:31.741Z</time></trkpt><trkpt lat="43.7661932" lon="11.2853965"><ele>58.0</ele><time>2026-04-25T07:39:32.742Z</time></trkpt><trkpt lat="43.7662098" lon="11.2855133"><ele>57.5</ele><time>2026-04-25T07:39:33.741Z</time></trkpt><trkpt lat="43.7662262" lon="11.2856233"><ele>57.0</ele><time>2026-04-25T07:39:34.742Z</time></trkpt><trkpt lat="43.7662375" lon="11.285722"><ele>56.50000000000001</ele><time>2026-04-25T07:39:35.741Z</time></trkpt><trkpt lat="43.7662477" lon="11.2858191"><ele>56.0</ele><time>2026-04-25T07:39:36.741Z</time></trkpt><trkpt lat="43.7662599" lon="11.2859238"><ele>56.00000000000001</ele><time>2026-04-25T07:39:37.742Z</time></trkpt><trkpt lat="43.7662727" lon="11.2860288"><ele>56.0</ele><time>2026-04-25T07:39:38.742Z</time></trkpt><trkpt lat="43.7662836" lon="11.2861367"><ele>56.0</ele><time>2026-04-25T07:39:39.741Z</time></trkpt><trkpt lat="43.7662978" lon="11.286247"><ele>56.0</ele><time>2026-04-25T07:39:40.741Z</time></trkpt><trkpt lat="43.7663087" lon="11.2863612"><ele>56.00000000000001</ele><time>2026-04-25T07:39:41.742Z</time></trkpt><trkpt lat="43.7663235" lon="11.2864691"><ele>56.0</ele><time>2026-04-25T07:39:42.741Z</time></trkpt><trkpt lat="43.7663351" lon="11.2865815"><ele>55.8</ele><time>2026-04-25T07:39:43.741Z</time></trkpt><trkpt lat="43.7663469" lon="11.2866984"><ele>55.599999999999994</ele><time>2026-04-25T07:39:44.742Z</time></trkpt><trkpt lat="43.7663604" lon="11.2868208"><ele>55.4</ele><time>2026-04-25T07:39:45.741Z</time></trkpt><trkpt lat="43.7663713" lon="11.2869483"><ele>55.2</ele><time>2026-04-25T07:39:46.741Z</time></trkpt><trkpt lat="43.7663839" lon="11.2870818"><ele>55.0</ele><time>2026-04-25T07:39:47.742Z</time></trkpt><trkpt lat="43.7663994" lon="11.2872128"><ele>55.0</ele><time>2026-04-25T07:39:48.741Z</time></trkpt><trkpt lat="43.7664122" lon="11.2873478"><ele>55.0</ele><time>2026-04-25T07:39:49.741Z</time></trkpt><trkpt lat="43.7664265" lon="11.2874826"><ele>55.0</ele><time>2026-04-25T07:39:50.743Z</time></trkpt><trkpt lat="43.7664456" lon="11.2876278"><ele>55.0</ele><time>2026-04-25T07:39:51.742Z</time></trkpt><trkpt lat="43.7664602" lon="11.287799"><ele>55.0</ele><time>2026-04-25T07:39:52.742Z</time></trkpt><trkpt lat="43.7664726" lon="11.287951"><ele>55.0</ele><time>2026-04-25T07:39:53.741Z</time></trkpt><trkpt lat="43.7664889" lon="11.2881095"><ele>55.0</ele><time>2026-04-25T07:39:54.741Z</time></trkpt><trkpt lat="43.76651" lon="11.288282"><ele>55.0</ele><time>2026-04-25T07:39:55.741Z</time></trkpt><trkpt lat="43.7665351" lon="11.2884741"><ele>55.0</ele><time>2026-04-25T07:39:56.741Z</time></trkpt><trkpt lat="43.7665616" lon="11.2886813"><ele>55.0</ele><time>2026-04-25T07:39:57.742Z</time></trkpt><trkpt lat="43.7665917" lon="11.2889111"><ele>55.0</ele><time>2026-04-25T07:39:58.742Z</time></trkpt><trkpt lat="43.7666198" lon="11.2891596"><ele>55.0</ele><time>2026-04-25T07:39:59.741Z</time></trkpt><trkpt lat="43.7666506" lon="11.2894368"><ele>55.33333333333333</ele><time>2026-04-25T07:40:00.741Z</time></trkpt><trkpt lat="43.7666766" lon="11.2897104"><ele>55.66666666666667</ele><time>2026-04-25T07:40:01.741Z</time></trkpt><trkpt lat="43.7667061" lon="11.2899711"><ele>56.0</ele><time>2026-04-25T07:40:02.741Z</time></trkpt><trkpt lat="43.7667323" lon="11.2902084"><ele>56.0</ele><time>2026-04-25T07:40:03.743Z</time></trkpt><trkpt lat="43.766756" lon="11.290436"><ele>56.0</ele><time>2026-04-25T07:40:04.741Z</time></trkpt><trkpt lat="43.7667782" lon="11.2906496"><ele>56.0</ele><time>2026-04-25T07:40:05.741Z</time></trkpt><trkpt lat="43.7668038" lon="11.2908535"><ele>56.0</ele><time>2026-04-25T07:40:06.741Z</time></trkpt><trkpt lat="43.7668298" lon="11.2910518"><ele>56.0</ele><time>2026-04-25T07:40:07.741Z</time></trkpt><trkpt lat="43.7668572" lon="11.2912394"><ele>56.0</ele><time>2026-04-25T07:40:08.742Z</time></trkpt><trkpt lat="43.7668753" lon="11.2914272"><ele>56.0</ele><time>2026-04-25T07:40:09.742Z</time></trkpt><trkpt lat="43.7668944" lon="11.2916114"><ele>56.0</ele><time>2026-04-25T07:40:10.741Z</time></trkpt><trkpt lat="43.7669166" lon="11.2917932"><ele>56.0</ele><time>2026-04-25T07:40:11.741Z</time></trkpt><trkpt lat="43.7669377" lon="11.2919636"><ele>56.0</ele><time>2026-04-25T07:40:12.742Z</time></trkpt><trkpt lat="43.766958" lon="11.2921248"><ele>56.0</ele><time>2026-04-25T07:40:13.741Z</time></trkpt><trkpt lat="43.7669782" lon="11.2922782"><ele>55.8</ele><time>2026-04-25T07:40:14.742Z</time></trkpt><trkpt lat="43.7669903" lon="11.2924188"><ele>55.599999999999994</ele><time>2026-04-25T07:40:15.742Z</time></trkpt><trkpt lat="43.7670019" lon="11.2925511"><ele>55.4</ele><time>2026-04-25T07:40:16.742Z</time></trkpt><trkpt lat="43.7670208" lon="11.2926745"><ele>55.2</ele><time>2026-04-25T07:40:17.742Z</time></trkpt><trkpt lat="43.7670244" lon="11.2927894"><ele>55.0</ele><time>2026-04-25T07:40:18.742Z</time></trkpt><trkpt lat="43.7670439" lon="11.2929128"><ele>55.0</ele><time>2026-04-25T07:40:19.742Z</time></trkpt><trkpt lat="43.7670569" lon="11.2930486"><ele>55.0</ele><time>2026-04-25T07:40:20.742Z</time></trkpt><trkpt lat="43.7670753" lon="11.2931897"><ele>55.0</ele><time>2026-04-25T07:40:21.741Z</time></trkpt><trkpt lat="43.767092" lon="11.2933449"><ele>55.0</ele><time>2026-04-25T07:40:22.742Z</time></trkpt><trkpt lat="43.767112" lon="11.2935069"><ele>55.0</ele><time>2026-04-25T07:40:23.742Z</time></trkpt><trkpt lat="43.7671321" lon="11.2936731"><ele>55.0</ele><time>2026-04-25T07:40:24.741Z</time></trkpt><trkpt lat="43.7671452" lon="11.2938547"><ele>55.0</ele><time>2026-04-25T07:40:25.741Z</time></trkpt><trkpt lat="43.7671483" lon="11.2940398"><ele>55.0</ele><time>2026-04-25T07:40:26.741Z</time></trkpt><trkpt lat="43.767149" lon="11.2942281"><ele>55.0</ele><time>2026-04-25T07:40:27.742Z</time></trkpt><trkpt lat="43.7671424" lon="11.2944133"><ele>55.0</ele><time>2026-04-25T07:40:28.742Z</time></trkpt><trkpt lat="43.7671295" lon="11.2945878"><ele>55.0</ele><time>2026-04-25T07:40:29.741Z</time></trkpt><trkpt lat="43.7671168" lon="11.2947545"><ele>55.0</ele><time>2026-04-25T07:40:30.742Z</time></trkpt><trkpt lat="43.7670983" lon="11.2949215"><ele>55.0</ele><time>2026-04-25T07:40:31.742Z</time></trkpt><trkpt lat="43.7670738" lon="11.295093"><ele>54.5</ele><time>2026-04-25T07:40:32.741Z</time></trkpt><trkpt lat="43.767045" lon="11.2952656"><ele>54.0</ele><time>2026-04-25T07:40:33.741Z</time></trkpt><trkpt lat="43.7670149" lon="11.2954296"><ele>53.5</ele><time>2026-04-25T07:40:34.741Z</time></trkpt><trkpt lat="43.7669896" lon="11.295581"><ele>53.0</ele><time>2026-04-25T07:40:35.742Z</time></trkpt><trkpt lat="43.7669642" lon="11.2957237"><ele>53.0</ele><time>2026-04-25T07:40:36.741Z</time></trkpt><trkpt lat="43.7669411" lon="11.2958572"><ele>53.0</ele><time>2026-04-25T07:40:37.741Z</time></trkpt><trkpt lat="43.766914" lon="11.2959902"><ele>53.0</ele><time>2026-04-25T07:40:38.742Z</time></trkpt><trkpt lat="43.7668872" lon="11.2961136"><ele>53.0</ele><time>2026-04-25T07:40:39.741Z</time></trkpt><trkpt lat="43.7668616" lon="11.2962263"><ele>53.0</ele><time>2026-04-25T07:40:40.741Z</time></trkpt><trkpt lat="43.7668383" lon="11.296333"><ele>53.0</ele><time>2026-04-25T07:40:41.742Z</time></trkpt><trkpt lat="43.7668144" lon="11.296424"><ele>53.0</ele><time>2026-04-25T07:40:42.741Z</time></trkpt><trkpt lat="43.7667885" lon="11.2965103"><ele>53.0</ele><time>2026-04-25T07:40:43.741Z</time></trkpt><trkpt lat="43.7667382" lon="11.2966598"><ele>53.0</ele><time>2026-04-25T07:40:45.741Z</time></trkpt><trkpt lat="43.7667515" lon="11.2967853"><ele>53.0</ele><time>2026-04-25T07:40:47.742Z</time></trkpt><trkpt lat="43.7668672" lon="11.296858"><ele>52.75</ele><time>2026-04-25T07:40:49.742Z</time></trkpt><trkpt lat="43.7669601" lon="11.2968989"><ele>52.5</ele><time>2026-04-25T07:40:50.741Z</time></trkpt><trkpt lat="43.7670665" lon="11.2969571"><ele>52.25</ele><time>2026-04-25T07:40:51.743Z</time></trkpt><trkpt lat="43.7671874" lon="11.2970179"><ele>52.0</ele><time>2026-04-25T07:40:52.741Z</time></trkpt><trkpt lat="43.7673159" lon="11.2970839"><ele>52.0</ele><time>2026-04-25T07:40:53.742Z</time></trkpt><trkpt lat="43.7674431" lon="11.2971487"><ele>52.0</ele><time>2026-04-25T07:40:54.741Z</time></trkpt><trkpt lat="43.7675628" lon="11.297206"><ele>52.0</ele><time>2026-04-25T07:40:55.742Z</time></trkpt><trkpt lat="43.7676706" lon="11.2972553"><ele>52.0</ele><time>2026-04-25T07:40:56.742Z</time></trkpt><trkpt lat="43.7677677" lon="11.2972863"><ele>51.8</ele><time>2026-04-25T07:40:57.742Z</time></trkpt><trkpt lat="43.7678457" lon="11.2972924"><ele>51.6</ele><time>2026-04-25T07:40:58.741Z</time></trkpt><trkpt lat="43.7679137" lon="11.2973526"><ele>51.4</ele><time>2026-04-25T07:40:59.742Z</time></trkpt><trkpt lat="43.767981" lon="11.2974046"><ele>51.199999999999996</ele><time>2026-04-25T07:41:00.742Z</time></trkpt><trkpt lat="43.7679477" lon="11.2976299"><ele>51.0</ele><time>2026-04-25T07:41:02.741Z</time></trkpt><trkpt lat="43.7679346" lon="11.2977823"><ele>51.0</ele><time>2026-04-25T07:41:03.741Z</time></trkpt><trkpt lat="43.7679107" lon="11.2979623"><ele>51.0</ele><time>2026-04-25T07:41:04.741Z</time></trkpt><trkpt lat="43.7678941" lon="11.2981736"><ele>51.0</ele><time>2026-04-25T07:41:05.741Z</time></trkpt><trkpt lat="43.7678755" lon="11.298408"><ele>52.0</ele><time>2026-04-25T07:41:06.741Z</time></trkpt><trkpt lat="43.7678531" lon="11.2986402"><ele>53.0</ele><time>2026-04-25T07:41:07.742Z</time></trkpt><trkpt lat="43.7678272" lon="11.2988486"><ele>54.0</ele><time>2026-04-25T07:41:08.742Z</time></trkpt><trkpt lat="43.767807" lon="11.2990532"><ele>54.66666666666667</ele><time>2026-04-25T07:41:09.742Z</time></trkpt><trkpt lat="43.7677871" lon="11.2992593"><ele>55.333333333333336</ele><time>2026-04-25T07:41:10.743Z</time></trkpt><trkpt lat="43.7677704" lon="11.2994752"><ele>56.0</ele><time>2026-04-25T07:41:11.742Z</time></trkpt><trkpt lat="43.7677477" lon="11.2996994"><ele>56.0</ele><time>2026-04-25T07:41:12.741Z</time></trkpt><trkpt lat="43.7677217" lon="11.2999294"><ele>56.0</ele><time>2026-04-25T07:41:13.741Z</time></trkpt><trkpt lat="43.7676978" lon="11.3001546"><ele>56.0</ele><time>2026-04-25T07:41:14.741Z</time></trkpt><trkpt lat="43.7676611" lon="11.3004047"><ele>56.333333333333336</ele><time>2026-04-25T07:41:15.741Z</time></trkpt><trkpt lat="43.767635" lon="11.3006308"><ele>56.66666666666667</ele><time>2026-04-25T07:41:16.741Z</time></trkpt><trkpt lat="43.7676066" lon="11.3008386"><ele>57.0</ele><time>2026-04-25T07:41:17.742Z</time></trkpt><trkpt lat="43.7675829" lon="11.3010293"><ele>57.0</ele><time>2026-04-25T07:41:18.741Z</time></trkpt><trkpt lat="43.7675671" lon="11.3012166"><ele>57.0</ele><time>2026-04-25T07:41:19.741Z</time></trkpt><trkpt lat="43.7675507" lon="11.3014055"><ele>57.0</ele><time>2026-04-25T07:41:20.742Z</time></trkpt><trkpt lat="43.7675306" lon="11.3015774"><ele>57.0</ele><time>2026-04-25T07:41:21.741Z</time></trkpt><trkpt lat="43.7675189" lon="11.301739"><ele>57.0</ele><time>2026-04-25T07:41:22.742Z</time></trkpt><trkpt lat="43.7675074" lon="11.3019042"><ele>57.0</ele><time>2026-04-25T07:41:23.741Z</time></trkpt><trkpt lat="43.767492" lon="11.3020226"><ele>57.0</ele><time>2026-04-25T07:41:24.742Z</time></trkpt><trkpt lat="43.7674866" lon="11.3021567"><ele>57.0</ele><time>2026-04-25T07:41:25.742Z</time></trkpt><trkpt lat="43.7674866" lon="11.3022775"><ele>57.0</ele><time>2026-04-25T07:41:26.741Z</time></trkpt><trkpt lat="43.767507" lon="11.3023805"><ele>57.0</ele><time>2026-04-25T07:41:27.742Z</time></trkpt><trkpt lat="43.7675503" lon="11.3024676"><ele>57.0</ele><time>2026-04-25T07:41:28.742Z</time></trkpt><trkpt lat="43.7676015" lon="11.3025672"><ele>57.0</ele><time>2026-04-25T07:41:29.742Z</time></trkpt><trkpt lat="43.7676378" lon="11.302685"><ele>57.0</ele><time>2026-04-25T07:41:30.741Z</time></trkpt><trkpt lat="43.7676571" lon="11.3028268"><ele>57.0</ele><time>2026-04-25T07:41:31.741Z</time></trkpt><trkpt lat="43.7676613" lon="11.3029864"><ele>57.0</ele><time>2026-04-25T07:41:32.742Z</time></trkpt><trkpt lat="43.7676622" lon="11.3031615"><ele>57.0</ele><time>2026-04-25T07:41:33.742Z</time></trkpt><trkpt lat="43.7676636" lon="11.303348"><ele>57.0</ele><time>2026-04-25T07:41:34.741Z</time></trkpt><trkpt lat="43.767667" lon="11.3035428"><ele>57.0</ele><time>2026-04-25T07:41:35.742Z</time></trkpt><trkpt lat="43.7676732" lon="11.3037241"><ele>57.0</ele><time>2026-04-25T07:41:36.742Z</time></trkpt><trkpt lat="43.7676754" lon="11.3038995"><ele>57.0</ele><time>2026-04-25T07:41:37.741Z</time></trkpt><trkpt lat="43.7676797" lon="11.3040775"><ele>57.0</ele><time>2026-04-25T07:41:38.741Z</time></trkpt><trkpt lat="43.7676838" lon="11.3042344"><ele>57.0</ele><time>2026-04-25T07:41:39.741Z</time></trkpt><trkpt lat="43.7676878" lon="11.3043908"><ele>56.8</ele><time>2026-04-25T07:41:40.741Z</time></trkpt><trkpt lat="43.7676886" lon="11.3045401"><ele>56.6</ele><time>2026-04-25T07:41:41.742Z</time></trkpt><trkpt lat="43.7676905" lon="11.3046872"><ele>56.39999999999999</ele><time>2026-04-25T07:41:42.742Z</time></trkpt><trkpt lat="43.7676935" lon="11.3048419"><ele>56.199999999999996</ele><time>2026-04-25T07:41:43.741Z</time></trkpt><trkpt lat="43.7676947" lon="11.3050016"><ele>56.0</ele><time>2026-04-25T07:41:44.741Z</time></trkpt><trkpt lat="43.7676978" lon="11.3051628"><ele>56.25</ele><time>2026-04-25T07:41:45.741Z</time></trkpt><trkpt lat="43.7677092" lon="11.3053229"><ele>56.5</ele><time>2026-04-25T07:41:46.741Z</time></trkpt><trkpt lat="43.7677136" lon="11.3054918"><ele>56.75</ele><time>2026-04-25T07:41:47.741Z</time></trkpt><trkpt lat="43.7677128" lon="11.3056678"><ele>57.0</ele><time>2026-04-25T07:41:48.742Z</time></trkpt><trkpt lat="43.7677157" lon="11.3058469"><ele>57.0</ele><time>2026-04-25T07:41:49.741Z</time></trkpt><trkpt lat="43.7677107" lon="11.3060203"><ele>57.0</ele><time>2026-04-25T07:41:50.741Z</time></trkpt><trkpt lat="43.7677187" lon="11.3061997"><ele>57.0</ele><time>2026-04-25T07:41:51.743Z</time></trkpt><trkpt lat="43.7677224" lon="11.3063812"><ele>57.0</ele><time>2026-04-25T07:41:52.741Z</time></trkpt><trkpt lat="43.7677242" lon="11.3065585"><ele>57.25</ele><time>2026-04-25T07:41:53.741Z</time></trkpt><trkpt lat="43.7677308" lon="11.3067494"><ele>57.5</ele><time>2026-04-25T07:41:54.742Z</time></trkpt><trkpt lat="43.7677405" lon="11.3069438"><ele>57.75</ele><time>2026-04-25T07:41:55.741Z</time></trkpt><trkpt lat="43.7677448" lon="11.3071304"><ele>58.0</ele><time>2026-04-25T07:41:56.741Z</time></trkpt><trkpt lat="43.7677468" lon="11.3073179"><ele>58.0</ele><time>2026-04-25T07:41:57.741Z</time></trkpt><trkpt lat="43.7677461" lon="11.3074949"><ele>58.0</ele><time>2026-04-25T07:41:58.741Z</time></trkpt><trkpt lat="43.7677538" lon="11.3076597"><ele>58.0</ele><time>2026-04-25T07:41:59.741Z</time></trkpt><trkpt lat="43.7677523" lon="11.3078134"><ele>58.0</ele><time>2026-04-25T07:42:00.741Z</time></trkpt><trkpt lat="43.7677587" lon="11.3079609"><ele>58.2</ele><time>2026-04-25T07:42:01.741Z</time></trkpt><trkpt lat="43.7677655" lon="11.3080918"><ele>58.4</ele><time>2026-04-25T07:42:02.742Z</time></trkpt><trkpt lat="43.767774" lon="11.3082091"><ele>58.60000000000001</ele><time>2026-04-25T07:42:03.741Z</time></trkpt><trkpt lat="43.7677844" lon="11.308334"><ele>58.800000000000004</ele><time>2026-04-25T07:42:04.742Z</time></trkpt><trkpt lat="43.767783" lon="11.3084729"><ele>59.0</ele><time>2026-04-25T07:42:05.741Z</time></trkpt><trkpt lat="43.7677835" lon="11.3086285"><ele>59.0</ele><time>2026-04-25T07:42:06.741Z</time></trkpt><trkpt lat="43.7677923" lon="11.3087981"><ele>59.0</ele><time>2026-04-25T07:42:07.742Z</time></trkpt><trkpt lat="43.7677988" lon="11.3089755"><ele>59.0</ele><time>2026-04-25T07:42:08.742Z</time></trkpt><trkpt lat="43.7677917" lon="11.3091617"><ele>59.0</ele><time>2026-04-25T07:42:09.741Z</time></trkpt><trkpt lat="43.7677924" lon="11.3093542"><ele>59.25</ele><time>2026-04-25T07:42:10.741Z</time></trkpt><trkpt lat="43.7677874" lon="11.309552"><ele>59.5</ele><time>2026-04-25T07:42:11.742Z</time></trkpt><trkpt lat="43.7677938" lon="11.3097569"><ele>59.75</ele><time>2026-04-25T07:42:12.742Z</time></trkpt><trkpt lat="43.767812" lon="11.3099708"><ele>60.0</ele><time>2026-04-25T07:42:13.742Z</time></trkpt><trkpt lat="43.7678266" lon="11.3101785"><ele>60.0</ele><time>2026-04-25T07:42:14.742Z</time></trkpt><trkpt lat="43.7678414" lon="11.3103733"><ele>60.0</ele><time>2026-04-25T07:42:15.742Z</time></trkpt><trkpt lat="43.7678541" lon="11.3105536"><ele>60.0</ele><time>2026-04-25T07:42:16.743Z</time></trkpt><trkpt lat="43.767866" lon="11.3107177"><ele>60.0</ele><time>2026-04-25T07:42:17.741Z</time></trkpt><trkpt lat="43.7678787" lon="11.3108619"><ele>60.0</ele><time>2026-04-25T07:42:18.741Z</time></trkpt><trkpt lat="43.7678907" lon="11.3109617"><ele>60.0</ele><time>2026-04-25T07:42:19.741Z</time></trkpt><trkpt lat="43.7679034" lon="11.3110712"><ele>60.0</ele><time>2026-04-25T07:42:20.741Z</time></trkpt><trkpt lat="43.7679687" lon="11.3110712"><ele>60.0</ele><time>2026-04-25T07:42:23.741Z</time></trkpt><trkpt lat="43.7680909" lon="11.3110257"><ele>60.0</ele><time>2026-04-25T07:42:24.741Z</time></trkpt><trkpt lat="43.7681986" lon="11.3109666"><ele>60.0</ele><time>2026-04-25T07:42:25.741Z</time></trkpt><trkpt lat="43.7682837" lon="11.3109163"><ele>60.0</ele><time>2026-04-25T07:42:26.741Z</time></trkpt><trkpt lat="43.7684019" lon="11.3108984"><ele>60.0</ele><time>2026-04-25T07:42:28.742Z</time></trkpt><trkpt lat="43.7684388" lon="11.311055"><ele>60.0</ele><time>2026-04-25T07:42:30.742Z</time></trkpt><trkpt lat="43.7684318" lon="11.3111552"><ele>60.0</ele><time>2026-04-25T07:42:31.742Z</time></trkpt><trkpt lat="43.7684117" lon="11.3112733"><ele>60.0</ele><time>2026-04-25T07:42:32.742Z</time></trkpt><trkpt lat="43.7683454" lon="11.3113332"><ele>60.0</ele><time>2026-04-25T07:42:33.743Z</time></trkpt><trkpt lat="43.7682945" lon="11.3113886"><ele>60.0</ele><time>2026-04-25T07:42:34.742Z</time></trkpt><trkpt lat="43.7682496" lon="11.3114947"><ele>60.0</ele><time>2026-04-25T07:42:35.741Z</time></trkpt><trkpt lat="43.7682254" lon="11.3115839"><ele>60.0</ele><time>2026-04-25T07:42:36.742Z</time></trkpt><trkpt lat="43.7682087" lon="11.3116959"><ele>60.0</ele><time>2026-04-25T07:42:37.742Z</time></trkpt><trkpt lat="43.7682293" lon="11.311795"><ele>59.5</ele><time>2026-04-25T07:42:39.741Z</time></trkpt><trkpt lat="43.768313" lon="11.3119454"><ele>59.0</ele><time>2026-04-25T07:42:41.741Z</time></trkpt><trkpt lat="43.7684314" lon="11.3119643"><ele>58.5</ele><time>2026-04-25T07:42:42.741Z</time></trkpt><trkpt lat="43.7685337" lon="11.3120062"><ele>58.0</ele><time>2026-04-25T07:42:43.742Z</time></trkpt><trkpt lat="43.7686327" lon="11.31206"><ele>57.8</ele><time>2026-04-25T07:42:44.743Z</time></trkpt><trkpt lat="43.7687176" lon="11.3121123"><ele>57.599999999999994</ele><time>2026-04-25T07:42:45.742Z</time></trkpt><trkpt lat="43.7687989" lon="11.3121597"><ele>57.400000000000006</ele><time>2026-04-25T07:42:46.741Z</time></trkpt><trkpt lat="43.7688743" lon="11.3122164"><ele>57.2</ele><time>2026-04-25T07:42:47.741Z</time></trkpt><trkpt lat="43.7689378" lon="11.3122584"><ele>57.0</ele><time>2026-04-25T07:42:48.742Z</time></trkpt><trkpt lat="43.7690429" lon="11.3123284"><ele>57.0</ele><time>2026-04-25T07:42:50.741Z</time></trkpt><trkpt lat="43.7691141" lon="11.3123564"><ele>57.0</ele><time>2026-04-25T07:42:52.741Z</time></trkpt><trkpt lat="43.7693537" lon="11.3124945"><ele>57.0</ele><time>2026-04-25T07:42:56.742Z</time></trkpt><trkpt lat="43.7694277" lon="11.312554"><ele>57.0</ele><time>2026-04-25T07:42:58.741Z</time></trkpt><trkpt lat="43.7695127" lon="11.3125746"><ele>57.0</ele><time>2026-04-25T07:43:01.742Z</time></trkpt><trkpt lat="43.7696168" lon="11.3126591"><ele>57.0</ele><time>2026-04-25T07:43:03.741Z</time></trkpt><trkpt lat="43.7697353" lon="11.3126989"><ele>57.0</ele><time>2026-04-25T07:43:04.741Z</time></trkpt><trkpt lat="43.7698459" lon="11.3127549"><ele>57.0</ele><time>2026-04-25T07:43:05.741Z</time></trkpt><trkpt lat="43.7699769" lon="11.3128229"><ele>57.0</ele><time>2026-04-25T07:43:06.742Z</time></trkpt><trkpt lat="43.7701176" lon="11.3128975"><ele>57.0</ele><time>2026-04-25T07:43:07.741Z</time></trkpt><trkpt lat="43.7702581" lon="11.3129768"><ele>57.0</ele><time>2026-04-25T07:43:08.741Z</time></trkpt><trkpt lat="43.7703923" lon="11.3130459"><ele>57.0</ele><time>2026-04-25T07:43:09.741Z</time></trkpt><trkpt lat="43.7705131" lon="11.3131096"><ele>57.6</ele><time>2026-04-25T07:43:10.741Z</time></trkpt><trkpt lat="43.7706155" lon="11.3131671"><ele>58.2</ele><time>2026-04-25T07:43:11.742Z</time></trkpt><trkpt lat="43.7707033" lon="11.3132116"><ele>58.8</ele><time>2026-04-25T07:43:12.742Z</time></trkpt><trkpt lat="43.7707651" lon="11.3132503"><ele>59.4</ele><time>2026-04-25T07:43:13.742Z</time></trkpt><trkpt lat="43.7708355" lon="11.3132801"><ele>60.0</ele><time>2026-04-25T07:43:14.741Z</time></trkpt><trkpt lat="43.7708109" lon="11.3134873"><ele>60.0</ele><time>2026-04-25T07:43:16.743Z</time></trkpt><trkpt lat="43.7707884" lon="11.3136373"><ele>60.0</ele><time>2026-04-25T07:43:17.742Z</time></trkpt><trkpt lat="43.7707747" lon="11.3137727"><ele>60.0</ele><time>2026-04-25T07:43:18.742Z</time></trkpt><trkpt lat="43.7707634" lon="11.3139301"><ele>60.0</ele><time>2026-04-25T07:43:19.741Z</time></trkpt><trkpt lat="43.7707873" lon="11.3140947"><ele>60.0</ele><time>2026-04-25T07:43:20.742Z</time></trkpt><trkpt lat="43.7707999" lon="11.3142705"><ele>60.0</ele><time>2026-04-25T07:43:21.741Z</time></trkpt><trkpt lat="43.7708079" lon="11.3144263"><ele>60.0</ele><time>2026-04-25T07:43:22.741Z</time></trkpt><trkpt lat="43.7708094" lon="11.3145861"><ele>60.0</ele><time>2026-04-25T07:43:23.742Z</time></trkpt><trkpt lat="43.7708082" lon="11.3147469"><ele>60.0</ele><time>2026-04-25T07:43:24.743Z</time></trkpt><trkpt lat="43.7708131" lon="11.3149102"><ele>60.0</ele><time>2026-04-25T07:43:25.741Z</time></trkpt><trkpt lat="43.7708035" lon="11.3150638"><ele>60.0</ele><time>2026-04-25T07:43:26.741Z</time></trkpt><trkpt lat="43.7708186" lon="11.3152195"><ele>60.0</ele><time>2026-04-25T07:43:27.742Z</time></trkpt><trkpt lat="43.7708299" lon="11.315384"><ele>60.0</ele><time>2026-04-25T07:43:28.741Z</time></trkpt><trkpt lat="43.7708503" lon="11.3155497"><ele>59.75</ele><time>2026-04-25T07:43:29.741Z</time></trkpt><trkpt lat="43.7708656" lon="11.3157222"><ele>59.5</ele><time>2026-04-25T07:43:30.741Z</time></trkpt><trkpt lat="43.7708871" lon="11.3158931"><ele>59.25</ele><time>2026-04-25T07:43:31.741Z</time></trkpt><trkpt lat="43.7709071" lon="11.3160651"><ele>59.0</ele><time>2026-04-25T07:43:32.741Z</time></trkpt><trkpt lat="43.770917" lon="11.3162478"><ele>59.25</ele><time>2026-04-25T07:43:33.742Z</time></trkpt><trkpt lat="43.7709356" lon="11.3164329"><ele>59.5</ele><time>2026-04-25T07:43:34.741Z</time></trkpt><trkpt lat="43.7709585" lon="11.3166161"><ele>59.75</ele><time>2026-04-25T07:43:35.743Z</time></trkpt><trkpt lat="43.7709766" lon="11.3168077"><ele>60.0</ele><time>2026-04-25T07:43:36.742Z</time></trkpt><trkpt lat="43.7709928" lon="11.3169985"><ele>60.0</ele><time>2026-04-25T07:43:37.741Z</time></trkpt><trkpt lat="43.7710047" lon="11.3171811"><ele>60.0</ele><time>2026-04-25T07:43:38.741Z</time></trkpt><trkpt lat="43.7710207" lon="11.3173696"><ele>60.0</ele><time>2026-04-25T07:43:39.742Z</time></trkpt><trkpt lat="43.77104" lon="11.3175427"><ele>60.0</ele><time>2026-04-25T07:43:40.742Z</time></trkpt><trkpt lat="43.7710536" lon="11.3177105"><ele>60.75</ele><time>2026-04-25T07:43:41.741Z</time></trkpt><trkpt lat="43.7710669" lon="11.3178864"><ele>61.5</ele><time>2026-04-25T07:43:42.741Z</time></trkpt><trkpt lat="43.7711035" lon="11.3180606"><ele>62.25</ele><time>2026-04-25T07:43:43.741Z</time></trkpt><trkpt lat="43.7711126" lon="11.3182534"><ele>63.0</ele><time>2026-04-25T07:43:44.742Z</time></trkpt><trkpt lat="43.7711396" lon="11.3184362"><ele>63.25</ele><time>2026-04-25T07:43:45.742Z</time></trkpt><trkpt lat="43.7711666" lon="11.3186163"><ele>63.5</ele><time>2026-04-25T07:43:46.741Z</time></trkpt><trkpt lat="43.7711953" lon="11.3187835"><ele>63.75</ele><time>2026-04-25T07:43:47.742Z</time></trkpt><trkpt lat="43.7712139" lon="11.3189448"><ele>64.0</ele><time>2026-04-25T07:43:48.742Z</time></trkpt><trkpt lat="43.7712371" lon="11.3190991"><ele>64.5</ele><time>2026-04-25T07:43:49.743Z</time></trkpt><trkpt lat="43.7712583" lon="11.3192608"><ele>65.0</ele><time>2026-04-25T07:43:50.741Z</time></trkpt><trkpt lat="43.7712922" lon="11.3194135"><ele>65.5</ele><time>2026-04-25T07:43:51.741Z</time></trkpt><trkpt lat="43.77132" lon="11.3195592"><ele>66.0</ele><time>2026-04-25T07:43:52.741Z</time></trkpt><trkpt lat="43.7713502" lon="11.3197087"><ele>66.16666666666667</ele><time>2026-04-25T07:43:53.741Z</time></trkpt><trkpt lat="43.7713979" lon="11.3197971"><ele>66.33333333333333</ele><time>2026-04-25T07:43:54.742Z</time></trkpt><trkpt lat="43.7714252" lon="11.319922"><ele>66.5</ele><time>2026-04-25T07:43:55.742Z</time></trkpt><trkpt lat="43.7714436" lon="11.3200298"><ele>66.66666666666666</ele><time>2026-04-25T07:43:56.741Z</time></trkpt><trkpt lat="43.7714572" lon="11.3201342"><ele>66.83333333333333</ele><time>2026-04-25T07:43:57.742Z</time></trkpt><trkpt lat="43.7714676" lon="11.3202218"><ele>67.0</ele><time>2026-04-25T07:43:58.741Z</time></trkpt><trkpt lat="43.7714729" lon="11.3203956"><ele>67.0</ele><time>2026-04-25T07:44:00.743Z</time></trkpt><trkpt lat="43.7714778" lon="11.3205055"><ele>67.0</ele><time>2026-04-25T07:44:01.742Z</time></trkpt><trkpt lat="43.7714813" lon="11.320634"><ele>67.0</ele><time>2026-04-25T07:44:02.742Z</time></trkpt><trkpt lat="43.7714804" lon="11.3207779"><ele>67.0</ele><time>2026-04-25T07:44:03.743Z</time></trkpt><trkpt lat="43.7714784" lon="11.3209377"><ele>67.0</ele><time>2026-04-25T07:44:04.741Z</time></trkpt><trkpt lat="43.7714783" lon="11.3211002"><ele>66.8</ele><time>2026-04-25T07:44:05.742Z</time></trkpt><trkpt lat="43.7714796" lon="11.3212604"><ele>66.6</ele><time>2026-04-25T07:44:06.741Z</time></trkpt><trkpt lat="43.7714728" lon="11.3214029"><ele>66.39999999999999</ele><time>2026-04-25T07:44:07.741Z</time></trkpt><trkpt lat="43.7714676" lon="11.3215402"><ele>66.2</ele><time>2026-04-25T07:44:08.741Z</time></trkpt><trkpt lat="43.7714565" lon="11.3216836"><ele>66.0</ele><time>2026-04-25T07:44:09.741Z</time></trkpt><trkpt lat="43.7714441" lon="11.3218301"><ele>66.5</ele><time>2026-04-25T07:44:10.741Z</time></trkpt><trkpt lat="43.7714385" lon="11.3219866"><ele>67.0</ele><time>2026-04-25T07:44:11.741Z</time></trkpt><trkpt lat="43.7714381" lon="11.3221215"><ele>67.5</ele><time>2026-04-25T07:44:12.741Z</time></trkpt><trkpt lat="43.7714175" lon="11.3222391"><ele>68.0</ele><time>2026-04-25T07:44:13.742Z</time></trkpt><trkpt lat="43.7714129" lon="11.3223424"><ele>68.5</ele><time>2026-04-25T07:44:14.742Z</time></trkpt><trkpt lat="43.7714098" lon="11.3224388"><ele>69.0</ele><time>2026-04-25T07:44:15.741Z</time></trkpt><trkpt lat="43.7715013" lon="11.3225977"><ele>69.66666666666667</ele><time>2026-04-25T07:44:17.742Z</time></trkpt><trkpt lat="43.7715338" lon="11.322675"><ele>70.33333333333333</ele><time>2026-04-25T07:44:18.742Z</time></trkpt><trkpt lat="43.7715536" lon="11.3227709"><ele>71.0</ele><time>2026-04-25T07:44:19.742Z</time></trkpt><trkpt lat="43.7715723" lon="11.3228641"><ele>71.66666666666666</ele><time>2026-04-25T07:44:20.742Z</time></trkpt><trkpt lat="43.7716251" lon="11.3229908"><ele>72.33333333333333</ele><time>2026-04-25T07:44:22.741Z</time></trkpt><trkpt lat="43.7716616" lon="11.3231053"><ele>73.0</ele><time>2026-04-25T07:44:27.741Z</time></trkpt><trkpt lat="43.7717793" lon="11.3231868"><ele>73.8</ele><time>2026-04-25T07:44:29.742Z</time></trkpt><trkpt lat="43.7718452" lon="11.3232149"><ele>74.6</ele><time>2026-04-25T07:44:30.741Z</time></trkpt><trkpt lat="43.7719447" lon="11.3231944"><ele>75.4</ele><time>2026-04-25T07:44:31.741Z</time></trkpt><trkpt lat="43.7720378" lon="11.3231536"><ele>76.2</ele><time>2026-04-25T07:44:32.742Z</time></trkpt><trkpt lat="43.7721517" lon="11.3230954"><ele>77.0</ele><time>2026-04-25T07:44:33.743Z</time></trkpt><trkpt lat="43.7722526" lon="11.3230359"><ele>77.5</ele><time>2026-04-25T07:44:34.742Z</time></trkpt><trkpt lat="43.7723674" lon="11.3229675"><ele>78.0</ele><time>2026-04-25T07:44:35.742Z</time></trkpt><trkpt lat="43.772493" lon="11.3228951"><ele>78.5</ele><time>2026-04-25T07:44:36.741Z</time></trkpt><trkpt lat="43.7726078" lon="11.3228308"><ele>79.0</ele><time>2026-04-25T07:44:37.741Z</time></trkpt><trkpt lat="43.7727242" lon="11.3227682"><ele>81.0</ele><time>2026-04-25T07:44:38.741Z</time></trkpt><trkpt lat="43.772841" lon="11.3227036"><ele>83.0</ele><time>2026-04-25T07:44:39.742Z</time></trkpt><trkpt lat="43.7729568" lon="11.322635"><ele>85.0</ele><time>2026-04-25T07:44:40.741Z</time></trkpt><trkpt lat="43.7730551" lon="11.3225725"><ele>87.0</ele><time>2026-04-25T07:44:41.741Z</time></trkpt><trkpt lat="43.7731499" lon="11.3225187"><ele>87.0</ele><time>2026-04-25T07:44:42.741Z</time></trkpt><trkpt lat="43.7732364" lon="11.3224778"><ele>87.0</ele><time>2026-04-25T07:44:43.741Z</time></trkpt><trkpt lat="43.77331" lon="11.3224381"><ele>87.0</ele><time>2026-04-25T07:44:44.741Z</time></trkpt><trkpt lat="43.7733736" lon="11.3224139"><ele>87.0</ele><time>2026-04-25T07:44:45.741Z</time></trkpt><trkpt lat="43.7734895" lon="11.3224677"><ele>87.0</ele><time>2026-04-25T07:44:47.742Z</time></trkpt><trkpt lat="43.7735634" lon="11.3225155"><ele>87.0</ele><time>2026-04-25T07:44:48.741Z</time></trkpt><trkpt lat="43.7736492" lon="11.3225699"><ele>89.19999999999999</ele><time>2026-04-25T07:44:49.742Z</time></trkpt><trkpt lat="43.7737403" lon="11.3226311"><ele>91.4</ele><time>2026-04-25T07:44:50.741Z</time></trkpt><trkpt lat="43.7738413" lon="11.3226959"><ele>93.6</ele><time>2026-04-25T07:44:51.742Z</time></trkpt><trkpt lat="43.7739422" lon="11.3227484"><ele>95.80000000000001</ele><time>2026-04-25T07:44:52.741Z</time></trkpt><trkpt lat="43.7740438" lon="11.32281"><ele>98.0</ele><time>2026-04-25T07:44:53.742Z</time></trkpt><trkpt lat="43.7741428" lon="11.3228704"><ele>98.0</ele><time>2026-04-25T07:44:54.741Z</time></trkpt><trkpt lat="43.7742248" lon="11.3229207"><ele>98.0</ele><time>2026-04-25T07:44:55.741Z</time></trkpt><trkpt lat="43.7743094" lon="11.3229713"><ele>98.0</ele><time>2026-04-25T07:44:56.741Z</time></trkpt><trkpt lat="43.7743931" lon="11.3229951"><ele>98.0</ele><time>2026-04-25T07:44:57.741Z</time></trkpt><trkpt lat="43.7744793" lon="11.3230366"><ele>98.0</ele><time>2026-04-25T07:44:58.742Z</time></trkpt><trkpt lat="43.7745948" lon="11.3230475"><ele>100.2</ele><time>2026-04-25T07:44:59.742Z</time></trkpt><trkpt lat="43.7747124" lon="11.3230508"><ele>102.4</ele><time>2026-04-25T07:45:00.742Z</time></trkpt><trkpt lat="43.7748327" lon="11.3230403"><ele>104.60000000000001</ele><time>2026-04-25T07:45:01.741Z</time></trkpt><trkpt lat="43.7749412" lon="11.3230411"><ele>106.80000000000001</ele><time>2026-04-25T07:45:02.741Z</time></trkpt><trkpt lat="43.7750263" lon="11.3230425"><ele>109.0</ele><time>2026-04-25T07:45:03.741Z</time></trkpt><trkpt lat="43.7751532" lon="11.3230508"><ele>111.2</ele><time>2026-04-25T07:45:05.741Z</time></trkpt><trkpt lat="43.7752316" lon="11.3230756"><ele>113.4</ele><time>2026-04-25T07:45:06.742Z</time></trkpt><trkpt lat="43.7753036" lon="11.3231265"><ele>115.6</ele><time>2026-04-25T07:45:07.741Z</time></trkpt><trkpt lat="43.7753764" lon="11.323193"><ele>117.8</ele><time>2026-04-25T07:45:08.741Z</time></trkpt><trkpt lat="43.7754641" lon="11.3232841"><ele>120.0</ele><time>2026-04-25T07:45:09.741Z</time></trkpt><trkpt lat="43.7755535" lon="11.3233773"><ele>120.0</ele><time>2026-04-25T07:45:10.741Z</time></trkpt><trkpt lat="43.7756447" lon="11.323475"><ele>120.0</ele><time>2026-04-25T07:45:11.741Z</time></trkpt><trkpt lat="43.7757401" lon="11.3235761"><ele>120.0</ele><time>2026-04-25T07:45:12.741Z</time></trkpt><trkpt lat="43.7758316" lon="11.3236826"><ele>120.0</ele><time>2026-04-25T07:45:13.741Z</time></trkpt><trkpt lat="43.7759221" lon="11.3237765"><ele>120.0</ele><time>2026-04-25T07:45:14.741Z</time></trkpt><trkpt lat="43.7759942" lon="11.3238492"><ele>120.0</ele><time>2026-04-25T07:45:15.742Z</time></trkpt><trkpt lat="43.7760546" lon="11.3239154"><ele>120.0</ele><time>2026-04-25T07:45:16.742Z</time></trkpt><trkpt lat="43.7761083" lon="11.3239919"><ele>120.0</ele><time>2026-04-25T07:45:17.742Z</time></trkpt><trkpt lat="43.7761755" lon="11.3240663"><ele>120.0</ele><time>2026-04-25T07:45:18.742Z</time></trkpt><trkpt lat="43.7762611" lon="11.3241402"><ele>120.0</ele><time>2026-04-25T07:45:19.742Z</time></trkpt><trkpt lat="43.7763554" lon="11.3242262"><ele>123.5</ele><time>2026-04-25T07:45:20.742Z</time></trkpt><trkpt lat="43.7764366" lon="11.324337"><ele>127.0</ele><time>2026-04-25T07:45:21.741Z</time></trkpt><trkpt lat="43.7765218" lon="11.3244618"><ele>130.5</ele><time>2026-04-25T07:45:22.741Z</time></trkpt><trkpt lat="43.7766126" lon="11.3245915"><ele>134.0</ele><time>2026-04-25T07:45:23.741Z</time></trkpt><trkpt lat="43.7767101" lon="11.3247172"><ele>135.25</ele><time>2026-04-25T07:45:24.742Z</time></trkpt><trkpt lat="43.7768105" lon="11.3248522"><ele>136.5</ele><time>2026-04-25T07:45:25.742Z</time></trkpt><trkpt lat="43.7769029" lon="11.3249863"><ele>137.75</ele><time>2026-04-25T07:45:26.743Z</time></trkpt><trkpt lat="43.7769863" lon="11.3251131"><ele>139.0</ele><time>2026-04-25T07:45:27.741Z</time></trkpt><trkpt lat="43.7770575" lon="11.3252165"><ele>142.0</ele><time>2026-04-25T07:45:28.741Z</time></trkpt><trkpt lat="43.7771301" lon="11.3253316"><ele>145.0</ele><time>2026-04-25T07:45:29.743Z</time></trkpt><trkpt lat="43.7771974" lon="11.3254547"><ele>148.0</ele><time>2026-04-25T07:45:30.742Z</time></trkpt><trkpt lat="43.7772647" lon="11.3255884"><ele>151.0</ele><time>2026-04-25T07:45:31.743Z</time></trkpt><trkpt lat="43.7773389" lon="11.3257233"><ele>151.75</ele><time>2026-04-25T07:45:32.741Z</time></trkpt><trkpt lat="43.7774155" lon="11.3258658"><ele>152.5</ele><time>2026-04-25T07:45:33.741Z</time></trkpt><trkpt lat="43.7774916" lon="11.326012"><ele>153.25</ele><time>2026-04-25T07:45:34.743Z</time></trkpt><trkpt lat="43.7775684" lon="11.3261658"><ele>154.0</ele><time>2026-04-25T07:45:35.742Z</time></trkpt><trkpt lat="43.7776425" lon="11.3263207"><ele>157.5</ele><time>2026-04-25T07:45:36.742Z</time></trkpt><trkpt lat="43.7777116" lon="11.3264717"><ele>161.0</ele><time>2026-04-25T07:45:37.741Z</time></trkpt><trkpt lat="43.7777724" lon="11.3266132"><ele>164.5</ele><time>2026-04-25T07:45:38.741Z</time></trkpt><trkpt lat="43.7778332" lon="11.3267226"><ele>168.0</ele><time>2026-04-25T07:45:39.743Z</time></trkpt><trkpt lat="43.7779076" lon="11.326824"><ele>168.0</ele><time>2026-04-25T07:45:40.741Z</time></trkpt><trkpt lat="43.777981" lon="11.3269347"><ele>168.0</ele><time>2026-04-25T07:45:41.741Z</time></trkpt><trkpt lat="43.7780944" lon="11.3270402"><ele>168.0</ele><time>2026-04-25T07:45:42.742Z</time></trkpt><trkpt lat="43.7781972" lon="11.3271609"><ele>168.0</ele><time>2026-04-25T07:45:43.741Z</time></trkpt><trkpt lat="43.7782868" lon="11.3272626"><ele>169.4</ele><time>2026-04-25T07:45:44.741Z</time></trkpt><trkpt lat="43.7783619" lon="11.3273438"><ele>170.8</ele><time>2026-04-25T07:45:45.741Z</time></trkpt><trkpt lat="43.7784358" lon="11.3274261"><ele>172.2</ele><time>2026-04-25T07:45:46.741Z</time></trkpt><trkpt lat="43.7785238" lon="11.3275181"><ele>173.6</ele><time>2026-04-25T07:45:47.741Z</time></trkpt><trkpt lat="43.7786197" lon="11.3276053"><ele>175.0</ele><time>2026-04-25T07:45:48.741Z</time></trkpt><trkpt lat="43.7787236" lon="11.3276825"><ele>175.16666666666669</ele><time>2026-04-25T07:45:49.741Z</time></trkpt><trkpt lat="43.7787929" lon="11.3277618"><ele>175.33333333333334</ele><time>2026-04-25T07:45:50.741Z</time></trkpt><trkpt lat="43.7788522" lon="11.3278078"><ele>175.5</ele><time>2026-04-25T07:45:51.741Z</time></trkpt><trkpt lat="43.7789016" lon="11.3279054"><ele>175.66666666666666</ele><time>2026-04-25T07:45:53.742Z</time></trkpt><trkpt lat="43.7789045" lon="11.3280355"><ele>175.83333333333331</ele><time>2026-04-25T07:45:55.741Z</time></trkpt><trkpt lat="43.7788915" lon="11.3281413"><ele>176.0</ele><time>2026-04-25T07:45:56.741Z</time></trkpt><trkpt lat="43.7788864" lon="11.3282466"><ele>177.33333333333331</ele><time>2026-04-25T07:45:57.741Z</time></trkpt><trkpt lat="43.7788819" lon="11.3283416"><ele>178.66666666666666</ele><time>2026-04-25T07:45:58.742Z</time></trkpt><trkpt lat="43.7788626" lon="11.3284312"><ele>180.0</ele><time>2026-04-25T07:45:59.741Z</time></trkpt><trkpt lat="43.7788555" lon="11.328523"><ele>181.33333333333334</ele><time>2026-04-25T07:46:02.741Z</time></trkpt><trkpt lat="43.7789732" lon="11.328546"><ele>182.66666666666669</ele><time>2026-04-25T07:46:11.741Z</time></trkpt><trkpt lat="43.7790377" lon="11.3285601"><ele>184.0</ele><time>2026-04-25T07:46:12.742Z</time></trkpt><trkpt lat="43.7791" lon="11.3285793"><ele>184.0</ele><time>2026-04-25T07:46:13.742Z</time></trkpt><trkpt lat="43.7791621" lon="11.3286009"><ele>184.0</ele><time>2026-04-25T07:46:14.741Z</time></trkpt><trkpt lat="43.7792354" lon="11.3286267"><ele>184.0</ele><time>2026-04-25T07:46:15.741Z</time></trkpt><trkpt lat="43.7793106" lon="11.3286528"><ele>184.0</ele><time>2026-04-25T07:46:16.742Z</time></trkpt><trkpt lat="43.7793728" lon="11.328687"><ele>184.0</ele><time>2026-04-25T07:46:17.741Z</time></trkpt><trkpt lat="43.7794358" lon="11.3287389"><ele>184.0</ele><time>2026-04-25T07:46:18.741Z</time></trkpt><trkpt lat="43.7795011" lon="11.3288073"><ele>184.0</ele><time>2026-04-25T07:46:19.742Z</time></trkpt><trkpt lat="43.779572" lon="11.3288786"><ele>186.39999999999998</ele><time>2026-04-25T07:46:20.741Z</time></trkpt><trkpt lat="43.7796388" lon="11.3289558"><ele>188.8</ele><time>2026-04-25T07:46:21.743Z</time></trkpt><trkpt lat="43.7797128" lon="11.3290393"><ele>191.2</ele><time>2026-04-25T07:46:22.742Z</time></trkpt><trkpt lat="43.7797824" lon="11.3291304"><ele>193.60000000000002</ele><time>2026-04-25T07:46:23.742Z</time></trkpt><trkpt lat="43.7798508" lon="11.3292296"><ele>196.0</ele><time>2026-04-25T07:46:24.742Z</time></trkpt><trkpt lat="43.7799107" lon="11.3293088"><ele>195.99999999999997</ele><time>2026-04-25T07:46:25.741Z</time></trkpt><trkpt lat="43.7799844" lon="11.3294033"><ele>196.0</ele><time>2026-04-25T07:46:27.741Z</time></trkpt><trkpt lat="43.7800433" lon="11.3294421"><ele>196.0</ele><time>2026-04-25T07:46:30.741Z</time></trkpt><trkpt lat="43.7800882" lon="11.3293772"><ele>196.0</ele><time>2026-04-25T07:46:33.741Z</time></trkpt><trkpt lat="43.7801154" lon="11.3292341"><ele>195.99999999999997</ele><time>2026-04-25T07:46:35.742Z</time></trkpt><trkpt lat="43.7801957" lon="11.3292308"><ele>196.0</ele><time>2026-04-25T07:46:38.741Z</time></trkpt><trkpt lat="43.7802863" lon="11.3293573"><ele>196.99999999999997</ele><time>2026-04-25T07:46:40.742Z</time></trkpt><trkpt lat="43.7803422" lon="11.3294307"><ele>198.0</ele><time>2026-04-25T07:46:41.742Z</time></trkpt><trkpt lat="43.7804047" lon="11.3295061"><ele>199.0</ele><time>2026-04-25T07:46:42.741Z</time></trkpt><trkpt lat="43.7804706" lon="11.3295983"><ele>200.0</ele><time>2026-04-25T07:46:43.741Z</time></trkpt><trkpt lat="43.7805338" lon="11.3296897"><ele>200.99999999999997</ele><time>2026-04-25T07:46:44.741Z</time></trkpt><trkpt lat="43.7805979" lon="11.329771"><ele>202.0</ele><time>2026-04-25T07:46:45.741Z</time></trkpt><trkpt lat="43.7806571" lon="11.3298421"><ele>203.6</ele><time>2026-04-25T07:46:46.742Z</time></trkpt><trkpt lat="43.7807301" lon="11.3299184"><ele>205.2</ele><time>2026-04-25T07:46:47.741Z</time></trkpt><trkpt lat="43.7808001" lon="11.3299998"><ele>206.8</ele><time>2026-04-25T07:46:48.741Z</time></trkpt><trkpt lat="43.7808515" lon="11.3301093"><ele>208.4</ele><time>2026-04-25T07:46:49.741Z</time></trkpt><trkpt lat="43.7809452" lon="11.3301788"><ele>210.0</ele><time>2026-04-25T07:46:50.741Z</time></trkpt><trkpt lat="43.7810238" lon="11.3302623"><ele>211.4</ele><time>2026-04-25T07:46:51.742Z</time></trkpt><trkpt lat="43.7811146" lon="11.3303367"><ele>212.8</ele><time>2026-04-25T07:46:52.741Z</time></trkpt><trkpt lat="43.7811975" lon="11.3304208"><ele>214.2</ele><time>2026-04-25T07:46:53.741Z</time></trkpt><trkpt lat="43.781288" lon="11.3305034"><ele>215.6</ele><time>2026-04-25T07:46:54.741Z</time></trkpt><trkpt lat="43.7813695" lon="11.3305839"><ele>217.0</ele><time>2026-04-25T07:46:55.742Z</time></trkpt><trkpt lat="43.7814453" lon="11.3306434"><ele>218.16666666666666</ele><time>2026-04-25T07:46:56.741Z</time></trkpt><trkpt lat="43.7815124" lon="11.3307159"><ele>219.33333333333331</ele><time>2026-04-25T07:46:57.743Z</time></trkpt><trkpt lat="43.78159" lon="11.3307749"><ele>220.5</ele><time>2026-04-25T07:46:58.742Z</time></trkpt><trkpt lat="43.781655" lon="11.3308337"><ele>221.66666666666669</ele><time>2026-04-25T07:46:59.741Z</time></trkpt><trkpt lat="43.781705" lon="11.3308961"><ele>222.83333333333334</ele><time>2026-04-25T07:47:00.742Z</time></trkpt><trkpt lat="43.7817395" lon="11.3309699"><ele>224.0</ele><time>2026-04-25T07:47:01.743Z</time></trkpt><trkpt lat="43.7817695" lon="11.3310537"><ele>224.0</ele><time>2026-04-25T07:47:02.741Z</time></trkpt><trkpt lat="43.7817945" lon="11.3311679"><ele>223.99999999999997</ele><time>2026-04-25T07:47:03.741Z</time></trkpt><trkpt lat="43.7818326" lon="11.3312866"><ele>223.99999999999997</ele><time>2026-04-25T07:47:04.742Z</time></trkpt><trkpt lat="43.7818736" lon="11.3314141"><ele>224.0</ele><time>2026-04-25T07:47:05.741Z</time></trkpt><trkpt lat="43.7819122" lon="11.331536"><ele>224.0</ele><time>2026-04-25T07:47:06.742Z</time></trkpt><trkpt lat="43.7819543" lon="11.3316565"><ele>228.2</ele><time>2026-04-25T07:47:07.741Z</time></trkpt><trkpt lat="43.7820136" lon="11.3317724"><ele>232.39999999999998</ele><time>2026-04-25T07:47:08.741Z</time></trkpt><trkpt lat="43.7820757" lon="11.3318879"><ele>236.6</ele><time>2026-04-25T07:47:09.742Z</time></trkpt><trkpt lat="43.7821375" lon="11.3319906"><ele>240.8</ele><time>2026-04-25T07:47:10.741Z</time></trkpt><trkpt lat="43.7821821" lon="11.3320966"><ele>245.0</ele><time>2026-04-25T07:47:11.741Z</time></trkpt><trkpt lat="43.7822168" lon="11.3322115"><ele>245.00000000000003</ele><time>2026-04-25T07:47:12.741Z</time></trkpt><trkpt lat="43.7822585" lon="11.3323226"><ele>245.0</ele><time>2026-04-25T07:47:13.741Z</time></trkpt><trkpt lat="43.7822986" lon="11.3324137"><ele>245.0</ele><time>2026-04-25T07:47:14.741Z</time></trkpt><trkpt lat="43.7823256" lon="11.3325"><ele>245.0</ele><time>2026-04-25T07:47:15.741Z</time></trkpt><trkpt lat="43.7823517" lon="11.3326409"><ele>245.00000000000003</ele><time>2026-04-25T07:47:17.742Z</time></trkpt><trkpt lat="43.7823277" lon="11.3327584"><ele>245.0</ele><time>2026-04-25T07:47:19.741Z</time></trkpt><trkpt lat="43.7822523" lon="11.3328927"><ele>245.0</ele><time>2026-04-25T07:47:21.741Z</time></trkpt><trkpt lat="43.7822118" lon="11.3329738"><ele>245.0</ele><time>2026-04-25T07:47:22.741Z</time></trkpt><trkpt lat="43.7821754" lon="11.3330472"><ele>245.0</ele><time>2026-04-25T07:47:23.741Z</time></trkpt><trkpt lat="43.7821389" lon="11.3331245"><ele>245.0</ele><time>2026-04-25T07:47:24.741Z</time></trkpt><trkpt lat="43.7820992" lon="11.3332123"><ele>245.0</ele><time>2026-04-25T07:47:25.741Z</time></trkpt><trkpt lat="43.7820599" lon="11.3332957"><ele>245.0</ele><time>2026-04-25T07:47:26.741Z</time></trkpt><trkpt lat="43.782004" lon="11.3333851"><ele>245.0</ele><time>2026-04-25T07:47:28.741Z</time></trkpt><trkpt lat="43.7818908" lon="11.3334273"><ele>243.71428571428572</ele><time>2026-04-25T07:47:30.741Z</time></trkpt><trkpt lat="43.7818147" lon="11.3334466"><ele>242.42857142857144</ele><time>2026-04-25T07:47:31.741Z</time></trkpt><trkpt lat="43.7817308" lon="11.3334798"><ele>241.14285714285714</ele><time>2026-04-25T07:47:32.741Z</time></trkpt><trkpt lat="43.7816571" lon="11.3335116"><ele>239.85714285714286</ele><time>2026-04-25T07:47:33.741Z</time></trkpt><trkpt lat="43.7815959" lon="11.3335346"><ele>238.57142857142858</ele><time>2026-04-25T07:47:34.741Z</time></trkpt><trkpt lat="43.7815335" lon="11.3335587"><ele>237.28571428571428</ele><time>2026-04-25T07:47:35.742Z</time></trkpt><trkpt lat="43.7814711" lon="11.3335913"><ele>236.0</ele><time>2026-04-25T07:47:36.742Z</time></trkpt><trkpt lat="43.7814076" lon="11.3336323"><ele>236.0</ele><time>2026-04-25T07:47:37.741Z</time></trkpt><trkpt lat="43.7813422" lon="11.3336919"><ele>236.00000000000003</ele><time>2026-04-25T07:47:38.741Z</time></trkpt><trkpt lat="43.7812505" lon="11.3337578"><ele>236.00000000000003</ele><time>2026-04-25T07:47:39.741Z</time></trkpt><trkpt lat="43.781165" lon="11.3338308"><ele>236.0</ele><time>2026-04-25T07:47:40.741Z</time></trkpt><trkpt lat="43.7810751" lon="11.333908"><ele>236.0</ele><time>2026-04-25T07:47:41.741Z</time></trkpt><trkpt lat="43.7810019" lon="11.3339715"><ele>237.83333333333334</ele><time>2026-04-25T07:47:42.741Z</time></trkpt><trkpt lat="43.7809377" lon="11.3340291"><ele>239.66666666666669</ele><time>2026-04-25T07:47:43.741Z</time></trkpt><trkpt lat="43.7808778" lon="11.3341143"><ele>241.5</ele><time>2026-04-25T07:47:45.741Z</time></trkpt><trkpt lat="43.7809342" lon="11.3341649"><ele>243.33333333333331</ele><time>2026-04-25T07:47:47.741Z</time></trkpt><trkpt lat="43.7810481" lon="11.3341651"><ele>245.16666666666666</ele><time>2026-04-25T07:47:49.742Z</time></trkpt><trkpt lat="43.7811477" lon="11.3341791"><ele>247.0</ele><time>2026-04-25T07:47:50.741Z</time></trkpt><trkpt lat="43.781237" lon="11.3341917"><ele>248.6</ele><time>2026-04-25T07:47:51.742Z</time></trkpt><trkpt lat="43.7813375" lon="11.3342207"><ele>250.2</ele><time>2026-04-25T07:47:52.742Z</time></trkpt><trkpt lat="43.7814375" lon="11.3342609"><ele>251.8</ele><time>2026-04-25T07:47:53.742Z</time></trkpt><trkpt lat="43.7815196" lon="11.3343148"><ele>253.4</ele><time>2026-04-25T07:47:54.741Z</time></trkpt><trkpt lat="43.7816074" lon="11.3343641"><ele>255.0</ele><time>2026-04-25T07:47:55.742Z</time></trkpt><trkpt lat="43.7816861" lon="11.334413"><ele>255.0</ele><time>2026-04-25T07:47:56.741Z</time></trkpt><trkpt lat="43.7817636" lon="11.3344726"><ele>255.0</ele><time>2026-04-25T07:47:57.741Z</time></trkpt><trkpt lat="43.7818263" lon="11.3345353"><ele>255.0</ele><time>2026-04-25T07:47:58.742Z</time></trkpt><trkpt lat="43.7818815" lon="11.3346171"><ele>255.0</ele><time>2026-04-25T07:47:59.741Z</time></trkpt><trkpt lat="43.7819407" lon="11.3347215"><ele>255.0</ele><time>2026-04-25T07:48:00.742Z</time></trkpt><trkpt lat="43.7820018" lon="11.3348352"><ele>255.0</ele><time>2026-04-25T07:48:01.743Z</time></trkpt><trkpt lat="43.7820641" lon="11.3349577"><ele>257.75</ele><time>2026-04-25T07:48:02.743Z</time></trkpt><trkpt lat="43.7821301" lon="11.3350968"><ele>260.5</ele><time>2026-04-25T07:48:03.743Z</time></trkpt><trkpt lat="43.7822249" lon="11.3352599"><ele>263.25</ele><time>2026-04-25T07:48:04.742Z</time></trkpt><trkpt lat="43.7822938" lon="11.3353839"><ele>266.0</ele><time>2026-04-25T07:48:05.742Z</time></trkpt><trkpt lat="43.7823468" lon="11.3354904"><ele>268.75</ele><time>2026-04-25T07:48:06.743Z</time></trkpt><trkpt lat="43.7824659" lon="11.3355754"><ele>271.5</ele><time>2026-04-25T07:48:07.742Z</time></trkpt><trkpt lat="43.7825693" lon="11.3356943"><ele>274.25</ele><time>2026-04-25T07:48:08.742Z</time></trkpt><trkpt lat="43.7826831" lon="11.3358128"><ele>277.0</ele><time>2026-04-25T07:48:09.743Z</time></trkpt><trkpt lat="43.7827875" lon="11.335899"><ele>277.5</ele><time>2026-04-25T07:48:10.742Z</time></trkpt><trkpt lat="43.7828694" lon="11.3359665"><ele>278.0</ele><time>2026-04-25T07:48:11.742Z</time></trkpt><trkpt lat="43.7829367" lon="11.3360125"><ele>278.5</ele><time>2026-04-25T07:48:12.742Z</time></trkpt><trkpt lat="43.7829993" lon="11.336067"><ele>279.0</ele><time>2026-04-25T07:48:14.744Z</time></trkpt><trkpt lat="43.7830776" lon="11.3361186"><ele>279.5</ele><time>2026-04-25T07:48:18.742Z</time></trkpt><trkpt lat="43.7831568" lon="11.3361905"><ele>280.0</ele><time>2026-04-25T07:48:20.742Z</time></trkpt><trkpt lat="43.7832406" lon="11.3362008"><ele>280.0</ele><time>2026-04-25T07:48:25.743Z</time></trkpt><trkpt lat="43.7833546" lon="11.3362696"><ele>280.0</ele><time>2026-04-25T07:48:27.742Z</time></trkpt><trkpt lat="43.7834097" lon="11.3363137"><ele>280.0</ele><time>2026-04-25T07:48:28.742Z</time></trkpt><trkpt lat="43.7835384" lon="11.3363732"><ele>280.0</ele><time>2026-04-25T07:48:30.742Z</time></trkpt><trkpt lat="43.7836121" lon="11.3363997"><ele>280.0</ele><time>2026-04-25T07:48:31.742Z</time></trkpt><trkpt lat="43.7836727" lon="11.3364317"><ele>284.8</ele><time>2026-04-25T07:48:32.742Z</time></trkpt><trkpt lat="43.7837405" lon="11.3364788"><ele>289.6</ele><time>2026-04-25T07:48:33.742Z</time></trkpt><trkpt lat="43.7838376" lon="11.3366211"><ele>294.4</ele><time>2026-04-25T07:48:35.742Z</time></trkpt><trkpt lat="43.7838919" lon="11.3367035"><ele>299.2</ele><time>2026-04-25T07:48:36.743Z</time></trkpt><trkpt lat="43.7839502" lon="11.3367611"><ele>304.0</ele><time>2026-04-25T07:48:37.743Z</time></trkpt><trkpt lat="43.7840258" lon="11.3368195"><ele>304.0</ele><time>2026-04-25T07:48:38.743Z</time></trkpt><trkpt lat="43.7841064" lon="11.3368664"><ele>304.0</ele><time>2026-04-25T07:48:39.742Z</time></trkpt><trkpt lat="43.7841753" lon="11.3369088"><ele>304.0</ele><time>2026-04-25T07:48:40.743Z</time></trkpt><trkpt lat="43.7843129" lon="11.3369483"><ele>304.0</ele><time>2026-04-25T07:48:42.742Z</time></trkpt><trkpt lat="43.7843971" lon="11.3369484"><ele>304.0</ele><time>2026-04-25T07:48:43.743Z</time></trkpt><trkpt lat="43.7844832" lon="11.3369542"><ele>306.4</ele><time>2026-04-25T07:48:44.742Z</time></trkpt><trkpt lat="43.7845557" lon="11.3369621"><ele>308.79999999999995</ele><time>2026-04-25T07:48:45.742Z</time></trkpt><trkpt lat="43.784646" lon="11.3369814"><ele>311.20000000000005</ele><time>2026-04-25T07:48:47.743Z</time></trkpt><trkpt lat="43.7847264" lon="11.3369992"><ele>313.6</ele><time>2026-04-25T07:50:03.743Z</time></trkpt><trkpt lat="43.7848093" lon="11.336967"><ele>316.0</ele><time>2026-04-25T07:50:05.743Z</time></trkpt><trkpt lat="43.784931" lon="11.3369834"><ele>316.0</ele><time>2026-04-25T07:50:07.742Z</time></trkpt><trkpt lat="43.7850043" lon="11.3369846"><ele>316.0</ele><time>2026-04-25T07:50:08.742Z</time></trkpt><trkpt lat="43.785079" lon="11.3369907"><ele>316.0</ele><time>2026-04-25T07:50:09.743Z</time></trkpt><trkpt lat="43.7851508" lon="11.3369988"><ele>316.0</ele><time>2026-04-25T07:50:10.742Z</time></trkpt><trkpt lat="43.785237" lon="11.3369883"><ele>316.0</ele><time>2026-04-25T07:50:11.743Z</time></trkpt><trkpt lat="43.7853215" lon="11.3369806"><ele>316.0</ele><time>2026-04-25T07:50:12.742Z</time></trkpt><trkpt lat="43.7854017" lon="11.3369709"><ele>316.0</ele><time>2026-04-25T07:50:13.743Z</time></trkpt><trkpt lat="43.7855303" lon="11.3369753"><ele>316.0</ele><time>2026-04-25T07:50:15.743Z</time></trkpt><trkpt lat="43.785608" lon="11.3369735"><ele>316.0</ele><time>2026-04-25T07:50:16.742Z</time></trkpt><trkpt lat="43.7856792" lon="11.3369743"><ele>316.0</ele><time>2026-04-25T07:50:17.742Z</time></trkpt><trkpt lat="43.7857521" lon="11.3369909"><ele>316.0</ele><time>2026-04-25T07:50:18.743Z</time></trkpt><trkpt lat="43.7858522" lon="11.3370067"><ele>316.0</ele><time>2026-04-25T07:50:20.743Z</time></trkpt><trkpt lat="43.7859671" lon="11.3370056"><ele>316.0</ele><time>2026-04-25T07:50:22.742Z</time></trkpt><trkpt lat="43.7860356" lon="11.3369894"><ele>316.0</ele><time>2026-04-25T07:50:23.742Z</time></trkpt><trkpt lat="43.7861023" lon="11.3369834"><ele>316.0</ele><time>2026-04-25T07:50:24.742Z</time></trkpt><trkpt lat="43.7861948" lon="11.3369474"><ele>316.0</ele><time>2026-04-25T07:50:25.742Z</time></trkpt><trkpt lat="43.7862751" lon="11.3369159"><ele>316.0</ele><time>2026-04-25T07:50:26.743Z</time></trkpt><trkpt lat="43.7863595" lon="11.3368697"><ele>316.5</ele><time>2026-04-25T07:50:27.742Z</time></trkpt><trkpt lat="43.7864261" lon="11.3368164"><ele>317.0</ele><time>2026-04-25T07:50:28.742Z</time></trkpt><trkpt lat="43.7865026" lon="11.3367841"><ele>317.5</ele><time>2026-04-25T07:50:29.742Z</time></trkpt><trkpt lat="43.7865749" lon="11.3367587"><ele>318.0</ele><time>2026-04-25T07:50:30.742Z</time></trkpt><trkpt lat="43.7866888" lon="11.3367084"><ele>318.5</ele><time>2026-04-25T07:50:32.743Z</time></trkpt><trkpt lat="43.7867432" lon="11.3366464"><ele>319.0</ele><time>2026-04-25T07:50:33.743Z</time></trkpt><trkpt lat="43.7867725" lon="11.336547"><ele>319.0</ele><time>2026-04-25T07:50:34.743Z</time></trkpt><trkpt lat="43.7868274" lon="11.3364433"><ele>319.0</ele><time>2026-04-25T07:50:35.742Z</time></trkpt><trkpt lat="43.7868864" lon="11.3363347"><ele>319.0</ele><time>2026-04-25T07:50:36.742Z</time></trkpt><trkpt lat="43.7869426" lon="11.3362364"><ele>319.0</ele><time>2026-04-25T07:50:37.742Z</time></trkpt><trkpt lat="43.787" lon="11.3361241"><ele>319.0</ele><time>2026-04-25T07:50:38.742Z</time></trkpt><trkpt lat="43.7870587" lon="11.336028"><ele>318.59999999999997</ele><time>2026-04-25T07:50:39.743Z</time></trkpt><trkpt lat="43.7871097" lon="11.3359206"><ele>318.2</ele><time>2026-04-25T07:50:40.742Z</time></trkpt><trkpt lat="43.7871569" lon="11.3358192"><ele>317.79999999999995</ele><time>2026-04-25T07:50:41.743Z</time></trkpt><trkpt lat="43.7872249" lon="11.3357199"><ele>317.4</ele><time>2026-04-25T07:50:42.743Z</time></trkpt><trkpt lat="43.7873051" lon="11.335631"><ele>317.0</ele><time>2026-04-25T07:50:43.743Z</time></trkpt><trkpt lat="43.7873985" lon="11.3355482"><ele>317.0</ele><time>2026-04-25T07:50:44.743Z</time></trkpt><trkpt lat="43.7874991" lon="11.3354412"><ele>317.0</ele><time>2026-04-25T07:50:45.742Z</time></trkpt><trkpt lat="43.7875971" lon="11.3353388"><ele>317.0</ele><time>2026-04-25T07:50:46.742Z</time></trkpt><trkpt lat="43.7876954" lon="11.3352229"><ele>317.0</ele><time>2026-04-25T07:50:47.742Z</time></trkpt><trkpt lat="43.7877862" lon="11.3351172"><ele>317.0</ele><time>2026-04-25T07:50:48.742Z</time></trkpt><trkpt lat="43.787862" lon="11.3350294"><ele>317.0</ele><time>2026-04-25T07:50:49.742Z</time></trkpt><trkpt lat="43.7879322" lon="11.3349285"><ele>317.0</ele><time>2026-04-25T07:50:50.743Z</time></trkpt><trkpt lat="43.7879884" lon="11.334816"><ele>317.0</ele><time>2026-04-25T07:50:51.742Z</time></trkpt><trkpt lat="43.7880471" lon="11.3346847"><ele>317.0</ele><time>2026-04-25T07:50:52.742Z</time></trkpt><trkpt lat="43.7880952" lon="11.3345445"><ele>318.6</ele><time>2026-04-25T07:50:53.742Z</time></trkpt><trkpt lat="43.7881373" lon="11.3344135"><ele>320.2</ele><time>2026-04-25T07:50:54.742Z</time></trkpt><trkpt lat="43.7881722" lon="11.3343147"><ele>321.8</ele><time>2026-04-25T07:50:55.742Z</time></trkpt><trkpt lat="43.7882358" lon="11.3342281"><ele>323.4</ele><time>2026-04-25T07:50:56.743Z</time></trkpt><trkpt lat="43.7883045" lon="11.3341489"><ele>325.0</ele><time>2026-04-25T07:50:57.742Z</time></trkpt><trkpt lat="43.7883834" lon="11.3340699"><ele>325.0</ele><time>2026-04-25T07:50:58.742Z</time></trkpt><trkpt lat="43.7884501" lon="11.3339881"><ele>325.0</ele><time>2026-04-25T07:50:59.743Z</time></trkpt><trkpt lat="43.7885155" lon="11.3339122"><ele>325.0</ele><time>2026-04-25T07:51:00.743Z</time></trkpt><trkpt lat="43.7885679" lon="11.3338279"><ele>325.0</ele><time>2026-04-25T07:51:01.742Z</time></trkpt><trkpt lat="43.7886258" lon="11.3337824"><ele>325.0</ele><time>2026-04-25T07:51:02.742Z</time></trkpt><trkpt lat="43.7887092" lon="11.3337197"><ele>325.0</ele><time>2026-04-25T07:51:03.743Z</time></trkpt><trkpt lat="43.7888113" lon="11.3336804"><ele>324.2</ele><time>2026-04-25T07:51:04.743Z</time></trkpt><trkpt lat="43.7888995" lon="11.3336324"><ele>323.4</ele><time>2026-04-25T07:51:05.743Z</time></trkpt><trkpt lat="43.7889849" lon="11.3336096"><ele>322.6</ele><time>2026-04-25T07:51:06.743Z</time></trkpt><trkpt lat="43.7890912" lon="11.3335961"><ele>321.8</ele><time>2026-04-25T07:51:07.742Z</time></trkpt><trkpt lat="43.7891731" lon="11.3336067"><ele>321.0</ele><time>2026-04-25T07:51:08.742Z</time></trkpt><trkpt lat="43.7892914" lon="11.3336201"><ele>320.75</ele><time>2026-04-25T07:51:09.742Z</time></trkpt><trkpt lat="43.7894094" lon="11.333636"><ele>320.5</ele><time>2026-04-25T07:51:10.742Z</time></trkpt><trkpt lat="43.7894992" lon="11.3336593"><ele>320.25</ele><time>2026-04-25T07:51:11.742Z</time></trkpt><trkpt lat="43.7896344" lon="11.3336523"><ele>320.0</ele><time>2026-04-25T07:51:12.742Z</time></trkpt><trkpt lat="43.7897477" lon="11.3336566"><ele>320.0</ele><time>2026-04-25T07:51:13.744Z</time></trkpt><trkpt lat="43.7898577" lon="11.3336512"><ele>320.0</ele><time>2026-04-25T07:51:14.743Z</time></trkpt><trkpt lat="43.7899738" lon="11.3336502"><ele>320.0</ele><time>2026-04-25T07:51:15.742Z</time></trkpt><trkpt lat="43.7900962" lon="11.3336261"><ele>320.0</ele><time>2026-04-25T07:51:16.743Z</time></trkpt><trkpt lat="43.7901907" lon="11.3336407"><ele>320.0</ele><time>2026-04-25T07:51:17.742Z</time></trkpt><trkpt lat="43.7902731" lon="11.3336374"><ele>319.6</ele><time>2026-04-25T07:51:18.742Z</time></trkpt><trkpt lat="43.7903603" lon="11.33364"><ele>319.2</ele><time>2026-04-25T07:51:19.742Z</time></trkpt><trkpt lat="43.7904808" lon="11.3335749"><ele>318.8</ele><time>2026-04-25T07:51:21.744Z</time></trkpt><trkpt lat="43.7905436" lon="11.3335435"><ele>318.4</ele><time>2026-04-25T07:51:22.743Z</time></trkpt><trkpt lat="43.7905977" lon="11.3334793"><ele>318.0</ele><time>2026-04-25T07:51:26.742Z</time></trkpt><trkpt lat="43.7906337" lon="11.3333501"><ele>318.0</ele><time>2026-04-25T07:51:28.742Z</time></trkpt><trkpt lat="43.7906474" lon="11.3332492"><ele>318.0</ele><time>2026-04-25T07:51:29.742Z</time></trkpt><trkpt lat="43.7906712" lon="11.3331544"><ele>318.0</ele><time>2026-04-25T07:51:30.743Z</time></trkpt><trkpt lat="43.7906975" lon="11.3330035"><ele>318.0</ele><time>2026-04-25T07:51:32.742Z</time></trkpt><trkpt lat="43.790725" lon="11.3329093"><ele>318.0</ele><time>2026-04-25T07:51:34.742Z</time></trkpt><trkpt lat="43.7907979" lon="11.3328379"><ele>318.0</ele><time>2026-04-25T07:51:36.743Z</time></trkpt><trkpt lat="43.7908757" lon="11.3328219"><ele>317.8333333333333</ele><time>2026-04-25T07:51:37.743Z</time></trkpt><trkpt lat="43.7909388" lon="11.332806"><ele>317.6666666666667</ele><time>2026-04-25T07:51:38.743Z</time></trkpt><trkpt lat="43.7910097" lon="11.3328399"><ele>317.5</ele><time>2026-04-25T07:51:40.743Z</time></trkpt><trkpt lat="43.7910803" lon="11.3328673"><ele>317.33333333333337</ele><time>2026-04-25T07:51:43.742Z</time></trkpt><trkpt lat="43.7911535" lon="11.3328925"><ele>317.1666666666667</ele><time>2026-04-25T07:51:45.742Z</time></trkpt><trkpt lat="43.7912876" lon="11.3329337"><ele>317.0</ele><time>2026-04-25T07:51:47.742Z</time></trkpt><trkpt lat="43.7913709" lon="11.3329608"><ele>317.0</ele><time>2026-04-25T07:51:48.742Z</time></trkpt><trkpt lat="43.7914582" lon="11.3329868"><ele>317.0</ele><time>2026-04-25T07:51:49.742Z</time></trkpt><trkpt lat="43.7915365" lon="11.3330212"><ele>317.0</ele><time>2026-04-25T07:51:50.743Z</time></trkpt><trkpt lat="43.7916082" lon="11.3330491"><ele>317.0</ele><time>2026-04-25T07:51:51.742Z</time></trkpt><trkpt lat="43.7916711" lon="11.3330348"><ele>317.0</ele><time>2026-04-25T07:51:52.743Z</time></trkpt><trkpt lat="43.7917851" lon="11.3330246"><ele>317.0</ele><time>2026-04-25T07:51:54.742Z</time></trkpt><trkpt lat="43.7918587" lon="11.3329296"><ele>317.0</ele><time>2026-04-25T07:51:56.742Z</time></trkpt><trkpt lat="43.7919575" lon="11.3328526"><ele>317.0</ele><time>2026-04-25T07:51:58.742Z</time></trkpt><trkpt lat="43.7920632" lon="11.3327531"><ele>317.0</ele><time>2026-04-25T07:52:00.743Z</time></trkpt><trkpt lat="43.7921233" lon="11.3327077"><ele>317.0</ele><time>2026-04-25T07:52:01.743Z</time></trkpt><trkpt lat="43.7922516" lon="11.3326255"><ele>317.0</ele><time>2026-04-25T07:52:03.742Z</time></trkpt><trkpt lat="43.7923167" lon="11.3326154"><ele>317.0</ele><time>2026-04-25T07:52:04.742Z</time></trkpt><trkpt lat="43.7924001" lon="11.3326327"><ele>317.0</ele><time>2026-04-25T07:52:05.742Z</time></trkpt><trkpt lat="43.7924652" lon="11.3326853"><ele>317.0</ele><time>2026-04-25T07:52:06.742Z</time></trkpt><trkpt lat="43.7925396" lon="11.3327469"><ele>317.0</ele><time>2026-04-25T07:52:07.742Z</time></trkpt><trkpt lat="43.7926134" lon="11.3328518"><ele>317.0</ele><time>2026-04-25T07:52:08.742Z</time></trkpt><trkpt lat="43.792684" lon="11.3329561"><ele>315.0</ele><time>2026-04-25T07:52:09.743Z</time></trkpt><trkpt lat="43.7927451" lon="11.3330717"><ele>313.0</ele><time>2026-04-25T07:52:10.742Z</time></trkpt><trkpt lat="43.7928176" lon="11.3331859"><ele>311.0</ele><time>2026-04-25T07:52:11.742Z</time></trkpt><trkpt lat="43.7928807" lon="11.3332902"><ele>309.0</ele><time>2026-04-25T07:52:12.742Z</time></trkpt><trkpt lat="43.7929361" lon="11.333389"><ele>307.0</ele><time>2026-04-25T07:52:13.742Z</time></trkpt><trkpt lat="43.7929948" lon="11.333465"><ele>307.0</ele><time>2026-04-25T07:52:14.742Z</time></trkpt><trkpt lat="43.7930664" lon="11.3335364"><ele>307.0</ele><time>2026-04-25T07:52:15.743Z</time></trkpt><trkpt lat="43.7931395" lon="11.3336126"><ele>307.0</ele><time>2026-04-25T07:52:16.744Z</time></trkpt><trkpt lat="43.7932171" lon="11.3336894"><ele>307.0</ele><time>2026-04-25T07:52:17.743Z</time></trkpt><trkpt lat="43.7932964" lon="11.3337643"><ele>307.0</ele><time>2026-04-25T07:52:18.743Z</time></trkpt><trkpt lat="43.7933699" lon="11.3338332"><ele>304.8</ele><time>2026-04-25T07:52:19.742Z</time></trkpt><trkpt lat="43.7934416" lon="11.3338978"><ele>302.6</ele><time>2026-04-25T07:52:20.742Z</time></trkpt><trkpt lat="43.7935177" lon="11.3339655"><ele>300.40000000000003</ele><time>2026-04-25T07:52:21.742Z</time></trkpt><trkpt lat="43.793595" lon="11.3339999"><ele>298.2</ele><time>2026-04-25T07:52:22.743Z</time></trkpt><trkpt lat="43.7936944" lon="11.3340413"><ele>296.0</ele><time>2026-04-25T07:52:23.742Z</time></trkpt><trkpt lat="43.7937864" lon="11.3340358"><ele>295.8</ele><time>2026-04-25T07:52:24.743Z</time></trkpt><trkpt lat="43.7938819" lon="11.3340624"><ele>295.6</ele><time>2026-04-25T07:52:25.742Z</time></trkpt><trkpt lat="43.7939767" lon="11.3340545"><ele>295.4</ele><time>2026-04-25T07:52:26.742Z</time></trkpt><trkpt lat="43.7940618" lon="11.3340579"><ele>295.2</ele><time>2026-04-25T07:52:27.743Z</time></trkpt><trkpt lat="43.7941614" lon="11.3340429"><ele>295.0</ele><time>2026-04-25T07:52:28.743Z</time></trkpt><trkpt lat="43.7942541" lon="11.3340394"><ele>291.4</ele><time>2026-04-25T07:52:29.742Z</time></trkpt><trkpt lat="43.7943539" lon="11.3340561"><ele>287.8</ele><time>2026-04-25T07:52:30.742Z</time></trkpt><trkpt lat="43.7944484" lon="11.334055"><ele>284.2</ele><time>2026-04-25T07:52:31.742Z</time></trkpt><trkpt lat="43.7945426" lon="11.3340379"><ele>280.6</ele><time>2026-04-25T07:52:32.742Z</time></trkpt><trkpt lat="43.794628" lon="11.3340208"><ele>277.0</ele><time>2026-04-25T07:52:33.742Z</time></trkpt><trkpt lat="43.7947237" lon="11.3340067"><ele>277.0</ele><time>2026-04-25T07:52:34.743Z</time></trkpt><trkpt lat="43.7948115" lon="11.3339923"><ele>277.0</ele><time>2026-04-25T07:52:35.743Z</time></trkpt><trkpt lat="43.7949134" lon="11.3339833"><ele>277.0</ele><time>2026-04-25T07:52:36.742Z</time></trkpt><trkpt lat="43.7950167" lon="11.3339692"><ele>277.0</ele><time>2026-04-25T07:52:37.742Z</time></trkpt><trkpt lat="43.7951089" lon="11.3339525"><ele>277.0</ele><time>2026-04-25T07:52:38.742Z</time></trkpt><trkpt lat="43.7951953" lon="11.3339293"><ele>276.8333333333333</ele><time>2026-04-25T07:52:39.742Z</time></trkpt><trkpt lat="43.7952821" lon="11.3339006"><ele>276.66666666666663</ele><time>2026-04-25T07:52:40.743Z</time></trkpt><trkpt lat="43.7953711" lon="11.3338687"><ele>276.5</ele><time>2026-04-25T07:52:41.743Z</time></trkpt><trkpt lat="43.7954576" lon="11.333841"><ele>276.3333333333333</ele><time>2026-04-25T07:52:42.742Z</time></trkpt><trkpt lat="43.7955408" lon="11.3338165"><ele>276.1666666666667</ele><time>2026-04-25T07:52:43.742Z</time></trkpt><trkpt lat="43.7956275" lon="11.3337915"><ele>276.0</ele><time>2026-04-25T07:52:44.742Z</time></trkpt><trkpt lat="43.795719" lon="11.333763"><ele>276.0</ele><time>2026-04-25T07:52:45.742Z</time></trkpt><trkpt lat="43.7958067" lon="11.3337394"><ele>276.0</ele><time>2026-04-25T07:52:46.743Z</time></trkpt><trkpt lat="43.7958953" lon="11.3337239"><ele>276.0</ele><time>2026-04-25T07:52:47.742Z</time></trkpt><trkpt lat="43.7959843" lon="11.3337179"><ele>276.0</ele><time>2026-04-25T07:52:48.744Z</time></trkpt><trkpt lat="43.7960667" lon="11.3337084"><ele>276.0</ele><time>2026-04-25T07:52:49.742Z</time></trkpt><trkpt lat="43.7961403" lon="11.3337196"><ele>276.0</ele><time>2026-04-25T07:52:50.742Z</time></trkpt><trkpt lat="43.796203" lon="11.3337321"><ele>275.1666666666667</ele><time>2026-04-25T07:52:51.742Z</time></trkpt><trkpt lat="43.7962592" lon="11.3337745"><ele>274.3333333333333</ele><time>2026-04-25T07:52:52.743Z</time></trkpt><trkpt lat="43.7963098" lon="11.3338329"><ele>273.5</ele><time>2026-04-25T07:52:53.743Z</time></trkpt><trkpt lat="43.7963848" lon="11.3339277"><ele>272.66666666666663</ele><time>2026-04-25T07:52:55.742Z</time></trkpt><trkpt lat="43.7964758" lon="11.3338974"><ele>271.8333333333333</ele><time>2026-04-25T07:52:57.742Z</time></trkpt><trkpt lat="43.7965479" lon="11.3337617"><ele>271.0</ele><time>2026-04-25T07:52:59.743Z</time></trkpt><trkpt lat="43.7966661" lon="11.3337296"><ele>271.0</ele><time>2026-04-25T07:53:01.742Z</time></trkpt><trkpt lat="43.7967602" lon="11.3337203"><ele>271.0</ele><time>2026-04-25T07:53:02.743Z</time></trkpt><trkpt lat="43.7968432" lon="11.3337679"><ele>271.0</ele><time>2026-04-25T07:53:03.743Z</time></trkpt><trkpt lat="43.796937" lon="11.333787"><ele>271.0</ele><time>2026-04-25T07:53:04.742Z</time></trkpt><trkpt lat="43.7970222" lon="11.3338226"><ele>271.0</ele><time>2026-04-25T07:53:05.743Z</time></trkpt><trkpt lat="43.7971048" lon="11.3338805"><ele>268.85714285714283</ele><time>2026-04-25T07:53:06.742Z</time></trkpt><trkpt lat="43.7971744" lon="11.3339506"><ele>266.7142857142857</ele><time>2026-04-25T07:53:07.743Z</time></trkpt><trkpt lat="43.7972329" lon="11.3339948"><ele>264.57142857142856</ele><time>2026-04-25T07:53:08.743Z</time></trkpt><trkpt lat="43.7972899" lon="11.3340442"><ele>262.42857142857144</ele><time>2026-04-25T07:53:09.742Z</time></trkpt><trkpt lat="43.797333" lon="11.3341094"><ele>260.2857142857143</ele><time>2026-04-25T07:53:10.742Z</time></trkpt><trkpt lat="43.7973854" lon="11.3341759"><ele>258.1428571428571</ele><time>2026-04-25T07:53:11.743Z</time></trkpt><trkpt lat="43.7974337" lon="11.3342392"><ele>256.0</ele><time>2026-04-25T07:53:12.742Z</time></trkpt><trkpt lat="43.7975213" lon="11.334332"><ele>256.0</ele><time>2026-04-25T07:53:14.743Z</time></trkpt><trkpt lat="43.7975952" lon="11.3344762"><ele>256.0</ele><time>2026-04-25T07:53:16.744Z</time></trkpt><trkpt lat="43.797634" lon="11.3345742"><ele>256.0</ele><time>2026-04-25T07:53:17.742Z</time></trkpt><trkpt lat="43.7976729" lon="11.3346681"><ele>256.0</ele><time>2026-04-25T07:53:18.742Z</time></trkpt><trkpt lat="43.7977158" lon="11.3347408"><ele>256.0</ele><time>2026-04-25T07:53:19.743Z</time></trkpt><trkpt lat="43.7978057" lon="11.3347914"><ele>253.8</ele><time>2026-04-25T07:53:21.743Z</time></trkpt><trkpt lat="43.7978672" lon="11.3347436"><ele>251.60000000000002</ele><time>2026-04-25T07:53:22.742Z</time></trkpt><trkpt lat="43.7979148" lon="11.3345492"><ele>249.4</ele><time>2026-04-25T07:53:24.742Z</time></trkpt><trkpt lat="43.7978866" lon="11.3344052"><ele>247.2</ele><time>2026-04-25T07:53:25.742Z</time></trkpt><trkpt lat="43.7979181" lon="11.3342739"><ele>245.0</ele><time>2026-04-25T07:53:26.742Z</time></trkpt><trkpt lat="43.7979335" lon="11.3341599"><ele>245.0</ele><time>2026-04-25T07:53:27.743Z</time></trkpt><trkpt lat="43.797954" lon="11.3340562"><ele>245.0</ele><time>2026-04-25T07:53:28.742Z</time></trkpt><trkpt lat="43.7979911" lon="11.3339522"><ele>245.0</ele><time>2026-04-25T07:53:29.743Z</time></trkpt><trkpt lat="43.7980349" lon="11.33387"><ele>245.0</ele><time>2026-04-25T07:53:30.743Z</time></trkpt><trkpt lat="43.7981285" lon="11.333793"><ele>245.0</ele><time>2026-04-25T07:53:32.742Z</time></trkpt><trkpt lat="43.7982348" lon="11.3338711"><ele>245.00000000000003</ele><time>2026-04-25T07:53:34.742Z</time></trkpt><trkpt lat="43.7982467" lon="11.3340022"><ele>245.0</ele><time>2026-04-25T07:53:35.742Z</time></trkpt><trkpt lat="43.7982533" lon="11.3341139"><ele>245.0</ele><time>2026-04-25T07:53:36.742Z</time></trkpt><trkpt lat="43.798252" lon="11.3342226"><ele>245.0</ele><time>2026-04-25T07:53:37.743Z</time></trkpt><trkpt lat="43.7982269" lon="11.3343282"><ele>245.00000000000003</ele><time>2026-04-25T07:53:38.742Z</time></trkpt><trkpt lat="43.7981985" lon="11.3344319"><ele>245.0</ele><time>2026-04-25T07:53:39.742Z</time></trkpt><trkpt lat="43.7981729" lon="11.3345296"><ele>245.00000000000003</ele><time>2026-04-25T07:53:40.742Z</time></trkpt><trkpt lat="43.7981611" lon="11.3346525"><ele>245.0</ele><time>2026-04-25T07:53:41.742Z</time></trkpt><trkpt lat="43.798175" lon="11.3347908"><ele>245.0</ele><time>2026-04-25T07:53:42.742Z</time></trkpt><trkpt lat="43.7982066" lon="11.3349113"><ele>245.0</ele><time>2026-04-25T07:53:43.742Z</time></trkpt><trkpt lat="43.7982359" lon="11.3350161"><ele>245.00000000000003</ele><time>2026-04-25T07:53:44.743Z</time></trkpt><trkpt lat="43.7982885" lon="11.3351021"><ele>245.0</ele><time>2026-04-25T07:53:45.743Z</time></trkpt><trkpt lat="43.7983577" lon="11.3351812"><ele>244.4</ele><time>2026-04-25T07:53:46.743Z</time></trkpt><trkpt lat="43.798434" lon="11.3352497"><ele>243.8</ele><time>2026-04-25T07:53:47.742Z</time></trkpt><trkpt lat="43.7985149" lon="11.3353192"><ele>243.2</ele><time>2026-04-25T07:53:48.742Z</time></trkpt><trkpt lat="43.7985892" lon="11.335392"><ele>242.6</ele><time>2026-04-25T07:53:49.743Z</time></trkpt><trkpt lat="43.7986621" lon="11.335452"><ele>242.0</ele><time>2026-04-25T07:53:50.743Z</time></trkpt><trkpt lat="43.7987438" lon="11.3355111"><ele>242.0</ele><time>2026-04-25T07:53:51.742Z</time></trkpt><trkpt lat="43.7988376" lon="11.3355501"><ele>242.0</ele><time>2026-04-25T07:53:52.743Z</time></trkpt><trkpt lat="43.7989441" lon="11.3355782"><ele>242.0</ele><time>2026-04-25T07:53:53.743Z</time></trkpt><trkpt lat="43.7990546" lon="11.335605"><ele>242.0</ele><time>2026-04-25T07:53:54.743Z</time></trkpt><trkpt lat="43.7991672" lon="11.3356351"><ele>242.0</ele><time>2026-04-25T07:53:55.743Z</time></trkpt><trkpt lat="43.7992737" lon="11.3356881"><ele>242.25</ele><time>2026-04-25T07:53:56.743Z</time></trkpt><trkpt lat="43.7993875" lon="11.3357487"><ele>242.5</ele><time>2026-04-25T07:53:57.743Z</time></trkpt><trkpt lat="43.7995061" lon="11.3358211"><ele>242.75</ele><time>2026-04-25T07:53:58.743Z</time></trkpt><trkpt lat="43.7996446" lon="11.3359125"><ele>243.0</ele><time>2026-04-25T07:53:59.744Z</time></trkpt><trkpt lat="43.7997759" lon="11.3359938"><ele>243.0</ele><time>2026-04-25T07:54:00.742Z</time></trkpt><trkpt lat="43.7998741" lon="11.3360678"><ele>243.0</ele><time>2026-04-25T07:54:01.742Z</time></trkpt><trkpt lat="43.7999648" lon="11.3361047"><ele>243.0</ele><time>2026-04-25T07:54:02.742Z</time></trkpt><trkpt lat="43.8000252" lon="11.3361431"><ele>243.0</ele><time>2026-04-25T07:54:03.743Z</time></trkpt><trkpt lat="43.8000906" lon="11.3362359"><ele>243.0</ele><time>2026-04-25T07:54:05.743Z</time></trkpt><trkpt lat="43.8001001" lon="11.3363797"><ele>243.0</ele><time>2026-04-25T07:54:07.742Z</time></trkpt><trkpt lat="43.8001013" lon="11.3365241"><ele>243.0</ele><time>2026-04-25T07:54:09.742Z</time></trkpt><trkpt lat="43.8001115" lon="11.3366636"><ele>243.0</ele><time>2026-04-25T07:54:11.743Z</time></trkpt><trkpt lat="43.8001919" lon="11.336769"><ele>243.0</ele><time>2026-04-25T07:54:13.742Z</time></trkpt><trkpt lat="43.8002983" lon="11.3368337"><ele>243.0</ele><time>2026-04-25T07:54:15.743Z</time></trkpt><trkpt lat="43.8004125" lon="11.3368509"><ele>243.0</ele><time>2026-04-25T07:54:17.742Z</time></trkpt><trkpt lat="43.8005313" lon="11.3368005"><ele>243.0</ele><time>2026-04-25T07:54:19.742Z</time></trkpt><trkpt lat="43.8005926" lon="11.3367676"><ele>243.0</ele><time>2026-04-25T07:54:20.743Z</time></trkpt><trkpt lat="43.8006894" lon="11.3367066"><ele>243.0</ele><time>2026-04-25T07:54:22.743Z</time></trkpt><trkpt lat="43.8007896" lon="11.3367395"><ele>243.0</ele><time>2026-04-25T07:54:24.742Z</time></trkpt><trkpt lat="43.8008327" lon="11.33693"><ele>243.0</ele><time>2026-04-25T07:54:26.742Z</time></trkpt><trkpt lat="43.800888" lon="11.3370524"><ele>243.0</ele><time>2026-04-25T07:54:27.742Z</time></trkpt><trkpt lat="43.8009393" lon="11.3371513"><ele>243.0</ele><time>2026-04-25T07:54:28.742Z</time></trkpt><trkpt lat="43.8009941" lon="11.3372462"><ele>243.0</ele><time>2026-04-25T07:54:29.744Z</time></trkpt><trkpt lat="43.8010308" lon="11.3373262"><ele>243.0</ele><time>2026-04-25T07:54:30.743Z</time></trkpt><trkpt lat="43.8010557" lon="11.3374568"><ele>243.0</ele><time>2026-04-25T07:54:32.742Z</time></trkpt><trkpt lat="43.8010442" lon="11.3375759"><ele>241.33333333333334</ele><time>2026-04-25T07:54:33.742Z</time></trkpt><trkpt lat="43.8010327" lon="11.3376719"><ele>239.66666666666669</ele><time>2026-04-25T07:54:34.742Z</time></trkpt><trkpt lat="43.8010543" lon="11.3377549"><ele>238.0</ele><time>2026-04-25T07:54:35.743Z</time></trkpt><trkpt lat="43.801092" lon="11.3378367"><ele>236.33333333333334</ele><time>2026-04-25T07:54:36.743Z</time></trkpt><trkpt lat="43.801138" lon="11.337912"><ele>234.66666666666669</ele><time>2026-04-25T07:54:37.742Z</time></trkpt><trkpt lat="43.8012386" lon="11.3379871"><ele>233.0</ele><time>2026-04-25T07:54:38.742Z</time></trkpt><trkpt lat="43.8013211" lon="11.3380581"><ele>231.71428571428572</ele><time>2026-04-25T07:54:39.743Z</time></trkpt><trkpt lat="43.8014041" lon="11.3381126"><ele>230.42857142857142</ele><time>2026-04-25T07:54:40.743Z</time></trkpt><trkpt lat="43.8014793" lon="11.3381674"><ele>229.14285714285714</ele><time>2026-04-25T07:54:41.742Z</time></trkpt><trkpt lat="43.801547" lon="11.3381894"><ele>227.85714285714286</ele><time>2026-04-25T07:54:42.743Z</time></trkpt><trkpt lat="43.8016067" lon="11.338218"><ele>226.57142857142856</ele><time>2026-04-25T07:54:43.743Z</time></trkpt><trkpt lat="43.8016698" lon="11.3382357"><ele>225.28571428571428</ele><time>2026-04-25T07:54:44.744Z</time></trkpt><trkpt lat="43.8017351" lon="11.3382574"><ele>224.0</ele><time>2026-04-25T07:54:45.744Z</time></trkpt><trkpt lat="43.8017941" lon="11.3382912"><ele>224.00000000000003</ele><time>2026-04-25T07:54:46.743Z</time></trkpt><trkpt lat="43.801868" lon="11.3383315"><ele>224.0</ele><time>2026-04-25T07:54:47.742Z</time></trkpt><trkpt lat="43.8019269" lon="11.3383669"><ele>224.0</ele><time>2026-04-25T07:54:48.743Z</time></trkpt><trkpt lat="43.802025" lon="11.3384026"><ele>224.0</ele><time>2026-04-25T07:54:50.743Z</time></trkpt><trkpt lat="43.8020986" lon="11.3384502"><ele>224.00000000000003</ele><time>2026-04-25T07:54:52.742Z</time></trkpt><trkpt lat="43.8021768" lon="11.33844"><ele>224.0</ele><time>2026-04-25T07:54:57.742Z</time></trkpt><trkpt lat="43.8022244" lon="11.3385415"><ele>224.00000000000003</ele><time>2026-04-25T07:55:00.743Z</time></trkpt><trkpt lat="43.8022035" lon="11.3386277"><ele>224.0</ele><time>2026-04-25T07:55:01.742Z</time></trkpt><trkpt lat="43.8021879" lon="11.3387386"><ele>224.0</ele><time>2026-04-25T07:55:03.743Z</time></trkpt><trkpt lat="43.8021622" lon="11.338831"><ele>224.0</ele><time>2026-04-25T07:55:06.742Z</time></trkpt><trkpt lat="43.8021194" lon="11.338943"><ele>224.00000000000003</ele><time>2026-04-25T07:55:08.743Z</time></trkpt><trkpt lat="43.8020639" lon="11.3390274"><ele>224.0</ele><time>2026-04-25T07:55:09.742Z</time></trkpt><trkpt lat="43.8020059" lon="11.3391211"><ele>223.75</ele><time>2026-04-25T07:55:10.743Z</time></trkpt><trkpt lat="43.8019404" lon="11.3392522"><ele>223.5</ele><time>2026-04-25T07:55:11.742Z</time></trkpt><trkpt lat="43.801886" lon="11.3393768"><ele>223.25</ele><time>2026-04-25T07:55:12.742Z</time></trkpt><trkpt lat="43.8018275" lon="11.3395364"><ele>223.0</ele><time>2026-04-25T07:55:13.743Z</time></trkpt><trkpt lat="43.8017648" lon="11.3396951"><ele>225.8</ele><time>2026-04-25T07:55:14.742Z</time></trkpt><trkpt lat="43.8017166" lon="11.3398188"><ele>228.60000000000002</ele><time>2026-04-25T07:55:15.742Z</time></trkpt><trkpt lat="43.8016706" lon="11.3399533"><ele>231.39999999999998</ele><time>2026-04-25T07:55:16.742Z</time></trkpt><trkpt lat="43.801601" lon="11.3400502"><ele>234.2</ele><time>2026-04-25T07:55:17.743Z</time></trkpt><trkpt lat="43.801535" lon="11.3401354"><ele>237.0</ele><time>2026-04-25T07:55:18.742Z</time></trkpt><trkpt lat="43.8014628" lon="11.3402337"><ele>237.0</ele><time>2026-04-25T07:55:19.742Z</time></trkpt><trkpt lat="43.801384" lon="11.3403275"><ele>237.0</ele><time>2026-04-25T07:55:20.742Z</time></trkpt><trkpt lat="43.8012912" lon="11.3404223"><ele>237.0</ele><time>2026-04-25T07:55:21.742Z</time></trkpt><trkpt lat="43.8011797" lon="11.3405047"><ele>237.0</ele><time>2026-04-25T07:55:22.743Z</time></trkpt><trkpt lat="43.8010972" lon="11.3405931"><ele>234.39999999999998</ele><time>2026-04-25T07:55:23.743Z</time></trkpt><trkpt lat="43.8010234" lon="11.3407143"><ele>231.79999999999998</ele><time>2026-04-25T07:55:24.743Z</time></trkpt><trkpt lat="43.8009567" lon="11.3408144"><ele>229.2</ele><time>2026-04-25T07:55:25.742Z</time></trkpt><trkpt lat="43.8008981" lon="11.3409209"><ele>226.6</ele><time>2026-04-25T07:55:26.742Z</time></trkpt><trkpt lat="43.80086" lon="11.3410339"><ele>224.0</ele><time>2026-04-25T07:55:27.743Z</time></trkpt><trkpt lat="43.8008136" lon="11.3411694"><ele>224.00000000000003</ele><time>2026-04-25T07:55:28.743Z</time></trkpt><trkpt lat="43.8007801" lon="11.3412868"><ele>224.0</ele><time>2026-04-25T07:55:29.743Z</time></trkpt><trkpt lat="43.8007778" lon="11.34139"><ele>224.0</ele><time>2026-04-25T07:55:30.743Z</time></trkpt><trkpt lat="43.8007585" lon="11.3414974"><ele>224.0</ele><time>2026-04-25T07:55:31.742Z</time></trkpt><trkpt lat="43.800724" lon="11.3415768"><ele>224.00000000000003</ele><time>2026-04-25T07:55:32.742Z</time></trkpt><trkpt lat="43.8006842" lon="11.3416739"><ele>224.0</ele><time>2026-04-25T07:55:33.744Z</time></trkpt><trkpt lat="43.8006381" lon="11.3417934"><ele>227.79999999999998</ele><time>2026-04-25T07:55:34.744Z</time></trkpt><trkpt lat="43.8005918" lon="11.3418986"><ele>231.59999999999997</ele><time>2026-04-25T07:55:35.742Z</time></trkpt><trkpt lat="43.8005437" lon="11.3419916"><ele>235.4</ele><time>2026-04-25T07:55:36.743Z</time></trkpt><trkpt lat="43.8005101" lon="11.3421345"><ele>239.2</ele><time>2026-04-25T07:55:38.742Z</time></trkpt><trkpt lat="43.800424" lon="11.3422069"><ele>243.0</ele><time>2026-04-25T07:55:39.742Z</time></trkpt><trkpt lat="43.8003543" lon="11.3422626"><ele>243.66666666666666</ele><time>2026-04-25T07:55:40.742Z</time></trkpt><trkpt lat="43.8002845" lon="11.3423205"><ele>244.33333333333331</ele><time>2026-04-25T07:55:41.742Z</time></trkpt><trkpt lat="43.8002381" lon="11.342423"><ele>245.0</ele><time>2026-04-25T07:55:42.743Z</time></trkpt><trkpt lat="43.800135" lon="11.3425305"><ele>245.66666666666666</ele><time>2026-04-25T07:55:44.742Z</time></trkpt><trkpt lat="43.8000886" lon="11.342603"><ele>246.33333333333331</ele><time>2026-04-25T07:55:45.742Z</time></trkpt><trkpt lat="43.8000463" lon="11.3426753"><ele>247.0</ele><time>2026-04-25T07:55:46.742Z</time></trkpt><trkpt lat="43.79997" lon="11.3427714"><ele>246.99999999999997</ele><time>2026-04-25T07:55:48.742Z</time></trkpt><trkpt lat="43.7999191" lon="11.3428233"><ele>247.0</ele><time>2026-04-25T07:55:51.742Z</time></trkpt><trkpt lat="43.799869" lon="11.3428796"><ele>247.0</ele><time>2026-04-25T07:55:53.742Z</time></trkpt><trkpt lat="43.7997876" lon="11.3429627"><ele>247.0</ele><time>2026-04-25T07:55:56.742Z</time></trkpt><trkpt lat="43.7996968" lon="11.3430629"><ele>246.99999999999997</ele><time>2026-04-25T07:55:58.743Z</time></trkpt><trkpt lat="43.7996247" lon="11.3431476"><ele>247.0</ele><time>2026-04-25T07:56:00.742Z</time></trkpt><trkpt lat="43.7995636" lon="11.3432069"><ele>247.33333333333331</ele><time>2026-04-25T07:56:02.742Z</time></trkpt><trkpt lat="43.7995167" lon="11.3432816"><ele>247.66666666666666</ele><time>2026-04-25T07:56:04.742Z</time></trkpt><trkpt lat="43.799456" lon="11.3433609"><ele>248.0</ele><time>2026-04-25T07:56:07.743Z</time></trkpt><trkpt lat="43.7994082" lon="11.3434568"><ele>248.33333333333331</ele><time>2026-04-25T07:56:09.742Z</time></trkpt><trkpt lat="43.7993684" lon="11.3435351"><ele>248.66666666666666</ele><time>2026-04-25T07:56:10.742Z</time></trkpt><trkpt lat="43.79933" lon="11.3436251"><ele>249.0</ele><time>2026-04-25T07:56:11.742Z</time></trkpt><trkpt lat="43.7992417" lon="11.3437589"><ele>251.6</ele><time>2026-04-25T07:56:12.742Z</time></trkpt><trkpt lat="43.7991677" lon="11.3438877"><ele>254.2</ele><time>2026-04-25T07:56:13.742Z</time></trkpt><trkpt lat="43.7990889" lon="11.344009"><ele>256.79999999999995</ele><time>2026-04-25T07:56:14.744Z</time></trkpt><trkpt lat="43.7990117" lon="11.3441091"><ele>259.4</ele><time>2026-04-25T07:56:15.744Z</time></trkpt><trkpt lat="43.79894" lon="11.3441998"><ele>262.0</ele><time>2026-04-25T07:56:16.743Z</time></trkpt><trkpt lat="43.7988691" lon="11.3442527"><ele>262.0</ele><time>2026-04-25T07:56:17.743Z</time></trkpt><trkpt lat="43.7987912" lon="11.3442956"><ele>262.0</ele><time>2026-04-25T07:56:19.743Z</time></trkpt><trkpt lat="43.7987592" lon="11.3444142"><ele>262.0</ele><time>2026-04-25T07:56:31.741Z</time></trkpt><trkpt lat="43.7987582" lon="11.3445689"><ele>262.0</ele><time>2026-04-25T07:56:33.742Z</time></trkpt><trkpt lat="43.7987411" lon="11.3446567"><ele>262.0</ele><time>2026-04-25T07:56:34.743Z</time></trkpt><trkpt lat="43.7986549" lon="11.3447977"><ele>262.0</ele><time>2026-04-25T07:56:36.743Z</time></trkpt><trkpt lat="43.7986009" lon="11.3448771"><ele>262.0</ele><time>2026-04-25T07:56:37.742Z</time></trkpt><trkpt lat="43.7985342" lon="11.3449519"><ele>262.0</ele><time>2026-04-25T07:56:38.743Z</time></trkpt><trkpt lat="43.7984733" lon="11.3450201"><ele>262.0</ele><time>2026-04-25T07:56:39.742Z</time></trkpt><trkpt lat="43.7984089" lon="11.3451024"><ele>262.0</ele><time>2026-04-25T07:56:40.742Z</time></trkpt><trkpt lat="43.7983374" lon="11.3451877"><ele>262.0</ele><time>2026-04-25T07:56:41.742Z</time></trkpt><trkpt lat="43.7982581" lon="11.3452768"><ele>262.0</ele><time>2026-04-25T07:56:42.743Z</time></trkpt><trkpt lat="43.7981749" lon="11.3453649"><ele>262.0</ele><time>2026-04-25T07:56:43.742Z</time></trkpt><trkpt lat="43.7981013" lon="11.3454355"><ele>262.0</ele><time>2026-04-25T07:56:44.744Z</time></trkpt><trkpt lat="43.7980338" lon="11.3455363"><ele>262.0</ele><time>2026-04-25T07:56:45.743Z</time></trkpt><trkpt lat="43.7979647" lon="11.3456322"><ele>262.0</ele><time>2026-04-25T07:56:46.742Z</time></trkpt><trkpt lat="43.7979217" lon="11.3457158"><ele>264.4</ele><time>2026-04-25T07:56:47.744Z</time></trkpt><trkpt lat="43.7978855" lon="11.345801"><ele>266.79999999999995</ele><time>2026-04-25T07:56:48.743Z</time></trkpt><trkpt lat="43.7978534" lon="11.345897"><ele>269.2</ele><time>2026-04-25T07:56:49.742Z</time></trkpt><trkpt lat="43.7978541" lon="11.3460688"><ele>271.59999999999997</ele><time>2026-04-25T07:56:51.743Z</time></trkpt><trkpt lat="43.7978474" lon="11.3462035"><ele>274.0</ele><time>2026-04-25T07:56:53.742Z</time></trkpt><trkpt lat="43.7978775" lon="11.346313"><ele>276.8</ele><time>2026-04-25T07:56:55.742Z</time></trkpt><trkpt lat="43.797933" lon="11.3464309"><ele>279.59999999999997</ele><time>2026-04-25T07:56:57.742Z</time></trkpt><trkpt lat="43.7979249" lon="11.3465391"><ele>282.4</ele><time>2026-04-25T07:56:59.743Z</time></trkpt><trkpt lat="43.7978612" lon="11.3466964"><ele>285.2</ele><time>2026-04-25T07:57:01.743Z</time></trkpt><trkpt lat="43.7978156" lon="11.3467946"><ele>288.0</ele><time>2026-04-25T07:57:02.742Z</time></trkpt><trkpt lat="43.7977691" lon="11.3468998"><ele>288.0</ele><time>2026-04-25T07:57:03.744Z</time></trkpt><trkpt lat="43.7977218" lon="11.3469993"><ele>288.0</ele><time>2026-04-25T07:57:04.743Z</time></trkpt><trkpt lat="43.7976782" lon="11.3470779"><ele>288.0</ele><time>2026-04-25T07:57:05.743Z</time></trkpt><trkpt lat="43.7976396" lon="11.3471871"><ele>288.0</ele><time>2026-04-25T07:57:07.742Z</time></trkpt><trkpt lat="43.7975879" lon="11.3472803"><ele>288.0</ele><time>2026-04-25T07:57:09.742Z</time></trkpt><trkpt lat="43.797518" lon="11.3473566"><ele>288.0</ele><time>2026-04-25T07:57:11.742Z</time></trkpt><trkpt lat="43.7974521" lon="11.3474194"><ele>290.0</ele><time>2026-04-25T07:57:12.742Z</time></trkpt><trkpt lat="43.7973841" lon="11.3474736"><ele>292.0</ele><time>2026-04-25T07:57:13.742Z</time></trkpt><trkpt lat="43.7973193" lon="11.3475314"><ele>294.0</ele><time>2026-04-25T07:57:14.743Z</time></trkpt><trkpt lat="43.7972479" lon="11.3475821"><ele>296.0</ele><time>2026-04-25T07:57:15.742Z</time></trkpt><trkpt lat="43.797172" lon="11.3476201"><ele>298.0</ele><time>2026-04-25T07:57:16.743Z</time></trkpt><trkpt lat="43.7971048" lon="11.3476483"><ele>300.0</ele><time>2026-04-25T07:57:17.744Z</time></trkpt><trkpt lat="43.7970366" lon="11.3476928"><ele>300.0</ele><time>2026-04-25T07:57:18.743Z</time></trkpt><trkpt lat="43.7969664" lon="11.3477178"><ele>300.0</ele><time>2026-04-25T07:57:19.743Z</time></trkpt><trkpt lat="43.7968926" lon="11.3477687"><ele>300.0</ele><time>2026-04-25T07:57:20.743Z</time></trkpt><trkpt lat="43.7968079" lon="11.3478009"><ele>300.0</ele><time>2026-04-25T07:57:21.743Z</time></trkpt><trkpt lat="43.7966936" lon="11.3478962"><ele>300.0</ele><time>2026-04-25T07:57:23.744Z</time></trkpt><trkpt lat="43.7965932" lon="11.3479353"><ele>301.3333333333333</ele><time>2026-04-25T07:57:25.742Z</time></trkpt><trkpt lat="43.796534" lon="11.3479755"><ele>302.6666666666667</ele><time>2026-04-25T07:57:26.742Z</time></trkpt><trkpt lat="43.796475" lon="11.3480103"><ele>304.0</ele><time>2026-04-25T07:57:27.744Z</time></trkpt><trkpt lat="43.7963541" lon="11.3481059"><ele>305.33333333333337</ele><time>2026-04-25T07:57:29.743Z</time></trkpt><trkpt lat="43.7963329" lon="11.3481888"><ele>306.6666666666667</ele><time>2026-04-25T07:57:30.743Z</time></trkpt><trkpt lat="43.7962682" lon="11.3483224"><ele>308.0</ele><time>2026-04-25T07:57:32.743Z</time></trkpt><trkpt lat="43.796225" lon="11.3484492"><ele>308.0</ele><time>2026-04-25T07:57:34.743Z</time></trkpt><trkpt lat="43.7962087" lon="11.3485362"><ele>308.0</ele><time>2026-04-25T07:57:42.742Z</time></trkpt><trkpt lat="43.7962431" lon="11.3486814"><ele>308.0</ele><time>2026-04-25T07:57:44.742Z</time></trkpt><trkpt lat="43.7962788" lon="11.3488021"><ele>308.0</ele><time>2026-04-25T07:57:46.742Z</time></trkpt><trkpt lat="43.796294" lon="11.348974"><ele>308.0</ele><time>2026-04-25T07:57:48.742Z</time></trkpt><trkpt lat="43.7963179" lon="11.3490796"><ele>308.1666666666667</ele><time>2026-04-25T07:57:49.742Z</time></trkpt><trkpt lat="43.7963509" lon="11.349173"><ele>308.33333333333337</ele><time>2026-04-25T07:57:50.742Z</time></trkpt><trkpt lat="43.7963608" lon="11.3492923"><ele>308.5</ele><time>2026-04-25T07:57:51.743Z</time></trkpt><trkpt lat="43.7963992" lon="11.3494115"><ele>308.6666666666667</ele><time>2026-04-25T07:57:52.742Z</time></trkpt><trkpt lat="43.7964312" lon="11.3495268"><ele>308.8333333333333</ele><time>2026-04-25T07:57:53.743Z</time></trkpt><trkpt lat="43.7964655" lon="11.3496265"><ele>309.0</ele><time>2026-04-25T07:57:54.743Z</time></trkpt><trkpt lat="43.796504" lon="11.3497259"><ele>307.6666666666667</ele><time>2026-04-25T07:57:55.743Z</time></trkpt><trkpt lat="43.7965345" lon="11.3498922"><ele>306.3333333333333</ele><time>2026-04-25T07:57:57.743Z</time></trkpt><trkpt lat="43.7965655" lon="11.3499689"><ele>305.0</ele><time>2026-04-25T07:57:59.743Z</time></trkpt><trkpt lat="43.7965752" lon="11.3500661"><ele>303.66666666666663</ele><time>2026-04-25T07:58:01.742Z</time></trkpt><trkpt lat="43.7965876" lon="11.3501653"><ele>302.3333333333333</ele><time>2026-04-25T07:58:03.742Z</time></trkpt><trkpt lat="43.7965904" lon="11.3502807"><ele>301.0</ele><time>2026-04-25T07:58:05.743Z</time></trkpt><trkpt lat="43.7965961" lon="11.3503858"><ele>298.40000000000003</ele><time>2026-04-25T07:58:07.742Z</time></trkpt><trkpt lat="43.7965955" lon="11.3505584"><ele>295.8</ele><time>2026-04-25T07:58:09.743Z</time></trkpt><trkpt lat="43.7965894" lon="11.3507068"><ele>293.20000000000005</ele><time>2026-04-25T07:58:11.743Z</time></trkpt><trkpt lat="43.7965612" lon="11.350819"><ele>290.6</ele><time>2026-04-25T07:58:13.742Z</time></trkpt><trkpt lat="43.7965018" lon="11.3508841"><ele>288.0</ele><time>2026-04-25T07:58:15.743Z</time></trkpt><trkpt lat="43.7964347" lon="11.3509376"><ele>288.0</ele><time>2026-04-25T07:58:17.742Z</time></trkpt><trkpt lat="43.7963729" lon="11.3510355"><ele>288.0</ele><time>2026-04-25T07:58:19.742Z</time></trkpt><trkpt lat="43.7963386" lon="11.3511247"><ele>288.0</ele><time>2026-04-25T07:58:21.743Z</time></trkpt><trkpt lat="43.7963056" lon="11.3512228"><ele>288.0</ele><time>2026-04-25T07:58:23.742Z</time></trkpt><trkpt lat="43.7962735" lon="11.3513199"><ele>288.0</ele><time>2026-04-25T07:58:25.742Z</time></trkpt><trkpt lat="43.7962462" lon="11.3514314"><ele>288.0</ele><time>2026-04-25T07:58:27.742Z</time></trkpt><trkpt lat="43.7962094" lon="11.3515802"><ele>285.0</ele><time>2026-04-25T07:58:29.743Z</time></trkpt><trkpt lat="43.7961771" lon="11.3516788"><ele>282.0</ele><time>2026-04-25T07:58:31.743Z</time></trkpt><trkpt lat="43.7961028" lon="11.3517512"><ele>279.0</ele><time>2026-04-25T07:58:34.742Z</time></trkpt><trkpt lat="43.7960093" lon="11.3517451"><ele>276.0</ele><time>2026-04-25T07:58:36.742Z</time></trkpt><trkpt lat="43.7959295" lon="11.3517343"><ele>273.0</ele><time>2026-04-25T07:58:38.742Z</time></trkpt><trkpt lat="43.795845" lon="11.3517649"><ele>270.0</ele><time>2026-04-25T07:58:41.743Z</time></trkpt><trkpt lat="43.795802" lon="11.3518694"><ele>268.3333333333333</ele><time>2026-04-25T07:58:44.742Z</time></trkpt><trkpt lat="43.7957981" lon="11.3519715"><ele>266.6666666666667</ele><time>2026-04-25T07:58:46.743Z</time></trkpt><trkpt lat="43.7958245" lon="11.3520849"><ele>265.0</ele><time>2026-04-25T07:58:48.743Z</time></trkpt><trkpt lat="43.7958639" lon="11.3521839"><ele>263.33333333333337</ele><time>2026-04-25T07:58:50.742Z</time></trkpt><trkpt lat="43.7958833" lon="11.3522721"><ele>261.6666666666667</ele><time>2026-04-25T07:58:52.742Z</time></trkpt><trkpt lat="43.7958361" lon="11.3523785"><ele>260.0</ele><time>2026-04-25T07:58:55.742Z</time></trkpt><trkpt lat="43.795698" lon="11.3524129"><ele>257.83333333333337</ele><time>2026-04-25T07:58:57.743Z</time></trkpt><trkpt lat="43.7956342" lon="11.3524189"><ele>255.66666666666669</ele><time>2026-04-25T07:58:58.743Z</time></trkpt><trkpt lat="43.7955763" lon="11.352465"><ele>253.5</ele><time>2026-04-25T07:58:59.743Z</time></trkpt><trkpt lat="43.7955046" lon="11.3525049"><ele>251.33333333333331</ele><time>2026-04-25T07:59:00.743Z</time></trkpt><trkpt lat="43.7954442" lon="11.3525717"><ele>249.16666666666666</ele><time>2026-04-25T07:59:01.742Z</time></trkpt><trkpt lat="43.7953789" lon="11.3526348"><ele>247.0</ele><time>2026-04-25T07:59:02.743Z</time></trkpt><trkpt lat="43.7953052" lon="11.352696"><ele>247.0</ele><time>2026-04-25T07:59:04.742Z</time></trkpt><trkpt lat="43.7953165" lon="11.3527956"><ele>247.0</ele><time>2026-04-25T07:59:08.742Z</time></trkpt><trkpt lat="43.7954223" lon="11.3528082"><ele>247.0</ele><time>2026-04-25T07:59:13.742Z</time></trkpt><trkpt lat="43.7955471" lon="11.3527896"><ele>247.0</ele><time>2026-04-25T07:59:15.743Z</time></trkpt><trkpt lat="43.7956093" lon="11.3528088"><ele>247.0</ele><time>2026-04-25T07:59:16.744Z</time></trkpt><trkpt lat="43.7957171" lon="11.3528557"><ele>246.99999999999997</ele><time>2026-04-25T07:59:18.743Z</time></trkpt><trkpt lat="43.795799" lon="11.3528997"><ele>247.0</ele><time>2026-04-25T07:59:20.743Z</time></trkpt><trkpt lat="43.7958861" lon="11.3529601"><ele>247.0</ele><time>2026-04-25T07:59:22.743Z</time></trkpt><trkpt lat="43.7959376" lon="11.3530115"><ele>247.0</ele><time>2026-04-25T07:59:23.742Z</time></trkpt><trkpt lat="43.7959895" lon="11.3530678"><ele>246.99999999999997</ele><time>2026-04-25T07:59:24.742Z</time></trkpt><trkpt lat="43.7960664" lon="11.353194"><ele>247.0</ele><time>2026-04-25T07:59:26.743Z</time></trkpt><trkpt lat="43.7961088" lon="11.3532689"><ele>245.66666666666666</ele><time>2026-04-25T07:59:27.744Z</time></trkpt><trkpt lat="43.796154" lon="11.3533534"><ele>244.33333333333331</ele><time>2026-04-25T07:59:28.742Z</time></trkpt><trkpt lat="43.7962046" lon="11.3534401"><ele>243.0</ele><time>2026-04-25T07:59:29.742Z</time></trkpt><trkpt lat="43.7962522" lon="11.3535164"><ele>241.66666666666669</ele><time>2026-04-25T07:59:30.742Z</time></trkpt><trkpt lat="43.7962963" lon="11.353588"><ele>240.33333333333334</ele><time>2026-04-25T07:59:31.742Z</time></trkpt><trkpt lat="43.7963749" lon="11.3537335"><ele>239.0</ele><time>2026-04-25T07:59:33.743Z</time></trkpt><trkpt lat="43.796418" lon="11.3538001"><ele>236.6</ele><time>2026-04-25T07:59:34.742Z</time></trkpt><trkpt lat="43.7964884" lon="11.3539171"><ele>234.2</ele><time>2026-04-25T07:59:36.742Z</time></trkpt><trkpt lat="43.7965774" lon="11.3540317"><ele>231.79999999999998</ele><time>2026-04-25T07:59:38.742Z</time></trkpt><trkpt lat="43.796642" lon="11.35408"><ele>229.39999999999998</ele><time>2026-04-25T07:59:39.742Z</time></trkpt><trkpt lat="43.7967066" lon="11.3541329"><ele>227.0</ele><time>2026-04-25T07:59:40.742Z</time></trkpt><trkpt lat="43.7967672" lon="11.3541807"><ele>227.00000000000003</ele><time>2026-04-25T07:59:41.742Z</time></trkpt><trkpt lat="43.7968325" lon="11.3542285"><ele>227.0</ele><time>2026-04-25T07:59:42.743Z</time></trkpt><trkpt lat="43.7969014" lon="11.3542794"><ele>227.0</ele><time>2026-04-25T07:59:43.742Z</time></trkpt><trkpt lat="43.7969686" lon="11.3543331"><ele>227.0</ele><time>2026-04-25T07:59:44.742Z</time></trkpt><trkpt lat="43.7970363" lon="11.3543911"><ele>227.00000000000003</ele><time>2026-04-25T07:59:45.742Z</time></trkpt><trkpt lat="43.7971115" lon="11.3544466"><ele>227.0</ele><time>2026-04-25T07:59:46.743Z</time></trkpt><trkpt lat="43.7971853" lon="11.3545038"><ele>226.57142857142858</ele><time>2026-04-25T07:59:47.742Z</time></trkpt><trkpt lat="43.7972459" lon="11.3545558"><ele>226.14285714285717</ele><time>2026-04-25T07:59:48.743Z</time></trkpt><trkpt lat="43.7973028" lon="11.3545985"><ele>225.71428571428572</ele><time>2026-04-25T07:59:49.743Z</time></trkpt><trkpt lat="43.7973928" lon="11.3546719"><ele>225.28571428571428</ele><time>2026-04-25T07:59:51.742Z</time></trkpt><trkpt lat="43.7974475" lon="11.354728"><ele>224.85714285714286</ele><time>2026-04-25T07:59:54.742Z</time></trkpt><trkpt lat="43.7974817" lon="11.3548035"><ele>224.42857142857144</ele><time>2026-04-25T08:00:16.742Z</time></trkpt><trkpt lat="43.7975081" lon="11.3548844"><ele>224.0</ele><time>2026-04-25T08:00:18.742Z</time></trkpt><trkpt lat="43.797487" lon="11.3549993"><ele>224.00000000000003</ele><time>2026-04-25T08:00:21.742Z</time></trkpt><trkpt lat="43.7974301" lon="11.3551026"><ele>224.0</ele><time>2026-04-25T08:00:23.743Z</time></trkpt><trkpt lat="43.7973534" lon="11.355208"><ele>224.0</ele><time>2026-04-25T08:00:25.742Z</time></trkpt><trkpt lat="43.7972807" lon="11.3552984"><ele>224.0</ele><time>2026-04-25T08:00:27.742Z</time></trkpt><trkpt lat="43.7972356" lon="11.3553813"><ele>224.00000000000003</ele><time>2026-04-25T08:00:29.743Z</time></trkpt><trkpt lat="43.7972648" lon="11.3554627"><ele>224.0</ele><time>2026-04-25T08:00:34.743Z</time></trkpt><trkpt lat="43.7973509" lon="11.3554029"><ele>224.0</ele><time>2026-04-25T08:00:36.742Z</time></trkpt><trkpt lat="43.7974614" lon="11.3553124"><ele>223.99999999999997</ele><time>2026-04-25T08:00:38.742Z</time></trkpt><trkpt lat="43.7975301" lon="11.3552598"><ele>223.99999999999997</ele><time>2026-04-25T08:00:39.742Z</time></trkpt><trkpt lat="43.7976312" lon="11.3551834"><ele>224.0</ele><time>2026-04-25T08:00:41.742Z</time></trkpt><trkpt lat="43.7976953" lon="11.355129"><ele>224.0</ele><time>2026-04-25T08:00:43.742Z</time></trkpt><trkpt lat="43.7977248" lon="11.3552171"><ele>224.00000000000003</ele><time>2026-04-25T08:00:46.742Z</time></trkpt><trkpt lat="43.7976498" lon="11.3553828"><ele>224.0</ele><time>2026-04-25T08:00:48.742Z</time></trkpt><trkpt lat="43.7976245" lon="11.355464"><ele>224.0</ele><time>2026-04-25T08:00:49.742Z</time></trkpt><trkpt lat="43.7975872" lon="11.3555879"><ele>224.0</ele><time>2026-04-25T08:00:50.742Z</time></trkpt><trkpt lat="43.7975696" lon="11.3556848"><ele>224.00000000000003</ele><time>2026-04-25T08:00:51.743Z</time></trkpt><trkpt lat="43.7975418" lon="11.3557705"><ele>224.0</ele><time>2026-04-25T08:00:52.743Z</time></trkpt><trkpt lat="43.7975082" lon="11.3558717"><ele>223.0</ele><time>2026-04-25T08:00:53.742Z</time></trkpt><trkpt lat="43.7974542" lon="11.3560053"><ele>221.99999999999997</ele><time>2026-04-25T08:00:55.742Z</time></trkpt><trkpt lat="43.7974181" lon="11.3561072"><ele>220.99999999999997</ele><time>2026-04-25T08:00:56.742Z</time></trkpt><trkpt lat="43.7973853" lon="11.356194"><ele>220.0</ele><time>2026-04-25T08:00:57.742Z</time></trkpt><trkpt lat="43.7973079" lon="11.3563099"><ele>219.0</ele><time>2026-04-25T08:01:00.742Z</time></trkpt><trkpt lat="43.7971704" lon="11.3563954"><ele>219.0</ele><time>2026-04-25T08:01:02.743Z</time></trkpt><trkpt lat="43.7970884" lon="11.3564442"><ele>218.99999999999997</ele><time>2026-04-25T08:01:03.742Z</time></trkpt><trkpt lat="43.7970111" lon="11.3564881"><ele>218.99999999999997</ele><time>2026-04-25T08:01:04.742Z</time></trkpt><trkpt lat="43.7969133" lon="11.3565483"><ele>219.0</ele><time>2026-04-25T08:01:05.742Z</time></trkpt><trkpt lat="43.7967947" lon="11.3565433"><ele>219.0</ele><time>2026-04-25T08:01:06.743Z</time></trkpt><trkpt lat="43.796703" lon="11.3566178"><ele>219.0</ele><time>2026-04-25T08:01:07.742Z</time></trkpt><trkpt lat="43.7966133" lon="11.3566862"><ele>218.99999999999997</ele><time>2026-04-25T08:01:08.742Z</time></trkpt><trkpt lat="43.7965308" lon="11.3567288"><ele>218.99999999999997</ele><time>2026-04-25T08:01:09.742Z</time></trkpt><trkpt lat="43.7964496" lon="11.3567926"><ele>219.0</ele><time>2026-04-25T08:01:10.743Z</time></trkpt><trkpt lat="43.7963618" lon="11.3568163"><ele>219.0</ele><time>2026-04-25T08:01:11.743Z</time></trkpt><trkpt lat="43.7962612" lon="11.3568275"><ele>219.0</ele><time>2026-04-25T08:01:12.743Z</time></trkpt><trkpt lat="43.7961524" lon="11.3568409"><ele>218.99999999999997</ele><time>2026-04-25T08:01:13.743Z</time></trkpt><trkpt lat="43.7960662" lon="11.3568397"><ele>218.99999999999997</ele><time>2026-04-25T08:01:14.744Z</time></trkpt><trkpt lat="43.7959776" lon="11.3568389"><ele>219.0</ele><time>2026-04-25T08:01:15.742Z</time></trkpt><trkpt lat="43.7959067" lon="11.3569139"><ele>219.0</ele><time>2026-04-25T08:01:16.742Z</time></trkpt><trkpt lat="43.795833" lon="11.3569478"><ele>217.33333333333334</ele><time>2026-04-25T08:01:17.743Z</time></trkpt><trkpt lat="43.7957574" lon="11.3569648"><ele>215.66666666666669</ele><time>2026-04-25T08:01:18.742Z</time></trkpt><trkpt lat="43.7956942" lon="11.3569585"><ele>214.0</ele><time>2026-04-25T08:01:19.742Z</time></trkpt><trkpt lat="43.7956248" lon="11.3569821"><ele>212.33333333333334</ele><time>2026-04-25T08:01:20.743Z</time></trkpt><trkpt lat="43.7955585" lon="11.3570052"><ele>210.66666666666669</ele><time>2026-04-25T08:01:21.743Z</time></trkpt><trkpt lat="43.7954583" lon="11.3571007"><ele>209.0</ele><time>2026-04-25T08:01:23.742Z</time></trkpt><trkpt lat="43.7953973" lon="11.3572201"><ele>208.39999999999998</ele><time>2026-04-25T08:01:25.742Z</time></trkpt><trkpt lat="43.7953326" lon="11.3573278"><ele>207.8</ele><time>2026-04-25T08:01:27.743Z</time></trkpt><trkpt lat="43.7952258" lon="11.3574405"><ele>207.2</ele><time>2026-04-25T08:01:29.742Z</time></trkpt><trkpt lat="43.79516" lon="11.3575299"><ele>206.60000000000002</ele><time>2026-04-25T08:01:30.743Z</time></trkpt><trkpt lat="43.795104" lon="11.3575959"><ele>206.0</ele><time>2026-04-25T08:01:31.743Z</time></trkpt><trkpt lat="43.7950473" lon="11.3576579"><ele>206.00000000000003</ele><time>2026-04-25T08:01:32.743Z</time></trkpt><trkpt lat="43.7949836" lon="11.3577279"><ele>206.0</ele><time>2026-04-25T08:01:33.743Z</time></trkpt><trkpt lat="43.794918" lon="11.3577998"><ele>206.0</ele><time>2026-04-25T08:01:34.742Z</time></trkpt><trkpt lat="43.7948598" lon="11.3578717"><ele>206.0</ele><time>2026-04-25T08:01:35.742Z</time></trkpt><trkpt lat="43.7948051" lon="11.3579389"><ele>206.00000000000003</ele><time>2026-04-25T08:01:36.743Z</time></trkpt><trkpt lat="43.7947499" lon="11.3579941"><ele>206.0</ele><time>2026-04-25T08:01:37.742Z</time></trkpt><trkpt lat="43.7946869" lon="11.3580702"><ele>207.50000000000003</ele><time>2026-04-25T08:01:38.742Z</time></trkpt><trkpt lat="43.7946266" lon="11.3581471"><ele>209.0</ele><time>2026-04-25T08:01:39.742Z</time></trkpt><trkpt lat="43.7945606" lon="11.3582298"><ele>210.5</ele><time>2026-04-25T08:01:40.743Z</time></trkpt><trkpt lat="43.7945022" lon="11.3582999"><ele>212.0</ele><time>2026-04-25T08:01:41.743Z</time></trkpt><trkpt lat="43.794447" lon="11.3583661"><ele>213.50000000000003</ele><time>2026-04-25T08:01:42.742Z</time></trkpt><trkpt lat="43.7943941" lon="11.3584375"><ele>215.0</ele><time>2026-04-25T08:01:43.743Z</time></trkpt><trkpt lat="43.7943404" lon="11.3585148"><ele>213.85714285714286</ele><time>2026-04-25T08:01:44.743Z</time></trkpt><trkpt lat="43.7942851" lon="11.3585824"><ele>212.71428571428572</ele><time>2026-04-25T08:01:45.743Z</time></trkpt><trkpt lat="43.7942311" lon="11.3586527"><ele>211.57142857142858</ele><time>2026-04-25T08:01:46.743Z</time></trkpt><trkpt lat="43.7941847" lon="11.358715"><ele>210.42857142857144</ele><time>2026-04-25T08:01:47.743Z</time></trkpt><trkpt lat="43.7941313" lon="11.3587803"><ele>209.28571428571428</ele><time>2026-04-25T08:01:48.743Z</time></trkpt><trkpt lat="43.7940805" lon="11.3588371"><ele>208.14285714285717</ele><time>2026-04-25T08:01:49.743Z</time></trkpt><trkpt lat="43.794022" lon="11.3588894"><ele>207.0</ele><time>2026-04-25T08:01:50.742Z</time></trkpt><trkpt lat="43.7939669" lon="11.3589353"><ele>207.0</ele><time>2026-04-25T08:01:51.743Z</time></trkpt><trkpt lat="43.7938469" lon="11.3589878"><ele>207.0</ele><time>2026-04-25T08:01:53.742Z</time></trkpt><trkpt lat="43.793786" lon="11.3590142"><ele>207.0</ele><time>2026-04-25T08:01:54.742Z</time></trkpt><trkpt lat="43.7936684" lon="11.3590563"><ele>207.0</ele><time>2026-04-25T08:01:56.743Z</time></trkpt><trkpt lat="43.7936041" lon="11.3590765"><ele>207.0</ele><time>2026-04-25T08:01:57.742Z</time></trkpt><trkpt lat="43.7935287" lon="11.3590959"><ele>204.5</ele><time>2026-04-25T08:01:58.742Z</time></trkpt><trkpt lat="43.7934547" lon="11.3591169"><ele>202.0</ele><time>2026-04-25T08:01:59.742Z</time></trkpt><trkpt lat="43.7933867" lon="11.359138"><ele>199.5</ele><time>2026-04-25T08:02:00.742Z</time></trkpt><trkpt lat="43.7933186" lon="11.3591409"><ele>197.0</ele><time>2026-04-25T08:02:01.743Z</time></trkpt><trkpt lat="43.7932377" lon="11.3591357"><ele>194.5</ele><time>2026-04-25T08:02:02.743Z</time></trkpt><trkpt lat="43.7931562" lon="11.3591205"><ele>192.0</ele><time>2026-04-25T08:02:03.742Z</time></trkpt><trkpt lat="43.7930645" lon="11.3591025"><ele>192.0</ele><time>2026-04-25T08:02:04.742Z</time></trkpt><trkpt lat="43.7929669" lon="11.3590838"><ele>192.0</ele><time>2026-04-25T08:02:05.742Z</time></trkpt><trkpt lat="43.7928671" lon="11.3590698"><ele>192.0</ele><time>2026-04-25T08:02:06.742Z</time></trkpt><trkpt lat="43.7927694" lon="11.3590535"><ele>192.0</ele><time>2026-04-25T08:02:07.742Z</time></trkpt><trkpt lat="43.7927025" lon="11.3590569"><ele>192.0</ele><time>2026-04-25T08:02:08.742Z</time></trkpt><trkpt lat="43.792637" lon="11.3590527"><ele>192.0</ele><time>2026-04-25T08:02:09.742Z</time></trkpt><trkpt lat="43.7925683" lon="11.3590687"><ele>191.8</ele><time>2026-04-25T08:02:10.742Z</time></trkpt><trkpt lat="43.7924708" lon="11.3591062"><ele>191.6</ele><time>2026-04-25T08:02:12.743Z</time></trkpt><trkpt lat="43.7923902" lon="11.3592001"><ele>191.4</ele><time>2026-04-25T08:02:14.742Z</time></trkpt><trkpt lat="43.792339" lon="11.3592656"><ele>191.20000000000002</ele><time>2026-04-25T08:02:15.742Z</time></trkpt><trkpt lat="43.7922994" lon="11.3593519"><ele>191.0</ele><time>2026-04-25T08:02:16.742Z</time></trkpt><trkpt lat="43.7922382" lon="11.3594642"><ele>191.0</ele><time>2026-04-25T08:02:17.742Z</time></trkpt><trkpt lat="43.7921844" lon="11.359561"><ele>191.0</ele><time>2026-04-25T08:02:18.743Z</time></trkpt><trkpt lat="43.7921219" lon="11.3596719"><ele>191.0</ele><time>2026-04-25T08:02:19.744Z</time></trkpt><trkpt lat="43.7920497" lon="11.3597787"><ele>191.0</ele><time>2026-04-25T08:02:20.743Z</time></trkpt><trkpt lat="43.7919829" lon="11.3598773"><ele>191.0</ele><time>2026-04-25T08:02:21.742Z</time></trkpt><trkpt lat="43.7919132" lon="11.3599631"><ele>191.0</ele><time>2026-04-25T08:02:22.743Z</time></trkpt><trkpt lat="43.7918396" lon="11.3600381"><ele>191.0</ele><time>2026-04-25T08:02:23.742Z</time></trkpt><trkpt lat="43.7917544" lon="11.3601157"><ele>191.0</ele><time>2026-04-25T08:02:24.742Z</time></trkpt><trkpt lat="43.7916639" lon="11.3601947"><ele>191.0</ele><time>2026-04-25T08:02:25.742Z</time></trkpt><trkpt lat="43.7915819" lon="11.3602612"><ele>191.0</ele><time>2026-04-25T08:02:26.742Z</time></trkpt><trkpt lat="43.7914863" lon="11.3603289"><ele>191.0</ele><time>2026-04-25T08:02:27.742Z</time></trkpt><trkpt lat="43.7913936" lon="11.3603762"><ele>191.0</ele><time>2026-04-25T08:02:28.742Z</time></trkpt><trkpt lat="43.7913127" lon="11.3604125"><ele>191.0</ele><time>2026-04-25T08:02:29.742Z</time></trkpt><trkpt lat="43.7912499" lon="11.3604427"><ele>191.0</ele><time>2026-04-25T08:02:30.743Z</time></trkpt><trkpt lat="43.7911777" lon="11.3604781"><ele>191.0</ele><time>2026-04-25T08:02:32.742Z</time></trkpt><trkpt lat="43.7911773" lon="11.360587"><ele>191.0</ele><time>2026-04-25T08:02:43.743Z</time></trkpt><trkpt lat="43.7912215" lon="11.3606783"><ele>193.60000000000002</ele><time>2026-04-25T08:02:45.744Z</time></trkpt><trkpt lat="43.7912668" lon="11.3607753"><ele>196.2</ele><time>2026-04-25T08:02:47.743Z</time></trkpt><trkpt lat="43.7913113" lon="11.3608832"><ele>198.8</ele><time>2026-04-25T08:02:49.742Z</time></trkpt><trkpt lat="43.7913594" lon="11.361002"><ele>201.39999999999998</ele><time>2026-04-25T08:02:51.743Z</time></trkpt><trkpt lat="43.7914271" lon="11.3611254"><ele>204.0</ele><time>2026-04-25T08:02:53.743Z</time></trkpt><trkpt lat="43.79148" lon="11.3612447"><ele>206.2</ele><time>2026-04-25T08:02:55.743Z</time></trkpt><trkpt lat="43.7915362" lon="11.3613872"><ele>208.39999999999998</ele><time>2026-04-25T08:02:57.743Z</time></trkpt><trkpt lat="43.7915816" lon="11.3615097"><ele>210.6</ele><time>2026-04-25T08:02:59.743Z</time></trkpt><trkpt lat="43.7915943" lon="11.3616156"><ele>212.8</ele><time>2026-04-25T08:03:02.743Z</time></trkpt><trkpt lat="43.7916639" lon="11.3616519"><ele>215.0</ele><time>2026-04-25T08:03:06.743Z</time></trkpt><trkpt lat="43.7917681" lon="11.3616659"><ele>218.4</ele><time>2026-04-25T08:03:08.742Z</time></trkpt><trkpt lat="43.7918661" lon="11.3616897"><ele>221.8</ele><time>2026-04-25T08:03:10.743Z</time></trkpt><trkpt lat="43.7919484" lon="11.3616868"><ele>225.2</ele><time>2026-04-25T08:03:12.743Z</time></trkpt><trkpt lat="43.7920631" lon="11.361712"><ele>228.6</ele><time>2026-04-25T08:03:14.742Z</time></trkpt><trkpt lat="43.7921652" lon="11.36174"><ele>232.0</ele><time>2026-04-25T08:03:16.743Z</time></trkpt><trkpt lat="43.7922491" lon="11.3617701"><ele>231.99999999999997</ele><time>2026-04-25T08:03:17.744Z</time></trkpt><trkpt lat="43.7923135" lon="11.3618003"><ele>232.0</ele><time>2026-04-25T08:03:18.743Z</time></trkpt><trkpt lat="43.7923852" lon="11.3618286"><ele>232.0</ele><time>2026-04-25T08:03:19.743Z</time></trkpt><trkpt lat="43.7924606" lon="11.3618518"><ele>232.0</ele><time>2026-04-25T08:03:20.744Z</time></trkpt><trkpt lat="43.7925308" lon="11.3618659"><ele>231.99999999999997</ele><time>2026-04-25T08:03:21.743Z</time></trkpt><trkpt lat="43.792604" lon="11.3618715"><ele>232.0</ele><time>2026-04-25T08:03:23.743Z</time></trkpt><trkpt lat="43.7927133" lon="11.3618237"><ele>233.66666666666666</ele><time>2026-04-25T08:03:25.744Z</time></trkpt><trkpt lat="43.7927554" lon="11.36174"><ele>235.33333333333331</ele><time>2026-04-25T08:03:26.743Z</time></trkpt><trkpt lat="43.7928251" lon="11.3616993"><ele>237.0</ele><time>2026-04-25T08:03:28.743Z</time></trkpt><trkpt lat="43.7928867" lon="11.3617251"><ele>238.66666666666669</ele><time>2026-04-25T08:03:30.744Z</time></trkpt><trkpt lat="43.792961" lon="11.3618047"><ele>240.33333333333334</ele><time>2026-04-25T08:03:32.744Z</time></trkpt><trkpt lat="43.7930359" lon="11.36189"><ele>242.0</ele><time>2026-04-25T08:03:34.743Z</time></trkpt><trkpt lat="43.7931065" lon="11.3619613"><ele>242.00000000000003</ele><time>2026-04-25T08:03:37.744Z</time></trkpt><trkpt lat="43.7931395" lon="11.3620401"><ele>242.0</ele><time>2026-04-25T08:03:39.743Z</time></trkpt><trkpt lat="43.7932094" lon="11.3621172"><ele>242.0</ele><time>2026-04-25T08:03:42.744Z</time></trkpt><trkpt lat="43.7933206" lon="11.3621043"><ele>242.0</ele><time>2026-04-25T08:03:44.744Z</time></trkpt><trkpt lat="43.7933819" lon="11.3621303"><ele>242.00000000000003</ele><time>2026-04-25T08:03:46.743Z</time></trkpt><trkpt lat="43.7934576" lon="11.3621952"><ele>242.0</ele><time>2026-04-25T08:03:48.743Z</time></trkpt><trkpt lat="43.7935228" lon="11.3622627"><ele>245.39999999999998</ele><time>2026-04-25T08:03:50.745Z</time></trkpt><trkpt lat="43.7935732" lon="11.3623264"><ele>248.79999999999998</ele><time>2026-04-25T08:03:51.743Z</time></trkpt><trkpt lat="43.7935863" lon="11.3624243"><ele>252.2</ele><time>2026-04-25T08:04:02.743Z</time></trkpt><trkpt lat="43.793635" lon="11.3625205"><ele>255.6</ele><time>2026-04-25T08:04:04.743Z</time></trkpt><trkpt lat="43.7937123" lon="11.3626495"><ele>259.0</ele><time>2026-04-25T08:04:06.743Z</time></trkpt><trkpt lat="43.7937843" lon="11.3627718"><ele>259.0</ele><time>2026-04-25T08:04:08.744Z</time></trkpt><trkpt lat="43.7938408" lon="11.3628427"><ele>259.0</ele><time>2026-04-25T08:04:10.743Z</time></trkpt><trkpt lat="43.7939135" lon="11.3629295"><ele>259.0</ele><time>2026-04-25T08:04:12.743Z</time></trkpt><trkpt lat="43.7939837" lon="11.3630369"><ele>259.0</ele><time>2026-04-25T08:04:14.744Z</time></trkpt><trkpt lat="43.7940661" lon="11.3631261"><ele>259.0</ele><time>2026-04-25T08:04:16.743Z</time></trkpt><trkpt lat="43.7941137" lon="11.3632053"><ele>259.0</ele><time>2026-04-25T08:04:18.743Z</time></trkpt><trkpt lat="43.7941282" lon="11.363319"><ele>259.0</ele><time>2026-04-25T08:04:21.743Z</time></trkpt><trkpt lat="43.7941495" lon="11.3634512"><ele>259.0</ele><time>2026-04-25T08:04:24.743Z</time></trkpt><trkpt lat="43.79417" lon="11.363593"><ele>259.0</ele><time>2026-04-25T08:04:26.743Z</time></trkpt><trkpt lat="43.7941938" lon="11.3636983"><ele>259.0</ele><time>2026-04-25T08:04:28.744Z</time></trkpt><trkpt lat="43.7942183" lon="11.3637984"><ele>259.0</ele><time>2026-04-25T08:04:30.743Z</time></trkpt><trkpt lat="43.7942385" lon="11.3639328"><ele>258.8333333333333</ele><time>2026-04-25T08:04:32.744Z</time></trkpt><trkpt lat="43.7942586" lon="11.3640768"><ele>258.66666666666663</ele><time>2026-04-25T08:04:34.743Z</time></trkpt><trkpt lat="43.7942844" lon="11.3641603"><ele>258.5</ele><time>2026-04-25T08:04:36.744Z</time></trkpt><trkpt lat="43.794317" lon="11.3642367"><ele>258.3333333333333</ele><time>2026-04-25T08:04:39.743Z</time></trkpt><trkpt lat="43.7943021" lon="11.3643365"><ele>258.1666666666667</ele><time>2026-04-25T08:04:43.744Z</time></trkpt><trkpt lat="43.7942563" lon="11.3644234"><ele>258.0</ele><time>2026-04-25T08:04:45.744Z</time></trkpt><trkpt lat="43.7942151" lon="11.3645014"><ele>258.0</ele><time>2026-04-25T08:04:47.744Z</time></trkpt><trkpt lat="43.79418" lon="11.3645767"><ele>258.0</ele><time>2026-04-25T08:04:49.743Z</time></trkpt><trkpt lat="43.7941439" lon="11.3646599"><ele>258.0</ele><time>2026-04-25T08:04:51.743Z</time></trkpt><trkpt lat="43.7940926" lon="11.3647432"><ele>258.0</ele><time>2026-04-25T08:04:54.743Z</time></trkpt><trkpt lat="43.7940369" lon="11.3648094"><ele>258.0</ele><time>2026-04-25T08:04:57.744Z</time></trkpt><trkpt lat="43.7939628" lon="11.364911"><ele>258.0</ele><time>2026-04-25T08:05:00.743Z</time></trkpt><trkpt lat="43.793917" lon="11.3650068"><ele>257.57142857142856</ele><time>2026-04-25T08:05:02.743Z</time></trkpt><trkpt lat="43.7938725" lon="11.3651008"><ele>257.1428571428571</ele><time>2026-04-25T08:05:04.743Z</time></trkpt><trkpt lat="43.79384" lon="11.3651829"><ele>256.7142857142857</ele><time>2026-04-25T08:05:06.744Z</time></trkpt><trkpt lat="43.7937708" lon="11.3652627"><ele>256.2857142857143</ele><time>2026-04-25T08:05:08.744Z</time></trkpt><trkpt lat="43.7937243" lon="11.3653265"><ele>255.8571428571429</ele><time>2026-04-25T08:05:10.743Z</time></trkpt><trkpt lat="43.7937187" lon="11.3654267"><ele>255.42857142857144</ele><time>2026-04-25T08:05:13.745Z</time></trkpt><trkpt lat="43.7937594" lon="11.3655032"><ele>255.0</ele><time>2026-04-25T08:05:15.743Z</time></trkpt><trkpt lat="43.7938152" lon="11.3655749"><ele>252.66666666666666</ele><time>2026-04-25T08:05:18.743Z</time></trkpt><trkpt lat="43.7938809" lon="11.3656532"><ele>250.33333333333331</ele><time>2026-04-25T08:05:21.744Z</time></trkpt><trkpt lat="43.7939446" lon="11.3657434"><ele>248.0</ele><time>2026-04-25T08:05:24.743Z</time></trkpt><trkpt lat="43.7940033" lon="11.3657845"><ele>245.66666666666666</ele><time>2026-04-25T08:05:26.743Z</time></trkpt><trkpt lat="43.7940812" lon="11.3658337"><ele>243.33333333333331</ele><time>2026-04-25T08:05:29.744Z</time></trkpt><trkpt lat="43.7941468" lon="11.3658649"><ele>241.0</ele><time>2026-04-25T08:05:31.744Z</time></trkpt><trkpt lat="43.7942135" lon="11.3658795"><ele>240.99999999999997</ele><time>2026-04-25T08:05:33.744Z</time></trkpt><trkpt lat="43.7942847" lon="11.3658967"><ele>241.0</ele><time>2026-04-25T08:05:35.743Z</time></trkpt><trkpt lat="43.7943583" lon="11.3659249"><ele>241.0</ele><time>2026-04-25T08:05:37.744Z</time></trkpt><trkpt lat="43.7944496" lon="11.3659535"><ele>241.0</ele><time>2026-04-25T08:05:40.743Z</time></trkpt><trkpt lat="43.794543" lon="11.3659998"><ele>240.99999999999997</ele><time>2026-04-25T08:05:43.744Z</time></trkpt><trkpt lat="43.7946224" lon="11.3660624"><ele>241.0</ele><time>2026-04-25T08:05:45.744Z</time></trkpt><trkpt lat="43.7947071" lon="11.3662103"><ele>240.20000000000002</ele><time>2026-04-25T08:05:47.743Z</time></trkpt><trkpt lat="43.7947533" lon="11.366309"><ele>239.40000000000003</ele><time>2026-04-25T08:05:49.743Z</time></trkpt><trkpt lat="43.7948113" lon="11.3664565"><ele>238.6</ele><time>2026-04-25T08:05:52.745Z</time></trkpt><trkpt lat="43.7948409" lon="11.3665386"><ele>237.8</ele><time>2026-04-25T08:05:53.744Z</time></trkpt><trkpt lat="43.7948591" lon="11.3666936"><ele>237.0</ele><time>2026-04-25T08:05:55.743Z</time></trkpt><trkpt lat="43.7949099" lon="11.3667754"><ele>237.0</ele><time>2026-04-25T08:05:57.743Z</time></trkpt><trkpt lat="43.794972" lon="11.3668113"><ele>237.0</ele><time>2026-04-25T08:06:22.743Z</time></trkpt><trkpt lat="43.7950359" lon="11.3668882"><ele>237.0</ele><time>2026-04-25T08:06:24.743Z</time></trkpt><trkpt lat="43.7951192" lon="11.3669951"><ele>237.0</ele><time>2026-04-25T08:06:26.744Z</time></trkpt><trkpt lat="43.7951857" lon="11.3670557"><ele>237.0</ele><time>2026-04-25T08:06:28.743Z</time></trkpt><trkpt lat="43.7952358" lon="11.3671197"><ele>237.0</ele><time>2026-04-25T08:06:30.743Z</time></trkpt><trkpt lat="43.795294" lon="11.3671753"><ele>239.83333333333334</ele><time>2026-04-25T08:06:32.745Z</time></trkpt><trkpt lat="43.7953453" lon="11.3672382"><ele>242.66666666666669</ele><time>2026-04-25T08:06:35.743Z</time></trkpt><trkpt lat="43.7953331" lon="11.367348"><ele>245.5</ele><time>2026-04-25T08:06:38.744Z</time></trkpt><trkpt lat="43.7953095" lon="11.3674355"><ele>248.33333333333334</ele><time>2026-04-25T08:06:40.743Z</time></trkpt><trkpt lat="43.7952832" lon="11.3675248"><ele>251.16666666666669</ele><time>2026-04-25T08:06:44.743Z</time></trkpt><trkpt lat="43.79524" lon="11.3676349"><ele>254.0</ele><time>2026-04-25T08:06:47.743Z</time></trkpt><trkpt lat="43.7952297" lon="11.3677701"><ele>254.0</ele><time>2026-04-25T08:06:49.744Z</time></trkpt><trkpt lat="43.7951867" lon="11.3679035"><ele>253.99999999999997</ele><time>2026-04-25T08:06:51.744Z</time></trkpt><trkpt lat="43.7951474" lon="11.3680081"><ele>253.99999999999997</ele><time>2026-04-25T08:06:53.743Z</time></trkpt><trkpt lat="43.795097" lon="11.3680988"><ele>254.0</ele><time>2026-04-25T08:06:55.744Z</time></trkpt><trkpt lat="43.79501" lon="11.3682291"><ele>254.0</ele><time>2026-04-25T08:06:57.744Z</time></trkpt><trkpt lat="43.7949442" lon="11.3683566"><ele>249.6</ele><time>2026-04-25T08:06:59.744Z</time></trkpt><trkpt lat="43.7948501" lon="11.3684682"><ele>245.2</ele><time>2026-04-25T08:07:01.743Z</time></trkpt><trkpt lat="43.7947772" lon="11.3685896"><ele>240.79999999999998</ele><time>2026-04-25T08:07:03.743Z</time></trkpt><trkpt lat="43.7947817" lon="11.3687272"><ele>236.39999999999998</ele><time>2026-04-25T08:07:05.743Z</time></trkpt><trkpt lat="43.7947334" lon="11.3687909"><ele>232.0</ele><time>2026-04-25T08:07:07.743Z</time></trkpt><trkpt lat="43.7946579" lon="11.368863"><ele>231.66666666666666</ele><time>2026-04-25T08:07:10.743Z</time></trkpt><trkpt lat="43.7945744" lon="11.3689311"><ele>231.33333333333331</ele><time>2026-04-25T08:07:13.744Z</time></trkpt><trkpt lat="43.794511" lon="11.369003"><ele>231.0</ele><time>2026-04-25T08:07:15.745Z</time></trkpt><trkpt lat="43.7944398" lon="11.3690377"><ele>230.66666666666669</ele><time>2026-04-25T08:07:17.745Z</time></trkpt><trkpt lat="43.7943696" lon="11.3690957"><ele>230.33333333333334</ele><time>2026-04-25T08:07:20.745Z</time></trkpt><trkpt lat="43.7943008" lon="11.3691001"><ele>230.0</ele><time>2026-04-25T08:07:24.743Z</time></trkpt><trkpt lat="43.7942093" lon="11.3691445"><ele>227.0</ele><time>2026-04-25T08:07:27.744Z</time></trkpt><trkpt lat="43.7941368" lon="11.3692154"><ele>224.0</ele><time>2026-04-25T08:07:30.743Z</time></trkpt><trkpt lat="43.7940585" lon="11.3693096"><ele>221.0</ele><time>2026-04-25T08:07:32.743Z</time></trkpt><trkpt lat="43.7939846" lon="11.3693828"><ele>218.0</ele><time>2026-04-25T08:07:34.743Z</time></trkpt><trkpt lat="43.793932" lon="11.3694321"><ele>215.0</ele><time>2026-04-25T08:07:35.743Z</time></trkpt><trkpt lat="43.7938427" lon="11.3695245"><ele>215.0</ele><time>2026-04-25T08:07:37.745Z</time></trkpt><trkpt lat="43.7937623" lon="11.3695833"><ele>215.0</ele><time>2026-04-25T08:07:39.744Z</time></trkpt><trkpt lat="43.7936921" lon="11.3696718"><ele>215.0</ele><time>2026-04-25T08:07:41.744Z</time></trkpt><trkpt lat="43.7935992" lon="11.3697588"><ele>215.0</ele><time>2026-04-25T08:07:43.744Z</time></trkpt><trkpt lat="43.7935146" lon="11.3698297"><ele>215.0</ele><time>2026-04-25T08:07:45.743Z</time></trkpt><trkpt lat="43.7934023" lon="11.369881"><ele>212.83333333333334</ele><time>2026-04-25T08:07:47.744Z</time></trkpt><trkpt lat="43.7933178" lon="11.3699434"><ele>210.66666666666669</ele><time>2026-04-25T08:07:49.743Z</time></trkpt><trkpt lat="43.7932345" lon="11.3699997"><ele>208.5</ele><time>2026-04-25T08:07:51.744Z</time></trkpt><trkpt lat="43.7931622" lon="11.3700238"><ele>206.33333333333331</ele><time>2026-04-25T08:07:53.744Z</time></trkpt><trkpt lat="43.7930914" lon="11.3700762"><ele>204.16666666666666</ele><time>2026-04-25T08:07:55.743Z</time></trkpt><trkpt lat="43.7930388" lon="11.3701546"><ele>202.0</ele><time>2026-04-25T08:07:58.743Z</time></trkpt><trkpt lat="43.7929743" lon="11.3702389"><ele>201.99999999999997</ele><time>2026-04-25T08:08:01.744Z</time></trkpt><trkpt lat="43.792911" lon="11.3703073"><ele>202.0</ele><time>2026-04-25T08:08:02.744Z</time></trkpt><trkpt lat="43.792829" lon="11.3703856"><ele>202.0</ele><time>2026-04-25T08:08:04.743Z</time></trkpt><trkpt lat="43.7927669" lon="11.3704461"><ele>202.0</ele><time>2026-04-25T08:08:06.745Z</time></trkpt><trkpt lat="43.7926918" lon="11.3705049"><ele>201.99999999999997</ele><time>2026-04-25T08:08:08.743Z</time></trkpt><trkpt lat="43.7926283" lon="11.3705674"><ele>202.0</ele><time>2026-04-25T08:08:11.743Z</time></trkpt><trkpt lat="43.7925907" lon="11.3706493"><ele>200.39999999999998</ele><time>2026-04-25T08:08:14.745Z</time></trkpt><trkpt lat="43.7926511" lon="11.3707684"><ele>198.79999999999998</ele><time>2026-04-25T08:08:16.744Z</time></trkpt><trkpt lat="43.7926997" lon="11.3709102"><ele>197.2</ele><time>2026-04-25T08:08:18.744Z</time></trkpt><trkpt lat="43.7927436" lon="11.3710066"><ele>195.6</ele><time>2026-04-25T08:08:20.743Z</time></trkpt><trkpt lat="43.7927829" lon="11.3711059"><ele>194.0</ele><time>2026-04-25T08:08:23.743Z</time></trkpt><trkpt lat="43.7927468" lon="11.3712016"><ele>194.00000000000003</ele><time>2026-04-25T08:08:26.743Z</time></trkpt><trkpt lat="43.7926947" lon="11.3712765"><ele>194.0</ele><time>2026-04-25T08:08:29.744Z</time></trkpt><trkpt lat="43.7926142" lon="11.3713257"><ele>194.0</ele><time>2026-04-25T08:08:32.743Z</time></trkpt><trkpt lat="43.792541" lon="11.3713705"><ele>194.0</ele><time>2026-04-25T08:08:35.743Z</time></trkpt><trkpt lat="43.7924828" lon="11.3714123"><ele>194.00000000000003</ele><time>2026-04-25T08:08:37.743Z</time></trkpt><trkpt lat="43.7924203" lon="11.3714582"><ele>194.0</ele><time>2026-04-25T08:08:39.744Z</time></trkpt><trkpt lat="43.7923435" lon="11.3715128"><ele>191.0</ele><time>2026-04-25T08:08:42.743Z</time></trkpt><trkpt lat="43.7922686" lon="11.3715664"><ele>188.0</ele><time>2026-04-25T08:08:45.743Z</time></trkpt><trkpt lat="43.792185" lon="11.3716032"><ele>185.0</ele><time>2026-04-25T08:08:48.743Z</time></trkpt><trkpt lat="43.7921041" lon="11.3716733"><ele>182.0</ele><time>2026-04-25T08:08:50.743Z</time></trkpt><trkpt lat="43.7920103" lon="11.3717335"><ele>179.0</ele><time>2026-04-25T08:08:52.744Z</time></trkpt><trkpt lat="43.7919278" lon="11.3718046"><ele>179.0</ele><time>2026-04-25T08:08:54.744Z</time></trkpt><trkpt lat="43.7918491" lon="11.3718871"><ele>179.0</ele><time>2026-04-25T08:08:56.744Z</time></trkpt><trkpt lat="43.7917754" lon="11.3719724"><ele>179.0</ele><time>2026-04-25T08:08:58.744Z</time></trkpt><trkpt lat="43.791699" lon="11.3720528"><ele>179.0</ele><time>2026-04-25T08:09:00.743Z</time></trkpt><trkpt lat="43.7916021" lon="11.3721503"><ele>179.0</ele><time>2026-04-25T08:09:02.743Z</time></trkpt><trkpt lat="43.791498" lon="11.372242"><ele>175.0</ele><time>2026-04-25T08:09:04.743Z</time></trkpt><trkpt lat="43.7914434" lon="11.3722886"><ele>171.0</ele><time>2026-04-25T08:09:05.744Z</time></trkpt><trkpt lat="43.7913816" lon="11.3723422"><ele>167.0</ele><time>2026-04-25T08:09:06.744Z</time></trkpt><trkpt lat="43.7913246" lon="11.372391"><ele>163.0</ele><time>2026-04-25T08:09:07.744Z</time></trkpt><trkpt lat="43.7912704" lon="11.3724358"><ele>159.0</ele><time>2026-04-25T08:09:08.743Z</time></trkpt><trkpt lat="43.7911766" lon="11.3725125"><ele>155.0</ele><time>2026-04-25T08:09:10.744Z</time></trkpt><trkpt lat="43.7910795" lon="11.3725875"><ele>153.6</ele><time>2026-04-25T08:09:12.744Z</time></trkpt><trkpt lat="43.7909811" lon="11.3726218"><ele>152.2</ele><time>2026-04-25T08:09:14.743Z</time></trkpt><trkpt lat="43.7908796" lon="11.3726645"><ele>150.8</ele><time>2026-04-25T08:09:16.743Z</time></trkpt><trkpt lat="43.790825" lon="11.3727648"><ele>149.4</ele><time>2026-04-25T08:09:18.745Z</time></trkpt><trkpt lat="43.790775" lon="11.3729345"><ele>148.0</ele><time>2026-04-25T08:09:20.743Z</time></trkpt><trkpt lat="43.7907524" lon="11.3730217"><ele>146.20000000000002</ele><time>2026-04-25T08:09:21.743Z</time></trkpt><trkpt lat="43.7907589" lon="11.3731168"><ele>144.4</ele><time>2026-04-25T08:09:22.743Z</time></trkpt><trkpt lat="43.7908042" lon="11.3732854"><ele>142.60000000000002</ele><time>2026-04-25T08:09:24.743Z</time></trkpt><trkpt lat="43.7908386" lon="11.373367"><ele>140.8</ele><time>2026-04-25T08:09:25.745Z</time></trkpt><trkpt lat="43.790902" lon="11.3735044"><ele>139.0</ele><time>2026-04-25T08:09:27.744Z</time></trkpt><trkpt lat="43.7909489" lon="11.3736183"><ele>139.0</ele><time>2026-04-25T08:09:29.744Z</time></trkpt><trkpt lat="43.7909117" lon="11.3737067"><ele>139.0</ele><time>2026-04-25T08:09:32.744Z</time></trkpt><trkpt lat="43.7908427" lon="11.3736855"><ele>139.0</ele><time>2026-04-25T08:09:34.743Z</time></trkpt><trkpt lat="43.7907821" lon="11.373613"><ele>139.0</ele><time>2026-04-25T08:09:35.745Z</time></trkpt><trkpt lat="43.7907082" lon="11.37354"><ele>139.0</ele><time>2026-04-25T08:09:36.744Z</time></trkpt><trkpt lat="43.7906508" lon="11.3734777"><ele>139.0</ele><time>2026-04-25T08:09:37.744Z</time></trkpt><trkpt lat="43.7905831" lon="11.3734783"><ele>139.0</ele><time>2026-04-25T08:09:41.744Z</time></trkpt><trkpt lat="43.7906017" lon="11.3735897"><ele>139.0</ele><time>2026-04-25T08:09:44.743Z</time></trkpt><trkpt lat="43.7906316" lon="11.3736959"><ele>139.0</ele><time>2026-04-25T08:09:47.744Z</time></trkpt><trkpt lat="43.7905917" lon="11.3737768"><ele>139.0</ele><time>2026-04-25T08:09:51.744Z</time></trkpt><trkpt lat="43.7905051" lon="11.3737697"><ele>139.0</ele><time>2026-04-25T08:09:54.744Z</time></trkpt><trkpt lat="43.790414" lon="11.3737232"><ele>139.0</ele><time>2026-04-25T08:09:56.743Z</time></trkpt><trkpt lat="43.7903299" lon="11.37371"><ele>139.0</ele><time>2026-04-25T08:09:58.743Z</time></trkpt><trkpt lat="43.7902629" lon="11.3737623"><ele>139.0</ele><time>2026-04-25T08:10:00.744Z</time></trkpt><trkpt lat="43.7901647" lon="11.3738042"><ele>139.0</ele><time>2026-04-25T08:10:02.744Z</time></trkpt><trkpt lat="43.7900988" lon="11.3739294"><ele>139.0</ele><time>2026-04-25T08:10:04.744Z</time></trkpt><trkpt lat="43.7900507" lon="11.3740045"><ele>139.0</ele><time>2026-04-25T08:10:05.743Z</time></trkpt><trkpt lat="43.7900013" lon="11.3740705"><ele>139.0</ele><time>2026-04-25T08:10:06.744Z</time></trkpt><trkpt lat="43.7899445" lon="11.3741248"><ele>136.83333333333334</ele><time>2026-04-25T08:10:07.745Z</time></trkpt><trkpt lat="43.7898852" lon="11.3741814"><ele>134.66666666666669</ele><time>2026-04-25T08:10:08.744Z</time></trkpt><trkpt lat="43.7897909" lon="11.3742454"><ele>132.5</ele><time>2026-04-25T08:10:10.743Z</time></trkpt><trkpt lat="43.7897202" lon="11.3743249"><ele>130.33333333333334</ele><time>2026-04-25T08:10:12.744Z</time></trkpt><trkpt lat="43.789654" lon="11.3744002"><ele>128.16666666666666</ele><time>2026-04-25T08:10:14.744Z</time></trkpt><trkpt lat="43.7895697" lon="11.3744468"><ele>126.0</ele><time>2026-04-25T08:10:16.743Z</time></trkpt><trkpt lat="43.7895122" lon="11.374499"><ele>126.0</ele><time>2026-04-25T08:10:19.744Z</time></trkpt><trkpt lat="43.7894586" lon="11.3745536"><ele>126.0</ele><time>2026-04-25T08:10:22.743Z</time></trkpt><trkpt lat="43.7893895" lon="11.374652"><ele>126.0</ele><time>2026-04-25T08:10:24.743Z</time></trkpt><trkpt lat="43.7893273" lon="11.3747317"><ele>126.0</ele><time>2026-04-25T08:10:26.743Z</time></trkpt><trkpt lat="43.789268" lon="11.3747792"><ele>126.0</ele><time>2026-04-25T08:10:28.743Z</time></trkpt><trkpt lat="43.7891864" lon="11.3748206"><ele>126.0</ele><time>2026-04-25T08:10:31.744Z</time></trkpt><trkpt lat="43.7891112" lon="11.3748404"><ele>124.28571428571428</ele><time>2026-04-25T08:10:33.743Z</time></trkpt><trkpt lat="43.7890384" lon="11.3748805"><ele>122.57142857142857</ele><time>2026-04-25T08:10:35.743Z</time></trkpt><trkpt lat="43.788982" lon="11.3749323"><ele>120.85714285714286</ele><time>2026-04-25T08:10:37.743Z</time></trkpt><trkpt lat="43.7889251" lon="11.3749924"><ele>119.14285714285714</ele><time>2026-04-25T08:10:39.743Z</time></trkpt><trkpt lat="43.7888887" lon="11.3750638"><ele>117.42857142857142</ele><time>2026-04-25T08:10:41.744Z</time></trkpt><trkpt lat="43.7888883" lon="11.3751661"><ele>115.71428571428571</ele><time>2026-04-25T08:10:44.743Z</time></trkpt><trkpt lat="43.7889061" lon="11.3752567"><ele>114.0</ele><time>2026-04-25T08:10:47.744Z</time></trkpt><trkpt lat="43.7888988" lon="11.3753556"><ele>114.0</ele><time>2026-04-25T08:10:50.744Z</time></trkpt><trkpt lat="43.7888446" lon="11.3754489"><ele>114.0</ele><time>2026-04-25T08:10:53.744Z</time></trkpt><trkpt lat="43.7887831" lon="11.3754818"><ele>114.0</ele><time>2026-04-25T08:10:55.743Z</time></trkpt><trkpt lat="43.7887235" lon="11.3755263"><ele>114.0</ele><time>2026-04-25T08:10:57.745Z</time></trkpt><trkpt lat="43.7886476" lon="11.3755568"><ele>114.0</ele><time>2026-04-25T08:11:00.744Z</time></trkpt><trkpt lat="43.7885575" lon="11.3755735"><ele>114.0</ele><time>2026-04-25T08:11:03.744Z</time></trkpt><trkpt lat="43.788491" lon="11.3755792"><ele>110.66666666666667</ele><time>2026-04-25T08:11:05.744Z</time></trkpt><trkpt lat="43.7884048" lon="11.3755905"><ele>107.33333333333333</ele><time>2026-04-25T08:11:07.743Z</time></trkpt><trkpt lat="43.7883237" lon="11.3756107"><ele>104.0</ele><time>2026-04-25T08:11:09.743Z</time></trkpt><trkpt lat="43.7882529" lon="11.3756351"><ele>100.66666666666666</ele><time>2026-04-25T08:11:11.743Z</time></trkpt><trkpt lat="43.7881894" lon="11.3756554"><ele>97.33333333333333</ele><time>2026-04-25T08:11:29.743Z</time></trkpt><trkpt lat="43.7881252" lon="11.3756526"><ele>94.0</ele><time>2026-04-25T08:11:35.743Z</time></trkpt><trkpt lat="43.7882258" lon="11.3756362"><ele>94.0</ele><time>2026-04-25T08:12:03.744Z</time></trkpt><trkpt lat="43.7883216" lon="11.3756059"><ele>94.0</ele><time>2026-04-25T08:12:05.744Z</time></trkpt><trkpt lat="43.7884274" lon="11.3755842"><ele>94.0</ele><time>2026-04-25T08:12:07.744Z</time></trkpt><trkpt lat="43.7885271" lon="11.3755956"><ele>94.0</ele><time>2026-04-25T08:12:09.744Z</time></trkpt><trkpt lat="43.7886205" lon="11.3755782"><ele>94.0</ele><time>2026-04-25T08:12:11.743Z</time></trkpt><trkpt lat="43.7887012" lon="11.3755444"><ele>97.33333333333333</ele><time>2026-04-25T08:12:13.744Z</time></trkpt><trkpt lat="43.7887775" lon="11.3755006"><ele>100.66666666666666</ele><time>2026-04-25T08:12:15.744Z</time></trkpt><trkpt lat="43.7888467" lon="11.3754343"><ele>104.0</ele><time>2026-04-25T08:12:25.743Z</time></trkpt><trkpt lat="43.7889009" lon="11.3753297"><ele>107.33333333333333</ele><time>2026-04-25T08:12:28.743Z</time></trkpt><trkpt lat="43.7889276" lon="11.3752456"><ele>110.66666666666667</ele><time>2026-04-25T08:12:30.744Z</time></trkpt><trkpt lat="43.7889052" lon="11.375161"><ele>114.0</ele><time>2026-04-25T08:13:02.744Z</time></trkpt><trkpt lat="43.7888973" lon="11.3750555"><ele>114.0</ele><time>2026-04-25T08:13:05.744Z</time></trkpt><trkpt lat="43.7889615" lon="11.3749636"><ele>114.0</ele><time>2026-04-25T08:13:07.743Z</time></trkpt><trkpt lat="43.7890366" lon="11.3748838"><ele>114.0</ele><time>2026-04-25T08:13:09.744Z</time></trkpt><trkpt lat="43.7891193" lon="11.3748253"><ele>114.0</ele><time>2026-04-25T08:13:11.744Z</time></trkpt><trkpt lat="43.7891979" lon="11.3747993"><ele>114.0</ele><time>2026-04-25T08:13:13.743Z</time></trkpt><trkpt lat="43.7892801" lon="11.3747606"><ele>114.0</ele><time>2026-04-25T08:13:15.743Z</time></trkpt><trkpt lat="43.789369" lon="11.3746839"><ele>116.0</ele><time>2026-04-25T08:13:17.744Z</time></trkpt><trkpt lat="43.7894198" lon="11.3746145"><ele>118.0</ele><time>2026-04-25T08:13:18.744Z</time></trkpt><trkpt lat="43.7895055" lon="11.3745212"><ele>120.0</ele><time>2026-04-25T08:13:20.744Z</time></trkpt><trkpt lat="43.7896117" lon="11.3744257"><ele>122.0</ele><time>2026-04-25T08:13:22.744Z</time></trkpt><trkpt lat="43.7896656" lon="11.3743744"><ele>124.0</ele><time>2026-04-25T08:13:23.743Z</time></trkpt><trkpt lat="43.7897228" lon="11.3743146"><ele>126.0</ele><time>2026-04-25T08:13:24.743Z</time></trkpt><trkpt lat="43.7897784" lon="11.374261"><ele>126.0</ele><time>2026-04-25T08:13:25.743Z</time></trkpt><trkpt lat="43.7898437" lon="11.3742146"><ele>126.0</ele><time>2026-04-25T08:13:27.744Z</time></trkpt><trkpt lat="43.7899469" lon="11.374137"><ele>126.0</ele><time>2026-04-25T08:13:42.743Z</time></trkpt><trkpt lat="43.7900402" lon="11.3740414"><ele>126.0</ele><time>2026-04-25T08:13:44.743Z</time></trkpt><trkpt lat="43.7901142" lon="11.3739149"><ele>126.0</ele><time>2026-04-25T08:13:46.743Z</time></trkpt><trkpt lat="43.790177" lon="11.3738083"><ele>128.16666666666666</ele><time>2026-04-25T08:13:48.745Z</time></trkpt><trkpt lat="43.7902539" lon="11.3737539"><ele>130.33333333333334</ele><time>2026-04-25T08:13:50.743Z</time></trkpt><trkpt lat="43.7903242" lon="11.3737273"><ele>132.5</ele><time>2026-04-25T08:13:52.743Z</time></trkpt><trkpt lat="43.7904053" lon="11.3737438"><ele>134.66666666666669</ele><time>2026-04-25T08:13:54.744Z</time></trkpt><trkpt lat="43.7905179" lon="11.3737876"><ele>136.83333333333334</ele><time>2026-04-25T08:13:56.745Z</time></trkpt><trkpt lat="43.7905799" lon="11.3738066"><ele>139.0</ele><time>2026-04-25T08:13:57.743Z</time></trkpt><trkpt lat="43.7906461" lon="11.3737399"><ele>139.0</ele><time>2026-04-25T08:13:59.743Z</time></trkpt><trkpt lat="43.7906142" lon="11.3736303"><ele>139.0</ele><time>2026-04-25T08:14:02.744Z</time></trkpt><trkpt lat="43.7905842" lon="11.3735495"><ele>139.0</ele><time>2026-04-25T08:14:04.744Z</time></trkpt><trkpt lat="43.7906022" lon="11.3734497"><ele>139.0</ele><time>2026-04-25T08:14:07.743Z</time></trkpt><trkpt lat="43.7906909" lon="11.3735267"><ele>139.0</ele><time>2026-04-25T08:14:10.744Z</time></trkpt><trkpt lat="43.7907692" lon="11.3736233"><ele>139.0</ele><time>2026-04-25T08:14:12.743Z</time></trkpt><trkpt lat="43.7908833" lon="11.3737177"><ele>139.0</ele><time>2026-04-25T08:14:14.744Z</time></trkpt><trkpt lat="43.7909487" lon="11.3737933"><ele>139.0</ele><time>2026-04-25T08:14:15.744Z</time></trkpt><trkpt lat="43.7910085" lon="11.3738862"><ele>139.0</ele><time>2026-04-25T08:14:16.743Z</time></trkpt><trkpt lat="43.7910481" lon="11.3739872"><ele>139.0</ele><time>2026-04-25T08:14:17.743Z</time></trkpt><trkpt lat="43.79107" lon="11.3741006"><ele>139.0</ele><time>2026-04-25T08:14:18.743Z</time></trkpt><trkpt lat="43.7910937" lon="11.3742146"><ele>139.0</ele><time>2026-04-25T08:14:19.744Z</time></trkpt><trkpt lat="43.7911144" lon="11.374325"><ele>140.5</ele><time>2026-04-25T08:14:20.743Z</time></trkpt><trkpt lat="43.7911263" lon="11.3744137"><ele>142.0</ele><time>2026-04-25T08:14:21.744Z</time></trkpt><trkpt lat="43.7911708" lon="11.3745253"><ele>143.5</ele><time>2026-04-25T08:14:23.744Z</time></trkpt><trkpt lat="43.791232" lon="11.3745698"><ele>145.0</ele><time>2026-04-25T08:14:25.744Z</time></trkpt><trkpt lat="43.7913135" lon="11.3746035"><ele>146.5</ele><time>2026-04-25T08:14:54.743Z</time></trkpt><trkpt lat="43.7914149" lon="11.3745793"><ele>148.0</ele><time>2026-04-25T08:14:56.743Z</time></trkpt><trkpt lat="43.7914734" lon="11.3745451"><ele>148.0</ele><time>2026-04-25T08:14:57.743Z</time></trkpt><trkpt lat="43.791538" lon="11.3744988"><ele>148.0</ele><time>2026-04-25T08:14:58.744Z</time></trkpt><trkpt lat="43.7915942" lon="11.3744531"><ele>148.0</ele><time>2026-04-25T08:14:59.744Z</time></trkpt><trkpt lat="43.7916711" lon="11.3744083"><ele>148.0</ele><time>2026-04-25T08:15:01.743Z</time></trkpt><trkpt lat="43.7917475" lon="11.3743743"><ele>148.0</ele><time>2026-04-25T08:15:30.743Z</time></trkpt><trkpt lat="43.7918339" lon="11.3743566"><ele>148.0</ele><time>2026-04-25T08:15:32.743Z</time></trkpt><trkpt lat="43.7919204" lon="11.3743537"><ele>148.0</ele><time>2026-04-25T08:15:34.744Z</time></trkpt><trkpt lat="43.791991" lon="11.3743809"><ele>148.0</ele><time>2026-04-25T08:15:38.745Z</time></trkpt><trkpt lat="43.7920486" lon="11.374444"><ele>148.0</ele><time>2026-04-25T08:15:43.743Z</time></trkpt><trkpt lat="43.7920821" lon="11.3745218"><ele>148.0</ele><time>2026-04-25T08:15:52.743Z</time></trkpt><trkpt lat="43.7920378" lon="11.3744544"><ele>148.0</ele><time>2026-04-25T08:19:10.743Z</time></trkpt><trkpt lat="43.7919583" lon="11.3743854"><ele>148.0</ele><time>2026-04-25T08:19:13.743Z</time></trkpt><trkpt lat="43.7918909" lon="11.3743587"><ele>148.0</ele><time>2026-04-25T08:19:14.743Z</time></trkpt><trkpt lat="43.7918243" lon="11.3743694"><ele>148.0</ele><time>2026-04-25T08:19:15.743Z</time></trkpt><trkpt lat="43.7917361" lon="11.3743942"><ele>148.0</ele><time>2026-04-25T08:19:16.744Z</time></trkpt><trkpt lat="43.7916434" lon="11.3744382"><ele>148.0</ele><time>2026-04-25T08:19:17.743Z</time></trkpt><trkpt lat="43.7915629" lon="11.374489"><ele>148.0</ele><time>2026-04-25T08:19:18.744Z</time></trkpt><trkpt lat="43.7914898" lon="11.3745266"><ele>148.0</ele><time>2026-04-25T08:19:19.743Z</time></trkpt><trkpt lat="43.7914239" lon="11.3745574"><ele>148.0</ele><time>2026-04-25T08:19:20.743Z</time></trkpt><trkpt lat="43.7913545" lon="11.374573"><ele>148.0</ele><time>2026-04-25T08:19:21.743Z</time></trkpt><trkpt lat="43.7912863" lon="11.3745653"><ele>148.0</ele><time>2026-04-25T08:19:22.745Z</time></trkpt><trkpt lat="43.7911828" lon="11.3745206"><ele>148.0</ele><time>2026-04-25T08:19:24.743Z</time></trkpt><trkpt lat="43.7911231" lon="11.3743718"><ele>148.0</ele><time>2026-04-25T08:19:26.743Z</time></trkpt><trkpt lat="43.7911115" lon="11.3742521"><ele>148.0</ele><time>2026-04-25T08:19:27.743Z</time></trkpt><trkpt lat="43.7910972" lon="11.3741153"><ele>148.0</ele><time>2026-04-25T08:19:28.744Z</time></trkpt><trkpt lat="43.7910719" lon="11.3739894"><ele>148.0</ele><time>2026-04-25T08:19:29.743Z</time></trkpt><trkpt lat="43.791032" lon="11.3738824"><ele>148.0</ele><time>2026-04-25T08:19:30.743Z</time></trkpt><trkpt lat="43.7909766" lon="11.3737952"><ele>148.0</ele><time>2026-04-25T08:19:31.745Z</time></trkpt><trkpt lat="43.7909123" lon="11.3737348"><ele>148.0</ele><time>2026-04-25T08:19:32.744Z</time></trkpt><trkpt lat="43.7908493" lon="11.3736755"><ele>148.0</ele><time>2026-04-25T08:19:33.743Z</time></trkpt><trkpt lat="43.7907911" lon="11.3736212"><ele>146.5</ele><time>2026-04-25T08:19:34.744Z</time></trkpt><trkpt lat="43.7907365" lon="11.3735716"><ele>145.0</ele><time>2026-04-25T08:19:35.744Z</time></trkpt><trkpt lat="43.7906432" lon="11.3734874"><ele>143.5</ele><time>2026-04-25T08:19:37.744Z</time></trkpt><trkpt lat="43.7905939" lon="11.3735682"><ele>142.0</ele><time>2026-04-25T08:19:42.743Z</time></trkpt><trkpt lat="43.7906184" lon="11.373656"><ele>140.5</ele><time>2026-04-25T08:19:45.743Z</time></trkpt><trkpt lat="43.7906243" lon="11.3737722"><ele>139.0</ele><time>2026-04-25T08:19:54.744Z</time></trkpt><trkpt lat="43.7905522" lon="11.3738017"><ele>139.0</ele><time>2026-04-25T08:19:57.743Z</time></trkpt><trkpt lat="43.7904547" lon="11.3737536"><ele>139.0</ele><time>2026-04-25T08:19:59.744Z</time></trkpt><trkpt lat="43.7903593" lon="11.3737325"><ele>139.0</ele><time>2026-04-25T08:20:01.743Z</time></trkpt><trkpt lat="43.7902949" lon="11.3737199"><ele>139.0</ele><time>2026-04-25T08:20:03.743Z</time></trkpt><trkpt lat="43.7902117" lon="11.373772"><ele>139.0</ele><time>2026-04-25T08:20:05.743Z</time></trkpt><trkpt lat="43.790134" lon="11.3738711"><ele>136.4</ele><time>2026-04-25T08:20:07.743Z</time></trkpt><trkpt lat="43.7900918" lon="11.3739483"><ele>133.8</ele><time>2026-04-25T08:20:08.743Z</time></trkpt><trkpt lat="43.790016" lon="11.3740513"><ele>131.2</ele><time>2026-04-25T08:20:10.743Z</time></trkpt><trkpt lat="43.7899221" lon="11.374147"><ele>128.6</ele><time>2026-04-25T08:20:12.744Z</time></trkpt><trkpt lat="43.7898522" lon="11.3742062"><ele>126.0</ele><time>2026-04-25T08:20:14.743Z</time></trkpt><trkpt lat="43.7897853" lon="11.3742631"><ele>126.0</ele><time>2026-04-25T08:20:16.743Z</time></trkpt><trkpt lat="43.7897148" lon="11.3743311"><ele>126.0</ele><time>2026-04-25T08:20:18.744Z</time></trkpt><trkpt lat="43.7896322" lon="11.3744077"><ele>126.0</ele><time>2026-04-25T08:20:20.743Z</time></trkpt><trkpt lat="43.7895447" lon="11.3744793"><ele>126.0</ele><time>2026-04-25T08:20:22.744Z</time></trkpt><trkpt lat="43.7894686" lon="11.374541"><ele>126.0</ele><time>2026-04-25T08:20:24.743Z</time></trkpt><trkpt lat="43.7894134" lon="11.374601"><ele>126.0</ele><time>2026-04-25T08:20:25.743Z</time></trkpt><trkpt lat="43.7893406" lon="11.3747052"><ele>124.0</ele><time>2026-04-25T08:20:27.743Z</time></trkpt><trkpt lat="43.789254" lon="11.3747875"><ele>122.0</ele><time>2026-04-25T08:20:29.745Z</time></trkpt><trkpt lat="43.7891756" lon="11.3748197"><ele>120.0</ele><time>2026-04-25T08:20:31.744Z</time></trkpt><trkpt lat="43.7891071" lon="11.3748352"><ele>118.0</ele><time>2026-04-25T08:20:33.744Z</time></trkpt><trkpt lat="43.789043" lon="11.3748692"><ele>116.0</ele><time>2026-04-25T08:20:35.743Z</time></trkpt><trkpt lat="43.7889842" lon="11.3749141"><ele>114.0</ele><time>2026-04-25T08:20:37.743Z</time></trkpt><trkpt lat="43.7889304" lon="11.3749645"><ele>114.0</ele><time>2026-04-25T08:20:39.743Z</time></trkpt><trkpt lat="43.788875" lon="11.3750687"><ele>114.0</ele><time>2026-04-25T08:20:42.744Z</time></trkpt><trkpt lat="43.7888435" lon="11.375172"><ele>114.0</ele><time>2026-04-25T08:20:45.744Z</time></trkpt><trkpt lat="43.7888645" lon="11.3752618"><ele>114.0</ele><time>2026-04-25T08:20:48.705Z</time></trkpt><trkpt lat="43.7888917" lon="11.3753567"><ele>114.0</ele><time>2026-04-25T08:20:51.743Z</time></trkpt><trkpt lat="43.7888536" lon="11.3754503"><ele>114.0</ele><time>2026-04-25T08:20:54.743Z</time></trkpt><trkpt lat="43.7887921" lon="11.3755112"><ele>111.33333333333333</ele><time>2026-04-25T08:20:57.743Z</time></trkpt><trkpt lat="43.7887276" lon="11.3755645"><ele>108.66666666666666</ele><time>2026-04-25T08:21:01.64Z</time></trkpt><trkpt lat="43.7886476" lon="11.3755713"><ele>106.0</ele><time>2026-04-25T08:21:04.743Z</time></trkpt><trkpt lat="43.7885562" lon="11.3755848"><ele>103.33333333333333</ele><time>2026-04-25T08:21:07.744Z</time></trkpt><trkpt lat="43.7884882" lon="11.3756113"><ele>100.66666666666666</ele><time>2026-04-25T08:21:09.743Z</time></trkpt><trkpt lat="43.7884136" lon="11.3756135"><ele>98.0</ele><time>2026-04-25T08:21:11.743Z</time></trkpt><trkpt lat="43.7883375" lon="11.3756149"><ele>97.33333333333333</ele><time>2026-04-25T08:21:13.743Z</time></trkpt><trkpt lat="43.788262" lon="11.3756319"><ele>96.66666666666666</ele><time>2026-04-25T08:21:15.744Z</time></trkpt><trkpt lat="43.7881919" lon="11.3756541"><ele>96.0</ele><time>2026-04-25T08:21:17.743Z</time></trkpt><trkpt lat="43.7881128" lon="11.3756745"><ele>95.33333333333333</ele><time>2026-04-25T08:21:19.743Z</time></trkpt><trkpt lat="43.7880333" lon="11.3756947"><ele>94.66666666666666</ele><time>2026-04-25T08:21:21.744Z</time></trkpt><trkpt lat="43.7879464" lon="11.3757109"><ele>94.0</ele><time>2026-04-25T08:21:23.743Z</time></trkpt><trkpt lat="43.7878641" lon="11.3757321"><ele>94.0</ele><time>2026-04-25T08:21:25.743Z</time></trkpt><trkpt lat="43.787786" lon="11.3757432"><ele>94.0</ele><time>2026-04-25T08:21:27.743Z</time></trkpt><trkpt lat="43.7877095" lon="11.3757695"><ele>94.0</ele><time>2026-04-25T08:21:29.744Z</time></trkpt><trkpt lat="43.7876305" lon="11.3757886"><ele>94.0</ele><time>2026-04-25T08:21:31.744Z</time></trkpt><trkpt lat="43.7875496" lon="11.375813"><ele>94.0</ele><time>2026-04-25T08:21:33.743Z</time></trkpt><trkpt lat="43.7874653" lon="11.3758398"><ele>94.0</ele><time>2026-04-25T08:21:35.743Z</time></trkpt><trkpt lat="43.7873844" lon="11.3758658"><ele>93.16666666666666</ele><time>2026-04-25T08:21:37.744Z</time></trkpt><trkpt lat="43.7873078" lon="11.375896"><ele>92.33333333333333</ele><time>2026-04-25T08:21:39.743Z</time></trkpt><trkpt lat="43.78726" lon="11.375996"><ele>91.5</ele><time>2026-04-25T08:21:43.744Z</time></trkpt><trkpt lat="43.7872569" lon="11.3761037"><ele>90.66666666666667</ele><time>2026-04-25T08:21:45.743Z</time></trkpt><trkpt lat="43.7872717" lon="11.3762123"><ele>89.83333333333334</ele><time>2026-04-25T08:21:47.743Z</time></trkpt><trkpt lat="43.7872849" lon="11.3763149"><ele>89.0</ele><time>2026-04-25T08:21:49.744Z</time></trkpt><trkpt lat="43.787273" lon="11.3764219"><ele>87.83333333333334</ele><time>2026-04-25T08:21:52.744Z</time></trkpt><trkpt lat="43.7872419" lon="11.3765167"><ele>86.66666666666667</ele><time>2026-04-25T08:21:55.745Z</time></trkpt><trkpt lat="43.7871716" lon="11.3765631"><ele>85.5</ele><time>2026-04-25T08:21:58.743Z</time></trkpt><trkpt lat="43.787105" lon="11.3765864"><ele>84.33333333333333</ele><time>2026-04-25T08:22:02.743Z</time></trkpt><trkpt lat="43.7871022" lon="11.3766788"><ele>83.16666666666666</ele><time>2026-04-25T08:22:09.743Z</time></trkpt><trkpt lat="43.7871118" lon="11.3767864"><ele>82.0</ele><time>2026-04-25T08:22:12.743Z</time></trkpt><trkpt lat="43.7870768" lon="11.3768944"><ele>82.0</ele><time>2026-04-25T08:22:14.743Z</time></trkpt><trkpt lat="43.7870333" lon="11.3769812"><ele>82.0</ele><time>2026-04-25T08:22:17.744Z</time></trkpt><trkpt lat="43.7870411" lon="11.3770961"><ele>82.0</ele><time>2026-04-25T08:22:20.743Z</time></trkpt><trkpt lat="43.7870977" lon="11.3771874"><ele>82.0</ele><time>2026-04-25T08:22:23.745Z</time></trkpt><trkpt lat="43.7871707" lon="11.3771756"><ele>82.0</ele><time>2026-04-25T08:22:25.743Z</time></trkpt><trkpt lat="43.7872861" lon="11.3771136"><ele>82.0</ele><time>2026-04-25T08:22:27.743Z</time></trkpt><trkpt lat="43.7873992" lon="11.3770589"><ele>82.0</ele><time>2026-04-25T08:22:29.743Z</time></trkpt><trkpt lat="43.78747" lon="11.377026"><ele>82.0</ele><time>2026-04-25T08:22:30.743Z</time></trkpt><trkpt lat="43.7875339" lon="11.3770043"><ele>82.0</ele><time>2026-04-25T08:22:31.743Z</time></trkpt><trkpt lat="43.7875981" lon="11.3769909"><ele>82.0</ele><time>2026-04-25T08:22:32.745Z</time></trkpt><trkpt lat="43.7877145" lon="11.3769983"><ele>82.0</ele><time>2026-04-25T08:22:34.745Z</time></trkpt><trkpt lat="43.7877794" lon="11.3770091"><ele>82.0</ele><time>2026-04-25T08:22:35.743Z</time></trkpt><trkpt lat="43.787852" lon="11.3770386"><ele>82.42857142857142</ele><time>2026-04-25T08:22:36.743Z</time></trkpt><trkpt lat="43.7879291" lon="11.3770723"><ele>82.85714285714286</ele><time>2026-04-25T08:22:37.743Z</time></trkpt><trkpt lat="43.7880023" lon="11.37711"><ele>83.28571428571428</ele><time>2026-04-25T08:22:38.744Z</time></trkpt><trkpt lat="43.7880636" lon="11.3771543"><ele>83.71428571428571</ele><time>2026-04-25T08:22:39.743Z</time></trkpt><trkpt lat="43.788125" lon="11.3771938"><ele>84.14285714285714</ele><time>2026-04-25T08:22:40.743Z</time></trkpt><trkpt lat="43.7881808" lon="11.3772468"><ele>84.57142857142857</ele><time>2026-04-25T08:22:41.744Z</time></trkpt><trkpt lat="43.7882372" lon="11.377304"><ele>85.0</ele><time>2026-04-25T08:22:42.743Z</time></trkpt><trkpt lat="43.7882905" lon="11.3773546"><ele>85.57142857142857</ele><time>2026-04-25T08:22:43.743Z</time></trkpt><trkpt lat="43.7883393" lon="11.3774128"><ele>86.14285714285714</ele><time>2026-04-25T08:22:44.743Z</time></trkpt><trkpt lat="43.78839" lon="11.3774652"><ele>86.71428571428571</ele><time>2026-04-25T08:22:45.743Z</time></trkpt><trkpt lat="43.7884427" lon="11.3775162"><ele>87.28571428571428</ele><time>2026-04-25T08:22:46.744Z</time></trkpt><trkpt lat="43.7884999" lon="11.377566"><ele>87.85714285714286</ele><time>2026-04-25T08:22:47.744Z</time></trkpt><trkpt lat="43.788567" lon="11.3776134"><ele>88.42857142857142</ele><time>2026-04-25T08:22:48.744Z</time></trkpt><trkpt lat="43.7886345" lon="11.3776643"><ele>89.0</ele><time>2026-04-25T08:22:49.743Z</time></trkpt><trkpt lat="43.7887246" lon="11.3777182"><ele>89.0</ele><time>2026-04-25T08:22:50.743Z</time></trkpt><trkpt lat="43.7888046" lon="11.3777798"><ele>89.0</ele><time>2026-04-25T08:22:51.744Z</time></trkpt><trkpt lat="43.7889065" lon="11.3778209"><ele>89.0</ele><time>2026-04-25T08:22:52.744Z</time></trkpt><trkpt lat="43.7890064" lon="11.3778784"><ele>89.0</ele><time>2026-04-25T08:22:53.744Z</time></trkpt><trkpt lat="43.7890905" lon="11.3779288"><ele>89.0</ele><time>2026-04-25T08:22:54.744Z</time></trkpt><trkpt lat="43.7891725" lon="11.3779724"><ele>92.2</ele><time>2026-04-25T08:22:55.744Z</time></trkpt><trkpt lat="43.7892539" lon="11.3780254"><ele>95.4</ele><time>2026-04-25T08:22:57.743Z</time></trkpt><trkpt lat="43.7894196" lon="11.3780612"><ele>98.6</ele><time>2026-04-25T08:23:20.744Z</time></trkpt><trkpt lat="43.7895065" lon="11.3780883"><ele>101.8</ele><time>2026-04-25T08:23:21.743Z</time></trkpt><trkpt lat="43.7895933" lon="11.3781034"><ele>105.0</ele><time>2026-04-25T08:23:22.743Z</time></trkpt><trkpt lat="43.7896877" lon="11.3781061"><ele>105.0</ele><time>2026-04-25T08:23:23.744Z</time></trkpt><trkpt lat="43.7898067" lon="11.3780913"><ele>105.0</ele><time>2026-04-25T08:23:24.743Z</time></trkpt><trkpt lat="43.7899359" lon="11.3780631"><ele>105.0</ele><time>2026-04-25T08:23:25.743Z</time></trkpt><trkpt lat="43.7900601" lon="11.3780398"><ele>105.0</ele><time>2026-04-25T08:23:26.743Z</time></trkpt><trkpt lat="43.7901897" lon="11.378015"><ele>103.5</ele><time>2026-04-25T08:23:27.744Z</time></trkpt><trkpt lat="43.790308" lon="11.3779945"><ele>102.0</ele><time>2026-04-25T08:23:28.744Z</time></trkpt><trkpt lat="43.790433" lon="11.3779687"><ele>100.5</ele><time>2026-04-25T08:23:29.745Z</time></trkpt><trkpt lat="43.7905543" lon="11.3779367"><ele>99.0</ele><time>2026-04-25T08:23:30.743Z</time></trkpt><trkpt lat="43.790678" lon="11.3779089"><ele>99.0</ele><time>2026-04-25T08:23:31.745Z</time></trkpt><trkpt lat="43.7908042" lon="11.3778788"><ele>99.0</ele><time>2026-04-25T08:23:32.744Z</time></trkpt><trkpt lat="43.7909324" lon="11.3778509"><ele>99.0</ele><time>2026-04-25T08:23:33.744Z</time></trkpt><trkpt lat="43.7910656" lon="11.3778231"><ele>99.0</ele><time>2026-04-25T08:23:34.743Z</time></trkpt><trkpt lat="43.7912111" lon="11.3777866"><ele>102.0</ele><time>2026-04-25T08:23:35.744Z</time></trkpt><trkpt lat="43.7913744" lon="11.3777463"><ele>105.0</ele><time>2026-04-25T08:23:36.743Z</time></trkpt><trkpt lat="43.7915513" lon="11.3777069"><ele>108.0</ele><time>2026-04-25T08:23:37.743Z</time></trkpt><trkpt lat="43.7917222" lon="11.3776791"><ele>107.75</ele><time>2026-04-25T08:23:38.744Z</time></trkpt><trkpt lat="43.7919004" lon="11.3776661"><ele>107.5</ele><time>2026-04-25T08:23:39.743Z</time></trkpt><trkpt lat="43.7920441" lon="11.3776824"><ele>107.25</ele><time>2026-04-25T08:23:40.743Z</time></trkpt><trkpt lat="43.7921564" lon="11.3777096"><ele>107.0</ele><time>2026-04-25T08:23:41.743Z</time></trkpt><trkpt lat="43.7922522" lon="11.3777615"><ele>107.0</ele><time>2026-04-25T08:23:42.743Z</time></trkpt><trkpt lat="43.7923317" lon="11.3778622"><ele>107.0</ele><time>2026-04-25T08:23:43.744Z</time></trkpt><trkpt lat="43.7923873" lon="11.3779906"><ele>107.0</ele><time>2026-04-25T08:23:44.743Z</time></trkpt><trkpt lat="43.7924054" lon="11.3781779"><ele>107.0</ele><time>2026-04-25T08:23:45.743Z</time></trkpt><trkpt lat="43.7924256" lon="11.3783925"><ele>110.66666666666666</ele><time>2026-04-25T08:23:46.745Z</time></trkpt><trkpt lat="43.7924529" lon="11.3786318"><ele>114.33333333333334</ele><time>2026-04-25T08:23:47.743Z</time></trkpt><trkpt lat="43.7924869" lon="11.3788828"><ele>118.0</ele><time>2026-04-25T08:23:48.743Z</time></trkpt><trkpt lat="43.7925284" lon="11.3791024"><ele>118.5</ele><time>2026-04-25T08:23:49.744Z</time></trkpt><trkpt lat="43.7925832" lon="11.3792972"><ele>119.0</ele><time>2026-04-25T08:23:50.744Z</time></trkpt><trkpt lat="43.7926518" lon="11.3794723"><ele>119.5</ele><time>2026-04-25T08:23:51.743Z</time></trkpt><trkpt lat="43.7927423" lon="11.3796277"><ele>120.0</ele><time>2026-04-25T08:23:52.743Z</time></trkpt><trkpt lat="43.7928499" lon="11.3797818"><ele>122.5</ele><time>2026-04-25T08:23:53.743Z</time></trkpt><trkpt lat="43.7929464" lon="11.3799057"><ele>125.0</ele><time>2026-04-25T08:23:54.743Z</time></trkpt><trkpt lat="43.7930359" lon="11.3800212"><ele>127.5</ele><time>2026-04-25T08:23:55.744Z</time></trkpt><trkpt lat="43.7931264" lon="11.3801005"><ele>130.0</ele><time>2026-04-25T08:23:56.743Z</time></trkpt><trkpt lat="43.7932272" lon="11.3801609"><ele>130.0</ele><time>2026-04-25T08:23:57.743Z</time></trkpt><trkpt lat="43.7933335" lon="11.3802179"><ele>130.0</ele><time>2026-04-25T08:23:58.743Z</time></trkpt><trkpt lat="43.7934383" lon="11.38027"><ele>130.0</ele><time>2026-04-25T08:23:59.743Z</time></trkpt><trkpt lat="43.7935329" lon="11.3803173"><ele>130.0</ele><time>2026-04-25T08:24:00.743Z</time></trkpt><trkpt lat="43.7936357" lon="11.3803507"><ele>130.0</ele><time>2026-04-25T08:24:01.743Z</time></trkpt><trkpt lat="43.7937512" lon="11.380379"><ele>131.2</ele><time>2026-04-25T08:24:02.744Z</time></trkpt><trkpt lat="43.7938703" lon="11.3803669"><ele>132.4</ele><time>2026-04-25T08:24:03.745Z</time></trkpt><trkpt lat="43.7939711" lon="11.3803738"><ele>133.6</ele><time>2026-04-25T08:24:04.744Z</time></trkpt><trkpt lat="43.7940602" lon="11.3803693"><ele>134.8</ele><time>2026-04-25T08:24:05.744Z</time></trkpt><trkpt lat="43.794141" lon="11.3803585"><ele>136.0</ele><time>2026-04-25T08:24:06.744Z</time></trkpt><trkpt lat="43.7942073" lon="11.3803535"><ele>136.0</ele><time>2026-04-25T08:24:07.743Z</time></trkpt><trkpt lat="43.794289" lon="11.3803732"><ele>136.0</ele><time>2026-04-25T08:24:09.744Z</time></trkpt><trkpt lat="43.7943377" lon="11.3804863"><ele>136.0</ele><time>2026-04-25T08:24:12.744Z</time></trkpt><trkpt lat="43.7943251" lon="11.3805756"><ele>136.0</ele><time>2026-04-25T08:24:14.743Z</time></trkpt><trkpt lat="43.7943201" lon="11.3807041"><ele>136.0</ele><time>2026-04-25T08:24:17.744Z</time></trkpt><trkpt lat="43.7943711" lon="11.3808171"><ele>136.0</ele><time>2026-04-25T08:24:19.743Z</time></trkpt><trkpt lat="43.7944409" lon="11.3809535"><ele>138.66666666666669</ele><time>2026-04-25T08:24:21.744Z</time></trkpt><trkpt lat="43.7944769" lon="11.381081"><ele>141.33333333333334</ele><time>2026-04-25T08:24:23.743Z</time></trkpt><trkpt lat="43.7945013" lon="11.3811653"><ele>144.0</ele><time>2026-04-25T08:24:25.744Z</time></trkpt><trkpt lat="43.7944743" lon="11.3812464"><ele>146.66666666666666</ele><time>2026-04-25T08:24:27.745Z</time></trkpt><trkpt lat="43.7944403" lon="11.3813833"><ele>149.33333333333331</ele><time>2026-04-25T08:24:29.743Z</time></trkpt><trkpt lat="43.7944154" lon="11.3814752"><ele>152.0</ele><time>2026-04-25T08:24:31.744Z</time></trkpt><trkpt lat="43.7943903" lon="11.3815593"><ele>152.66666666666666</ele><time>2026-04-25T08:24:33.743Z</time></trkpt><trkpt lat="43.7944002" lon="11.3816857"><ele>153.33333333333331</ele><time>2026-04-25T08:24:36.743Z</time></trkpt><trkpt lat="43.7944476" lon="11.3817836"><ele>154.0</ele><time>2026-04-25T08:24:38.744Z</time></trkpt><trkpt lat="43.7945096" lon="11.3818678"><ele>154.66666666666666</ele><time>2026-04-25T08:24:39.743Z</time></trkpt><trkpt lat="43.7945581" lon="11.3819438"><ele>155.33333333333334</ele><time>2026-04-25T08:24:40.744Z</time></trkpt><trkpt lat="43.7946072" lon="11.3820077"><ele>156.0</ele><time>2026-04-25T08:24:41.743Z</time></trkpt><trkpt lat="43.7946731" lon="11.382129"><ele>154.8</ele><time>2026-04-25T08:24:43.745Z</time></trkpt><trkpt lat="43.7947245" lon="11.3821851"><ele>153.6</ele><time>2026-04-25T08:24:44.743Z</time></trkpt><trkpt lat="43.7948257" lon="11.382274"><ele>152.4</ele><time>2026-04-25T08:24:46.743Z</time></trkpt><trkpt lat="43.7948598" lon="11.3823888"><ele>151.2</ele><time>2026-04-25T08:24:48.743Z</time></trkpt><trkpt lat="43.7949259" lon="11.3825312"><ele>150.0</ele><time>2026-04-25T08:24:50.744Z</time></trkpt><trkpt lat="43.7949687" lon="11.3826142"><ele>150.0</ele><time>2026-04-25T08:24:51.743Z</time></trkpt><trkpt lat="43.7950109" lon="11.3827587"><ele>150.0</ele><time>2026-04-25T08:24:53.744Z</time></trkpt><trkpt lat="43.7950804" lon="11.382892"><ele>150.0</ele><time>2026-04-25T08:24:55.743Z</time></trkpt><trkpt lat="43.795124" lon="11.3829761"><ele>150.0</ele><time>2026-04-25T08:24:56.743Z</time></trkpt><trkpt lat="43.7951616" lon="11.3830597"><ele>150.0</ele><time>2026-04-25T08:24:57.743Z</time></trkpt><trkpt lat="43.7952072" lon="11.3831287"><ele>150.0</ele><time>2026-04-25T08:24:58.743Z</time></trkpt><trkpt lat="43.7952692" lon="11.3832053"><ele>152.99999999999997</ele><time>2026-04-25T08:24:59.745Z</time></trkpt><trkpt lat="43.7953159" lon="11.3832785"><ele>156.0</ele><time>2026-04-25T08:25:00.744Z</time></trkpt><trkpt lat="43.7953787" lon="11.3833604"><ele>159.0</ele><time>2026-04-25T08:25:01.743Z</time></trkpt><trkpt lat="43.7954233" lon="11.3834403"><ele>162.0</ele><time>2026-04-25T08:25:02.744Z</time></trkpt><trkpt lat="43.795468" lon="11.3835169"><ele>165.0</ele><time>2026-04-25T08:25:03.743Z</time></trkpt><trkpt lat="43.7954989" lon="11.3836066"><ele>167.99999999999997</ele><time>2026-04-25T08:25:04.744Z</time></trkpt><trkpt lat="43.7955383" lon="11.3836886"><ele>171.0</ele><time>2026-04-25T08:25:05.743Z</time></trkpt><trkpt lat="43.7955749" lon="11.383777"><ele>169.5</ele><time>2026-04-25T08:25:06.743Z</time></trkpt><trkpt lat="43.7956254" lon="11.3839032"><ele>168.0</ele><time>2026-04-25T08:25:08.745Z</time></trkpt><trkpt lat="43.795659" lon="11.3839969"><ele>166.5</ele><time>2026-04-25T08:25:11.743Z</time></trkpt><trkpt lat="43.7956992" lon="11.3840691"><ele>165.0</ele><time>2026-04-25T08:25:19.743Z</time></trkpt><trkpt lat="43.7957344" lon="11.3841445"><ele>163.5</ele><time>2026-04-25T08:25:21.743Z</time></trkpt><trkpt lat="43.7957736" lon="11.3842599"><ele>162.0</ele><time>2026-04-25T08:25:22.743Z</time></trkpt><trkpt lat="43.7958198" lon="11.3843462"><ele>162.0</ele><time>2026-04-25T08:25:23.744Z</time></trkpt><trkpt lat="43.7958873" lon="11.3844645"><ele>162.0</ele><time>2026-04-25T08:25:25.743Z</time></trkpt><trkpt lat="43.7959279" lon="11.3845499"><ele>162.0</ele><time>2026-04-25T08:25:27.744Z</time></trkpt><trkpt lat="43.7958842" lon="11.3846481"><ele>162.0</ele><time>2026-04-25T08:25:30.744Z</time></trkpt><trkpt lat="43.7958292" lon="11.3847146"><ele>162.0</ele><time>2026-04-25T08:25:32.744Z</time></trkpt><trkpt lat="43.7957571" lon="11.384801"><ele>162.0</ele><time>2026-04-25T08:25:34.744Z</time></trkpt><trkpt lat="43.7957152" lon="11.3849153"><ele>161.33333333333334</ele><time>2026-04-25T08:25:36.744Z</time></trkpt><trkpt lat="43.7956731" lon="11.3850475"><ele>160.66666666666666</ele><time>2026-04-25T08:25:38.743Z</time></trkpt><trkpt lat="43.7956783" lon="11.385138"><ele>160.0</ele><time>2026-04-25T08:25:40.744Z</time></trkpt><trkpt lat="43.7956648" lon="11.385229"><ele>159.33333333333331</ele><time>2026-04-25T08:25:42.743Z</time></trkpt><trkpt lat="43.795649" lon="11.3853493"><ele>158.66666666666666</ele><time>2026-04-25T08:25:44.743Z</time></trkpt><trkpt lat="43.7956573" lon="11.3854431"><ele>158.0</ele><time>2026-04-25T08:25:46.743Z</time></trkpt><trkpt lat="43.7956772" lon="11.3855314"><ele>154.8</ele><time>2026-04-25T08:25:48.744Z</time></trkpt><trkpt lat="43.7956909" lon="11.3856731"><ele>151.60000000000002</ele><time>2026-04-25T08:25:51.743Z</time></trkpt><trkpt lat="43.7956976" lon="11.3858285"><ele>148.39999999999998</ele><time>2026-04-25T08:25:53.743Z</time></trkpt><trkpt lat="43.7956989" lon="11.3859798"><ele>145.2</ele><time>2026-04-25T08:25:55.744Z</time></trkpt><trkpt lat="43.7957257" lon="11.386122"><ele>142.0</ele><time>2026-04-25T08:25:57.743Z</time></trkpt><trkpt lat="43.7957392" lon="11.3862411"><ele>139.83333333333334</ele><time>2026-04-25T08:25:59.743Z</time></trkpt><trkpt lat="43.7957534" lon="11.3863598"><ele>137.66666666666669</ele><time>2026-04-25T08:26:01.743Z</time></trkpt><trkpt lat="43.7957594" lon="11.386479"><ele>135.5</ele><time>2026-04-25T08:26:03.743Z</time></trkpt><trkpt lat="43.7957661" lon="11.3865683"><ele>133.33333333333334</ele><time>2026-04-25T08:26:05.743Z</time></trkpt><trkpt lat="43.7957222" lon="11.3866794"><ele>131.16666666666666</ele><time>2026-04-25T08:26:07.743Z</time></trkpt><trkpt lat="43.7956869" lon="11.3867828"><ele>129.0</ele><time>2026-04-25T08:26:09.744Z</time></trkpt><trkpt lat="43.7956872" lon="11.3869004"><ele>129.0</ele><time>2026-04-25T08:26:12.744Z</time></trkpt><trkpt lat="43.7956867" lon="11.3867823"><ele>129.0</ele><time>2026-04-25T08:32:34.743Z</time></trkpt><trkpt lat="43.795726" lon="11.3866839"><ele>129.0</ele><time>2026-04-25T08:32:36.744Z</time></trkpt><trkpt lat="43.7957828" lon="11.3865778"><ele>129.0</ele><time>2026-04-25T08:32:38.743Z</time></trkpt><trkpt lat="43.795789" lon="11.3864449"><ele>129.0</ele><time>2026-04-25T08:32:40.744Z</time></trkpt><trkpt lat="43.7957725" lon="11.3863246"><ele>129.0</ele><time>2026-04-25T08:32:42.743Z</time></trkpt><trkpt lat="43.7957589" lon="11.3862338"><ele>131.16666666666666</ele><time>2026-04-25T08:32:44.743Z</time></trkpt><trkpt lat="43.795747" lon="11.3861255"><ele>133.33333333333334</ele><time>2026-04-25T08:33:27.743Z</time></trkpt><trkpt lat="43.7957261" lon="11.3860201"><ele>135.5</ele><time>2026-04-25T08:33:29.743Z</time></trkpt><trkpt lat="43.7957111" lon="11.3858953"><ele>137.66666666666669</ele><time>2026-04-25T08:33:31.744Z</time></trkpt><trkpt lat="43.7957121" lon="11.3857596"><ele>139.83333333333334</ele><time>2026-04-25T08:33:33.743Z</time></trkpt><trkpt lat="43.795714" lon="11.3856236"><ele>142.0</ele><time>2026-04-25T08:33:35.743Z</time></trkpt><trkpt lat="43.7957146" lon="11.3855315"><ele>145.2</ele><time>2026-04-25T08:33:42.743Z</time></trkpt><trkpt lat="43.7956807" lon="11.3854102"><ele>148.39999999999998</ele><time>2026-04-25T08:33:45.744Z</time></trkpt><trkpt lat="43.7956645" lon="11.3852829"><ele>151.60000000000002</ele><time>2026-04-25T08:33:47.743Z</time></trkpt><trkpt lat="43.7956586" lon="11.3851626"><ele>154.8</ele><time>2026-04-25T08:33:49.745Z</time></trkpt><trkpt lat="43.7956818" lon="11.3850807"><ele>158.0</ele><time>2026-04-25T08:33:50.744Z</time></trkpt><trkpt lat="43.7957151" lon="11.3849251"><ele>158.00000000000003</ele><time>2026-04-25T08:33:52.743Z</time></trkpt><trkpt lat="43.7957607" lon="11.3848496"><ele>158.0</ele><time>2026-04-25T08:33:54.744Z</time></trkpt><trkpt lat="43.7958247" lon="11.3847794"><ele>158.0</ele><time>2026-04-25T08:33:56.744Z</time></trkpt><trkpt lat="43.7958743" lon="11.3847166"><ele>158.0</ele><time>2026-04-25T08:33:58.743Z</time></trkpt><trkpt lat="43.7959212" lon="11.3846485"><ele>158.0</ele><time>2026-04-25T08:34:02.744Z</time></trkpt><trkpt lat="43.7959617" lon="11.3845709"><ele>158.00000000000003</ele><time>2026-04-25T08:34:05.743Z</time></trkpt><trkpt lat="43.795995" lon="11.3844889"><ele>158.0</ele><time>2026-04-25T08:34:07.743Z</time></trkpt><trkpt lat="43.7960315" lon="11.3844148"><ele>158.66666666666666</ele><time>2026-04-25T08:34:17.743Z</time></trkpt><trkpt lat="43.7959914" lon="11.3842995"><ele>159.33333333333331</ele><time>2026-04-25T08:34:21.744Z</time></trkpt><trkpt lat="43.7959475" lon="11.3841827"><ele>160.0</ele><time>2026-04-25T08:34:24.745Z</time></trkpt><trkpt lat="43.7959152" lon="11.3840821"><ele>160.66666666666666</ele><time>2026-04-25T08:34:26.743Z</time></trkpt><trkpt lat="43.7958887" lon="11.3839827"><ele>161.33333333333334</ele><time>2026-04-25T08:34:28.743Z</time></trkpt><trkpt lat="43.7958629" lon="11.383898"><ele>162.0</ele><time>2026-04-25T08:34:30.743Z</time></trkpt><trkpt lat="43.7958161" lon="11.383822"><ele>163.28571428571428</ele><time>2026-04-25T08:34:32.744Z</time></trkpt><trkpt lat="43.7957731" lon="11.3837556"><ele>164.57142857142856</ele><time>2026-04-25T08:34:34.743Z</time></trkpt><trkpt lat="43.7957218" lon="11.3836845"><ele>165.85714285714283</ele><time>2026-04-25T08:34:37.744Z</time></trkpt><trkpt lat="43.7956828" lon="11.3836135"><ele>167.14285714285714</ele><time>2026-04-25T08:34:54.745Z</time></trkpt><trkpt lat="43.7957377" lon="11.3835507"><ele>168.42857142857142</ele><time>2026-04-25T08:35:02.743Z</time></trkpt><trkpt lat="43.7957993" lon="11.3834888"><ele>169.7142857142857</ele><time>2026-04-25T08:35:05.744Z</time></trkpt><trkpt lat="43.7958581" lon="11.3834514"><ele>171.0</ele><time>2026-04-25T08:35:07.743Z</time></trkpt><trkpt lat="43.7959323" lon="11.3833928"><ele>171.66666666666666</ele><time>2026-04-25T08:35:10.743Z</time></trkpt><trkpt lat="43.7960101" lon="11.3833135"><ele>172.33333333333334</ele><time>2026-04-25T08:35:13.743Z</time></trkpt><trkpt lat="43.7960772" lon="11.3832699"><ele>173.0</ele><time>2026-04-25T08:35:17.743Z</time></trkpt><trkpt lat="43.7961146" lon="11.3831896"><ele>173.66666666666669</ele><time>2026-04-25T08:35:21.743Z</time></trkpt><trkpt lat="43.7961672" lon="11.3831184"><ele>174.33333333333334</ele><time>2026-04-25T08:35:25.743Z</time></trkpt><trkpt lat="43.7962374" lon="11.383121"><ele>175.0</ele><time>2026-04-25T08:35:28.744Z</time></trkpt><trkpt lat="43.7963113" lon="11.3831138"><ele>175.0</ele><time>2026-04-25T08:35:31.744Z</time></trkpt><trkpt lat="43.7963822" lon="11.3830962"><ele>175.0</ele><time>2026-04-25T08:35:38.743Z</time></trkpt><trkpt lat="43.7964228" lon="11.3829938"><ele>175.0</ele><time>2026-04-25T08:35:41.743Z</time></trkpt><trkpt lat="43.796473" lon="11.3829037"><ele>175.0</ele><time>2026-04-25T08:35:44.744Z</time></trkpt><trkpt lat="43.7965224" lon="11.3828342"><ele>175.0</ele><time>2026-04-25T08:35:53.744Z</time></trkpt><trkpt lat="43.7964993" lon="11.3829212"><ele>175.0</ele><time>2026-04-25T08:37:30.743Z</time></trkpt><trkpt lat="43.7964374" lon="11.3829005"><ele>175.0</ele><time>2026-04-25T08:37:53.744Z</time></trkpt><trkpt lat="43.7964648" lon="11.3827977"><ele>176.5</ele><time>2026-04-25T08:37:56.743Z</time></trkpt><trkpt lat="43.7965128" lon="11.3827073"><ele>178.0</ele><time>2026-04-25T08:37:59.743Z</time></trkpt><trkpt lat="43.796588" lon="11.3826549"><ele>179.5</ele><time>2026-04-25T08:38:02.744Z</time></trkpt><trkpt lat="43.7966554" lon="11.3826231"><ele>181.0</ele><time>2026-04-25T08:38:04.745Z</time></trkpt><trkpt lat="43.7967193" lon="11.382568"><ele>182.5</ele><time>2026-04-25T08:38:06.743Z</time></trkpt><trkpt lat="43.7967768" lon="11.3824797"><ele>184.0</ele><time>2026-04-25T08:38:08.744Z</time></trkpt><trkpt lat="43.7968322" lon="11.3823933"><ele>186.33333333333334</ele><time>2026-04-25T08:38:10.743Z</time></trkpt><trkpt lat="43.7968875" lon="11.3823105"><ele>188.66666666666669</ele><time>2026-04-25T08:38:14.744Z</time></trkpt><trkpt lat="43.7969447" lon="11.3822133"><ele>191.0</ele><time>2026-04-25T08:38:17.744Z</time></trkpt><trkpt lat="43.7969944" lon="11.3821538"><ele>193.33333333333334</ele><time>2026-04-25T08:38:20.743Z</time></trkpt><trkpt lat="43.7970343" lon="11.3820696"><ele>195.66666666666666</ele><time>2026-04-25T08:38:27.743Z</time></trkpt><trkpt lat="43.7970912" lon="11.3821109"><ele>198.0</ele><time>2026-04-25T08:38:31.744Z</time></trkpt><trkpt lat="43.7971234" lon="11.3822321"><ele>198.0</ele><time>2026-04-25T08:38:34.743Z</time></trkpt><trkpt lat="43.7971407" lon="11.3823355"><ele>198.0</ele><time>2026-04-25T08:38:36.744Z</time></trkpt><trkpt lat="43.7971972" lon="11.3823868"><ele>198.0</ele><time>2026-04-25T08:38:39.744Z</time></trkpt><trkpt lat="43.7972566" lon="11.3824455"><ele>198.0</ele><time>2026-04-25T08:38:43.743Z</time></trkpt><trkpt lat="43.7972942" lon="11.3825163"><ele>198.0</ele><time>2026-04-25T08:38:46.743Z</time></trkpt><trkpt lat="43.797373" lon="11.3825699"><ele>198.0</ele><time>2026-04-25T08:43:22.742Z</time></trkpt><trkpt lat="43.7974656" lon="11.3826167"><ele>198.0</ele><time>2026-04-25T08:43:24.742Z</time></trkpt><trkpt lat="43.7975471" lon="11.3826317"><ele>198.0</ele><time>2026-04-25T08:43:25.742Z</time></trkpt><trkpt lat="43.7976279" lon="11.3826451"><ele>198.0</ele><time>2026-04-25T08:43:26.742Z</time></trkpt><trkpt lat="43.7977194" lon="11.3826486"><ele>198.0</ele><time>2026-04-25T08:43:27.742Z</time></trkpt><trkpt lat="43.7978194" lon="11.3826611"><ele>198.0</ele><time>2026-04-25T08:43:28.742Z</time></trkpt><trkpt lat="43.7979305" lon="11.3826575"><ele>201.0</ele><time>2026-04-25T08:43:29.742Z</time></trkpt><trkpt lat="43.7980454" lon="11.3826692"><ele>204.0</ele><time>2026-04-25T08:43:30.743Z</time></trkpt><trkpt lat="43.7981616" lon="11.3826602"><ele>207.0</ele><time>2026-04-25T08:43:31.743Z</time></trkpt><trkpt lat="43.7982838" lon="11.3826425"><ele>210.0</ele><time>2026-04-25T08:43:32.743Z</time></trkpt><trkpt lat="43.7983964" lon="11.3826243"><ele>209.0</ele><time>2026-04-25T08:43:33.742Z</time></trkpt><trkpt lat="43.7985104" lon="11.382627"><ele>208.0</ele><time>2026-04-25T08:43:34.742Z</time></trkpt><trkpt lat="43.7986165" lon="11.3825887"><ele>207.0</ele><time>2026-04-25T08:43:35.742Z</time></trkpt><trkpt lat="43.7987318" lon="11.3825363"><ele>206.0</ele><time>2026-04-25T08:43:36.743Z</time></trkpt><trkpt lat="43.7988312" lon="11.3824668"><ele>206.0</ele><time>2026-04-25T08:43:37.742Z</time></trkpt><trkpt lat="43.7989211" lon="11.3824004"><ele>206.0</ele><time>2026-04-25T08:43:38.742Z</time></trkpt><trkpt lat="43.7990203" lon="11.3823069"><ele>206.0</ele><time>2026-04-25T08:43:39.742Z</time></trkpt><trkpt lat="43.7991161" lon="11.3822211"><ele>206.0</ele><time>2026-04-25T08:43:40.742Z</time></trkpt><trkpt lat="43.7992247" lon="11.382136"><ele>206.75</ele><time>2026-04-25T08:43:41.742Z</time></trkpt><trkpt lat="43.799319" lon="11.382038"><ele>207.5</ele><time>2026-04-25T08:43:42.743Z</time></trkpt><trkpt lat="43.79941" lon="11.381944"><ele>208.25</ele><time>2026-04-25T08:43:43.742Z</time></trkpt><trkpt lat="43.7995129" lon="11.3818378"><ele>209.0</ele><time>2026-04-25T08:43:44.742Z</time></trkpt><trkpt lat="43.7996222" lon="11.3817208"><ele>209.0</ele><time>2026-04-25T08:43:45.742Z</time></trkpt><trkpt lat="43.7997281" lon="11.3815929"><ele>209.0</ele><time>2026-04-25T08:43:46.742Z</time></trkpt><trkpt lat="43.7998064" lon="11.3814752"><ele>209.0</ele><time>2026-04-25T08:43:47.742Z</time></trkpt><trkpt lat="43.7998884" lon="11.3813474"><ele>209.0</ele><time>2026-04-25T08:43:48.743Z</time></trkpt><trkpt lat="43.799973" lon="11.3812063"><ele>207.5</ele><time>2026-04-25T08:43:49.742Z</time></trkpt><trkpt lat="43.8000527" lon="11.3810644"><ele>206.0</ele><time>2026-04-25T08:43:50.742Z</time></trkpt><trkpt lat="43.8001454" lon="11.3809305"><ele>204.5</ele><time>2026-04-25T08:43:51.742Z</time></trkpt><trkpt lat="43.800232" lon="11.3808021"><ele>203.0</ele><time>2026-04-25T08:43:52.742Z</time></trkpt><trkpt lat="43.8003345" lon="11.380704"><ele>203.0</ele><time>2026-04-25T08:43:53.744Z</time></trkpt><trkpt lat="43.8004272" lon="11.3806051"><ele>203.0</ele><time>2026-04-25T08:43:54.742Z</time></trkpt><trkpt lat="43.8005189" lon="11.3804926"><ele>203.0</ele><time>2026-04-25T08:43:55.742Z</time></trkpt><trkpt lat="43.8006111" lon="11.3803592"><ele>203.0</ele><time>2026-04-25T08:43:56.743Z</time></trkpt><trkpt lat="43.8006973" lon="11.3802183"><ele>209.25</ele><time>2026-04-25T08:43:57.742Z</time></trkpt><trkpt lat="43.8007812" lon="11.3800763"><ele>215.5</ele><time>2026-04-25T08:43:58.743Z</time></trkpt><trkpt lat="43.800873" lon="11.3799323"><ele>221.75</ele><time>2026-04-25T08:43:59.742Z</time></trkpt><trkpt lat="43.8009683" lon="11.3797894"><ele>228.0</ele><time>2026-04-25T08:44:00.742Z</time></trkpt><trkpt lat="43.8010684" lon="11.3796439"><ele>228.5</ele><time>2026-04-25T08:44:01.742Z</time></trkpt><trkpt lat="43.801167" lon="11.379493"><ele>229.0</ele><time>2026-04-25T08:44:02.743Z</time></trkpt><trkpt lat="43.8012641" lon="11.379351"><ele>229.5</ele><time>2026-04-25T08:44:03.742Z</time></trkpt><trkpt lat="43.8013633" lon="11.3792072"><ele>230.0</ele><time>2026-04-25T08:44:04.743Z</time></trkpt><trkpt lat="43.8014514" lon="11.3790683"><ele>230.0</ele><time>2026-04-25T08:44:05.743Z</time></trkpt><trkpt lat="43.8015461" lon="11.3789342"><ele>230.0</ele><time>2026-04-25T08:44:06.742Z</time></trkpt><trkpt lat="43.8016412" lon="11.3788061"><ele>230.0</ele><time>2026-04-25T08:44:07.743Z</time></trkpt><trkpt lat="43.8017569" lon="11.3786968"><ele>230.0</ele><time>2026-04-25T08:44:08.743Z</time></trkpt><trkpt lat="43.8018761" lon="11.3785931"><ele>231.75</ele><time>2026-04-25T08:44:09.743Z</time></trkpt><trkpt lat="43.8019937" lon="11.3784966"><ele>233.5</ele><time>2026-04-25T08:44:10.743Z</time></trkpt><trkpt lat="43.8021284" lon="11.3784049"><ele>235.25</ele><time>2026-04-25T08:44:11.742Z</time></trkpt><trkpt lat="43.8022502" lon="11.3783706"><ele>237.0</ele><time>2026-04-25T08:44:12.744Z</time></trkpt><trkpt lat="43.8023768" lon="11.3783268"><ele>237.0</ele><time>2026-04-25T08:44:13.744Z</time></trkpt><trkpt lat="43.8025089" lon="11.3782977"><ele>237.0</ele><time>2026-04-25T08:44:14.742Z</time></trkpt><trkpt lat="43.8026287" lon="11.3782572"><ele>237.0</ele><time>2026-04-25T08:44:15.742Z</time></trkpt><trkpt lat="43.8027611" lon="11.3781962"><ele>237.0</ele><time>2026-04-25T08:44:16.742Z</time></trkpt><trkpt lat="43.8028869" lon="11.3781302"><ele>237.5</ele><time>2026-04-25T08:44:17.742Z</time></trkpt><trkpt lat="43.8030097" lon="11.378071"><ele>238.0</ele><time>2026-04-25T08:44:18.743Z</time></trkpt><trkpt lat="43.8031197" lon="11.3780066"><ele>238.5</ele><time>2026-04-25T08:44:19.743Z</time></trkpt><trkpt lat="43.8032297" lon="11.3779462"><ele>239.0</ele><time>2026-04-25T08:44:20.743Z</time></trkpt><trkpt lat="43.8033478" lon="11.3778958"><ele>244.75</ele><time>2026-04-25T08:44:21.742Z</time></trkpt><trkpt lat="43.803468" lon="11.3778695"><ele>250.5</ele><time>2026-04-25T08:44:22.743Z</time></trkpt><trkpt lat="43.8035998" lon="11.3778584"><ele>256.25</ele><time>2026-04-25T08:44:23.743Z</time></trkpt><trkpt lat="43.8037328" lon="11.3778442"><ele>262.0</ele><time>2026-04-25T08:44:24.742Z</time></trkpt><trkpt lat="43.803874" lon="11.3778447"><ele>262.0</ele><time>2026-04-25T08:44:25.742Z</time></trkpt><trkpt lat="43.8040119" lon="11.3778362"><ele>262.0</ele><time>2026-04-25T08:44:26.742Z</time></trkpt><trkpt lat="43.8041255" lon="11.3778381"><ele>262.0</ele><time>2026-04-25T08:44:27.743Z</time></trkpt><trkpt lat="43.8042445" lon="11.3778435"><ele>262.0</ele><time>2026-04-25T08:44:28.742Z</time></trkpt><trkpt lat="43.8043652" lon="11.3778517"><ele>262.16666666666663</ele><time>2026-04-25T08:44:29.742Z</time></trkpt><trkpt lat="43.8044745" lon="11.3778552"><ele>262.3333333333333</ele><time>2026-04-25T08:44:30.742Z</time></trkpt><trkpt lat="43.8045393" lon="11.377891"><ele>262.5</ele><time>2026-04-25T08:44:31.743Z</time></trkpt><trkpt lat="43.8046123" lon="11.3779309"><ele>262.6666666666667</ele><time>2026-04-25T08:44:32.743Z</time></trkpt><trkpt lat="43.8046405" lon="11.3780373"><ele>262.83333333333337</ele><time>2026-04-25T08:44:33.743Z</time></trkpt><trkpt lat="43.8046881" lon="11.3781721"><ele>263.0</ele><time>2026-04-25T08:44:35.742Z</time></trkpt><trkpt lat="43.8045837" lon="11.3782517"><ele>261.6</ele><time>2026-04-25T08:44:36.742Z</time></trkpt><trkpt lat="43.8044988" lon="11.3783366"><ele>260.20000000000005</ele><time>2026-04-25T08:44:37.743Z</time></trkpt><trkpt lat="43.8044127" lon="11.3784339"><ele>258.8</ele><time>2026-04-25T08:44:38.743Z</time></trkpt><trkpt lat="43.8043557" lon="11.3785173"><ele>257.40000000000003</ele><time>2026-04-25T08:44:39.743Z</time></trkpt><trkpt lat="43.8043307" lon="11.3786104"><ele>256.0</ele><time>2026-04-25T08:44:40.742Z</time></trkpt><trkpt lat="43.8043535" lon="11.3787306"><ele>256.3333333333333</ele><time>2026-04-25T08:44:41.742Z</time></trkpt><trkpt lat="43.8043416" lon="11.3788533"><ele>256.66666666666663</ele><time>2026-04-25T08:44:42.743Z</time></trkpt><trkpt lat="43.8043275" lon="11.3789483"><ele>257.0</ele><time>2026-04-25T08:44:43.743Z</time></trkpt><trkpt lat="43.8043143" lon="11.3790456"><ele>257.3333333333333</ele><time>2026-04-25T08:44:44.743Z</time></trkpt><trkpt lat="43.8042688" lon="11.3791156"><ele>257.6666666666667</ele><time>2026-04-25T08:44:45.742Z</time></trkpt><trkpt lat="43.804222" lon="11.3791984"><ele>258.0</ele><time>2026-04-25T08:44:46.742Z</time></trkpt><trkpt lat="43.8041471" lon="11.3792152"><ele>255.4</ele><time>2026-04-25T08:44:47.743Z</time></trkpt><trkpt lat="43.8040634" lon="11.3792793"><ele>252.8</ele><time>2026-04-25T08:44:49.742Z</time></trkpt><trkpt lat="43.8039877" lon="11.379306"><ele>250.2</ele><time>2026-04-25T08:44:51.743Z</time></trkpt><trkpt lat="43.8038723" lon="11.3793314"><ele>247.6</ele><time>2026-04-25T08:44:53.743Z</time></trkpt><trkpt lat="43.803762" lon="11.3793387"><ele>245.0</ele><time>2026-04-25T08:44:55.744Z</time></trkpt><trkpt lat="43.8036768" lon="11.3793701"><ele>245.00000000000003</ele><time>2026-04-25T08:44:57.742Z</time></trkpt><trkpt lat="43.8036047" lon="11.3793634"><ele>245.0</ele><time>2026-04-25T08:44:59.743Z</time></trkpt><trkpt lat="43.8035085" lon="11.3793701"><ele>245.0</ele><time>2026-04-25T08:45:02.743Z</time></trkpt><trkpt lat="43.8034434" lon="11.3793781"><ele>245.0</ele><time>2026-04-25T08:45:03.744Z</time></trkpt><trkpt lat="43.8033665" lon="11.3793758"><ele>245.00000000000003</ele><time>2026-04-25T08:45:05.744Z</time></trkpt><trkpt lat="43.8032905" lon="11.3793932"><ele>245.0</ele><time>2026-04-25T08:45:07.742Z</time></trkpt><trkpt lat="43.8032171" lon="11.3794229"><ele>244.00000000000003</ele><time>2026-04-25T08:45:09.742Z</time></trkpt><trkpt lat="43.8031533" lon="11.3794531"><ele>243.0</ele><time>2026-04-25T08:45:11.743Z</time></trkpt><trkpt lat="43.803079" lon="11.3794598"><ele>242.0</ele><time>2026-04-25T08:45:13.743Z</time></trkpt><trkpt lat="43.8029817" lon="11.3795129"><ele>241.0</ele><time>2026-04-25T08:45:15.742Z</time></trkpt><trkpt lat="43.8028852" lon="11.3795705"><ele>240.00000000000003</ele><time>2026-04-25T08:45:17.743Z</time></trkpt><trkpt lat="43.8027949" lon="11.3796152"><ele>239.0</ele><time>2026-04-25T08:45:19.742Z</time></trkpt><trkpt lat="43.8027164" lon="11.3796596"><ele>237.42857142857144</ele><time>2026-04-25T08:45:21.742Z</time></trkpt><trkpt lat="43.8026563" lon="11.3796957"><ele>235.85714285714286</ele><time>2026-04-25T08:45:23.743Z</time></trkpt><trkpt lat="43.8025953" lon="11.3797581"><ele>234.28571428571428</ele><time>2026-04-25T08:45:26.743Z</time></trkpt><trkpt lat="43.8025301" lon="11.3798089"><ele>232.71428571428572</ele><time>2026-04-25T08:45:30.743Z</time></trkpt><trkpt lat="43.8024585" lon="11.3798892"><ele>231.1428571428571</ele><time>2026-04-25T08:45:33.742Z</time></trkpt><trkpt lat="43.8024136" lon="11.379962"><ele>229.57142857142856</ele><time>2026-04-25T08:45:36.742Z</time></trkpt><trkpt lat="43.8023689" lon="11.380038"><ele>228.0</ele><time>2026-04-25T08:45:39.742Z</time></trkpt><trkpt lat="43.80233" lon="11.3801176"><ele>228.0</ele><time>2026-04-25T08:45:42.742Z</time></trkpt><trkpt lat="43.8022836" lon="11.3801874"><ele>228.0</ele><time>2026-04-25T08:45:44.744Z</time></trkpt><trkpt lat="43.8022463" lon="11.3802801"><ele>228.0</ele><time>2026-04-25T08:45:46.742Z</time></trkpt><trkpt lat="43.8022097" lon="11.380396"><ele>228.0</ele><time>2026-04-25T08:45:49.743Z</time></trkpt><trkpt lat="43.8021571" lon="11.3804865"><ele>228.0</ele><time>2026-04-25T08:45:52.742Z</time></trkpt><trkpt lat="43.8020946" lon="11.3805664"><ele>228.0</ele><time>2026-04-25T08:45:55.743Z</time></trkpt><trkpt lat="43.8020395" lon="11.3806155"><ele>226.85714285714283</ele><time>2026-04-25T08:45:57.743Z</time></trkpt><trkpt lat="43.802009" lon="11.3806995"><ele>225.7142857142857</ele><time>2026-04-25T08:45:59.742Z</time></trkpt><trkpt lat="43.802052" lon="11.3808081"><ele>224.57142857142856</ele><time>2026-04-25T08:46:02.743Z</time></trkpt><trkpt lat="43.8020991" lon="11.3808689"><ele>223.42857142857142</ele><time>2026-04-25T08:46:04.742Z</time></trkpt><trkpt lat="43.8021506" lon="11.3809238"><ele>222.28571428571428</ele><time>2026-04-25T08:46:06.742Z</time></trkpt><trkpt lat="43.8022164" lon="11.3809658"><ele>221.1428571428571</ele><time>2026-04-25T08:46:10.742Z</time></trkpt><trkpt lat="43.8022721" lon="11.3810161"><ele>220.0</ele><time>2026-04-25T08:46:15.742Z</time></trkpt><trkpt lat="43.802211" lon="11.3810436"><ele>219.99999999999997</ele><time>2026-04-25T08:46:22.743Z</time></trkpt><trkpt lat="43.8021554" lon="11.3810936"><ele>220.0</ele><time>2026-04-25T08:46:24.744Z</time></trkpt><trkpt lat="43.8020826" lon="11.3811303"><ele>220.0</ele><time>2026-04-25T08:46:28.742Z</time></trkpt><trkpt lat="43.8020008" lon="11.3811356"><ele>220.0</ele><time>2026-04-25T08:46:35.742Z</time></trkpt><trkpt lat="43.8019409" lon="11.3811941"><ele>220.0</ele><time>2026-04-25T08:46:41.742Z</time></trkpt><trkpt lat="43.8019008" lon="11.3812636"><ele>219.99999999999997</ele><time>2026-04-25T08:46:45.742Z</time></trkpt><trkpt lat="43.8018466" lon="11.3813499"><ele>220.0</ele><time>2026-04-25T08:46:48.743Z</time></trkpt><trkpt lat="43.8017894" lon="11.3814381"><ele>215.83333333333331</ele><time>2026-04-25T08:46:51.743Z</time></trkpt><trkpt lat="43.8017448" lon="11.381518"><ele>211.66666666666666</ele><time>2026-04-25T08:46:54.742Z</time></trkpt><trkpt lat="43.8017024" lon="11.3815838"><ele>207.5</ele><time>2026-04-25T08:46:57.744Z</time></trkpt><trkpt lat="43.8016462" lon="11.3816625"><ele>203.33333333333331</ele><time>2026-04-25T08:47:02.727Z</time></trkpt><trkpt lat="43.8015817" lon="11.3817385"><ele>199.16666666666666</ele><time>2026-04-25T08:47:06.743Z</time></trkpt><trkpt lat="43.8015177" lon="11.3817664"><ele>195.0</ele><time>2026-04-25T08:47:09.704Z</time></trkpt><trkpt lat="43.8013913" lon="11.3817723"><ele>195.0</ele><time>2026-04-25T08:47:11.743Z</time></trkpt><trkpt lat="43.8013157" lon="11.3817846"><ele>195.0</ele><time>2026-04-25T08:47:12.742Z</time></trkpt><trkpt lat="43.8012491" lon="11.3817998"><ele>195.0</ele><time>2026-04-25T08:47:13.742Z</time></trkpt><trkpt lat="43.8011468" lon="11.3818379"><ele>195.0</ele><time>2026-04-25T08:47:15.743Z</time></trkpt><trkpt lat="43.8010778" lon="11.3818894"><ele>195.0</ele><time>2026-04-25T08:47:17.742Z</time></trkpt><trkpt lat="43.8010256" lon="11.3819937"><ele>195.0</ele><time>2026-04-25T08:47:19.743Z</time></trkpt><trkpt lat="43.8009575" lon="11.3821429"><ele>192.33333333333334</ele><time>2026-04-25T08:47:21.743Z</time></trkpt><trkpt lat="43.8009047" lon="11.3822836"><ele>189.66666666666666</ele><time>2026-04-25T08:47:23.743Z</time></trkpt><trkpt lat="43.8008647" lon="11.3823945"><ele>187.0</ele><time>2026-04-25T08:47:25.742Z</time></trkpt><trkpt lat="43.8008033" lon="11.3824668"><ele>184.33333333333331</ele><time>2026-04-25T08:47:27.744Z</time></trkpt><trkpt lat="43.8007407" lon="11.3824772"><ele>181.66666666666666</ele><time>2026-04-25T08:47:29.742Z</time></trkpt><trkpt lat="43.8006768" lon="11.3824942"><ele>179.0</ele><time>2026-04-25T08:47:31.742Z</time></trkpt><trkpt lat="43.8006149" lon="11.3825337"><ele>179.0</ele><time>2026-04-25T08:47:33.742Z</time></trkpt><trkpt lat="43.8005538" lon="11.3826091"><ele>179.0</ele><time>2026-04-25T08:47:35.742Z</time></trkpt><trkpt lat="43.8004924" lon="11.382678"><ele>179.0</ele><time>2026-04-25T08:47:37.743Z</time></trkpt><trkpt lat="43.8004517" lon="11.3827712"><ele>179.0</ele><time>2026-04-25T08:47:39.742Z</time></trkpt><trkpt lat="43.8004411" lon="11.3828585"><ele>179.0</ele><time>2026-04-25T08:47:45.742Z</time></trkpt><trkpt lat="43.8004686" lon="11.3829755"><ele>179.0</ele><time>2026-04-25T08:48:07.744Z</time></trkpt><trkpt lat="43.8004955" lon="11.3830601"><ele>178.0</ele><time>2026-04-25T08:48:09.742Z</time></trkpt><trkpt lat="43.8005106" lon="11.3831814"><ele>177.0</ele><time>2026-04-25T08:48:12.742Z</time></trkpt><trkpt lat="43.8004931" lon="11.3833049"><ele>176.0</ele><time>2026-04-25T08:48:15.742Z</time></trkpt><trkpt lat="43.8004656" lon="11.3834216"><ele>175.0</ele><time>2026-04-25T08:48:18.742Z</time></trkpt><trkpt lat="43.8004705" lon="11.383546"><ele>174.0</ele><time>2026-04-25T08:48:21.742Z</time></trkpt><trkpt lat="43.8004574" lon="11.3836806"><ele>174.0</ele><time>2026-04-25T08:48:23.742Z</time></trkpt><trkpt lat="43.8004383" lon="11.3838041"><ele>174.0</ele><time>2026-04-25T08:48:25.742Z</time></trkpt><trkpt lat="43.8004103" lon="11.3839102"><ele>174.0</ele><time>2026-04-25T08:48:51.742Z</time></trkpt><trkpt lat="43.8004013" lon="11.384017"><ele>174.0</ele><time>2026-04-25T08:48:53.743Z</time></trkpt><trkpt lat="43.8003842" lon="11.3841433"><ele>174.0</ele><time>2026-04-25T08:48:55.742Z</time></trkpt><trkpt lat="43.8003808" lon="11.384258"><ele>174.0</ele><time>2026-04-25T08:48:57.743Z</time></trkpt><trkpt lat="43.800391" lon="11.3843826"><ele>175.0</ele><time>2026-04-25T08:49:00.743Z</time></trkpt><trkpt lat="43.8003878" lon="11.384504"><ele>176.0</ele><time>2026-04-25T08:49:03.743Z</time></trkpt><trkpt lat="43.8003812" lon="11.3846536"><ele>177.0</ele><time>2026-04-25T08:49:06.742Z</time></trkpt><trkpt lat="43.8004061" lon="11.3847515"><ele>178.0</ele><time>2026-04-25T08:49:07.742Z</time></trkpt><trkpt lat="43.8004051" lon="11.3849253"><ele>179.0</ele><time>2026-04-25T08:49:09.742Z</time></trkpt><trkpt lat="43.8004252" lon="11.3850746"><ele>179.2</ele><time>2026-04-25T08:49:11.742Z</time></trkpt><trkpt lat="43.8004234" lon="11.3852167"><ele>179.39999999999998</ele><time>2026-04-25T08:49:13.742Z</time></trkpt><trkpt lat="43.8003979" lon="11.3853631"><ele>179.6</ele><time>2026-04-25T08:49:15.742Z</time></trkpt><trkpt lat="43.8004314" lon="11.3854513"><ele>179.8</ele><time>2026-04-25T08:49:16.742Z</time></trkpt><trkpt lat="43.8004349" lon="11.3855543"><ele>180.0</ele><time>2026-04-25T08:49:17.742Z</time></trkpt><trkpt lat="43.8004518" lon="11.3857165"><ele>180.0</ele><time>2026-04-25T08:49:19.742Z</time></trkpt><trkpt lat="43.8004243" lon="11.3858806"><ele>180.0</ele><time>2026-04-25T08:49:21.742Z</time></trkpt><trkpt lat="43.800399" lon="11.3860432"><ele>180.0</ele><time>2026-04-25T08:49:23.743Z</time></trkpt><trkpt lat="43.8004238" lon="11.3861669"><ele>180.0</ele><time>2026-04-25T08:49:25.742Z</time></trkpt><trkpt lat="43.800357" lon="11.3862285"><ele>180.0</ele><time>2026-04-25T08:49:29.743Z</time></trkpt><trkpt lat="43.8003177" lon="11.3862985"><ele>178.33333333333334</ele><time>2026-04-25T08:49:35.742Z</time></trkpt><trkpt lat="43.8002832" lon="11.3863975"><ele>176.66666666666666</ele><time>2026-04-25T08:49:36.742Z</time></trkpt><trkpt lat="43.8002545" lon="11.38648"><ele>175.0</ele><time>2026-04-25T08:49:37.743Z</time></trkpt><trkpt lat="43.8002033" lon="11.3866344"><ele>173.33333333333331</ele><time>2026-04-25T08:49:39.743Z</time></trkpt><trkpt lat="43.8001558" lon="11.3867138"><ele>171.66666666666666</ele><time>2026-04-25T08:49:40.743Z</time></trkpt><trkpt lat="43.8001313" lon="11.3868191"><ele>170.0</ele><time>2026-04-25T08:49:42.742Z</time></trkpt><trkpt lat="43.8001015" lon="11.3869472"><ele>162.83333333333331</ele><time>2026-04-25T08:49:44.743Z</time></trkpt><trkpt lat="43.8000937" lon="11.3871146"><ele>155.66666666666666</ele><time>2026-04-25T08:49:46.743Z</time></trkpt><trkpt lat="43.800079" lon="11.3872057"><ele>148.5</ele><time>2026-04-25T08:49:47.742Z</time></trkpt><trkpt lat="43.8000901" lon="11.3873093"><ele>141.33333333333334</ele><time>2026-04-25T08:49:48.742Z</time></trkpt><trkpt lat="43.8001032" lon="11.3874373"><ele>134.16666666666669</ele><time>2026-04-25T08:49:50.742Z</time></trkpt><trkpt lat="43.8000589" lon="11.3875324"><ele>127.0</ele><time>2026-04-25T08:49:52.742Z</time></trkpt><trkpt lat="43.800019" lon="11.387657"><ele>127.0</ele><time>2026-04-25T08:49:54.743Z</time></trkpt><trkpt lat="43.7999897" lon="11.3877946"><ele>126.99999999999999</ele><time>2026-04-25T08:49:56.742Z</time></trkpt><trkpt lat="43.7999745" lon="11.3879332"><ele>126.99999999999999</ele><time>2026-04-25T08:49:58.743Z</time></trkpt><trkpt lat="43.7999777" lon="11.388063"><ele>127.0</ele><time>2026-04-25T08:50:00.742Z</time></trkpt><trkpt lat="43.8000311" lon="11.3881823"><ele>127.0</ele><time>2026-04-25T08:50:02.742Z</time></trkpt><trkpt lat="43.8000714" lon="11.3882636"><ele>127.16666666666667</ele><time>2026-04-25T08:50:04.742Z</time></trkpt><trkpt lat="43.8001321" lon="11.3883111"><ele>127.33333333333334</ele><time>2026-04-25T08:50:06.742Z</time></trkpt><trkpt lat="43.8002024" lon="11.3883587"><ele>127.5</ele><time>2026-04-25T08:50:12.742Z</time></trkpt><trkpt lat="43.8002685" lon="11.388351"><ele>127.66666666666666</ele><time>2026-04-25T08:50:14.743Z</time></trkpt><trkpt lat="43.8003505" lon="11.3883193"><ele>127.83333333333333</ele><time>2026-04-25T08:50:16.742Z</time></trkpt><trkpt lat="43.8004214" lon="11.3882801"><ele>128.0</ele><time>2026-04-25T08:50:18.744Z</time></trkpt><trkpt lat="43.8004894" lon="11.3881815"><ele>128.0</ele><time>2026-04-25T08:50:20.743Z</time></trkpt><trkpt lat="43.8005754" lon="11.3880886"><ele>128.0</ele><time>2026-04-25T08:50:22.742Z</time></trkpt><trkpt lat="43.8006613" lon="11.388"><ele>128.0</ele><time>2026-04-25T08:50:24.742Z</time></trkpt><trkpt lat="43.800729" lon="11.3879778"><ele>128.0</ele><time>2026-04-25T08:50:26.743Z</time></trkpt><trkpt lat="43.8007974" lon="11.3880305"><ele>128.0</ele><time>2026-04-25T08:50:28.742Z</time></trkpt><trkpt lat="43.8008795" lon="11.3881209"><ele>127.99999999999999</ele><time>2026-04-25T08:50:30.743Z</time></trkpt><trkpt lat="43.800938" lon="11.3882016"><ele>128.0</ele><time>2026-04-25T08:50:32.743Z</time></trkpt><trkpt lat="43.8009913" lon="11.3882501"><ele>128.0</ele><time>2026-04-25T08:50:34.742Z</time></trkpt><trkpt lat="43.8010583" lon="11.3882727"><ele>128.0</ele><time>2026-04-25T08:50:37.742Z</time></trkpt><trkpt lat="43.801125" lon="11.3883334"><ele>127.99999999999999</ele><time>2026-04-25T08:50:44.742Z</time></trkpt><trkpt lat="43.8012008" lon="11.3884013"><ele>128.0</ele><time>2026-04-25T08:50:47.744Z</time></trkpt><trkpt lat="43.8012618" lon="11.3884353"><ele>128.0</ele><time>2026-04-25T08:50:49.742Z</time></trkpt><trkpt lat="43.8013426" lon="11.3884411"><ele>128.0</ele><time>2026-04-25T08:50:51.742Z</time></trkpt><trkpt lat="43.8014184" lon="11.3884364"><ele>128.0</ele><time>2026-04-25T08:50:53.743Z</time></trkpt><trkpt lat="43.8015177" lon="11.3884266"><ele>128.0</ele><time>2026-04-25T08:50:56.744Z</time></trkpt><trkpt lat="43.801621" lon="11.3883999"><ele>128.0</ele><time>2026-04-25T08:50:58.743Z</time></trkpt><trkpt lat="43.8017233" lon="11.3883856"><ele>128.20000000000002</ele><time>2026-04-25T08:51:00.742Z</time></trkpt><trkpt lat="43.801843" lon="11.3883918"><ele>128.4</ele><time>2026-04-25T08:51:02.742Z</time></trkpt><trkpt lat="43.8019559" lon="11.3883921"><ele>128.60000000000002</ele><time>2026-04-25T08:51:04.743Z</time></trkpt><trkpt lat="43.8020507" lon="11.3884035"><ele>128.8</ele><time>2026-04-25T08:51:06.743Z</time></trkpt><trkpt lat="43.8021663" lon="11.3884453"><ele>129.0</ele><time>2026-04-25T08:51:08.742Z</time></trkpt><trkpt lat="43.8022251" lon="11.3884784"><ele>129.0</ele><time>2026-04-25T08:51:09.742Z</time></trkpt><trkpt lat="43.8023236" lon="11.3885407"><ele>129.0</ele><time>2026-04-25T08:51:11.743Z</time></trkpt><trkpt lat="43.8024266" lon="11.3885903"><ele>129.0</ele><time>2026-04-25T08:51:13.743Z</time></trkpt><trkpt lat="43.8025401" lon="11.3886059"><ele>129.0</ele><time>2026-04-25T08:51:15.743Z</time></trkpt><trkpt lat="43.8026504" lon="11.3886461"><ele>129.0</ele><time>2026-04-25T08:51:17.742Z</time></trkpt><trkpt lat="43.8027739" lon="11.388694"><ele>130.66666666666666</ele><time>2026-04-25T08:51:19.743Z</time></trkpt><trkpt lat="43.8028342" lon="11.3887245"><ele>132.33333333333334</ele><time>2026-04-25T08:51:20.742Z</time></trkpt><trkpt lat="43.8028979" lon="11.3887474"><ele>134.0</ele><time>2026-04-25T08:51:21.742Z</time></trkpt><trkpt lat="43.8030059" lon="11.3887785"><ele>135.66666666666669</ele><time>2026-04-25T08:51:23.742Z</time></trkpt><trkpt lat="43.8030864" lon="11.38882"><ele>137.33333333333334</ele><time>2026-04-25T08:51:25.744Z</time></trkpt><trkpt lat="43.8031539" lon="11.3888654"><ele>139.0</ele><time>2026-04-25T08:51:27.743Z</time></trkpt><trkpt lat="43.8032222" lon="11.3889135"><ele>135.83333333333334</ele><time>2026-04-25T08:51:29.742Z</time></trkpt><trkpt lat="43.8033105" lon="11.3889849"><ele>132.66666666666669</ele><time>2026-04-25T08:51:31.742Z</time></trkpt><trkpt lat="43.803362" lon="11.3890362"><ele>129.5</ele><time>2026-04-25T08:51:33.742Z</time></trkpt><trkpt lat="43.8034199" lon="11.3891075"><ele>126.33333333333334</ele><time>2026-04-25T08:51:38.742Z</time></trkpt><trkpt lat="43.8034799" lon="11.3891807"><ele>123.16666666666667</ele><time>2026-04-25T08:51:40.742Z</time></trkpt><trkpt lat="43.8035614" lon="11.3893089"><ele>120.0</ele><time>2026-04-25T08:51:42.742Z</time></trkpt><trkpt lat="43.8036388" lon="11.389445"><ele>120.0</ele><time>2026-04-25T08:51:44.742Z</time></trkpt><trkpt lat="43.8037046" lon="11.389592"><ele>120.0</ele><time>2026-04-25T08:51:46.743Z</time></trkpt><trkpt lat="43.8037616" lon="11.3897505"><ele>120.0</ele><time>2026-04-25T08:51:48.742Z</time></trkpt><trkpt lat="43.8037776" lon="11.3898432"><ele>120.0</ele><time>2026-04-25T08:51:49.742Z</time></trkpt><trkpt lat="43.8037755" lon="11.3899444"><ele>120.0</ele><time>2026-04-25T08:51:50.742Z</time></trkpt><trkpt lat="43.8037418" lon="11.3900452"><ele>117.16666666666667</ele><time>2026-04-25T08:51:51.742Z</time></trkpt><trkpt lat="43.8037086" lon="11.39016"><ele>114.33333333333334</ele><time>2026-04-25T08:51:52.743Z</time></trkpt><trkpt lat="43.8036564" lon="11.3902814"><ele>111.5</ele><time>2026-04-25T08:51:53.742Z</time></trkpt><trkpt lat="43.803604" lon="11.3903811"><ele>108.66666666666667</ele><time>2026-04-25T08:51:54.742Z</time></trkpt><trkpt lat="43.8035556" lon="11.390472"><ele>105.83333333333334</ele><time>2026-04-25T08:51:55.742Z</time></trkpt><trkpt lat="43.8035032" lon="11.3905619"><ele>103.0</ele><time>2026-04-25T08:51:56.743Z</time></trkpt><trkpt lat="43.8034546" lon="11.3906493"><ele>100.83333333333334</ele><time>2026-04-25T08:51:57.743Z</time></trkpt><trkpt lat="43.803412" lon="11.3907327"><ele>98.66666666666667</ele><time>2026-04-25T08:51:58.743Z</time></trkpt><trkpt lat="43.8033767" lon="11.3908065"><ele>96.5</ele><time>2026-04-25T08:51:59.742Z</time></trkpt><trkpt lat="43.8033236" lon="11.3908929"><ele>94.33333333333334</ele><time>2026-04-25T08:52:01.743Z</time></trkpt><trkpt lat="43.8032347" lon="11.390919"><ele>92.16666666666667</ele><time>2026-04-25T08:52:04.742Z</time></trkpt><trkpt lat="43.8031123" lon="11.3909625"><ele>90.0</ele><time>2026-04-25T08:52:06.742Z</time></trkpt><trkpt lat="43.8030479" lon="11.3911137"><ele>90.0</ele><time>2026-04-25T08:52:08.742Z</time></trkpt><trkpt lat="43.8030824" lon="11.3912926"><ele>90.0</ele><time>2026-04-25T08:52:10.744Z</time></trkpt><trkpt lat="43.8031374" lon="11.3913935"><ele>90.0</ele><time>2026-04-25T08:52:11.743Z</time></trkpt><trkpt lat="43.8032057" lon="11.3914904"><ele>90.0</ele><time>2026-04-25T08:52:12.743Z</time></trkpt><trkpt lat="43.8032925" lon="11.3916116"><ele>90.0</ele><time>2026-04-25T08:52:13.742Z</time></trkpt><trkpt lat="43.803397" lon="11.3917461"><ele>90.5</ele><time>2026-04-25T08:52:14.743Z</time></trkpt><trkpt lat="43.8035063" lon="11.3918894"><ele>91.0</ele><time>2026-04-25T08:52:15.742Z</time></trkpt><trkpt lat="43.8036189" lon="11.3920262"><ele>91.5</ele><time>2026-04-25T08:52:16.742Z</time></trkpt><trkpt lat="43.8037151" lon="11.392155"><ele>92.0</ele><time>2026-04-25T08:52:17.743Z</time></trkpt><trkpt lat="43.8038099" lon="11.3922691"><ele>92.0</ele><time>2026-04-25T08:52:18.742Z</time></trkpt><trkpt lat="43.8039111" lon="11.3923763"><ele>92.0</ele><time>2026-04-25T08:52:19.743Z</time></trkpt><trkpt lat="43.8040239" lon="11.3924791"><ele>92.0</ele><time>2026-04-25T08:52:20.742Z</time></trkpt><trkpt lat="43.8041372" lon="11.3925884"><ele>92.0</ele><time>2026-04-25T08:52:21.742Z</time></trkpt><trkpt lat="43.8042703" lon="11.3926578"><ele>93.0</ele><time>2026-04-25T08:52:22.744Z</time></trkpt><trkpt lat="43.8044076" lon="11.3927372"><ele>94.0</ele><time>2026-04-25T08:52:23.742Z</time></trkpt><trkpt lat="43.8045323" lon="11.3928037"><ele>95.0</ele><time>2026-04-25T08:52:24.743Z</time></trkpt><trkpt lat="43.8047249" lon="11.3928619"><ele>95.0</ele><time>2026-04-25T08:52:25.743Z</time></trkpt><trkpt lat="43.8048736" lon="11.3928544"><ele>95.0</ele><time>2026-04-25T08:52:26.743Z</time></trkpt><trkpt lat="43.8050121" lon="11.3928703"><ele>95.0</ele><time>2026-04-25T08:52:27.742Z</time></trkpt><trkpt lat="43.8051212" lon="11.3928756"><ele>95.0</ele><time>2026-04-25T08:52:28.742Z</time></trkpt><trkpt lat="43.8052064" lon="11.3929192"><ele>94.4</ele><time>2026-04-25T08:52:29.742Z</time></trkpt><trkpt lat="43.8052586" lon="11.3930047"><ele>93.8</ele><time>2026-04-25T08:52:30.742Z</time></trkpt><trkpt lat="43.8052987" lon="11.3931191"><ele>93.19999999999999</ele><time>2026-04-25T08:52:31.742Z</time></trkpt><trkpt lat="43.8053586" lon="11.3932433"><ele>92.6</ele><time>2026-04-25T08:52:32.744Z</time></trkpt><trkpt lat="43.8054467" lon="11.3933523"><ele>92.0</ele><time>2026-04-25T08:52:33.742Z</time></trkpt><trkpt lat="43.8055601" lon="11.3934523"><ele>92.0</ele><time>2026-04-25T08:52:34.742Z</time></trkpt><trkpt lat="43.8056951" lon="11.3935486"><ele>92.0</ele><time>2026-04-25T08:52:35.743Z</time></trkpt><trkpt lat="43.805827" lon="11.3936507"><ele>92.0</ele><time>2026-04-25T08:52:36.742Z</time></trkpt><trkpt lat="43.8059631" lon="11.3937441"><ele>92.33333333333334</ele><time>2026-04-25T08:52:37.742Z</time></trkpt><trkpt lat="43.8061214" lon="11.3938231"><ele>92.66666666666667</ele><time>2026-04-25T08:52:38.743Z</time></trkpt><trkpt lat="43.806292" lon="11.3938947"><ele>93.0</ele><time>2026-04-25T08:52:39.743Z</time></trkpt><trkpt lat="43.8064573" lon="11.3939444"><ele>93.5</ele><time>2026-04-25T08:52:40.743Z</time></trkpt><trkpt lat="43.8066109" lon="11.3939866"><ele>94.0</ele><time>2026-04-25T08:52:41.743Z</time></trkpt><trkpt lat="43.80675" lon="11.3940279"><ele>94.5</ele><time>2026-04-25T08:52:42.742Z</time></trkpt><trkpt lat="43.8068807" lon="11.3940683"><ele>95.0</ele><time>2026-04-25T08:52:43.742Z</time></trkpt><trkpt lat="43.8069989" lon="11.3941178"><ele>95.0</ele><time>2026-04-25T08:52:44.743Z</time></trkpt><trkpt lat="43.8071146" lon="11.394188"><ele>95.0</ele><time>2026-04-25T08:52:45.743Z</time></trkpt><trkpt lat="43.8072349" lon="11.3942676"><ele>95.0</ele><time>2026-04-25T08:52:46.743Z</time></trkpt><trkpt lat="43.8073565" lon="11.3943532"><ele>95.0</ele><time>2026-04-25T08:52:47.742Z</time></trkpt><trkpt lat="43.807471" lon="11.3944324"><ele>95.0</ele><time>2026-04-25T08:52:48.743Z</time></trkpt><trkpt lat="43.8075755" lon="11.394507"><ele>95.0</ele><time>2026-04-25T08:52:49.743Z</time></trkpt><trkpt lat="43.8076668" lon="11.3945863"><ele>95.0</ele><time>2026-04-25T08:52:50.743Z</time></trkpt><trkpt lat="43.8077488" lon="11.3946652"><ele>95.0</ele><time>2026-04-25T08:52:51.743Z</time></trkpt><trkpt lat="43.8078224" lon="11.3947554"><ele>95.0</ele><time>2026-04-25T08:52:52.743Z</time></trkpt><trkpt lat="43.8079058" lon="11.3948715"><ele>95.25</ele><time>2026-04-25T08:52:53.742Z</time></trkpt><trkpt lat="43.8079835" lon="11.3949959"><ele>95.5</ele><time>2026-04-25T08:52:54.742Z</time></trkpt><trkpt lat="43.8080506" lon="11.39513"><ele>95.75</ele><time>2026-04-25T08:52:55.742Z</time></trkpt><trkpt lat="43.8081083" lon="11.3952856"><ele>96.0</ele><time>2026-04-25T08:52:56.743Z</time></trkpt><trkpt lat="43.8081651" lon="11.3954523"><ele>96.5</ele><time>2026-04-25T08:52:57.743Z</time></trkpt><trkpt lat="43.8082213" lon="11.3956241"><ele>97.0</ele><time>2026-04-25T08:52:58.743Z</time></trkpt><trkpt lat="43.8082722" lon="11.3957911"><ele>97.5</ele><time>2026-04-25T08:52:59.743Z</time></trkpt><trkpt lat="43.8083242" lon="11.3959485"><ele>98.0</ele><time>2026-04-25T08:53:00.742Z</time></trkpt><trkpt lat="43.8083823" lon="11.3961038"><ele>98.0</ele><time>2026-04-25T08:53:01.743Z</time></trkpt><trkpt lat="43.8084377" lon="11.3962556"><ele>98.0</ele><time>2026-04-25T08:53:02.742Z</time></trkpt><trkpt lat="43.8084785" lon="11.396403"><ele>98.0</ele><time>2026-04-25T08:53:03.742Z</time></trkpt><trkpt lat="43.808512" lon="11.3965593"><ele>98.0</ele><time>2026-04-25T08:53:04.743Z</time></trkpt><trkpt lat="43.8085184" lon="11.3967379"><ele>98.33333333333333</ele><time>2026-04-25T08:53:05.743Z</time></trkpt><trkpt lat="43.8085191" lon="11.3969394"><ele>98.66666666666666</ele><time>2026-04-25T08:53:06.742Z</time></trkpt><trkpt lat="43.8085209" lon="11.3971591"><ele>99.0</ele><time>2026-04-25T08:53:07.743Z</time></trkpt><trkpt lat="43.8085174" lon="11.3973747"><ele>99.0</ele><time>2026-04-25T08:53:08.742Z</time></trkpt><trkpt lat="43.8085157" lon="11.3975826"><ele>99.0</ele><time>2026-04-25T08:53:09.742Z</time></trkpt><trkpt lat="43.8085157" lon="11.3977873"><ele>99.0</ele><time>2026-04-25T08:53:10.743Z</time></trkpt><trkpt lat="43.8085196" lon="11.3979816"><ele>99.0</ele><time>2026-04-25T08:53:11.743Z</time></trkpt><trkpt lat="43.8085278" lon="11.3981786"><ele>99.2</ele><time>2026-04-25T08:53:12.743Z</time></trkpt><trkpt lat="43.808546" lon="11.398373"><ele>99.4</ele><time>2026-04-25T08:53:13.742Z</time></trkpt><trkpt lat="43.8085527" lon="11.3985403"><ele>99.6</ele><time>2026-04-25T08:53:14.743Z</time></trkpt><trkpt lat="43.8085576" lon="11.3986805"><ele>99.8</ele><time>2026-04-25T08:53:15.742Z</time></trkpt><trkpt lat="43.8085727" lon="11.3987903"><ele>100.0</ele><time>2026-04-25T08:53:16.742Z</time></trkpt><trkpt lat="43.8086595" lon="11.3989063"><ele>100.25</ele><time>2026-04-25T08:53:18.743Z</time></trkpt><trkpt lat="43.8088325" lon="11.3989245"><ele>100.5</ele><time>2026-04-25T08:53:20.743Z</time></trkpt><trkpt lat="43.808924" lon="11.3989238"><ele>100.75</ele><time>2026-04-25T08:53:21.743Z</time></trkpt><trkpt lat="43.8090283" lon="11.398895"><ele>101.0</ele><time>2026-04-25T08:53:22.742Z</time></trkpt><trkpt lat="43.8091267" lon="11.398876"><ele>100.99999999999999</ele><time>2026-04-25T08:53:23.743Z</time></trkpt><trkpt lat="43.8092252" lon="11.3988554"><ele>101.0</ele><time>2026-04-25T08:53:24.743Z</time></trkpt><trkpt lat="43.8093056" lon="11.3988524"><ele>101.0</ele><time>2026-04-25T08:53:25.742Z</time></trkpt><trkpt lat="43.8093831" lon="11.3988388"><ele>101.0</ele><time>2026-04-25T08:53:26.743Z</time></trkpt><trkpt lat="43.8094541" lon="11.3988353"><ele>100.99999999999999</ele><time>2026-04-25T08:53:27.742Z</time></trkpt><trkpt lat="43.809521" lon="11.3988234"><ele>101.0</ele><time>2026-04-25T08:53:28.742Z</time></trkpt><trkpt lat="43.8095906" lon="11.3988174"><ele>101.0</ele><time>2026-04-25T08:53:29.743Z</time></trkpt><trkpt lat="43.809679" lon="11.398811"><ele>101.0</ele><time>2026-04-25T08:53:30.744Z</time></trkpt><trkpt lat="43.8097725" lon="11.3988169"><ele>101.0</ele><time>2026-04-25T08:53:31.742Z</time></trkpt><trkpt lat="43.8098749" lon="11.398852"><ele>101.0</ele><time>2026-04-25T08:53:32.742Z</time></trkpt><trkpt lat="43.8099843" lon="11.3989049"><ele>101.0</ele><time>2026-04-25T08:53:33.742Z</time></trkpt><trkpt lat="43.8100865" lon="11.3989583"><ele>101.0</ele><time>2026-04-25T08:53:34.744Z</time></trkpt><trkpt lat="43.8101865" lon="11.3990051"><ele>101.0</ele><time>2026-04-25T08:53:35.742Z</time></trkpt><trkpt lat="43.8102725" lon="11.399055"><ele>101.0</ele><time>2026-04-25T08:53:36.743Z</time></trkpt><trkpt lat="43.81035" lon="11.39909"><ele>101.0</ele><time>2026-04-25T08:53:37.742Z</time></trkpt><trkpt lat="43.810421" lon="11.3991284"><ele>101.0</ele><time>2026-04-25T08:53:38.742Z</time></trkpt><trkpt lat="43.8105169" lon="11.3991893"><ele>100.99999999999999</ele><time>2026-04-25T08:53:40.742Z</time></trkpt><trkpt lat="43.8105897" lon="11.3992459"><ele>101.0</ele><time>2026-04-25T08:53:42.742Z</time></trkpt><trkpt lat="43.8106351" lon="11.3993114"><ele>101.0</ele><time>2026-04-25T08:53:45.742Z</time></trkpt><trkpt lat="43.8106601" lon="11.3993959"><ele>101.0</ele><time>2026-04-25T08:53:55.743Z</time></trkpt><trkpt lat="43.8107247" lon="11.3994696"><ele>100.99999999999999</ele><time>2026-04-25T08:53:56.742Z</time></trkpt><trkpt lat="43.8107739" lon="11.3995573"><ele>101.0</ele><time>2026-04-25T08:53:57.743Z</time></trkpt><trkpt lat="43.8108059" lon="11.3996719"><ele>101.6</ele><time>2026-04-25T08:53:58.743Z</time></trkpt><trkpt lat="43.8108496" lon="11.3998082"><ele>102.19999999999999</ele><time>2026-04-25T08:53:59.742Z</time></trkpt><trkpt lat="43.8108963" lon="11.3999237"><ele>102.80000000000001</ele><time>2026-04-25T08:54:00.743Z</time></trkpt><trkpt lat="43.8109909" lon="11.4000281"><ele>103.4</ele><time>2026-04-25T08:54:01.744Z</time></trkpt><trkpt lat="43.8110696" lon="11.4001118"><ele>104.0</ele><time>2026-04-25T08:54:02.744Z</time></trkpt><trkpt lat="43.8111484" lon="11.4001957"><ele>104.49999999999999</ele><time>2026-04-25T08:54:03.742Z</time></trkpt><trkpt lat="43.811229" lon="11.4002123"><ele>105.0</ele><time>2026-04-25T08:54:04.742Z</time></trkpt><trkpt lat="43.811309" lon="11.4002319"><ele>105.5</ele><time>2026-04-25T08:54:05.742Z</time></trkpt><trkpt lat="43.8113892" lon="11.4002492"><ele>106.0</ele><time>2026-04-25T08:54:06.744Z</time></trkpt><trkpt lat="43.8114743" lon="11.4002881"><ele>106.49999999999999</ele><time>2026-04-25T08:54:07.742Z</time></trkpt><trkpt lat="43.811552" lon="11.4003344"><ele>107.0</ele><time>2026-04-25T08:54:08.742Z</time></trkpt><trkpt lat="43.8116549" lon="11.4004984"><ele>107.5</ele><time>2026-04-25T08:54:10.742Z</time></trkpt><trkpt lat="43.8117265" lon="11.400613"><ele>108.0</ele><time>2026-04-25T08:54:11.742Z</time></trkpt><trkpt lat="43.8117907" lon="11.4007527"><ele>108.5</ele><time>2026-04-25T08:54:12.743Z</time></trkpt><trkpt lat="43.8118641" lon="11.4008951"><ele>109.0</ele><time>2026-04-25T08:54:13.743Z</time></trkpt><trkpt lat="43.8119425" lon="11.401057"><ele>110.25</ele><time>2026-04-25T08:54:14.743Z</time></trkpt><trkpt lat="43.8120233" lon="11.4012199"><ele>111.5</ele><time>2026-04-25T08:54:15.742Z</time></trkpt><trkpt lat="43.8121137" lon="11.4013764"><ele>112.75</ele><time>2026-04-25T08:54:16.743Z</time></trkpt><trkpt lat="43.8122132" lon="11.4015312"><ele>114.0</ele><time>2026-04-25T08:54:17.743Z</time></trkpt><trkpt lat="43.8123089" lon="11.4016603"><ele>114.0</ele><time>2026-04-25T08:54:18.743Z</time></trkpt><trkpt lat="43.8123938" lon="11.4017812"><ele>114.0</ele><time>2026-04-25T08:54:19.743Z</time></trkpt><trkpt lat="43.8124614" lon="11.4018914"><ele>114.0</ele><time>2026-04-25T08:54:20.744Z</time></trkpt><trkpt lat="43.8125236" lon="11.4020117"><ele>114.0</ele><time>2026-04-25T08:54:21.743Z</time></trkpt><trkpt lat="43.812586" lon="11.4021505"><ele>113.6</ele><time>2026-04-25T08:54:22.742Z</time></trkpt><trkpt lat="43.8126534" lon="11.4022899"><ele>113.2</ele><time>2026-04-25T08:54:23.742Z</time></trkpt><trkpt lat="43.8127103" lon="11.4024136"><ele>112.79999999999998</ele><time>2026-04-25T08:54:24.742Z</time></trkpt><trkpt lat="43.8127524" lon="11.4025148"><ele>112.39999999999999</ele><time>2026-04-25T08:54:25.742Z</time></trkpt><trkpt lat="43.8127878" lon="11.4025941"><ele>112.0</ele><time>2026-04-25T08:54:26.742Z</time></trkpt><trkpt lat="43.8128591" lon="11.4027345"><ele>112.75</ele><time>2026-04-25T08:54:28.743Z</time></trkpt><trkpt lat="43.812901" lon="11.4028365"><ele>113.5</ele><time>2026-04-25T08:54:29.743Z</time></trkpt><trkpt lat="43.8129556" lon="11.4029622"><ele>114.25</ele><time>2026-04-25T08:54:30.742Z</time></trkpt><trkpt lat="43.8130236" lon="11.4031085"><ele>115.0</ele><time>2026-04-25T08:54:31.743Z</time></trkpt><trkpt lat="43.8130967" lon="11.4032874"><ele>115.0</ele><time>2026-04-25T08:54:32.742Z</time></trkpt><trkpt lat="43.8131815" lon="11.4034749"><ele>115.0</ele><time>2026-04-25T08:54:33.743Z</time></trkpt><trkpt lat="43.8132764" lon="11.4036649"><ele>115.0</ele><time>2026-04-25T08:54:34.742Z</time></trkpt><trkpt lat="43.8133763" lon="11.4038771"><ele>115.33333333333334</ele><time>2026-04-25T08:54:35.742Z</time></trkpt><trkpt lat="43.8134882" lon="11.4041202"><ele>115.66666666666666</ele><time>2026-04-25T08:54:36.742Z</time></trkpt><trkpt lat="43.8136077" lon="11.4043792"><ele>116.0</ele><time>2026-04-25T08:54:37.742Z</time></trkpt><trkpt lat="43.8137287" lon="11.4046455"><ele>117.66666666666666</ele><time>2026-04-25T08:54:38.742Z</time></trkpt><trkpt lat="43.8138389" lon="11.4048822"><ele>119.33333333333334</ele><time>2026-04-25T08:54:39.742Z</time></trkpt><trkpt lat="43.8139409" lon="11.4051079"><ele>121.0</ele><time>2026-04-25T08:54:40.743Z</time></trkpt><trkpt lat="43.8140371" lon="11.4053127"><ele>121.0</ele><time>2026-04-25T08:54:41.742Z</time></trkpt><trkpt lat="43.8141383" lon="11.4054946"><ele>121.0</ele><time>2026-04-25T08:54:42.742Z</time></trkpt><trkpt lat="43.814275" lon="11.4056589"><ele>121.0</ele><time>2026-04-25T08:54:43.743Z</time></trkpt><trkpt lat="43.8144376" lon="11.4058122"><ele>123.33333333333334</ele><time>2026-04-25T08:54:44.743Z</time></trkpt><trkpt lat="43.8145885" lon="11.4059432"><ele>125.66666666666666</ele><time>2026-04-25T08:54:45.743Z</time></trkpt><trkpt lat="43.8147261" lon="11.4060744"><ele>128.0</ele><time>2026-04-25T08:54:46.743Z</time></trkpt><trkpt lat="43.8148463" lon="11.4062068"><ele>127.75</ele><time>2026-04-25T08:54:47.742Z</time></trkpt><trkpt lat="43.8149376" lon="11.4063426"><ele>127.5</ele><time>2026-04-25T08:54:48.742Z</time></trkpt><trkpt lat="43.8150039" lon="11.4065069"><ele>127.25</ele><time>2026-04-25T08:54:49.742Z</time></trkpt><trkpt lat="43.8150495" lon="11.40671"><ele>127.0</ele><time>2026-04-25T08:54:50.742Z</time></trkpt><trkpt lat="43.8150949" lon="11.4069319"><ele>127.0</ele><time>2026-04-25T08:54:51.743Z</time></trkpt><trkpt lat="43.81515" lon="11.4071307"><ele>127.0</ele><time>2026-04-25T08:54:52.742Z</time></trkpt><trkpt lat="43.815232" lon="11.4072892"><ele>127.0</ele><time>2026-04-25T08:54:53.742Z</time></trkpt><trkpt lat="43.8153432" lon="11.4074212"><ele>127.0</ele><time>2026-04-25T08:54:54.743Z</time></trkpt><trkpt lat="43.8154689" lon="11.40753"><ele>129.25</ele><time>2026-04-25T08:54:55.743Z</time></trkpt><trkpt lat="43.8155823" lon="11.4076268"><ele>131.5</ele><time>2026-04-25T08:54:56.743Z</time></trkpt><trkpt lat="43.8156765" lon="11.4077466"><ele>133.75</ele><time>2026-04-25T08:54:57.743Z</time></trkpt><trkpt lat="43.8157577" lon="11.4078761"><ele>136.0</ele><time>2026-04-25T08:54:58.742Z</time></trkpt><trkpt lat="43.8158044" lon="11.4080248"><ele>136.0</ele><time>2026-04-25T08:54:59.742Z</time></trkpt><trkpt lat="43.8158562" lon="11.4081676"><ele>136.0</ele><time>2026-04-25T08:55:00.742Z</time></trkpt><trkpt lat="43.8158607" lon="11.4083912"><ele>136.0</ele><time>2026-04-25T08:55:01.742Z</time></trkpt><trkpt lat="43.8159248" lon="11.4085757"><ele>136.0</ele><time>2026-04-25T08:55:02.742Z</time></trkpt><trkpt lat="43.816016" lon="11.4087462"><ele>139.33333333333334</ele><time>2026-04-25T08:55:03.743Z</time></trkpt><trkpt lat="43.8161367" lon="11.4089036"><ele>142.66666666666666</ele><time>2026-04-25T08:55:04.742Z</time></trkpt><trkpt lat="43.81628" lon="11.4090613"><ele>146.0</ele><time>2026-04-25T08:55:05.743Z</time></trkpt><trkpt lat="43.8164412" lon="11.4092053"><ele>146.0</ele><time>2026-04-25T08:55:06.743Z</time></trkpt><trkpt lat="43.816588" lon="11.4093296"><ele>146.0</ele><time>2026-04-25T08:55:07.742Z</time></trkpt><trkpt lat="43.8167213" lon="11.4094414"><ele>146.0</ele><time>2026-04-25T08:55:08.742Z</time></trkpt><trkpt lat="43.8168509" lon="11.4095602"><ele>145.8</ele><time>2026-04-25T08:55:09.742Z</time></trkpt><trkpt lat="43.8169377" lon="11.4096264"><ele>145.6</ele><time>2026-04-25T08:55:10.743Z</time></trkpt><trkpt lat="43.8170108" lon="11.4097349"><ele>145.4</ele><time>2026-04-25T08:55:11.743Z</time></trkpt><trkpt lat="43.817055" lon="11.4098832"><ele>145.2</ele><time>2026-04-25T08:55:12.743Z</time></trkpt><trkpt lat="43.817121" lon="11.4100274"><ele>145.0</ele><time>2026-04-25T08:55:13.743Z</time></trkpt><trkpt lat="43.817183" lon="11.4102208"><ele>145.0</ele><time>2026-04-25T08:55:14.742Z</time></trkpt><trkpt lat="43.8172488" lon="11.4104131"><ele>145.0</ele><time>2026-04-25T08:55:15.743Z</time></trkpt><trkpt lat="43.8173015" lon="11.4105739"><ele>145.0</ele><time>2026-04-25T08:55:16.743Z</time></trkpt><trkpt lat="43.8173412" lon="11.4107244"><ele>145.0</ele><time>2026-04-25T08:55:17.742Z</time></trkpt><trkpt lat="43.8173458" lon="11.4108922"><ele>146.0</ele><time>2026-04-25T08:55:18.743Z</time></trkpt><trkpt lat="43.8173145" lon="11.4110812"><ele>147.0</ele><time>2026-04-25T08:55:19.742Z</time></trkpt><trkpt lat="43.81727" lon="11.4112793"><ele>148.0</ele><time>2026-04-25T08:55:20.742Z</time></trkpt><trkpt lat="43.8172418" lon="11.4115046"><ele>151.33333333333334</ele><time>2026-04-25T08:55:21.743Z</time></trkpt><trkpt lat="43.8172302" lon="11.4117497"><ele>154.66666666666666</ele><time>2026-04-25T08:55:22.744Z</time></trkpt><trkpt lat="43.8172364" lon="11.4120166"><ele>158.0</ele><time>2026-04-25T08:55:23.742Z</time></trkpt><trkpt lat="43.8172474" lon="11.4123038"><ele>161.66666666666666</ele><time>2026-04-25T08:55:24.742Z</time></trkpt><trkpt lat="43.8172606" lon="11.4125993"><ele>165.33333333333334</ele><time>2026-04-25T08:55:25.743Z</time></trkpt><trkpt lat="43.8172897" lon="11.4128988"><ele>169.0</ele><time>2026-04-25T08:55:26.742Z</time></trkpt><trkpt lat="43.8173311" lon="11.4131972"><ele>172.33333333333334</ele><time>2026-04-25T08:55:27.742Z</time></trkpt><trkpt lat="43.8173836" lon="11.4134594"><ele>175.66666666666666</ele><time>2026-04-25T08:55:28.743Z</time></trkpt><trkpt lat="43.817428" lon="11.4136898"><ele>179.0</ele><time>2026-04-25T08:55:29.742Z</time></trkpt><trkpt lat="43.8174684" lon="11.413874"><ele>180.79999999999998</ele><time>2026-04-25T08:55:30.742Z</time></trkpt><trkpt lat="43.8175018" lon="11.4140126"><ele>182.6</ele><time>2026-04-25T08:55:31.742Z</time></trkpt><trkpt lat="43.8175404" lon="11.4141517"><ele>184.4</ele><time>2026-04-25T08:55:32.743Z</time></trkpt><trkpt lat="43.8175795" lon="11.4142486"><ele>186.2</ele><time>2026-04-25T08:55:33.742Z</time></trkpt><trkpt lat="43.8176603" lon="11.4141796"><ele>188.0</ele><time>2026-04-25T08:55:34.742Z</time></trkpt><trkpt lat="43.8177674" lon="11.4139194"><ele>188.0</ele><time>2026-04-25T08:55:35.743Z</time></trkpt><trkpt lat="43.8178616" lon="11.4137859"><ele>188.0</ele><time>2026-04-25T08:55:36.743Z</time></trkpt><trkpt lat="43.8179409" lon="11.4136759"><ele>188.0</ele><time>2026-04-25T08:55:37.743Z</time></trkpt><trkpt lat="43.8180069" lon="11.4136465"><ele>188.0</ele><time>2026-04-25T08:55:38.743Z</time></trkpt><trkpt lat="43.8180721" lon="11.4136382"><ele>188.0</ele><time>2026-04-25T08:55:39.742Z</time></trkpt><trkpt lat="43.8181386" lon="11.4136401"><ele>188.0</ele><time>2026-04-25T08:55:40.743Z</time></trkpt><trkpt lat="43.8181509" lon="11.4137534"><ele>192.0</ele><time>2026-04-25T08:55:41.743Z</time></trkpt><trkpt lat="43.818036" lon="11.4139803"><ele>196.0</ele><time>2026-04-25T08:55:42.742Z</time></trkpt><trkpt lat="43.8179833" lon="11.4141813"><ele>200.0</ele><time>2026-04-25T08:55:43.742Z</time></trkpt><trkpt lat="43.8179198" lon="11.4144004"><ele>200.0</ele><time>2026-04-25T08:55:44.743Z</time></trkpt><trkpt lat="43.8178489" lon="11.4146526"><ele>200.0</ele><time>2026-04-25T08:55:45.742Z</time></trkpt><trkpt lat="43.8177769" lon="11.4148817"><ele>200.0</ele><time>2026-04-25T08:55:46.743Z</time></trkpt><trkpt lat="43.817707" lon="11.4150949"><ele>202.2</ele><time>2026-04-25T08:55:47.743Z</time></trkpt><trkpt lat="43.8176728" lon="11.4152447"><ele>204.4</ele><time>2026-04-25T08:55:48.742Z</time></trkpt><trkpt lat="43.8177128" lon="11.4153249"><ele>206.60000000000002</ele><time>2026-04-25T08:55:49.743Z</time></trkpt><trkpt lat="43.8178133" lon="11.4153798"><ele>208.8</ele><time>2026-04-25T08:55:51.743Z</time></trkpt><trkpt lat="43.8178814" lon="11.4153076"><ele>211.0</ele><time>2026-04-25T08:55:52.742Z</time></trkpt><trkpt lat="43.8179587" lon="11.4151769"><ele>211.0</ele><time>2026-04-25T08:55:53.742Z</time></trkpt><trkpt lat="43.8180202" lon="11.415124"><ele>211.0</ele><time>2026-04-25T08:55:54.742Z</time></trkpt><trkpt lat="43.8181156" lon="11.4151849"><ele>211.0</ele><time>2026-04-25T08:55:56.742Z</time></trkpt><trkpt lat="43.8181234" lon="11.4152749"><ele>211.0</ele><time>2026-04-25T08:55:57.742Z</time></trkpt><trkpt lat="43.8181335" lon="11.4153714"><ele>211.0</ele><time>2026-04-25T08:55:58.743Z</time></trkpt><trkpt lat="43.818128" lon="11.4155607"><ele>215.66666666666666</ele><time>2026-04-25T08:55:59.744Z</time></trkpt><trkpt lat="43.8181049" lon="11.4158313"><ele>220.33333333333331</ele><time>2026-04-25T08:56:00.743Z</time></trkpt><trkpt lat="43.8180936" lon="11.416043"><ele>225.0</ele><time>2026-04-25T08:56:01.743Z</time></trkpt><trkpt lat="43.8180663" lon="11.4162135"><ele>229.0</ele><time>2026-04-25T08:56:02.743Z</time></trkpt><trkpt lat="43.8180398" lon="11.4163736"><ele>233.0</ele><time>2026-04-25T08:56:03.742Z</time></trkpt><trkpt lat="43.8179428" lon="11.4165325"><ele>237.0</ele><time>2026-04-25T08:56:04.742Z</time></trkpt><trkpt lat="43.8178646" lon="11.4166243"><ele>241.0</ele><time>2026-04-25T08:56:05.743Z</time></trkpt><trkpt lat="43.817751" lon="11.4166014"><ele>240.0</ele><time>2026-04-25T08:56:06.742Z</time></trkpt><trkpt lat="43.8176283" lon="11.4164975"><ele>239.0</ele><time>2026-04-25T08:56:07.742Z</time></trkpt><trkpt lat="43.8173751" lon="11.4162179"><ele>239.75</ele><time>2026-04-25T08:56:09.743Z</time></trkpt><trkpt lat="43.817216" lon="11.4162231"><ele>240.5</ele><time>2026-04-25T08:56:10.742Z</time></trkpt><trkpt lat="43.8170837" lon="11.4162641"><ele>241.25</ele><time>2026-04-25T08:56:11.742Z</time></trkpt><trkpt lat="43.8169334" lon="11.4163009"><ele>242.0</ele><time>2026-04-25T08:56:12.742Z</time></trkpt><trkpt lat="43.8167802" lon="11.4163609"><ele>242.0</ele><time>2026-04-25T08:56:13.742Z</time></trkpt><trkpt lat="43.8166428" lon="11.4163964"><ele>242.0</ele><time>2026-04-25T08:56:14.742Z</time></trkpt><trkpt lat="43.8165036" lon="11.4164374"><ele>242.0</ele><time>2026-04-25T08:56:15.743Z</time></trkpt><trkpt lat="43.8163946" lon="11.4163823"><ele>242.0</ele><time>2026-04-25T08:56:16.744Z</time></trkpt><trkpt lat="43.8162983" lon="11.4163997"><ele>242.00000000000003</ele><time>2026-04-25T08:56:17.742Z</time></trkpt><trkpt lat="43.8162312" lon="11.4164516"><ele>242.0</ele><time>2026-04-25T08:56:18.743Z</time></trkpt><trkpt lat="43.8161948" lon="11.4165419"><ele>242.0</ele><time>2026-04-25T08:56:19.742Z</time></trkpt><trkpt lat="43.8162075" lon="11.4166489"><ele>242.0</ele><time>2026-04-25T08:56:20.743Z</time></trkpt><trkpt lat="43.8162643" lon="11.4167237"><ele>242.00000000000003</ele><time>2026-04-25T08:56:21.742Z</time></trkpt><trkpt lat="43.8163779" lon="11.4167698"><ele>242.0</ele><time>2026-04-25T08:56:22.742Z</time></trkpt><trkpt lat="43.8164907" lon="11.4168236"><ele>242.0</ele><time>2026-04-25T08:56:23.744Z</time></trkpt><trkpt lat="43.8166133" lon="11.4168182"><ele>242.0</ele><time>2026-04-25T08:56:24.743Z</time></trkpt><trkpt lat="43.8167245" lon="11.4168342"><ele>242.0</ele><time>2026-04-25T08:56:25.742Z</time></trkpt><trkpt lat="43.8168446" lon="11.4168431"><ele>242.0</ele><time>2026-04-25T08:56:26.742Z</time></trkpt><trkpt lat="43.8169417" lon="11.4168212"><ele>241.39999999999998</ele><time>2026-04-25T08:56:27.743Z</time></trkpt><trkpt lat="43.8170373" lon="11.4168251"><ele>240.79999999999998</ele><time>2026-04-25T08:56:28.742Z</time></trkpt><trkpt lat="43.8171431" lon="11.4168178"><ele>240.2</ele><time>2026-04-25T08:56:29.742Z</time></trkpt><trkpt lat="43.8172376" lon="11.4168303"><ele>239.6</ele><time>2026-04-25T08:56:30.744Z</time></trkpt><trkpt lat="43.8173286" lon="11.4168668"><ele>239.0</ele><time>2026-04-25T08:56:31.742Z</time></trkpt><trkpt lat="43.8174085" lon="11.4169012"><ele>239.0</ele><time>2026-04-25T08:56:32.742Z</time></trkpt><trkpt lat="43.8175119" lon="11.4169789"><ele>238.99999999999997</ele><time>2026-04-25T08:56:34.742Z</time></trkpt><trkpt lat="43.8175653" lon="11.4170317"><ele>238.99999999999997</ele><time>2026-04-25T08:56:35.742Z</time></trkpt><trkpt lat="43.8176362" lon="11.4171551"><ele>239.0</ele><time>2026-04-25T08:56:37.743Z</time></trkpt><trkpt lat="43.8176998" lon="11.4172939"><ele>239.0</ele><time>2026-04-25T08:56:39.742Z</time></trkpt><trkpt lat="43.8177468" lon="11.4174624"><ele>241.66666666666669</ele><time>2026-04-25T08:56:41.742Z</time></trkpt><trkpt lat="43.8177465" lon="11.4175512"><ele>244.33333333333334</ele><time>2026-04-25T08:56:42.742Z</time></trkpt><trkpt lat="43.8177424" lon="11.4176392"><ele>247.0</ele><time>2026-04-25T08:56:43.744Z</time></trkpt><trkpt lat="43.8177342" lon="11.4177331"><ele>249.66666666666669</ele><time>2026-04-25T08:56:44.742Z</time></trkpt><trkpt lat="43.8177353" lon="11.4178356"><ele>252.33333333333334</ele><time>2026-04-25T08:56:45.742Z</time></trkpt><trkpt lat="43.8177737" lon="11.4179481"><ele>255.0</ele><time>2026-04-25T08:56:46.742Z</time></trkpt><trkpt lat="43.8178251" lon="11.4180911"><ele>256.75</ele><time>2026-04-25T08:56:47.743Z</time></trkpt><trkpt lat="43.8179031" lon="11.4182494"><ele>258.5</ele><time>2026-04-25T08:56:48.743Z</time></trkpt><trkpt lat="43.8179723" lon="11.4183545"><ele>260.25</ele><time>2026-04-25T08:56:49.742Z</time></trkpt><trkpt lat="43.8180455" lon="11.418457"><ele>262.0</ele><time>2026-04-25T08:56:50.743Z</time></trkpt><trkpt lat="43.8181654" lon="11.4185167"><ele>262.0</ele><time>2026-04-25T08:56:51.742Z</time></trkpt><trkpt lat="43.8183912" lon="11.4183888"><ele>262.0</ele><time>2026-04-25T08:56:52.744Z</time></trkpt><trkpt lat="43.8185754" lon="11.4183313"><ele>262.0</ele><time>2026-04-25T08:56:53.743Z</time></trkpt><trkpt lat="43.8187483" lon="11.4182625"><ele>263.6</ele><time>2026-04-25T08:56:54.742Z</time></trkpt><trkpt lat="43.8188687" lon="11.4182138"><ele>265.2</ele><time>2026-04-25T08:56:55.742Z</time></trkpt><trkpt lat="43.8189735" lon="11.4182024"><ele>266.8</ele><time>2026-04-25T08:56:56.742Z</time></trkpt><trkpt lat="43.8190411" lon="11.4182545"><ele>268.4</ele><time>2026-04-25T08:56:57.742Z</time></trkpt><trkpt lat="43.8190745" lon="11.418363"><ele>270.0</ele><time>2026-04-25T08:56:58.743Z</time></trkpt><trkpt lat="43.8190788" lon="11.4185111"><ele>270.0</ele><time>2026-04-25T08:56:59.742Z</time></trkpt><trkpt lat="43.8190726" lon="11.4186767"><ele>270.0</ele><time>2026-04-25T08:57:00.743Z</time></trkpt><trkpt lat="43.8190306" lon="11.4189547"><ele>270.0</ele><time>2026-04-25T08:57:01.743Z</time></trkpt><trkpt lat="43.818997" lon="11.419243"><ele>270.3333333333333</ele><time>2026-04-25T08:57:02.742Z</time></trkpt><trkpt lat="43.8189746" lon="11.4194915"><ele>270.66666666666663</ele><time>2026-04-25T08:57:03.742Z</time></trkpt><trkpt lat="43.8189538" lon="11.4197225"><ele>271.0</ele><time>2026-04-25T08:57:04.743Z</time></trkpt><trkpt lat="43.8189299" lon="11.4199341"><ele>271.5</ele><time>2026-04-25T08:57:05.743Z</time></trkpt><trkpt lat="43.8189045" lon="11.4201464"><ele>272.0</ele><time>2026-04-25T08:57:06.742Z</time></trkpt><trkpt lat="43.8188563" lon="11.420308"><ele>272.5</ele><time>2026-04-25T08:57:07.743Z</time></trkpt><trkpt lat="43.8188313" lon="11.4204801"><ele>273.0</ele><time>2026-04-25T08:57:08.743Z</time></trkpt><trkpt lat="43.8188649" lon="11.4206365"><ele>273.6666666666667</ele><time>2026-04-25T08:57:09.742Z</time></trkpt><trkpt lat="43.8189119" lon="11.4208071"><ele>274.33333333333337</ele><time>2026-04-25T08:57:10.742Z</time></trkpt><trkpt lat="43.8189943" lon="11.4209822"><ele>275.0</ele><time>2026-04-25T08:57:11.743Z</time></trkpt><trkpt lat="43.819094" lon="11.4211811"><ele>276.6666666666667</ele><time>2026-04-25T08:57:12.742Z</time></trkpt><trkpt lat="43.81921" lon="11.4214055"><ele>278.3333333333333</ele><time>2026-04-25T08:57:13.742Z</time></trkpt><trkpt lat="43.8193367" lon="11.4216485"><ele>280.0</ele><time>2026-04-25T08:57:14.742Z</time></trkpt><trkpt lat="43.8194694" lon="11.4219168"><ele>287.0</ele><time>2026-04-25T08:57:15.742Z</time></trkpt><trkpt lat="43.8196074" lon="11.4221852"><ele>294.0</ele><time>2026-04-25T08:57:16.742Z</time></trkpt><trkpt lat="43.81973" lon="11.4224245"><ele>294.0</ele><time>2026-04-25T08:57:17.743Z</time></trkpt><trkpt lat="43.8198425" lon="11.4226653"><ele>294.0</ele><time>2026-04-25T08:57:18.742Z</time></trkpt><trkpt lat="43.8199308" lon="11.4228883"><ele>294.0</ele><time>2026-04-25T08:57:19.744Z</time></trkpt><trkpt lat="43.8200026" lon="11.4231208"><ele>295.6666666666667</ele><time>2026-04-25T08:57:20.742Z</time></trkpt><trkpt lat="43.8201097" lon="11.4233401"><ele>297.33333333333337</ele><time>2026-04-25T08:57:21.743Z</time></trkpt><trkpt lat="43.8202379" lon="11.4235479"><ele>299.0</ele><time>2026-04-25T08:57:22.742Z</time></trkpt><trkpt lat="43.8203798" lon="11.4237588"><ele>303.0</ele><time>2026-04-25T08:57:23.743Z</time></trkpt><trkpt lat="43.8205386" lon="11.4239797"><ele>307.0</ele><time>2026-04-25T08:57:24.742Z</time></trkpt><trkpt lat="43.8206814" lon="11.4241811"><ele>311.0</ele><time>2026-04-25T08:57:25.742Z</time></trkpt><trkpt lat="43.8208293" lon="11.4243934"><ele>311.0</ele><time>2026-04-25T08:57:26.743Z</time></trkpt><trkpt lat="43.8209675" lon="11.4246006"><ele>311.0</ele><time>2026-04-25T08:57:27.742Z</time></trkpt><trkpt lat="43.8210908" lon="11.4247855"><ele>311.0</ele><time>2026-04-25T08:57:28.742Z</time></trkpt><trkpt lat="43.8212028" lon="11.4249532"><ele>315.0</ele><time>2026-04-25T08:57:29.743Z</time></trkpt><trkpt lat="43.821316" lon="11.4250995"><ele>319.0</ele><time>2026-04-25T08:57:30.742Z</time></trkpt><trkpt lat="43.8214497" lon="11.4252279"><ele>323.0</ele><time>2026-04-25T08:57:31.742Z</time></trkpt><trkpt lat="43.8215912" lon="11.4253572"><ele>323.0</ele><time>2026-04-25T08:57:32.742Z</time></trkpt><trkpt lat="43.8217396" lon="11.4254174"><ele>323.0</ele><time>2026-04-25T08:57:33.743Z</time></trkpt><trkpt lat="43.8218597" lon="11.4254942"><ele>323.0</ele><time>2026-04-25T08:57:34.742Z</time></trkpt><trkpt lat="43.8219611" lon="11.4255646"><ele>323.0</ele><time>2026-04-25T08:57:35.742Z</time></trkpt><trkpt lat="43.822035" lon="11.4256315"><ele>323.0</ele><time>2026-04-25T08:57:36.742Z</time></trkpt><trkpt lat="43.822068" lon="11.4257106"><ele>323.0</ele><time>2026-04-25T08:57:37.743Z</time></trkpt><trkpt lat="43.8220149" lon="11.4258677"><ele>323.0</ele><time>2026-04-25T08:57:39.743Z</time></trkpt><trkpt lat="43.8219764" lon="11.4259404"><ele>323.0</ele><time>2026-04-25T08:57:40.743Z</time></trkpt><trkpt lat="43.8219258" lon="11.4259988"><ele>323.0</ele><time>2026-04-25T08:57:41.743Z</time></trkpt><trkpt lat="43.8218492" lon="11.4260713"><ele>323.0</ele><time>2026-04-25T08:57:42.743Z</time></trkpt><trkpt lat="43.8217464" lon="11.4261182"><ele>323.0</ele><time>2026-04-25T08:57:43.742Z</time></trkpt><trkpt lat="43.8216209" lon="11.4261864"><ele>323.0</ele><time>2026-04-25T08:57:44.742Z</time></trkpt><trkpt lat="43.8214943" lon="11.4262524"><ele>323.0</ele><time>2026-04-25T08:57:45.742Z</time></trkpt><trkpt lat="43.8213639" lon="11.426321"><ele>323.0</ele><time>2026-04-25T08:57:46.743Z</time></trkpt><trkpt lat="43.8212407" lon="11.4263867"><ele>322.0</ele><time>2026-04-25T08:57:47.742Z</time></trkpt><trkpt lat="43.821123" lon="11.4264567"><ele>321.0</ele><time>2026-04-25T08:57:48.742Z</time></trkpt><trkpt lat="43.8210054" lon="11.426523"><ele>320.0</ele><time>2026-04-25T08:57:49.742Z</time></trkpt><trkpt lat="43.8208911" lon="11.4265852"><ele>319.0</ele><time>2026-04-25T08:57:50.743Z</time></trkpt><trkpt lat="43.820779" lon="11.4266498"><ele>317.4</ele><time>2026-04-25T08:57:51.744Z</time></trkpt><trkpt lat="43.820668" lon="11.4267119"><ele>315.79999999999995</ele><time>2026-04-25T08:57:52.743Z</time></trkpt><trkpt lat="43.8205604" lon="11.4267715"><ele>314.20000000000005</ele><time>2026-04-25T08:57:53.742Z</time></trkpt><trkpt lat="43.8204698" lon="11.4268212"><ele>312.6</ele><time>2026-04-25T08:57:54.744Z</time></trkpt><trkpt lat="43.8204035" lon="11.4268653"><ele>311.0</ele><time>2026-04-25T08:57:55.742Z</time></trkpt><trkpt lat="43.8203279" lon="11.4269338"><ele>311.0</ele><time>2026-04-25T08:57:57.743Z</time></trkpt><trkpt lat="43.8203508" lon="11.4270598"><ele>311.0</ele><time>2026-04-25T08:58:00.743Z</time></trkpt><trkpt lat="43.8204266" lon="11.4271536"><ele>311.0</ele><time>2026-04-25T08:58:02.742Z</time></trkpt><trkpt lat="43.8204936" lon="11.4272056"><ele>311.0</ele><time>2026-04-25T08:58:03.743Z</time></trkpt><trkpt lat="43.8205728" lon="11.4272657"><ele>311.0</ele><time>2026-04-25T08:58:04.742Z</time></trkpt><trkpt lat="43.8206575" lon="11.4273364"><ele>310.8</ele><time>2026-04-25T08:58:05.743Z</time></trkpt><trkpt lat="43.820746" lon="11.4274102"><ele>310.6</ele><time>2026-04-25T08:58:06.743Z</time></trkpt><trkpt lat="43.8208323" lon="11.4274761"><ele>310.4</ele><time>2026-04-25T08:58:07.742Z</time></trkpt><trkpt lat="43.8209229" lon="11.4275483"><ele>310.2</ele><time>2026-04-25T08:58:08.743Z</time></trkpt><trkpt lat="43.8210191" lon="11.4276228"><ele>310.0</ele><time>2026-04-25T08:58:09.742Z</time></trkpt><trkpt lat="43.8211161" lon="11.4276975"><ele>310.0</ele><time>2026-04-25T08:58:10.742Z</time></trkpt><trkpt lat="43.821212" lon="11.4277694"><ele>310.0</ele><time>2026-04-25T08:58:11.743Z</time></trkpt><trkpt lat="43.8213049" lon="11.4278396"><ele>310.0</ele><time>2026-04-25T08:58:12.742Z</time></trkpt><trkpt lat="43.8214031" lon="11.4279138"><ele>310.0</ele><time>2026-04-25T08:58:13.744Z</time></trkpt><trkpt lat="43.8214957" lon="11.4279851"><ele>310.0</ele><time>2026-04-25T08:58:14.742Z</time></trkpt><trkpt lat="43.8215811" lon="11.4280537"><ele>308.3333333333333</ele><time>2026-04-25T08:58:15.742Z</time></trkpt><trkpt lat="43.8216646" lon="11.4281263"><ele>306.66666666666663</ele><time>2026-04-25T08:58:16.742Z</time></trkpt><trkpt lat="43.8217202" lon="11.4281951"><ele>305.0</ele><time>2026-04-25T08:58:17.743Z</time></trkpt><trkpt lat="43.8217583" lon="11.4282697"><ele>303.3333333333333</ele><time>2026-04-25T08:58:18.742Z</time></trkpt><trkpt lat="43.8217863" lon="11.4283588"><ele>301.6666666666667</ele><time>2026-04-25T08:58:19.743Z</time></trkpt><trkpt lat="43.8218095" lon="11.4284549"><ele>300.0</ele><time>2026-04-25T08:58:20.742Z</time></trkpt><trkpt lat="43.8218074" lon="11.4285596"><ele>300.0</ele><time>2026-04-25T08:58:21.742Z</time></trkpt><trkpt lat="43.8217958" lon="11.4286931"><ele>300.0</ele><time>2026-04-25T08:58:22.742Z</time></trkpt><trkpt lat="43.8217794" lon="11.4288509"><ele>300.0</ele><time>2026-04-25T08:58:23.743Z</time></trkpt><trkpt lat="43.8217666" lon="11.4289977"><ele>300.0</ele><time>2026-04-25T08:58:24.743Z</time></trkpt><trkpt lat="43.8217528" lon="11.4291598"><ele>300.0</ele><time>2026-04-25T08:58:25.742Z</time></trkpt><trkpt lat="43.8217393" lon="11.4293285"><ele>299.25</ele><time>2026-04-25T08:58:26.742Z</time></trkpt><trkpt lat="43.821724" lon="11.4294991"><ele>298.5</ele><time>2026-04-25T08:58:27.743Z</time></trkpt><trkpt lat="43.821714" lon="11.429662"><ele>297.75</ele><time>2026-04-25T08:58:28.742Z</time></trkpt><trkpt lat="43.8217083" lon="11.4298147"><ele>297.0</ele><time>2026-04-25T08:58:29.743Z</time></trkpt><trkpt lat="43.8217044" lon="11.4299743"><ele>296.2</ele><time>2026-04-25T08:58:30.743Z</time></trkpt><trkpt lat="43.8217057" lon="11.430124"><ele>295.4</ele><time>2026-04-25T08:58:31.743Z</time></trkpt><trkpt lat="43.8217064" lon="11.430254"><ele>294.6</ele><time>2026-04-25T08:58:32.743Z</time></trkpt><trkpt lat="43.8217066" lon="11.4303763"><ele>293.8</ele><time>2026-04-25T08:58:33.742Z</time></trkpt><trkpt lat="43.8216968" lon="11.4304808"><ele>293.0</ele><time>2026-04-25T08:58:34.743Z</time></trkpt><trkpt lat="43.8216869" lon="11.4305972"><ele>292.6666666666667</ele><time>2026-04-25T08:58:35.742Z</time></trkpt><trkpt lat="43.8216815" lon="11.4307254"><ele>292.33333333333337</ele><time>2026-04-25T08:58:36.742Z</time></trkpt><trkpt lat="43.8216842" lon="11.4308429"><ele>292.0</ele><time>2026-04-25T08:58:37.742Z</time></trkpt><trkpt lat="43.8216786" lon="11.4309491"><ele>291.6666666666667</ele><time>2026-04-25T08:58:38.742Z</time></trkpt><trkpt lat="43.8216643" lon="11.4310632"><ele>291.3333333333333</ele><time>2026-04-25T08:58:39.743Z</time></trkpt><trkpt lat="43.8216432" lon="11.4311846"><ele>291.0</ele><time>2026-04-25T08:58:40.742Z</time></trkpt><trkpt lat="43.8216167" lon="11.4313207"><ele>291.0</ele><time>2026-04-25T08:58:41.742Z</time></trkpt><trkpt lat="43.8215994" lon="11.4314286"><ele>291.0</ele><time>2026-04-25T08:58:42.742Z</time></trkpt><trkpt lat="43.8215805" lon="11.4315183"><ele>291.0</ele><time>2026-04-25T08:58:43.743Z</time></trkpt><trkpt lat="43.8215098" lon="11.4316665"><ele>291.0</ele><time>2026-04-25T08:58:45.742Z</time></trkpt><trkpt lat="43.8214414" lon="11.4317667"><ele>291.0</ele><time>2026-04-25T08:58:46.743Z</time></trkpt><trkpt lat="43.821378" lon="11.4318598"><ele>291.0</ele><time>2026-04-25T08:58:47.742Z</time></trkpt><trkpt lat="43.8213178" lon="11.431953"><ele>291.0</ele><time>2026-04-25T08:58:48.742Z</time></trkpt><trkpt lat="43.8212636" lon="11.4320367"><ele>291.0</ele><time>2026-04-25T08:58:49.743Z</time></trkpt><trkpt lat="43.8212123" lon="11.432118"><ele>291.0</ele><time>2026-04-25T08:58:50.742Z</time></trkpt><trkpt lat="43.8211635" lon="11.432201"><ele>291.0</ele><time>2026-04-25T08:58:51.742Z</time></trkpt><trkpt lat="43.8211064" lon="11.4322936"><ele>291.0</ele><time>2026-04-25T08:58:52.742Z</time></trkpt><trkpt lat="43.8210512" lon="11.4323796"><ele>291.0</ele><time>2026-04-25T08:58:53.742Z</time></trkpt><trkpt lat="43.8210068" lon="11.4324532"><ele>291.0</ele><time>2026-04-25T08:58:54.742Z</time></trkpt><trkpt lat="43.8209455" lon="11.4325622"><ele>291.0</ele><time>2026-04-25T08:58:56.743Z</time></trkpt><trkpt lat="43.8209092" lon="11.4326405"><ele>291.0</ele><time>2026-04-25T08:58:58.742Z</time></trkpt><trkpt lat="43.8208525" lon="11.4327267"><ele>291.0</ele><time>2026-04-25T08:59:01.743Z</time></trkpt><trkpt lat="43.8208848" lon="11.4328275"><ele>291.0</ele><time>2026-04-25T08:59:04.742Z</time></trkpt><trkpt lat="43.8209691" lon="11.4329426"><ele>291.1666666666667</ele><time>2026-04-25T08:59:06.742Z</time></trkpt><trkpt lat="43.8210224" lon="11.4329955"><ele>291.3333333333333</ele><time>2026-04-25T08:59:07.742Z</time></trkpt><trkpt lat="43.8210745" lon="11.43305"><ele>291.5</ele><time>2026-04-25T08:59:08.743Z</time></trkpt><trkpt lat="43.8211227" lon="11.4331608"><ele>291.66666666666663</ele><time>2026-04-25T08:59:10.743Z</time></trkpt><trkpt lat="43.8211294" lon="11.4332832"><ele>291.8333333333333</ele><time>2026-04-25T08:59:12.742Z</time></trkpt><trkpt lat="43.8210954" lon="11.4334459"><ele>292.0</ele><time>2026-04-25T08:59:14.743Z</time></trkpt><trkpt lat="43.8210756" lon="11.433558"><ele>292.0</ele><time>2026-04-25T08:59:16.743Z</time></trkpt><trkpt lat="43.8210546" lon="11.4336802"><ele>292.0</ele><time>2026-04-25T08:59:19.743Z</time></trkpt><trkpt lat="43.82099" lon="11.4337667"><ele>292.0</ele><time>2026-04-25T08:59:22.743Z</time></trkpt><trkpt lat="43.8209172" lon="11.4338329"><ele>292.0</ele><time>2026-04-25T08:59:24.742Z</time></trkpt><trkpt lat="43.820823" lon="11.4339181"><ele>292.0</ele><time>2026-04-25T08:59:26.742Z</time></trkpt><trkpt lat="43.8207377" lon="11.4340121"><ele>289.6</ele><time>2026-04-25T08:59:28.743Z</time></trkpt><trkpt lat="43.8206457" lon="11.4340744"><ele>287.2</ele><time>2026-04-25T08:59:30.742Z</time></trkpt><trkpt lat="43.8205371" lon="11.4341808"><ele>284.8</ele><time>2026-04-25T08:59:32.742Z</time></trkpt><trkpt lat="43.820499" lon="11.43427"><ele>282.4</ele><time>2026-04-25T08:59:33.743Z</time></trkpt><trkpt lat="43.8204484" lon="11.434342"><ele>280.0</ele><time>2026-04-25T08:59:34.743Z</time></trkpt><trkpt lat="43.8204006" lon="11.4344178"><ele>280.0</ele><time>2026-04-25T08:59:35.742Z</time></trkpt><trkpt lat="43.8203511" lon="11.4344866"><ele>280.0</ele><time>2026-04-25T08:59:36.743Z</time></trkpt><trkpt lat="43.8202918" lon="11.4345539"><ele>280.0</ele><time>2026-04-25T08:59:37.742Z</time></trkpt><trkpt lat="43.820244" lon="11.4346282"><ele>280.0</ele><time>2026-04-25T08:59:38.743Z</time></trkpt><trkpt lat="43.8201659" lon="11.4347727"><ele>280.0</ele><time>2026-04-25T08:59:40.742Z</time></trkpt><trkpt lat="43.8201259" lon="11.4348484"><ele>280.0</ele><time>2026-04-25T08:59:41.742Z</time></trkpt><trkpt lat="43.8200544" lon="11.4350003"><ele>282.6</ele><time>2026-04-25T08:59:43.742Z</time></trkpt><trkpt lat="43.8199885" lon="11.4351172"><ele>285.2</ele><time>2026-04-25T08:59:45.742Z</time></trkpt><trkpt lat="43.819939" lon="11.4352061"><ele>287.8</ele><time>2026-04-25T08:59:46.743Z</time></trkpt><trkpt lat="43.8198753" lon="11.4353468"><ele>290.4</ele><time>2026-04-25T08:59:48.742Z</time></trkpt><trkpt lat="43.8198205" lon="11.4354833"><ele>293.0</ele><time>2026-04-25T08:59:50.742Z</time></trkpt><trkpt lat="43.8198179" lon="11.4355753"><ele>293.83333333333337</ele><time>2026-04-25T08:59:51.743Z</time></trkpt><trkpt lat="43.8198294" lon="11.4356794"><ele>294.6666666666667</ele><time>2026-04-25T08:59:52.742Z</time></trkpt><trkpt lat="43.819822" lon="11.4358019"><ele>295.5</ele><time>2026-04-25T08:59:53.742Z</time></trkpt><trkpt lat="43.8198262" lon="11.4359124"><ele>296.3333333333333</ele><time>2026-04-25T08:59:54.743Z</time></trkpt><trkpt lat="43.8198298" lon="11.4360283"><ele>297.16666666666663</ele><time>2026-04-25T08:59:55.742Z</time></trkpt><trkpt lat="43.8198167" lon="11.4361253"><ele>298.0</ele><time>2026-04-25T08:59:56.742Z</time></trkpt><trkpt lat="43.8198107" lon="11.4362329"><ele>297.5</ele><time>2026-04-25T08:59:57.743Z</time></trkpt><trkpt lat="43.8198105" lon="11.4363479"><ele>297.0</ele><time>2026-04-25T08:59:58.742Z</time></trkpt><trkpt lat="43.8198062" lon="11.436464"><ele>296.5</ele><time>2026-04-25T08:59:59.743Z</time></trkpt><trkpt lat="43.819811" lon="11.4365788"><ele>296.0</ele><time>2026-04-25T09:00:00.743Z</time></trkpt><trkpt lat="43.8197968" lon="11.4366659"><ele>295.5</ele><time>2026-04-25T09:00:01.742Z</time></trkpt><trkpt lat="43.8197803" lon="11.4367588"><ele>295.0</ele><time>2026-04-25T09:00:02.743Z</time></trkpt><trkpt lat="43.819767" lon="11.4368528"><ele>295.0</ele><time>2026-04-25T09:00:03.742Z</time></trkpt><trkpt lat="43.8197676" lon="11.4369409"><ele>295.0</ele><time>2026-04-25T09:00:04.743Z</time></trkpt><trkpt lat="43.8197536" lon="11.4370762"><ele>295.0</ele><time>2026-04-25T09:00:06.743Z</time></trkpt><trkpt lat="43.8197366" lon="11.4371949"><ele>295.0</ele><time>2026-04-25T09:00:47.742Z</time></trkpt><trkpt lat="43.8197316" lon="11.4373409"><ele>295.0</ele><time>2026-04-25T09:00:49.742Z</time></trkpt><trkpt lat="43.8197199" lon="11.4374846"><ele>294.6</ele><time>2026-04-25T09:00:51.743Z</time></trkpt><trkpt lat="43.8197237" lon="11.4376313"><ele>294.2</ele><time>2026-04-25T09:00:53.743Z</time></trkpt><trkpt lat="43.8197197" lon="11.4377823"><ele>293.8</ele><time>2026-04-25T09:00:55.742Z</time></trkpt><trkpt lat="43.8196686" lon="11.4378886"><ele>293.4</ele><time>2026-04-25T09:00:57.742Z</time></trkpt><trkpt lat="43.8195766" lon="11.4379526"><ele>293.0</ele><time>2026-04-25T09:00:59.742Z</time></trkpt><trkpt lat="43.8195119" lon="11.4379614"><ele>292.83333333333337</ele><time>2026-04-25T09:01:00.742Z</time></trkpt><trkpt lat="43.8194073" lon="11.4380178"><ele>292.6666666666667</ele><time>2026-04-25T09:01:02.743Z</time></trkpt><trkpt lat="43.8193697" lon="11.4380924"><ele>292.5</ele><time>2026-04-25T09:01:04.742Z</time></trkpt><trkpt lat="43.8193095" lon="11.4382409"><ele>292.3333333333333</ele><time>2026-04-25T09:01:06.743Z</time></trkpt><trkpt lat="43.8192917" lon="11.4383345"><ele>292.16666666666663</ele><time>2026-04-25T09:01:07.742Z</time></trkpt><trkpt lat="43.8192511" lon="11.4384181"><ele>292.0</ele><time>2026-04-25T09:01:08.743Z</time></trkpt><trkpt lat="43.8191817" lon="11.4385087"><ele>292.0</ele><time>2026-04-25T09:01:10.742Z</time></trkpt><trkpt lat="43.8191184" lon="11.4385288"><ele>292.0</ele><time>2026-04-25T09:01:11.743Z</time></trkpt><trkpt lat="43.8189908" lon="11.438542"><ele>292.0</ele><time>2026-04-25T09:01:13.742Z</time></trkpt><trkpt lat="43.8189238" lon="11.4385182"><ele>292.0</ele><time>2026-04-25T09:01:14.743Z</time></trkpt><trkpt lat="43.818803" lon="11.4384647"><ele>292.0</ele><time>2026-04-25T09:01:16.743Z</time></trkpt><trkpt lat="43.8187373" lon="11.4384254"><ele>292.0</ele><time>2026-04-25T09:01:17.743Z</time></trkpt><trkpt lat="43.8186681" lon="11.4383898"><ele>292.0</ele><time>2026-04-25T09:01:18.742Z</time></trkpt><trkpt lat="43.8185266" lon="11.4383959"><ele>292.0</ele><time>2026-04-25T09:01:20.743Z</time></trkpt><trkpt lat="43.8184562" lon="11.4383982"><ele>292.0</ele><time>2026-04-25T09:01:21.742Z</time></trkpt><trkpt lat="43.8183706" lon="11.4384054"><ele>292.0</ele><time>2026-04-25T09:01:22.742Z</time></trkpt><trkpt lat="43.8183193" lon="11.4384579"><ele>292.0</ele><time>2026-04-25T09:01:23.743Z</time></trkpt><trkpt lat="43.8182606" lon="11.4385074"><ele>292.66666666666663</ele><time>2026-04-25T09:01:24.742Z</time></trkpt><trkpt lat="43.818199" lon="11.4385639"><ele>293.3333333333333</ele><time>2026-04-25T09:01:25.742Z</time></trkpt><trkpt lat="43.8181416" lon="11.4386125"><ele>294.0</ele><time>2026-04-25T09:01:26.742Z</time></trkpt><trkpt lat="43.8180893" lon="11.438687"><ele>294.6666666666667</ele><time>2026-04-25T09:01:27.742Z</time></trkpt><trkpt lat="43.8180539" lon="11.4387595"><ele>295.33333333333337</ele><time>2026-04-25T09:01:28.742Z</time></trkpt><trkpt lat="43.8179592" lon="11.4388594"><ele>296.0</ele><time>2026-04-25T09:01:30.742Z</time></trkpt><trkpt lat="43.817907" lon="11.4389123"><ele>297.6666666666667</ele><time>2026-04-25T09:01:31.742Z</time></trkpt><trkpt lat="43.8178485" lon="11.4389742"><ele>299.33333333333337</ele><time>2026-04-25T09:01:32.743Z</time></trkpt><trkpt lat="43.8177964" lon="11.4390339"><ele>301.0</ele><time>2026-04-25T09:01:33.742Z</time></trkpt><trkpt lat="43.8177437" lon="11.4390897"><ele>302.6666666666667</ele><time>2026-04-25T09:01:34.743Z</time></trkpt><trkpt lat="43.8176739" lon="11.4391692"><ele>304.3333333333333</ele><time>2026-04-25T09:01:36.742Z</time></trkpt><trkpt lat="43.8175815" lon="11.439236"><ele>306.0</ele><time>2026-04-25T09:01:38.742Z</time></trkpt><trkpt lat="43.817483" lon="11.4393536"><ele>306.0</ele><time>2026-04-25T09:01:40.742Z</time></trkpt><trkpt lat="43.8174499" lon="11.4394621"><ele>306.0</ele><time>2026-04-25T09:01:41.742Z</time></trkpt><trkpt lat="43.8174145" lon="11.439552"><ele>306.0</ele><time>2026-04-25T09:01:42.742Z</time></trkpt><trkpt lat="43.817378" lon="11.4396427"><ele>306.0</ele><time>2026-04-25T09:01:43.743Z</time></trkpt><trkpt lat="43.8173381" lon="11.4397481"><ele>306.0</ele><time>2026-04-25T09:01:44.743Z</time></trkpt><trkpt lat="43.8173005" lon="11.4398684"><ele>306.0</ele><time>2026-04-25T09:01:45.742Z</time></trkpt><trkpt lat="43.8172662" lon="11.439979"><ele>307.6666666666667</ele><time>2026-04-25T09:01:46.742Z</time></trkpt><trkpt lat="43.8172311" lon="11.4400656"><ele>309.3333333333333</ele><time>2026-04-25T09:01:47.742Z</time></trkpt><trkpt lat="43.8171896" lon="11.4401593"><ele>311.0</ele><time>2026-04-25T09:01:48.742Z</time></trkpt><trkpt lat="43.8171402" lon="11.4402569"><ele>312.66666666666663</ele><time>2026-04-25T09:01:49.742Z</time></trkpt><trkpt lat="43.8171005" lon="11.4403526"><ele>314.3333333333333</ele><time>2026-04-25T09:01:50.744Z</time></trkpt><trkpt lat="43.8170447" lon="11.4404616"><ele>316.0</ele><time>2026-04-25T09:01:51.743Z</time></trkpt><trkpt lat="43.8169915" lon="11.440581"><ele>315.40000000000003</ele><time>2026-04-25T09:01:52.742Z</time></trkpt><trkpt lat="43.8169403" lon="11.4407476"><ele>314.8</ele><time>2026-04-25T09:01:54.743Z</time></trkpt><trkpt lat="43.8168791" lon="11.4408346"><ele>314.20000000000005</ele><time>2026-04-25T09:01:55.742Z</time></trkpt><trkpt lat="43.8168379" lon="11.4409465"><ele>313.6</ele><time>2026-04-25T09:01:56.742Z</time></trkpt><trkpt lat="43.8167931" lon="11.4410273"><ele>313.0</ele><time>2026-04-25T09:01:57.742Z</time></trkpt><trkpt lat="43.8167493" lon="11.4411291"><ele>313.0</ele><time>2026-04-25T09:01:58.742Z</time></trkpt><trkpt lat="43.816715" lon="11.4412293"><ele>313.0</ele><time>2026-04-25T09:01:59.744Z</time></trkpt><trkpt lat="43.8166726" lon="11.4413254"><ele>313.0</ele><time>2026-04-25T09:02:00.743Z</time></trkpt><trkpt lat="43.8166238" lon="11.4414155"><ele>313.0</ele><time>2026-04-25T09:02:01.742Z</time></trkpt><trkpt lat="43.8165704" lon="11.4415055"><ele>313.0</ele><time>2026-04-25T09:02:02.742Z</time></trkpt><trkpt lat="43.8165036" lon="11.4416006"><ele>313.0</ele><time>2026-04-25T09:02:03.743Z</time></trkpt><trkpt lat="43.8164666" lon="11.4416881"><ele>314.5</ele><time>2026-04-25T09:02:04.743Z</time></trkpt><trkpt lat="43.8164232" lon="11.4417535"><ele>316.0</ele><time>2026-04-25T09:02:05.743Z</time></trkpt><trkpt lat="43.816335" lon="11.44185"><ele>317.5</ele><time>2026-04-25T09:02:07.742Z</time></trkpt><trkpt lat="43.8162761" lon="11.4418827"><ele>319.0</ele><time>2026-04-25T09:02:08.743Z</time></trkpt><trkpt lat="43.8161974" lon="11.4419033"><ele>320.5</ele><time>2026-04-25T09:02:09.743Z</time></trkpt><trkpt lat="43.8160947" lon="11.4419143"><ele>322.0</ele><time>2026-04-25T09:02:10.742Z</time></trkpt><trkpt lat="43.8159948" lon="11.4419283"><ele>320.8333333333333</ele><time>2026-04-25T09:02:11.744Z</time></trkpt><trkpt lat="43.8159017" lon="11.4419231"><ele>319.66666666666663</ele><time>2026-04-25T09:02:12.742Z</time></trkpt><trkpt lat="43.8158152" lon="11.4419248"><ele>318.5</ele><time>2026-04-25T09:02:13.742Z</time></trkpt><trkpt lat="43.8157407" lon="11.4419187"><ele>317.3333333333333</ele><time>2026-04-25T09:02:14.743Z</time></trkpt><trkpt lat="43.8156739" lon="11.4419082"><ele>316.1666666666667</ele><time>2026-04-25T09:02:15.743Z</time></trkpt><trkpt lat="43.8156002" lon="11.4419154"><ele>315.0</ele><time>2026-04-25T09:02:16.743Z</time></trkpt><trkpt lat="43.8155301" lon="11.4419187"><ele>315.0</ele><time>2026-04-25T09:02:17.742Z</time></trkpt><trkpt lat="43.8154456" lon="11.4419301"><ele>315.0</ele><time>2026-04-25T09:02:19.743Z</time></trkpt><trkpt lat="43.8153704" lon="11.441985"><ele>315.0</ele><time>2026-04-25T09:02:21.743Z</time></trkpt><trkpt lat="43.8153254" lon="11.4421334"><ele>315.0</ele><time>2026-04-25T09:02:23.743Z</time></trkpt><trkpt lat="43.8153033" lon="11.4422409"><ele>315.0</ele><time>2026-04-25T09:02:24.743Z</time></trkpt><trkpt lat="43.8152777" lon="11.4423662"><ele>317.25</ele><time>2026-04-25T09:02:25.742Z</time></trkpt><trkpt lat="43.8152432" lon="11.4425011"><ele>319.5</ele><time>2026-04-25T09:02:26.742Z</time></trkpt><trkpt lat="43.8152037" lon="11.4426429"><ele>321.75</ele><time>2026-04-25T09:02:27.742Z</time></trkpt><trkpt lat="43.8151584" lon="11.4428212"><ele>324.0</ele><time>2026-04-25T09:02:28.742Z</time></trkpt><trkpt lat="43.815108" lon="11.4430072"><ele>326.0</ele><time>2026-04-25T09:02:29.742Z</time></trkpt><trkpt lat="43.8150616" lon="11.4431811"><ele>328.0</ele><time>2026-04-25T09:02:30.742Z</time></trkpt><trkpt lat="43.8150282" lon="11.443319"><ele>330.0</ele><time>2026-04-25T09:02:31.743Z</time></trkpt><trkpt lat="43.8149987" lon="11.4434311"><ele>332.0</ele><time>2026-04-25T09:02:32.742Z</time></trkpt><trkpt lat="43.8149488" lon="11.443554"><ele>334.0</ele><time>2026-04-25T09:02:34.743Z</time></trkpt><trkpt lat="43.8148569" lon="11.443583"><ele>334.0</ele><time>2026-04-25T09:02:36.743Z</time></trkpt><trkpt lat="43.814729" lon="11.4435747"><ele>334.0</ele><time>2026-04-25T09:02:38.743Z</time></trkpt><trkpt lat="43.8146688" lon="11.4435371"><ele>334.0</ele><time>2026-04-25T09:02:39.743Z</time></trkpt><trkpt lat="43.8145876" lon="11.4435747"><ele>334.0</ele><time>2026-04-25T09:02:41.743Z</time></trkpt><trkpt lat="43.8145173" lon="11.4436479"><ele>334.0</ele><time>2026-04-25T09:02:43.742Z</time></trkpt><trkpt lat="43.8144577" lon="11.4437689"><ele>335.3333333333333</ele><time>2026-04-25T09:02:45.744Z</time></trkpt><trkpt lat="43.8144022" lon="11.4438525"><ele>336.66666666666663</ele><time>2026-04-25T09:02:46.743Z</time></trkpt><trkpt lat="43.8143489" lon="11.443941"><ele>338.0</ele><time>2026-04-25T09:02:47.742Z</time></trkpt><trkpt lat="43.8142873" lon="11.4440447"><ele>339.3333333333333</ele><time>2026-04-25T09:02:48.743Z</time></trkpt><trkpt lat="43.8142328" lon="11.4441467"><ele>340.6666666666667</ele><time>2026-04-25T09:02:49.742Z</time></trkpt><trkpt lat="43.814174" lon="11.4442434"><ele>342.0</ele><time>2026-04-25T09:02:50.743Z</time></trkpt><trkpt lat="43.8141234" lon="11.4443257"><ele>342.40000000000003</ele><time>2026-04-25T09:02:51.743Z</time></trkpt><trkpt lat="43.8140879" lon="11.444407"><ele>342.8</ele><time>2026-04-25T09:02:53.743Z</time></trkpt><trkpt lat="43.8141083" lon="11.4445025"><ele>343.2</ele><time>2026-04-25T09:02:56.743Z</time></trkpt><trkpt lat="43.8142079" lon="11.4446469"><ele>343.6</ele><time>2026-04-25T09:02:58.743Z</time></trkpt><trkpt lat="43.8142696" lon="11.444745"><ele>344.0</ele><time>2026-04-25T09:02:59.744Z</time></trkpt><trkpt lat="43.8143341" lon="11.4448497"><ele>345.0</ele><time>2026-04-25T09:03:00.743Z</time></trkpt><trkpt lat="43.814407" lon="11.4449578"><ele>346.0</ele><time>2026-04-25T09:03:01.743Z</time></trkpt><trkpt lat="43.8144916" lon="11.4450789"><ele>347.0</ele><time>2026-04-25T09:03:02.742Z</time></trkpt><trkpt lat="43.8145885" lon="11.4452261"><ele>348.0</ele><time>2026-04-25T09:03:03.742Z</time></trkpt><trkpt lat="43.8146911" lon="11.4453915"><ele>351.0</ele><time>2026-04-25T09:03:04.743Z</time></trkpt><trkpt lat="43.8148022" lon="11.4455604"><ele>354.0</ele><time>2026-04-25T09:03:05.743Z</time></trkpt><trkpt lat="43.8149244" lon="11.4457664"><ele>357.0</ele><time>2026-04-25T09:03:06.743Z</time></trkpt><trkpt lat="43.8150619" lon="11.4459804"><ele>356.0</ele><time>2026-04-25T09:03:07.742Z</time></trkpt><trkpt lat="43.8151909" lon="11.4461798"><ele>355.0</ele><time>2026-04-25T09:03:08.742Z</time></trkpt><trkpt lat="43.8153102" lon="11.4463633"><ele>354.0</ele><time>2026-04-25T09:03:09.742Z</time></trkpt><trkpt lat="43.8154163" lon="11.4465327"><ele>355.79999999999995</ele><time>2026-04-25T09:03:10.742Z</time></trkpt><trkpt lat="43.8155108" lon="11.446676"><ele>357.59999999999997</ele><time>2026-04-25T09:03:11.744Z</time></trkpt><trkpt lat="43.8155851" lon="11.4467908"><ele>359.4</ele><time>2026-04-25T09:03:12.744Z</time></trkpt><trkpt lat="43.8156464" lon="11.4468777"><ele>361.2</ele><time>2026-04-25T09:03:13.742Z</time></trkpt><trkpt lat="43.8157035" lon="11.4469668"><ele>363.0</ele><time>2026-04-25T09:03:15.742Z</time></trkpt><trkpt lat="43.8156927" lon="11.4470786"><ele>362.59999999999997</ele><time>2026-04-25T09:03:19.742Z</time></trkpt><trkpt lat="43.8156564" lon="11.4471632"><ele>362.2</ele><time>2026-04-25T09:03:21.742Z</time></trkpt><trkpt lat="43.8155817" lon="11.4472134"><ele>361.8</ele><time>2026-04-25T09:03:22.743Z</time></trkpt><trkpt lat="43.8154403" lon="11.4472448"><ele>361.4</ele><time>2026-04-25T09:03:23.742Z</time></trkpt><trkpt lat="43.8153674" lon="11.447316"><ele>361.0</ele><time>2026-04-25T09:03:24.743Z</time></trkpt><trkpt lat="43.8152962" lon="11.4474027"><ele>361.0</ele><time>2026-04-25T09:03:25.742Z</time></trkpt><trkpt lat="43.8152425" lon="11.4475191"><ele>361.0</ele><time>2026-04-25T09:03:26.743Z</time></trkpt><trkpt lat="43.8151799" lon="11.4476353"><ele>361.0</ele><time>2026-04-25T09:03:27.742Z</time></trkpt><trkpt lat="43.8151141" lon="11.4478007"><ele>361.0</ele><time>2026-04-25T09:03:28.742Z</time></trkpt><trkpt lat="43.8150682" lon="11.4479875"><ele>362.66666666666663</ele><time>2026-04-25T09:03:29.742Z</time></trkpt><trkpt lat="43.8150019" lon="11.4481815"><ele>364.3333333333333</ele><time>2026-04-25T09:03:30.742Z</time></trkpt><trkpt lat="43.814926" lon="11.4484251"><ele>366.0</ele><time>2026-04-25T09:03:31.743Z</time></trkpt><trkpt lat="43.8148658" lon="11.4486157"><ele>366.0</ele><time>2026-04-25T09:03:32.742Z</time></trkpt><trkpt lat="43.8148156" lon="11.4487837"><ele>366.0</ele><time>2026-04-25T09:03:33.742Z</time></trkpt><trkpt lat="43.8147616" lon="11.4489532"><ele>366.0</ele><time>2026-04-25T09:03:34.742Z</time></trkpt><trkpt lat="43.8147117" lon="11.4490979"><ele>366.0</ele><time>2026-04-25T09:03:35.742Z</time></trkpt><trkpt lat="43.8146699" lon="11.4492434"><ele>364.8</ele><time>2026-04-25T09:03:36.743Z</time></trkpt><trkpt lat="43.814631" lon="11.4493669"><ele>363.6</ele><time>2026-04-25T09:03:37.743Z</time></trkpt><trkpt lat="43.8145771" lon="11.4494688"><ele>362.4</ele><time>2026-04-25T09:03:38.742Z</time></trkpt><trkpt lat="43.8145064" lon="11.4495965"><ele>361.2</ele><time>2026-04-25T09:03:39.742Z</time></trkpt><trkpt lat="43.8144193" lon="11.4497123"><ele>360.0</ele><time>2026-04-25T09:03:40.742Z</time></trkpt><trkpt lat="43.8143226" lon="11.4498025"><ele>360.5</ele><time>2026-04-25T09:03:41.743Z</time></trkpt><trkpt lat="43.8142012" lon="11.4498776"><ele>361.0</ele><time>2026-04-25T09:03:42.742Z</time></trkpt><trkpt lat="43.8140606" lon="11.4499565"><ele>361.5</ele><time>2026-04-25T09:03:43.743Z</time></trkpt><trkpt lat="43.8139112" lon="11.4500385"><ele>362.0</ele><time>2026-04-25T09:03:44.743Z</time></trkpt><trkpt lat="43.8137579" lon="11.4501256"><ele>362.0</ele><time>2026-04-25T09:03:45.742Z</time></trkpt><trkpt lat="43.8136134" lon="11.4502054"><ele>362.0</ele><time>2026-04-25T09:03:46.742Z</time></trkpt><trkpt lat="43.8134767" lon="11.4502803"><ele>362.0</ele><time>2026-04-25T09:03:47.743Z</time></trkpt><trkpt lat="43.8133477" lon="11.4503547"><ele>362.0</ele><time>2026-04-25T09:03:48.742Z</time></trkpt><trkpt lat="43.8132341" lon="11.4504348"><ele>361.0</ele><time>2026-04-25T09:03:49.743Z</time></trkpt><trkpt lat="43.8131423" lon="11.450534"><ele>360.0</ele><time>2026-04-25T09:03:50.744Z</time></trkpt><trkpt lat="43.8130666" lon="11.4506674"><ele>359.0</ele><time>2026-04-25T09:03:51.742Z</time></trkpt><trkpt lat="43.8129942" lon="11.4508033"><ele>358.0</ele><time>2026-04-25T09:03:52.743Z</time></trkpt><trkpt lat="43.812923" lon="11.4509831"><ele>358.0</ele><time>2026-04-25T09:03:53.744Z</time></trkpt><trkpt lat="43.8128544" lon="11.4511539"><ele>358.0</ele><time>2026-04-25T09:03:54.744Z</time></trkpt><trkpt lat="43.8127818" lon="11.4513324"><ele>358.0</ele><time>2026-04-25T09:03:55.742Z</time></trkpt><trkpt lat="43.8127173" lon="11.4514956"><ele>358.0</ele><time>2026-04-25T09:03:56.744Z</time></trkpt><trkpt lat="43.8126538" lon="11.4516468"><ele>358.79999999999995</ele><time>2026-04-25T09:03:57.742Z</time></trkpt><trkpt lat="43.8126086" lon="11.4517668"><ele>359.6</ele><time>2026-04-25T09:03:58.742Z</time></trkpt><trkpt lat="43.8125798" lon="11.4518976"><ele>360.4</ele><time>2026-04-25T09:03:59.743Z</time></trkpt><trkpt lat="43.8125531" lon="11.4520284"><ele>361.20000000000005</ele><time>2026-04-25T09:04:00.742Z</time></trkpt><trkpt lat="43.8125529" lon="11.4521783"><ele>362.0</ele><time>2026-04-25T09:04:01.743Z</time></trkpt><trkpt lat="43.8125704" lon="11.4523819"><ele>362.0</ele><time>2026-04-25T09:04:02.743Z</time></trkpt><trkpt lat="43.8125846" lon="11.4525711"><ele>362.0</ele><time>2026-04-25T09:04:03.742Z</time></trkpt><trkpt lat="43.8125942" lon="11.4527555"><ele>362.0</ele><time>2026-04-25T09:04:04.743Z</time></trkpt><trkpt lat="43.812609" lon="11.4529076"><ele>362.0</ele><time>2026-04-25T09:04:05.743Z</time></trkpt><trkpt lat="43.8126222" lon="11.453063"><ele>362.25</ele><time>2026-04-25T09:04:06.743Z</time></trkpt><trkpt lat="43.8126404" lon="11.4532271"><ele>362.5</ele><time>2026-04-25T09:04:07.743Z</time></trkpt><trkpt lat="43.8126484" lon="11.4533691"><ele>362.75</ele><time>2026-04-25T09:04:08.742Z</time></trkpt><trkpt lat="43.8126473" lon="11.4535264"><ele>363.0</ele><time>2026-04-25T09:04:09.743Z</time></trkpt><trkpt lat="43.8126189" lon="11.4536978"><ele>363.25</ele><time>2026-04-25T09:04:10.742Z</time></trkpt><trkpt lat="43.8126065" lon="11.4538676"><ele>363.5</ele><time>2026-04-25T09:04:11.742Z</time></trkpt><trkpt lat="43.812574" lon="11.4540631"><ele>363.75</ele><time>2026-04-25T09:04:12.743Z</time></trkpt><trkpt lat="43.8125504" lon="11.4542434"><ele>364.0</ele><time>2026-04-25T09:04:13.743Z</time></trkpt><trkpt lat="43.8125163" lon="11.4544372"><ele>364.0</ele><time>2026-04-25T09:04:14.742Z</time></trkpt><trkpt lat="43.8124863" lon="11.4546072"><ele>364.0</ele><time>2026-04-25T09:04:15.743Z</time></trkpt><trkpt lat="43.8124481" lon="11.454782"><ele>364.0</ele><time>2026-04-25T09:04:16.743Z</time></trkpt><trkpt lat="43.8124265" lon="11.4549237"><ele>364.0</ele><time>2026-04-25T09:04:17.742Z</time></trkpt><trkpt lat="43.8124383" lon="11.455098"><ele>362.6</ele><time>2026-04-25T09:04:18.742Z</time></trkpt><trkpt lat="43.8124251" lon="11.4552595"><ele>361.2</ele><time>2026-04-25T09:04:19.742Z</time></trkpt><trkpt lat="43.8124148" lon="11.4554122"><ele>359.8</ele><time>2026-04-25T09:04:20.742Z</time></trkpt><trkpt lat="43.8123974" lon="11.4555458"><ele>358.40000000000003</ele><time>2026-04-25T09:04:21.742Z</time></trkpt><trkpt lat="43.8124634" lon="11.4556863"><ele>357.0</ele><time>2026-04-25T09:04:22.743Z</time></trkpt><trkpt lat="43.812432" lon="11.4558883"><ele>355.40000000000003</ele><time>2026-04-25T09:04:24.742Z</time></trkpt><trkpt lat="43.8123926" lon="11.4560011"><ele>353.8</ele><time>2026-04-25T09:04:25.742Z</time></trkpt><trkpt lat="43.8123508" lon="11.4561107"><ele>352.2</ele><time>2026-04-25T09:04:26.743Z</time></trkpt><trkpt lat="43.812295" lon="11.456248"><ele>350.6</ele><time>2026-04-25T09:04:27.742Z</time></trkpt><trkpt lat="43.8121891" lon="11.4563441"><ele>349.0</ele><time>2026-04-25T09:04:28.742Z</time></trkpt><trkpt lat="43.8121056" lon="11.4564559"><ele>348.75</ele><time>2026-04-25T09:04:29.742Z</time></trkpt><trkpt lat="43.8120032" lon="11.4566008"><ele>348.5</ele><time>2026-04-25T09:04:30.743Z</time></trkpt><trkpt lat="43.8119027" lon="11.4567404"><ele>348.25</ele><time>2026-04-25T09:04:31.742Z</time></trkpt><trkpt lat="43.8118097" lon="11.4568892"><ele>348.0</ele><time>2026-04-25T09:04:32.743Z</time></trkpt><trkpt lat="43.8117241" lon="11.4570471"><ele>346.75</ele><time>2026-04-25T09:04:33.742Z</time></trkpt><trkpt lat="43.8116481" lon="11.4572095"><ele>345.5</ele><time>2026-04-25T09:04:34.743Z</time></trkpt><trkpt lat="43.8115776" lon="11.4573799"><ele>344.25</ele><time>2026-04-25T09:04:35.742Z</time></trkpt><trkpt lat="43.8115019" lon="11.4575528"><ele>343.0</ele><time>2026-04-25T09:04:36.742Z</time></trkpt><trkpt lat="43.8114311" lon="11.4577354"><ele>343.0</ele><time>2026-04-25T09:04:37.743Z</time></trkpt><trkpt lat="43.8113563" lon="11.4579253"><ele>343.0</ele><time>2026-04-25T09:04:38.742Z</time></trkpt><trkpt lat="43.8112985" lon="11.4581033"><ele>343.0</ele><time>2026-04-25T09:04:39.743Z</time></trkpt><trkpt lat="43.8112527" lon="11.4582703"><ele>343.0</ele><time>2026-04-25T09:04:40.742Z</time></trkpt><trkpt lat="43.811223" lon="11.4584178"><ele>342.16666666666663</ele><time>2026-04-25T09:04:41.742Z</time></trkpt><trkpt lat="43.8111982" lon="11.4585549"><ele>341.3333333333333</ele><time>2026-04-25T09:04:42.743Z</time></trkpt><trkpt lat="43.8111776" lon="11.4586737"><ele>340.5</ele><time>2026-04-25T09:04:43.743Z</time></trkpt><trkpt lat="43.8111527" lon="11.4587575"><ele>339.6666666666667</ele><time>2026-04-25T09:04:44.742Z</time></trkpt><trkpt lat="43.8111183" lon="11.4588674"><ele>338.83333333333337</ele><time>2026-04-25T09:04:46.743Z</time></trkpt><trkpt lat="43.8110681" lon="11.4589632"><ele>338.0</ele><time>2026-04-25T09:05:11.742Z</time></trkpt><trkpt lat="43.8110262" lon="11.4590403"><ele>338.0</ele><time>2026-04-25T09:05:14.742Z</time></trkpt><trkpt lat="43.8110598" lon="11.4591242"><ele>338.0</ele><time>2026-04-25T09:05:17.742Z</time></trkpt><trkpt lat="43.8110991" lon="11.4592039"><ele>338.0</ele><time>2026-04-25T09:06:11.742Z</time></trkpt><trkpt lat="43.8111675" lon="11.4593487"><ele>338.0</ele><time>2026-04-25T09:06:13.743Z</time></trkpt><trkpt lat="43.8112104" lon="11.4594257"><ele>338.0</ele><time>2026-04-25T09:06:14.744Z</time></trkpt><trkpt lat="43.8112605" lon="11.4595043"><ele>338.0</ele><time>2026-04-25T09:06:15.742Z</time></trkpt><trkpt lat="43.8113105" lon="11.4595671"><ele>337.4</ele><time>2026-04-25T09:06:16.742Z</time></trkpt><trkpt lat="43.811371" lon="11.4596276"><ele>336.79999999999995</ele><time>2026-04-25T09:06:17.743Z</time></trkpt><trkpt lat="43.8114345" lon="11.4596816"><ele>336.2</ele><time>2026-04-25T09:06:18.742Z</time></trkpt><trkpt lat="43.8115092" lon="11.4597812"><ele>335.6</ele><time>2026-04-25T09:06:20.742Z</time></trkpt><trkpt lat="43.8115503" lon="11.4599389"><ele>335.0</ele><time>2026-04-25T09:06:22.742Z</time></trkpt><trkpt lat="43.81156" lon="11.4601042"><ele>335.0</ele><time>2026-04-25T09:06:24.742Z</time></trkpt><trkpt lat="43.8115364" lon="11.460266"><ele>335.0</ele><time>2026-04-25T09:06:26.743Z</time></trkpt><trkpt lat="43.8115238" lon="11.460408"><ele>335.0</ele><time>2026-04-25T09:06:28.742Z</time></trkpt><trkpt lat="43.811511" lon="11.4605473"><ele>335.0</ele><time>2026-04-25T09:06:30.744Z</time></trkpt><trkpt lat="43.8115126" lon="11.4606953"><ele>335.0</ele><time>2026-04-25T09:06:32.743Z</time></trkpt><trkpt lat="43.8115147" lon="11.4607878"><ele>334.0</ele><time>2026-04-25T09:06:33.742Z</time></trkpt><trkpt lat="43.811514" lon="11.4608752"><ele>333.0</ele><time>2026-04-25T09:06:34.743Z</time></trkpt><trkpt lat="43.8115104" lon="11.4610419"><ele>332.0</ele><time>2026-04-25T09:06:36.742Z</time></trkpt><trkpt lat="43.8115082" lon="11.4611621"><ele>331.0</ele><time>2026-04-25T09:06:38.742Z</time></trkpt><trkpt lat="43.8115157" lon="11.461274"><ele>330.0</ele><time>2026-04-25T09:06:40.742Z</time></trkpt><trkpt lat="43.811515" lon="11.4613727"><ele>329.0</ele><time>2026-04-25T09:06:42.742Z</time></trkpt><trkpt lat="43.8115053" lon="11.4614766"><ele>327.5</ele><time>2026-04-25T09:06:44.742Z</time></trkpt><trkpt lat="43.8114778" lon="11.461584"><ele>326.0</ele><time>2026-04-25T09:06:46.742Z</time></trkpt><trkpt lat="43.8114496" lon="11.4616694"><ele>324.5</ele><time>2026-04-25T09:06:48.743Z</time></trkpt><trkpt lat="43.8114113" lon="11.4617827"><ele>323.0</ele><time>2026-04-25T09:06:51.743Z</time></trkpt><trkpt lat="43.8113742" lon="11.461861"><ele>321.5</ele><time>2026-04-25T09:06:56.743Z</time></trkpt><trkpt lat="43.8113072" lon="11.4619507"><ele>320.0</ele><time>2026-04-25T09:06:58.742Z</time></trkpt><trkpt lat="43.8112372" lon="11.4620312"><ele>317.2</ele><time>2026-04-25T09:07:00.743Z</time></trkpt><trkpt lat="43.8111386" lon="11.4621237"><ele>314.4</ele><time>2026-04-25T09:07:02.742Z</time></trkpt><trkpt lat="43.8110498" lon="11.4622221"><ele>311.6</ele><time>2026-04-25T09:07:04.743Z</time></trkpt><trkpt lat="43.8109632" lon="11.4623023"><ele>308.8</ele><time>2026-04-25T09:07:06.742Z</time></trkpt><trkpt lat="43.8108656" lon="11.462368"><ele>306.0</ele><time>2026-04-25T09:07:08.742Z</time></trkpt><trkpt lat="43.8107644" lon="11.4624334"><ele>306.0</ele><time>2026-04-25T09:07:10.742Z</time></trkpt><trkpt lat="43.8106607" lon="11.4624981"><ele>306.0</ele><time>2026-04-25T09:07:12.743Z</time></trkpt><trkpt lat="43.8105796" lon="11.4625625"><ele>306.0</ele><time>2026-04-25T09:07:14.743Z</time></trkpt><trkpt lat="43.8105201" lon="11.4626113"><ele>306.0</ele><time>2026-04-25T09:07:16.742Z</time></trkpt><trkpt lat="43.8104629" lon="11.4626744"><ele>306.0</ele><time>2026-04-25T09:07:20.742Z</time></trkpt><trkpt lat="43.810402" lon="11.4626097"><ele>306.0</ele><time>2026-04-25T09:07:24.742Z</time></trkpt><trkpt lat="43.8103747" lon="11.4624945"><ele>306.0</ele><time>2026-04-25T09:07:27.742Z</time></trkpt><trkpt lat="43.8102871" lon="11.4624664"><ele>306.0</ele><time>2026-04-25T09:07:30.743Z</time></trkpt><trkpt lat="43.810258" lon="11.4623851"><ele>306.0</ele><time>2026-04-25T09:07:35.743Z</time></trkpt><trkpt lat="43.8102911" lon="11.4624707"><ele>306.0</ele><time>2026-04-25T09:08:01.742Z</time></trkpt><trkpt lat="43.8103653" lon="11.4625133"><ele>306.0</ele><time>2026-04-25T09:09:14.744Z</time></trkpt><trkpt lat="43.810402" lon="11.4626268"><ele>306.0</ele><time>2026-04-25T09:09:17.742Z</time></trkpt><trkpt lat="43.8104236" lon="11.4627277"><ele>306.0</ele><time>2026-04-25T09:09:27.743Z</time></trkpt><trkpt lat="43.8104233" lon="11.4628442"><ele>306.0</ele><time>2026-04-25T09:09:29.742Z</time></trkpt><trkpt lat="43.810429" lon="11.4629639"><ele>306.0</ele><time>2026-04-25T09:09:31.742Z</time></trkpt><trkpt lat="43.8104509" lon="11.4630723"><ele>306.0</ele><time>2026-04-25T09:09:33.742Z</time></trkpt><trkpt lat="43.8104915" lon="11.4631558"><ele>306.0</ele><time>2026-04-25T09:10:02.743Z</time></trkpt><trkpt lat="43.8105147" lon="11.4632514"><ele>306.0</ele><time>2026-04-25T09:10:05.743Z</time></trkpt><trkpt lat="43.8105401" lon="11.4633553"><ele>304.0</ele><time>2026-04-25T09:10:07.743Z</time></trkpt><trkpt lat="43.810551" lon="11.4634853"><ele>302.0</ele><time>2026-04-25T09:10:09.742Z</time></trkpt><trkpt lat="43.8105696" lon="11.4636409"><ele>300.0</ele><time>2026-04-25T09:10:11.742Z</time></trkpt><trkpt lat="43.8105848" lon="11.4637298"><ele>298.0</ele><time>2026-04-25T09:10:12.743Z</time></trkpt><trkpt lat="43.8106014" lon="11.4638163"><ele>296.0</ele><time>2026-04-25T09:10:13.743Z</time></trkpt><trkpt lat="43.8106135" lon="11.4639036"><ele>294.0</ele><time>2026-04-25T09:10:14.742Z</time></trkpt><trkpt lat="43.8106272" lon="11.4639944"><ele>293.8</ele><time>2026-04-25T09:10:15.742Z</time></trkpt><trkpt lat="43.8106761" lon="11.464157"><ele>293.59999999999997</ele><time>2026-04-25T09:10:17.742Z</time></trkpt><trkpt lat="43.8106996" lon="11.4642413"><ele>293.4</ele><time>2026-04-25T09:10:18.743Z</time></trkpt><trkpt lat="43.8107141" lon="11.4643329"><ele>293.2</ele><time>2026-04-25T09:10:19.742Z</time></trkpt><trkpt lat="43.8107597" lon="11.4644699"><ele>293.0</ele><time>2026-04-25T09:10:21.743Z</time></trkpt><trkpt lat="43.8108131" lon="11.4646111"><ele>293.8</ele><time>2026-04-25T09:10:23.742Z</time></trkpt><trkpt lat="43.8108538" lon="11.4647494"><ele>294.6</ele><time>2026-04-25T09:10:25.743Z</time></trkpt><trkpt lat="43.8108918" lon="11.4648653"><ele>295.4</ele><time>2026-04-25T09:10:27.743Z</time></trkpt><trkpt lat="43.8109044" lon="11.4650304"><ele>296.2</ele><time>2026-04-25T09:10:29.742Z</time></trkpt><trkpt lat="43.8108932" lon="11.465197"><ele>297.0</ele><time>2026-04-25T09:10:31.742Z</time></trkpt><trkpt lat="43.8109319" lon="11.4653555"><ele>296.0</ele><time>2026-04-25T09:10:33.743Z</time></trkpt><trkpt lat="43.8109612" lon="11.4654706"><ele>295.0</ele><time>2026-04-25T09:10:35.742Z</time></trkpt><trkpt lat="43.8109949" lon="11.4655882"><ele>294.0</ele><time>2026-04-25T09:10:37.742Z</time></trkpt><trkpt lat="43.8110374" lon="11.4657029"><ele>293.0</ele><time>2026-04-25T09:10:39.742Z</time></trkpt><trkpt lat="43.8110802" lon="11.4657693"><ele>292.0</ele><time>2026-04-25T09:10:41.742Z</time></trkpt><trkpt lat="43.8111721" lon="11.4658142"><ele>291.0</ele><time>2026-04-25T09:10:44.742Z</time></trkpt><trkpt lat="43.811274" lon="11.4658495"><ele>286.2</ele><time>2026-04-25T09:10:46.743Z</time></trkpt><trkpt lat="43.8113385" lon="11.4658923"><ele>281.40000000000003</ele><time>2026-04-25T09:10:48.744Z</time></trkpt><trkpt lat="43.8113926" lon="11.4659437"><ele>276.6</ele><time>2026-04-25T09:10:50.742Z</time></trkpt><trkpt lat="43.8114644" lon="11.4660678"><ele>271.8</ele><time>2026-04-25T09:10:52.744Z</time></trkpt><trkpt lat="43.8115422" lon="11.4662009"><ele>267.0</ele><time>2026-04-25T09:10:54.744Z</time></trkpt><trkpt lat="43.8115942" lon="11.4662999"><ele>267.0</ele><time>2026-04-25T09:10:56.742Z</time></trkpt><trkpt lat="43.8116502" lon="11.4663979"><ele>267.0</ele><time>2026-04-25T09:10:58.742Z</time></trkpt><trkpt lat="43.8117125" lon="11.466479"><ele>267.0</ele><time>2026-04-25T09:11:00.744Z</time></trkpt><trkpt lat="43.8117988" lon="11.4665328"><ele>267.0</ele><time>2026-04-25T09:11:02.743Z</time></trkpt><trkpt lat="43.8118772" lon="11.4665044"><ele>267.0</ele><time>2026-04-25T09:11:04.742Z</time></trkpt><trkpt lat="43.8119619" lon="11.4665022"><ele>267.0</ele><time>2026-04-25T09:11:06.742Z</time></trkpt><trkpt lat="43.8120589" lon="11.4665238"><ele>264.6666666666667</ele><time>2026-04-25T09:11:08.742Z</time></trkpt><trkpt lat="43.8121407" lon="11.466487"><ele>262.3333333333333</ele><time>2026-04-25T09:11:10.743Z</time></trkpt><trkpt lat="43.8122352" lon="11.4664573"><ele>260.0</ele><time>2026-04-25T09:11:12.744Z</time></trkpt><trkpt lat="43.8123335" lon="11.4664319"><ele>257.66666666666663</ele><time>2026-04-25T09:11:14.742Z</time></trkpt><trkpt lat="43.8124031" lon="11.4664754"><ele>255.33333333333331</ele><time>2026-04-25T09:11:16.743Z</time></trkpt><trkpt lat="43.8124512" lon="11.4665498"><ele>253.0</ele><time>2026-04-25T09:11:18.742Z</time></trkpt><trkpt lat="43.8124979" lon="11.4666402"><ele>252.99999999999997</ele><time>2026-04-25T09:11:20.743Z</time></trkpt><trkpt lat="43.8125446" lon="11.4667114"><ele>253.0</ele><time>2026-04-25T09:11:22.743Z</time></trkpt><trkpt lat="43.8126006" lon="11.466783"><ele>253.0</ele><time>2026-04-25T09:11:24.742Z</time></trkpt><trkpt lat="43.812671" lon="11.4668351"><ele>253.0</ele><time>2026-04-25T09:11:27.742Z</time></trkpt><trkpt lat="43.8127556" lon="11.4667853"><ele>252.99999999999997</ele><time>2026-04-25T09:11:30.742Z</time></trkpt><trkpt lat="43.8128199" lon="11.4667427"><ele>253.0</ele><time>2026-04-25T09:11:32.743Z</time></trkpt><trkpt lat="43.8129024" lon="11.4667161"><ele>249.4</ele><time>2026-04-25T09:11:34.743Z</time></trkpt><trkpt lat="43.8129972" lon="11.4666662"><ele>245.8</ele><time>2026-04-25T09:11:37.742Z</time></trkpt><trkpt lat="43.8130714" lon="11.4666122"><ele>242.2</ele><time>2026-04-25T09:11:39.742Z</time></trkpt><trkpt lat="43.8131753" lon="11.4665637"><ele>238.6</ele><time>2026-04-25T09:11:41.742Z</time></trkpt><trkpt lat="43.813275" lon="11.4665289"><ele>235.0</ele><time>2026-04-25T09:11:43.742Z</time></trkpt><trkpt lat="43.813349" lon="11.4664998"><ele>234.99999999999997</ele><time>2026-04-25T09:11:50.742Z</time></trkpt><trkpt lat="43.8133937" lon="11.4663993"><ele>235.0</ele><time>2026-04-25T09:11:54.742Z</time></trkpt><trkpt lat="43.8134044" lon="11.4662701"><ele>235.0</ele><time>2026-04-25T09:11:56.742Z</time></trkpt><trkpt lat="43.8134128" lon="11.4661555"><ele>235.0</ele><time>2026-04-25T09:11:58.743Z</time></trkpt><trkpt lat="43.8134299" lon="11.4660515"><ele>234.99999999999997</ele><time>2026-04-25T09:12:00.743Z</time></trkpt><trkpt lat="43.813458" lon="11.4659607"><ele>235.0</ele><time>2026-04-25T09:12:02.742Z</time></trkpt><trkpt lat="43.8135056" lon="11.4659011"><ele>233.66666666666666</ele><time>2026-04-25T09:12:04.742Z</time></trkpt><trkpt lat="43.8135593" lon="11.4658417"><ele>232.33333333333331</ele><time>2026-04-25T09:12:06.742Z</time></trkpt><trkpt lat="43.813623" lon="11.4657733"><ele>231.0</ele><time>2026-04-25T09:12:08.743Z</time></trkpt><trkpt lat="43.8136967" lon="11.4657336"><ele>229.66666666666669</ele><time>2026-04-25T09:12:10.742Z</time></trkpt><trkpt lat="43.813786" lon="11.4657251"><ele>228.33333333333334</ele><time>2026-04-25T09:12:12.744Z</time></trkpt><trkpt lat="43.8138062" lon="11.4658082"><ele>227.0</ele><time>2026-04-25T09:12:34.742Z</time></trkpt><trkpt lat="43.8137465" lon="11.4657611"><ele>227.0</ele><time>2026-04-25T09:12:49.742Z</time></trkpt><trkpt lat="43.813663" lon="11.4657176"><ele>227.0</ele><time>2026-04-25T09:12:52.742Z</time></trkpt><trkpt lat="43.8135703" lon="11.4657998"><ele>227.0</ele><time>2026-04-25T09:12:54.742Z</time></trkpt><trkpt lat="43.8134786" lon="11.4658882"><ele>227.0</ele><time>2026-04-25T09:12:56.744Z</time></trkpt><trkpt lat="43.8134359" lon="11.4659768"><ele>227.0</ele><time>2026-04-25T09:12:59.743Z</time></trkpt><trkpt lat="43.813411" lon="11.4660768"><ele>228.33333333333334</ele><time>2026-04-25T09:13:01.742Z</time></trkpt><trkpt lat="43.8134" lon="11.4661962"><ele>229.66666666666669</ele><time>2026-04-25T09:13:03.742Z</time></trkpt><trkpt lat="43.813391" lon="11.4663193"><ele>231.0</ele><time>2026-04-25T09:13:05.742Z</time></trkpt><trkpt lat="43.8133736" lon="11.4664442"><ele>232.33333333333331</ele><time>2026-04-25T09:13:07.743Z</time></trkpt><trkpt lat="43.8133168" lon="11.4665023"><ele>233.66666666666666</ele><time>2026-04-25T09:13:22.743Z</time></trkpt><trkpt lat="43.8132913" lon="11.4665984"><ele>235.0</ele><time>2026-04-25T09:13:30.743Z</time></trkpt><trkpt lat="43.8132572" lon="11.4666866"><ele>234.99999999999997</ele><time>2026-04-25T09:13:34.742Z</time></trkpt><trkpt lat="43.8133024" lon="11.4667538"><ele>235.0</ele><time>2026-04-25T09:13:49.742Z</time></trkpt><trkpt lat="43.8133749" lon="11.4668271"><ele>235.0</ele><time>2026-04-25T09:16:44.743Z</time></trkpt><trkpt lat="43.8134561" lon="11.4668674"><ele>235.0</ele><time>2026-04-25T09:16:46.743Z</time></trkpt><trkpt lat="43.8135397" lon="11.4668788"><ele>234.99999999999997</ele><time>2026-04-25T09:16:48.742Z</time></trkpt><trkpt lat="43.8136167" lon="11.4668816"><ele>235.0</ele><time>2026-04-25T09:16:50.742Z</time></trkpt><trkpt lat="43.8136957" lon="11.4669236"><ele>232.66666666666666</ele><time>2026-04-25T09:16:53.743Z</time></trkpt><trkpt lat="43.8137657" lon="11.4669822"><ele>230.33333333333331</ele><time>2026-04-25T09:16:56.743Z</time></trkpt><trkpt lat="43.813843" lon="11.4669784"><ele>228.0</ele><time>2026-04-25T09:16:58.742Z</time></trkpt><trkpt lat="43.8139142" lon="11.4669855"><ele>225.66666666666669</ele><time>2026-04-25T09:17:00.742Z</time></trkpt><trkpt lat="43.8139888" lon="11.4669617"><ele>223.33333333333334</ele><time>2026-04-25T09:17:03.743Z</time></trkpt><trkpt lat="43.8140301" lon="11.4668679"><ele>221.0</ele><time>2026-04-25T09:17:06.742Z</time></trkpt><trkpt lat="43.8140625" lon="11.4667835"><ele>221.00000000000003</ele><time>2026-04-25T09:17:11.743Z</time></trkpt><trkpt lat="43.8140849" lon="11.4667003"><ele>221.0</ele><time>2026-04-25T09:17:15.742Z</time></trkpt><trkpt lat="43.8140892" lon="11.4666035"><ele>221.0</ele><time>2026-04-25T09:17:19.742Z</time></trkpt><trkpt lat="43.8140688" lon="11.4664975"><ele>221.0</ele><time>2026-04-25T09:17:22.743Z</time></trkpt><trkpt lat="43.8140789" lon="11.4664088"><ele>221.0</ele><time>2026-04-25T09:17:29.742Z</time></trkpt><trkpt lat="43.814164" lon="11.4664291"><ele>221.00000000000003</ele><time>2026-04-25T09:17:37.743Z</time></trkpt><trkpt lat="43.8142286" lon="11.466473"><ele>221.0</ele><time>2026-04-25T09:17:39.743Z</time></trkpt><trkpt lat="43.8143111" lon="11.4665205"><ele>216.83333333333334</ele><time>2026-04-25T09:17:42.743Z</time></trkpt><trkpt lat="43.8143638" lon="11.4666008"><ele>212.66666666666669</ele><time>2026-04-25T09:17:45.742Z</time></trkpt><trkpt lat="43.8144074" lon="11.4667039"><ele>208.5</ele><time>2026-04-25T09:17:48.743Z</time></trkpt><trkpt lat="43.8144247" lon="11.4668147"><ele>204.33333333333331</ele><time>2026-04-25T09:17:52.742Z</time></trkpt><trkpt lat="43.8144424" lon="11.4669239"><ele>200.16666666666666</ele><time>2026-04-25T09:17:56.744Z</time></trkpt><trkpt lat="43.8144624" lon="11.4670106"><ele>196.0</ele><time>2026-04-25T09:17:58.742Z</time></trkpt><trkpt lat="43.8144695" lon="11.4671273"><ele>194.83333333333331</ele><time>2026-04-25T09:18:01.742Z</time></trkpt><trkpt lat="43.8144729" lon="11.4672328"><ele>193.66666666666666</ele><time>2026-04-25T09:18:03.742Z</time></trkpt><trkpt lat="43.8144759" lon="11.4673408"><ele>192.5</ele><time>2026-04-25T09:18:05.742Z</time></trkpt><trkpt lat="43.8144866" lon="11.4674561"><ele>191.33333333333331</ele><time>2026-04-25T09:18:07.743Z</time></trkpt><trkpt lat="43.8145021" lon="11.4675711"><ele>190.16666666666666</ele><time>2026-04-25T09:18:09.742Z</time></trkpt><trkpt lat="43.8145032" lon="11.4677062"><ele>189.0</ele><time>2026-04-25T09:18:11.742Z</time></trkpt><trkpt lat="43.8145089" lon="11.4678369"><ele>187.83333333333334</ele><time>2026-04-25T09:18:13.742Z</time></trkpt><trkpt lat="43.8145249" lon="11.4679582"><ele>186.66666666666666</ele><time>2026-04-25T09:18:16.743Z</time></trkpt><trkpt lat="43.8145333" lon="11.4680841"><ele>185.5</ele><time>2026-04-25T09:18:18.742Z</time></trkpt><trkpt lat="43.8145362" lon="11.4681919"><ele>184.33333333333331</ele><time>2026-04-25T09:18:20.742Z</time></trkpt><trkpt lat="43.8145428" lon="11.4682977"><ele>183.16666666666666</ele><time>2026-04-25T09:18:22.743Z</time></trkpt><trkpt lat="43.8145289" lon="11.4684087"><ele>182.0</ele><time>2026-04-25T09:18:24.743Z</time></trkpt><trkpt lat="43.8144966" lon="11.4685141"><ele>182.0</ele><time>2026-04-25T09:18:26.742Z</time></trkpt><trkpt lat="43.8145212" lon="11.4686208"><ele>182.0</ele><time>2026-04-25T09:18:29.742Z</time></trkpt><trkpt lat="43.8146036" lon="11.4686003"><ele>182.0</ele><time>2026-04-25T09:18:32.742Z</time></trkpt><trkpt lat="43.8147122" lon="11.4685852"><ele>182.0</ele><time>2026-04-25T09:18:35.742Z</time></trkpt><trkpt lat="43.8147923" lon="11.4685726"><ele>182.0</ele><time>2026-04-25T09:18:37.742Z</time></trkpt><trkpt lat="43.8148746" lon="11.4685592"><ele>182.0</ele><time>2026-04-25T09:18:39.742Z</time></trkpt><trkpt lat="43.8149646" lon="11.4685599"><ele>182.0</ele><time>2026-04-25T09:18:42.743Z</time></trkpt><trkpt lat="43.8150322" lon="11.4685221"><ele>182.0</ele><time>2026-04-25T09:18:45.743Z</time></trkpt><trkpt lat="43.8150885" lon="11.4683834"><ele>182.0</ele><time>2026-04-25T09:18:47.742Z</time></trkpt><trkpt lat="43.8151282" lon="11.4682962"><ele>182.0</ele><time>2026-04-25T09:18:48.742Z</time></trkpt><trkpt lat="43.8151652" lon="11.4682222"><ele>182.0</ele><time>2026-04-25T09:18:49.742Z</time></trkpt><trkpt lat="43.8152057" lon="11.4681479"><ele>182.0</ele><time>2026-04-25T09:18:50.742Z</time></trkpt><trkpt lat="43.8152488" lon="11.4680779"><ele>179.6</ele><time>2026-04-25T09:18:51.742Z</time></trkpt><trkpt lat="43.8153226" lon="11.4679522"><ele>177.2</ele><time>2026-04-25T09:18:53.742Z</time></trkpt><trkpt lat="43.8153784" lon="11.4678713"><ele>174.8</ele><time>2026-04-25T09:18:55.742Z</time></trkpt><trkpt lat="43.8154576" lon="11.4677994"><ele>172.4</ele><time>2026-04-25T09:18:57.743Z</time></trkpt><trkpt lat="43.8155043" lon="11.4677225"><ele>170.0</ele><time>2026-04-25T09:18:59.744Z</time></trkpt><trkpt lat="43.8155727" lon="11.4676297"><ele>170.0</ele><time>2026-04-25T09:19:01.743Z</time></trkpt><trkpt lat="43.8156354" lon="11.4675419"><ele>170.0</ele><time>2026-04-25T09:19:03.743Z</time></trkpt><trkpt lat="43.8156934" lon="11.4674501"><ele>170.0</ele><time>2026-04-25T09:19:05.743Z</time></trkpt><trkpt lat="43.8157473" lon="11.4673578"><ele>170.0</ele><time>2026-04-25T09:19:07.743Z</time></trkpt><trkpt lat="43.8157967" lon="11.4672827"><ele>170.0</ele><time>2026-04-25T09:19:09.744Z</time></trkpt><trkpt lat="43.815867" lon="11.4672422"><ele>170.0</ele><time>2026-04-25T09:19:11.742Z</time></trkpt><trkpt lat="43.8159431" lon="11.4672759"><ele>169.5</ele><time>2026-04-25T09:19:14.743Z</time></trkpt><trkpt lat="43.816024" lon="11.4673473"><ele>169.0</ele><time>2026-04-25T09:19:16.742Z</time></trkpt><trkpt lat="43.8160908" lon="11.4674137"><ele>168.5</ele><time>2026-04-25T09:19:18.743Z</time></trkpt><trkpt lat="43.8161551" lon="11.467471"><ele>168.0</ele><time>2026-04-25T09:19:20.743Z</time></trkpt><trkpt lat="43.8162211" lon="11.4675384"><ele>167.5</ele><time>2026-04-25T09:19:22.744Z</time></trkpt><trkpt lat="43.8162835" lon="11.4676021"><ele>167.0</ele><time>2026-04-25T09:19:24.742Z</time></trkpt><trkpt lat="43.8163467" lon="11.467663"><ele>167.0</ele><time>2026-04-25T09:19:26.743Z</time></trkpt><trkpt lat="43.8164129" lon="11.4677239"><ele>167.0</ele><time>2026-04-25T09:19:28.742Z</time></trkpt><trkpt lat="43.8164721" lon="11.467782"><ele>167.0</ele><time>2026-04-25T09:19:30.743Z</time></trkpt><trkpt lat="43.816473" lon="11.4678795"><ele>167.0</ele><time>2026-04-25T09:19:34.743Z</time></trkpt><trkpt lat="43.8164343" lon="11.467973"><ele>167.0</ele><time>2026-04-25T09:19:36.743Z</time></trkpt><trkpt lat="43.8163869" lon="11.4680584"><ele>167.0</ele><time>2026-04-25T09:19:38.742Z</time></trkpt><trkpt lat="43.8163507" lon="11.4681461"><ele>166.33333333333331</ele><time>2026-04-25T09:19:40.742Z</time></trkpt><trkpt lat="43.8163814" lon="11.4682332"><ele>165.66666666666666</ele><time>2026-04-25T09:19:42.742Z</time></trkpt><trkpt lat="43.8164332" lon="11.4682905"><ele>165.0</ele><time>2026-04-25T09:19:44.743Z</time></trkpt><trkpt lat="43.8165358" lon="11.4682344"><ele>164.33333333333334</ele><time>2026-04-25T09:19:46.743Z</time></trkpt><trkpt lat="43.8166295" lon="11.4682872"><ele>163.66666666666669</ele><time>2026-04-25T09:19:49.742Z</time></trkpt><trkpt lat="43.8167021" lon="11.4683655"><ele>163.0</ele><time>2026-04-25T09:19:51.743Z</time></trkpt><trkpt lat="43.8168062" lon="11.4684263"><ele>164.4</ele><time>2026-04-25T09:19:53.742Z</time></trkpt><trkpt lat="43.8169025" lon="11.4684956"><ele>165.8</ele><time>2026-04-25T09:19:55.742Z</time></trkpt><trkpt lat="43.8169599" lon="11.4686419"><ele>167.2</ele><time>2026-04-25T09:19:57.742Z</time></trkpt><trkpt lat="43.8169797" lon="11.4687345"><ele>168.6</ele><time>2026-04-25T09:19:58.743Z</time></trkpt><trkpt lat="43.8169984" lon="11.4688595"><ele>170.0</ele><time>2026-04-25T09:19:59.743Z</time></trkpt><trkpt lat="43.8170184" lon="11.4689945"><ele>170.0</ele><time>2026-04-25T09:20:00.742Z</time></trkpt><trkpt lat="43.8170412" lon="11.4691503"><ele>170.0</ele><time>2026-04-25T09:20:01.743Z</time></trkpt><trkpt lat="43.8170611" lon="11.4692883"><ele>170.0</ele><time>2026-04-25T09:20:02.743Z</time></trkpt><trkpt lat="43.817084" lon="11.4694291"><ele>170.0</ele><time>2026-04-25T09:20:03.742Z</time></trkpt><trkpt lat="43.8171082" lon="11.469553"><ele>170.0</ele><time>2026-04-25T09:20:04.742Z</time></trkpt><trkpt lat="43.8171263" lon="11.4696652"><ele>169.83333333333331</ele><time>2026-04-25T09:20:05.742Z</time></trkpt><trkpt lat="43.8171446" lon="11.4697873"><ele>169.66666666666666</ele><time>2026-04-25T09:20:06.742Z</time></trkpt><trkpt lat="43.8171632" lon="11.4698959"><ele>169.5</ele><time>2026-04-25T09:20:07.742Z</time></trkpt><trkpt lat="43.8171827" lon="11.4700085"><ele>169.33333333333334</ele><time>2026-04-25T09:20:08.742Z</time></trkpt><trkpt lat="43.8172037" lon="11.4701307"><ele>169.16666666666669</ele><time>2026-04-25T09:20:09.742Z</time></trkpt><trkpt lat="43.817224" lon="11.4702655"><ele>169.0</ele><time>2026-04-25T09:20:10.742Z</time></trkpt><trkpt lat="43.8172483" lon="11.4703946"><ele>168.39999999999998</ele><time>2026-04-25T09:20:11.742Z</time></trkpt><trkpt lat="43.8172692" lon="11.4705196"><ele>167.8</ele><time>2026-04-25T09:20:12.742Z</time></trkpt><trkpt lat="43.8172922" lon="11.4706351"><ele>167.2</ele><time>2026-04-25T09:20:13.743Z</time></trkpt><trkpt lat="43.8173164" lon="11.4707631"><ele>166.60000000000002</ele><time>2026-04-25T09:20:14.742Z</time></trkpt><trkpt lat="43.8173355" lon="11.4708986"><ele>166.0</ele><time>2026-04-25T09:20:15.743Z</time></trkpt><trkpt lat="43.8173581" lon="11.4710204"><ele>166.0</ele><time>2026-04-25T09:20:16.742Z</time></trkpt><trkpt lat="43.8173844" lon="11.4711349"><ele>166.0</ele><time>2026-04-25T09:20:17.744Z</time></trkpt><trkpt lat="43.8174057" lon="11.4712414"><ele>166.0</ele><time>2026-04-25T09:20:18.742Z</time></trkpt><trkpt lat="43.8174327" lon="11.4713531"><ele>166.0</ele><time>2026-04-25T09:20:19.743Z</time></trkpt><trkpt lat="43.817456" lon="11.4714508"><ele>166.0</ele><time>2026-04-25T09:20:20.742Z</time></trkpt><trkpt lat="43.8174826" lon="11.4715484"><ele>166.0</ele><time>2026-04-25T09:20:21.743Z</time></trkpt><trkpt lat="43.8175048" lon="11.4716538"><ele>165.33333333333334</ele><time>2026-04-25T09:20:22.742Z</time></trkpt><trkpt lat="43.8175182" lon="11.4717448"><ele>164.66666666666669</ele><time>2026-04-25T09:20:23.743Z</time></trkpt><trkpt lat="43.8175251" lon="11.4718426"><ele>164.0</ele><time>2026-04-25T09:20:24.743Z</time></trkpt><trkpt lat="43.8175126" lon="11.4719586"><ele>163.33333333333334</ele><time>2026-04-25T09:20:25.742Z</time></trkpt><trkpt lat="43.8174854" lon="11.4720783"><ele>162.66666666666666</ele><time>2026-04-25T09:20:26.742Z</time></trkpt><trkpt lat="43.8174507" lon="11.4722128"><ele>162.0</ele><time>2026-04-25T09:20:27.743Z</time></trkpt><trkpt lat="43.8174118" lon="11.4723602"><ele>161.0</ele><time>2026-04-25T09:20:28.744Z</time></trkpt><trkpt lat="43.8173782" lon="11.4724915"><ele>160.0</ele><time>2026-04-25T09:20:29.743Z</time></trkpt><trkpt lat="43.8173396" lon="11.4726183"><ele>159.0</ele><time>2026-04-25T09:20:30.742Z</time></trkpt><trkpt lat="43.8173044" lon="11.4727442"><ele>158.0</ele><time>2026-04-25T09:20:31.742Z</time></trkpt><trkpt lat="43.8172665" lon="11.4728596"><ele>157.0</ele><time>2026-04-25T09:20:32.743Z</time></trkpt><trkpt lat="43.8172312" lon="11.4729667"><ele>156.66666666666669</ele><time>2026-04-25T09:20:33.742Z</time></trkpt><trkpt lat="43.8172006" lon="11.4730622"><ele>156.33333333333334</ele><time>2026-04-25T09:20:34.742Z</time></trkpt><trkpt lat="43.8171732" lon="11.473148"><ele>156.0</ele><time>2026-04-25T09:20:35.743Z</time></trkpt><trkpt lat="43.8171128" lon="11.4732735"><ele>155.66666666666666</ele><time>2026-04-25T09:20:37.742Z</time></trkpt><trkpt lat="43.8170479" lon="11.4733658"><ele>155.33333333333331</ele><time>2026-04-25T09:20:39.742Z</time></trkpt><trkpt lat="43.8170067" lon="11.4734455"><ele>155.0</ele><time>2026-04-25T09:20:41.742Z</time></trkpt><trkpt lat="43.8170077" lon="11.4735353"><ele>155.0</ele><time>2026-04-25T09:20:44.742Z</time></trkpt><trkpt lat="43.8170398" lon="11.4736111"><ele>155.0</ele><time>2026-04-25T09:20:47.744Z</time></trkpt><trkpt lat="43.817104" lon="11.4736822"><ele>155.0</ele><time>2026-04-25T09:20:50.742Z</time></trkpt><trkpt lat="43.817173" lon="11.473768"><ele>155.0</ele><time>2026-04-25T09:20:53.743Z</time></trkpt><trkpt lat="43.8171964" lon="11.4738734"><ele>155.0</ele><time>2026-04-25T09:20:54.743Z</time></trkpt><trkpt lat="43.8172239" lon="11.473972"><ele>155.0</ele><time>2026-04-25T09:20:55.742Z</time></trkpt><trkpt lat="43.8172443" lon="11.4740724"><ele>154.14285714285714</ele><time>2026-04-25T09:20:56.742Z</time></trkpt><trkpt lat="43.8172675" lon="11.4741622"><ele>153.28571428571428</ele><time>2026-04-25T09:20:57.742Z</time></trkpt><trkpt lat="43.8172889" lon="11.4742544"><ele>152.42857142857142</ele><time>2026-04-25T09:20:58.744Z</time></trkpt><trkpt lat="43.817309" lon="11.4743403"><ele>151.57142857142856</ele><time>2026-04-25T09:20:59.742Z</time></trkpt><trkpt lat="43.8173328" lon="11.4744275"><ele>150.7142857142857</ele><time>2026-04-25T09:21:00.743Z</time></trkpt><trkpt lat="43.8173523" lon="11.4745171"><ele>149.85714285714286</ele><time>2026-04-25T09:21:01.742Z</time></trkpt><trkpt lat="43.8173732" lon="11.4746112"><ele>149.0</ele><time>2026-04-25T09:21:02.742Z</time></trkpt><trkpt lat="43.8173964" lon="11.474704"><ele>148.14285714285714</ele><time>2026-04-25T09:21:03.742Z</time></trkpt><trkpt lat="43.8174165" lon="11.4748021"><ele>147.28571428571428</ele><time>2026-04-25T09:21:04.742Z</time></trkpt><trkpt lat="43.8174391" lon="11.4748997"><ele>146.42857142857142</ele><time>2026-04-25T09:21:05.743Z</time></trkpt><trkpt lat="43.8174594" lon="11.4749877"><ele>145.57142857142856</ele><time>2026-04-25T09:21:06.743Z</time></trkpt><trkpt lat="43.8174791" lon="11.4750723"><ele>144.71428571428572</ele><time>2026-04-25T09:21:07.742Z</time></trkpt><trkpt lat="43.8175041" lon="11.4751715"><ele>143.85714285714283</ele><time>2026-04-25T09:21:08.742Z</time></trkpt><trkpt lat="43.817528" lon="11.4752651"><ele>143.0</ele><time>2026-04-25T09:21:09.742Z</time></trkpt><trkpt lat="43.8175525" lon="11.4753585"><ele>142.14285714285714</ele><time>2026-04-25T09:21:10.743Z</time></trkpt><trkpt lat="43.8175758" lon="11.4754487"><ele>141.28571428571428</ele><time>2026-04-25T09:21:11.743Z</time></trkpt><trkpt lat="43.8176046" lon="11.4755343"><ele>140.42857142857144</ele><time>2026-04-25T09:21:12.742Z</time></trkpt><trkpt lat="43.8176314" lon="11.4756214"><ele>139.57142857142856</ele><time>2026-04-25T09:21:13.742Z</time></trkpt><trkpt lat="43.8176564" lon="11.475714"><ele>138.71428571428572</ele><time>2026-04-25T09:21:14.744Z</time></trkpt><trkpt lat="43.8176784" lon="11.4758086"><ele>137.85714285714286</ele><time>2026-04-25T09:21:15.743Z</time></trkpt><trkpt lat="43.8176924" lon="11.4759044"><ele>137.0</ele><time>2026-04-25T09:21:16.743Z</time></trkpt><trkpt lat="43.8177061" lon="11.4760572"><ele>137.0</ele><time>2026-04-25T09:21:18.742Z</time></trkpt><trkpt lat="43.8177265" lon="11.4761416"><ele>137.0</ele><time>2026-04-25T09:21:20.742Z</time></trkpt><trkpt lat="43.8178234" lon="11.4762407"><ele>137.0</ele><time>2026-04-25T09:21:22.743Z</time></trkpt><trkpt lat="43.8179173" lon="11.4763006"><ele>137.0</ele><time>2026-04-25T09:21:23.743Z</time></trkpt><trkpt lat="43.8180158" lon="11.4763696"><ele>137.0</ele><time>2026-04-25T09:21:24.742Z</time></trkpt><trkpt lat="43.8181081" lon="11.4764173"><ele>136.0</ele><time>2026-04-25T09:21:25.742Z</time></trkpt><trkpt lat="43.8182166" lon="11.4764385"><ele>135.0</ele><time>2026-04-25T09:21:26.742Z</time></trkpt><trkpt lat="43.8183362" lon="11.476431"><ele>134.0</ele><time>2026-04-25T09:21:27.743Z</time></trkpt><trkpt lat="43.8184657" lon="11.4764066"><ele>133.0</ele><time>2026-04-25T09:21:28.743Z</time></trkpt><trkpt lat="43.8185856" lon="11.4763928"><ele>133.0</ele><time>2026-04-25T09:21:29.743Z</time></trkpt><trkpt lat="43.8187002" lon="11.4763947"><ele>133.0</ele><time>2026-04-25T09:21:30.743Z</time></trkpt><trkpt lat="43.8188117" lon="11.476448"><ele>133.0</ele><time>2026-04-25T09:21:31.742Z</time></trkpt><trkpt lat="43.8189234" lon="11.4765365"><ele>133.0</ele><time>2026-04-25T09:21:32.743Z</time></trkpt><trkpt lat="43.8190355" lon="11.4766159"><ele>133.0</ele><time>2026-04-25T09:21:33.742Z</time></trkpt><trkpt lat="43.8191346" lon="11.4766621"><ele>133.0</ele><time>2026-04-25T09:21:34.742Z</time></trkpt><trkpt lat="43.8192225" lon="11.476672"><ele>133.0</ele><time>2026-04-25T09:21:35.743Z</time></trkpt><trkpt lat="43.8193254" lon="11.476679"><ele>133.0</ele><time>2026-04-25T09:21:36.744Z</time></trkpt><trkpt lat="43.819446" lon="11.476584"><ele>133.0</ele><time>2026-04-25T09:21:37.743Z</time></trkpt><trkpt lat="43.8195628" lon="11.4765337"><ele>131.66666666666669</ele><time>2026-04-25T09:21:38.743Z</time></trkpt><trkpt lat="43.8197241" lon="11.4763975"><ele>130.33333333333334</ele><time>2026-04-25T09:21:39.743Z</time></trkpt><trkpt lat="43.8198591" lon="11.4763121"><ele>129.0</ele><time>2026-04-25T09:21:40.743Z</time></trkpt><trkpt lat="43.8199953" lon="11.4762435"><ele>131.33333333333334</ele><time>2026-04-25T09:21:41.742Z</time></trkpt><trkpt lat="43.8201487" lon="11.4762033"><ele>133.66666666666669</ele><time>2026-04-25T09:21:42.742Z</time></trkpt><trkpt lat="43.8203094" lon="11.476201"><ele>136.0</ele><time>2026-04-25T09:21:43.742Z</time></trkpt><trkpt lat="43.8204767" lon="11.4762236"><ele>136.0</ele><time>2026-04-25T09:21:44.742Z</time></trkpt><trkpt lat="43.820649" lon="11.4762608"><ele>136.0</ele><time>2026-04-25T09:21:45.743Z</time></trkpt><trkpt lat="43.8208207" lon="11.4762996"><ele>136.0</ele><time>2026-04-25T09:21:46.743Z</time></trkpt><trkpt lat="43.8209686" lon="11.4763359"><ele>135.5</ele><time>2026-04-25T09:21:47.742Z</time></trkpt><trkpt lat="43.8211014" lon="11.476377"><ele>135.0</ele><time>2026-04-25T09:21:48.744Z</time></trkpt><trkpt lat="43.8212305" lon="11.4764229"><ele>134.5</ele><time>2026-04-25T09:21:49.743Z</time></trkpt><trkpt lat="43.8213815" lon="11.4764671"><ele>134.0</ele><time>2026-04-25T09:21:50.742Z</time></trkpt><trkpt lat="43.8215493" lon="11.4765125"><ele>134.0</ele><time>2026-04-25T09:21:51.743Z</time></trkpt><trkpt lat="43.8217372" lon="11.4765705"><ele>134.0</ele><time>2026-04-25T09:21:52.742Z</time></trkpt><trkpt lat="43.8219221" lon="11.4766248"><ele>134.0</ele><time>2026-04-25T09:21:53.742Z</time></trkpt><trkpt lat="43.8220913" lon="11.4766793"><ele>134.0</ele><time>2026-04-25T09:21:54.742Z</time></trkpt><trkpt lat="43.822254" lon="11.4767286"><ele>134.0</ele><time>2026-04-25T09:21:55.742Z</time></trkpt><trkpt lat="43.8224197" lon="11.4767667"><ele>134.0</ele><time>2026-04-25T09:21:56.743Z</time></trkpt><trkpt lat="43.8225777" lon="11.476792"><ele>134.66666666666666</ele><time>2026-04-25T09:21:57.742Z</time></trkpt><trkpt lat="43.8227397" lon="11.4767983"><ele>135.33333333333334</ele><time>2026-04-25T09:21:58.742Z</time></trkpt><trkpt lat="43.8228886" lon="11.4768064"><ele>136.0</ele><time>2026-04-25T09:21:59.743Z</time></trkpt><trkpt lat="43.8230316" lon="11.4768284"><ele>136.0</ele><time>2026-04-25T09:22:00.743Z</time></trkpt><trkpt lat="43.8231675" lon="11.4768458"><ele>136.0</ele><time>2026-04-25T09:22:01.742Z</time></trkpt><trkpt lat="43.8232929" lon="11.4768648"><ele>136.0</ele><time>2026-04-25T09:22:02.742Z</time></trkpt><trkpt lat="43.823404" lon="11.476911"><ele>136.0</ele><time>2026-04-25T09:22:03.742Z</time></trkpt><trkpt lat="43.8235288" lon="11.476976"><ele>136.5</ele><time>2026-04-25T09:22:04.742Z</time></trkpt><trkpt lat="43.8236287" lon="11.4770998"><ele>137.0</ele><time>2026-04-25T09:22:05.742Z</time></trkpt><trkpt lat="43.8237647" lon="11.4771861"><ele>137.5</ele><time>2026-04-25T09:22:06.742Z</time></trkpt><trkpt lat="43.8239186" lon="11.4772655"><ele>138.0</ele><time>2026-04-25T09:22:07.742Z</time></trkpt><trkpt lat="43.8240797" lon="11.4773499"><ele>136.0</ele><time>2026-04-25T09:22:08.742Z</time></trkpt><trkpt lat="43.8242424" lon="11.4774284"><ele>134.0</ele><time>2026-04-25T09:22:09.743Z</time></trkpt><trkpt lat="43.8244236" lon="11.4775096"><ele>132.0</ele><time>2026-04-25T09:22:10.743Z</time></trkpt><trkpt lat="43.8246189" lon="11.4775951"><ele>132.0</ele><time>2026-04-25T09:22:11.742Z</time></trkpt><trkpt lat="43.8247989" lon="11.4776752"><ele>132.0</ele><time>2026-04-25T09:22:12.742Z</time></trkpt><trkpt lat="43.82497" lon="11.4777493"><ele>132.0</ele><time>2026-04-25T09:22:13.743Z</time></trkpt><trkpt lat="43.8251336" lon="11.477822"><ele>132.0</ele><time>2026-04-25T09:22:14.742Z</time></trkpt><trkpt lat="43.8252826" lon="11.4778866"><ele>132.0</ele><time>2026-04-25T09:22:15.742Z</time></trkpt><trkpt lat="43.8254182" lon="11.4779485"><ele>132.0</ele><time>2026-04-25T09:22:16.743Z</time></trkpt><trkpt lat="43.8255536" lon="11.4780163"><ele>132.0</ele><time>2026-04-25T09:22:17.743Z</time></trkpt><trkpt lat="43.8256869" lon="11.4780879"><ele>129.5</ele><time>2026-04-25T09:22:18.744Z</time></trkpt><trkpt lat="43.8258119" lon="11.4781661"><ele>127.0</ele><time>2026-04-25T09:22:19.743Z</time></trkpt><trkpt lat="43.8259195" lon="11.4782516"><ele>124.5</ele><time>2026-04-25T09:22:20.743Z</time></trkpt><trkpt lat="43.8260163" lon="11.4783256"><ele>122.0</ele><time>2026-04-25T09:22:21.743Z</time></trkpt><trkpt lat="43.8261131" lon="11.4783813"><ele>119.75</ele><time>2026-04-25T09:22:22.742Z</time></trkpt><trkpt lat="43.8262196" lon="11.478414"><ele>117.5</ele><time>2026-04-25T09:22:23.742Z</time></trkpt><trkpt lat="43.8263266" lon="11.4784414"><ele>115.25</ele><time>2026-04-25T09:22:24.742Z</time></trkpt><trkpt lat="43.8264984" lon="11.4784095"><ele>113.0</ele><time>2026-04-25T09:22:25.743Z</time></trkpt><trkpt lat="43.8266401" lon="11.4784126"><ele>113.0</ele><time>2026-04-25T09:22:26.742Z</time></trkpt><trkpt lat="43.8267649" lon="11.4784029"><ele>113.0</ele><time>2026-04-25T09:22:27.743Z</time></trkpt><trkpt lat="43.8268813" lon="11.4784134"><ele>113.0</ele><time>2026-04-25T09:22:28.743Z</time></trkpt><trkpt lat="43.8269874" lon="11.4784544"><ele>113.0</ele><time>2026-04-25T09:22:29.742Z</time></trkpt><trkpt lat="43.8270943" lon="11.478525"><ele>112.33333333333333</ele><time>2026-04-25T09:22:30.742Z</time></trkpt><trkpt lat="43.8272189" lon="11.4786145"><ele>111.66666666666666</ele><time>2026-04-25T09:22:31.744Z</time></trkpt><trkpt lat="43.8273562" lon="11.4787178"><ele>111.0</ele><time>2026-04-25T09:22:32.744Z</time></trkpt><trkpt lat="43.8274988" lon="11.4788367"><ele>111.0</ele><time>2026-04-25T09:22:33.742Z</time></trkpt><trkpt lat="43.8276376" lon="11.4789523"><ele>111.0</ele><time>2026-04-25T09:22:34.742Z</time></trkpt><trkpt lat="43.8277697" lon="11.479063"><ele>111.0</ele><time>2026-04-25T09:22:35.742Z</time></trkpt><trkpt lat="43.8278813" lon="11.4791747"><ele>110.75</ele><time>2026-04-25T09:22:36.743Z</time></trkpt><trkpt lat="43.8279877" lon="11.4792892"><ele>110.5</ele><time>2026-04-25T09:22:37.743Z</time></trkpt><trkpt lat="43.8280793" lon="11.4794239"><ele>110.25</ele><time>2026-04-25T09:22:38.742Z</time></trkpt><trkpt lat="43.8281785" lon="11.479575"><ele>110.0</ele><time>2026-04-25T09:22:39.742Z</time></trkpt><trkpt lat="43.828271" lon="11.47976"><ele>110.0</ele><time>2026-04-25T09:22:40.743Z</time></trkpt><trkpt lat="43.8283693" lon="11.4799619"><ele>110.0</ele><time>2026-04-25T09:22:41.743Z</time></trkpt><trkpt lat="43.8284793" lon="11.480176"><ele>110.0</ele><time>2026-04-25T09:22:42.744Z</time></trkpt><trkpt lat="43.828591" lon="11.4803998"><ele>110.0</ele><time>2026-04-25T09:22:43.742Z</time></trkpt><trkpt lat="43.828706" lon="11.4806238"><ele>110.0</ele><time>2026-04-25T09:22:44.742Z</time></trkpt><trkpt lat="43.8288249" lon="11.480846"><ele>110.0</ele><time>2026-04-25T09:22:45.743Z</time></trkpt><trkpt lat="43.8289345" lon="11.4810535"><ele>110.0</ele><time>2026-04-25T09:22:46.743Z</time></trkpt><trkpt lat="43.8290316" lon="11.4812406"><ele>110.0</ele><time>2026-04-25T09:22:47.743Z</time></trkpt><trkpt lat="43.8291318" lon="11.4814059"><ele>110.0</ele><time>2026-04-25T09:22:48.742Z</time></trkpt><trkpt lat="43.8292304" lon="11.4815436"><ele>110.6</ele><time>2026-04-25T09:22:49.743Z</time></trkpt><trkpt lat="43.8293187" lon="11.4816617"><ele>111.2</ele><time>2026-04-25T09:22:50.742Z</time></trkpt><trkpt lat="43.8293985" lon="11.4817693"><ele>111.80000000000001</ele><time>2026-04-25T09:22:51.743Z</time></trkpt><trkpt lat="43.829497" lon="11.481757"><ele>112.4</ele><time>2026-04-25T09:22:52.743Z</time></trkpt><trkpt lat="43.8295916" lon="11.4817926"><ele>113.0</ele><time>2026-04-25T09:22:53.742Z</time></trkpt><trkpt lat="43.8296835" lon="11.481743"><ele>113.0</ele><time>2026-04-25T09:22:54.742Z</time></trkpt><trkpt lat="43.8297446" lon="11.4818082"><ele>113.00000000000001</ele><time>2026-04-25T09:22:55.742Z</time></trkpt><trkpt lat="43.8297986" lon="11.4819025"><ele>113.00000000000001</ele><time>2026-04-25T09:22:56.742Z</time></trkpt><trkpt lat="43.829847" lon="11.4820233"><ele>113.0</ele><time>2026-04-25T09:22:57.743Z</time></trkpt><trkpt lat="43.8298887" lon="11.4821593"><ele>113.0</ele><time>2026-04-25T09:22:58.744Z</time></trkpt><trkpt lat="43.8299294" lon="11.482302"><ele>112.80000000000001</ele><time>2026-04-25T09:22:59.742Z</time></trkpt><trkpt lat="43.8299667" lon="11.4824416"><ele>112.60000000000001</ele><time>2026-04-25T09:23:00.742Z</time></trkpt><trkpt lat="43.830004" lon="11.4825767"><ele>112.39999999999999</ele><time>2026-04-25T09:23:01.742Z</time></trkpt><trkpt lat="43.8300427" lon="11.482709"><ele>112.19999999999999</ele><time>2026-04-25T09:23:02.743Z</time></trkpt><trkpt lat="43.8300821" lon="11.482844"><ele>112.0</ele><time>2026-04-25T09:23:03.742Z</time></trkpt><trkpt lat="43.8301238" lon="11.4829764"><ele>114.19999999999999</ele><time>2026-04-25T09:23:04.742Z</time></trkpt><trkpt lat="43.8301669" lon="11.4831085"><ele>116.39999999999999</ele><time>2026-04-25T09:23:05.743Z</time></trkpt><trkpt lat="43.8302057" lon="11.4832403"><ele>118.60000000000001</ele><time>2026-04-25T09:23:06.743Z</time></trkpt><trkpt lat="43.8302419" lon="11.4833619"><ele>120.80000000000001</ele><time>2026-04-25T09:23:07.743Z</time></trkpt><trkpt lat="43.8302767" lon="11.483479"><ele>123.0</ele><time>2026-04-25T09:23:08.744Z</time></trkpt><trkpt lat="43.8303121" lon="11.4836003"><ele>123.0</ele><time>2026-04-25T09:23:09.743Z</time></trkpt><trkpt lat="43.8303531" lon="11.4837182"><ele>123.00000000000001</ele><time>2026-04-25T09:23:10.743Z</time></trkpt><trkpt lat="43.8303923" lon="11.4838228"><ele>123.00000000000001</ele><time>2026-04-25T09:23:11.744Z</time></trkpt><trkpt lat="43.830444" lon="11.4839309"><ele>123.0</ele><time>2026-04-25T09:23:12.744Z</time></trkpt><trkpt lat="43.8305068" lon="11.4840239"><ele>123.0</ele><time>2026-04-25T09:23:13.742Z</time></trkpt><trkpt lat="43.8305728" lon="11.4841183"><ele>123.66666666666667</ele><time>2026-04-25T09:23:14.742Z</time></trkpt><trkpt lat="43.8306332" lon="11.4842007"><ele>124.33333333333334</ele><time>2026-04-25T09:23:15.742Z</time></trkpt><trkpt lat="43.8306917" lon="11.4842846"><ele>125.0</ele><time>2026-04-25T09:23:16.742Z</time></trkpt><trkpt lat="43.8307352" lon="11.4843775"><ele>125.66666666666667</ele><time>2026-04-25T09:23:17.743Z</time></trkpt><trkpt lat="43.8307833" lon="11.4844808"><ele>126.33333333333334</ele><time>2026-04-25T09:23:18.742Z</time></trkpt><trkpt lat="43.8308035" lon="11.4845866"><ele>127.0</ele><time>2026-04-25T09:23:19.742Z</time></trkpt><trkpt lat="43.8308191" lon="11.4846945"><ele>127.16666666666667</ele><time>2026-04-25T09:23:20.742Z</time></trkpt><trkpt lat="43.8308178" lon="11.4848018"><ele>127.33333333333334</ele><time>2026-04-25T09:23:21.742Z</time></trkpt><trkpt lat="43.8308114" lon="11.4849045"><ele>127.5</ele><time>2026-04-25T09:23:22.743Z</time></trkpt><trkpt lat="43.8308017" lon="11.4850188"><ele>127.66666666666666</ele><time>2026-04-25T09:23:23.743Z</time></trkpt><trkpt lat="43.8307955" lon="11.4851176"><ele>127.83333333333333</ele><time>2026-04-25T09:23:24.742Z</time></trkpt><trkpt lat="43.8307765" lon="11.4852333"><ele>128.0</ele><time>2026-04-25T09:23:25.742Z</time></trkpt><trkpt lat="43.8307608" lon="11.485326"><ele>127.83333333333333</ele><time>2026-04-25T09:23:26.743Z</time></trkpt><trkpt lat="43.8307371" lon="11.4854389"><ele>127.66666666666666</ele><time>2026-04-25T09:23:27.742Z</time></trkpt><trkpt lat="43.8307109" lon="11.4855409"><ele>127.5</ele><time>2026-04-25T09:23:28.743Z</time></trkpt><trkpt lat="43.8306888" lon="11.485642"><ele>127.33333333333334</ele><time>2026-04-25T09:23:29.742Z</time></trkpt><trkpt lat="43.8306707" lon="11.4857285"><ele>127.16666666666667</ele><time>2026-04-25T09:23:30.742Z</time></trkpt><trkpt lat="43.8306493" lon="11.4858223"><ele>127.0</ele><time>2026-04-25T09:23:31.742Z</time></trkpt><trkpt lat="43.8306253" lon="11.4859257"><ele>127.00000000000001</ele><time>2026-04-25T09:23:32.743Z</time></trkpt><trkpt lat="43.8306016" lon="11.4860313"><ele>127.0</ele><time>2026-04-25T09:23:33.742Z</time></trkpt><trkpt lat="43.8305754" lon="11.486133"><ele>127.0</ele><time>2026-04-25T09:23:34.742Z</time></trkpt><trkpt lat="43.8305585" lon="11.486235"><ele>127.0</ele><time>2026-04-25T09:23:35.743Z</time></trkpt><trkpt lat="43.8305612" lon="11.4863327"><ele>127.00000000000001</ele><time>2026-04-25T09:23:36.742Z</time></trkpt><trkpt lat="43.8305772" lon="11.486418"><ele>127.0</ele><time>2026-04-25T09:23:37.742Z</time></trkpt><trkpt lat="43.8306238" lon="11.4865239"><ele>126.66666666666667</ele><time>2026-04-25T09:23:39.742Z</time></trkpt><trkpt lat="43.8306367" lon="11.4866275"><ele>126.33333333333334</ele><time>2026-04-25T09:23:41.743Z</time></trkpt><trkpt lat="43.830578" lon="11.4867191"><ele>126.0</ele><time>2026-04-25T09:23:43.742Z</time></trkpt><trkpt lat="43.8304641" lon="11.4867941"><ele>125.66666666666666</ele><time>2026-04-25T09:23:45.743Z</time></trkpt><trkpt lat="43.8303942" lon="11.4868383"><ele>125.33333333333333</ele><time>2026-04-25T09:23:46.743Z</time></trkpt><trkpt lat="43.8303236" lon="11.4868848"><ele>125.0</ele><time>2026-04-25T09:23:47.742Z</time></trkpt><trkpt lat="43.8302516" lon="11.4869335"><ele>124.99999999999999</ele><time>2026-04-25T09:23:48.743Z</time></trkpt><trkpt lat="43.8301798" lon="11.4869754"><ele>125.0</ele><time>2026-04-25T09:23:49.743Z</time></trkpt><trkpt lat="43.8301108" lon="11.4870188"><ele>125.0</ele><time>2026-04-25T09:23:50.742Z</time></trkpt><trkpt lat="43.830048" lon="11.4870615"><ele>125.0</ele><time>2026-04-25T09:23:51.743Z</time></trkpt><trkpt lat="43.8299864" lon="11.4871102"><ele>124.99999999999999</ele><time>2026-04-25T09:23:52.743Z</time></trkpt><trkpt lat="43.829938" lon="11.4872492"><ele>125.0</ele><time>2026-04-25T09:23:54.742Z</time></trkpt><trkpt lat="43.8298778" lon="11.487376"><ele>123.8</ele><time>2026-04-25T09:23:56.743Z</time></trkpt><trkpt lat="43.8298426" lon="11.4875307"><ele>122.6</ele><time>2026-04-25T09:23:58.742Z</time></trkpt><trkpt lat="43.8297794" lon="11.4876529"><ele>121.4</ele><time>2026-04-25T09:24:00.742Z</time></trkpt><trkpt lat="43.8297108" lon="11.4877576"><ele>120.2</ele><time>2026-04-25T09:24:02.742Z</time></trkpt><trkpt lat="43.8296626" lon="11.4878174"><ele>119.0</ele><time>2026-04-25T09:24:03.743Z</time></trkpt><trkpt lat="43.8295988" lon="11.4878173"><ele>118.99999999999999</ele><time>2026-04-25T09:24:04.742Z</time></trkpt><trkpt lat="43.8294712" lon="11.4878611"><ele>119.0</ele><time>2026-04-25T09:24:06.742Z</time></trkpt><trkpt lat="43.8294044" lon="11.4878888"><ele>119.0</ele><time>2026-04-25T09:24:07.742Z</time></trkpt><trkpt lat="43.8293252" lon="11.4879053"><ele>119.0</ele><time>2026-04-25T09:24:08.743Z</time></trkpt><trkpt lat="43.8292577" lon="11.4879111"><ele>118.99999999999999</ele><time>2026-04-25T09:24:09.743Z</time></trkpt><trkpt lat="43.8291945" lon="11.4879084"><ele>119.0</ele><time>2026-04-25T09:24:10.742Z</time></trkpt><trkpt lat="43.8290666" lon="11.4878999"><ele>118.28571428571428</ele><time>2026-04-25T09:24:12.742Z</time></trkpt><trkpt lat="43.8289982" lon="11.4878982"><ele>117.57142857142857</ele><time>2026-04-25T09:24:13.743Z</time></trkpt><trkpt lat="43.8289275" lon="11.4878957"><ele>116.85714285714286</ele><time>2026-04-25T09:24:14.742Z</time></trkpt><trkpt lat="43.8288645" lon="11.4878904"><ele>116.14285714285714</ele><time>2026-04-25T09:24:15.743Z</time></trkpt><trkpt lat="43.8287976" lon="11.4878895"><ele>115.42857142857142</ele><time>2026-04-25T09:24:16.742Z</time></trkpt><trkpt lat="43.8287241" lon="11.4878928"><ele>114.71428571428571</ele><time>2026-04-25T09:24:17.743Z</time></trkpt><trkpt lat="43.8286433" lon="11.4878896"><ele>114.0</ele><time>2026-04-25T09:24:18.743Z</time></trkpt><trkpt lat="43.8285674" lon="11.4878864"><ele>114.0</ele><time>2026-04-25T09:24:19.743Z</time></trkpt><trkpt lat="43.8284993" lon="11.4878841"><ele>114.0</ele><time>2026-04-25T09:24:20.744Z</time></trkpt><trkpt lat="43.8283979" lon="11.4878828"><ele>114.0</ele><time>2026-04-25T09:24:22.742Z</time></trkpt><trkpt lat="43.8283136" lon="11.4879003"><ele>114.0</ele><time>2026-04-25T09:24:25.743Z</time></trkpt><trkpt lat="43.8282331" lon="11.4879246"><ele>114.0</ele><time>2026-04-25T09:24:27.742Z</time></trkpt><trkpt lat="43.8282288" lon="11.4877709"><ele>114.0</ele><time>2026-04-25T09:24:29.743Z</time></trkpt><trkpt lat="43.8282216" lon="11.4876388"><ele>114.0</ele><time>2026-04-25T09:24:30.742Z</time></trkpt><trkpt lat="43.8281901" lon="11.4874944"><ele>114.0</ele><time>2026-04-25T09:24:31.742Z</time></trkpt><trkpt lat="43.8281589" lon="11.4873409"><ele>114.0</ele><time>2026-04-25T09:24:32.742Z</time></trkpt><trkpt lat="43.8281421" lon="11.4871751"><ele>114.0</ele><time>2026-04-25T09:24:33.742Z</time></trkpt><trkpt lat="43.8281078" lon="11.4870259"><ele>113.5</ele><time>2026-04-25T09:24:34.742Z</time></trkpt><trkpt lat="43.8280624" lon="11.4868834"><ele>113.0</ele><time>2026-04-25T09:24:35.742Z</time></trkpt><trkpt lat="43.8280069" lon="11.4867354"><ele>112.5</ele><time>2026-04-25T09:24:36.742Z</time></trkpt><trkpt lat="43.8279388" lon="11.4865868"><ele>112.0</ele><time>2026-04-25T09:24:37.743Z</time></trkpt><trkpt lat="43.8278761" lon="11.4864225"><ele>112.00000000000001</ele><time>2026-04-25T09:24:38.742Z</time></trkpt><trkpt lat="43.8278454" lon="11.4862955"><ele>112.0</ele><time>2026-04-25T09:24:39.742Z</time></trkpt><trkpt lat="43.8278235" lon="11.4862038"><ele>112.0</ele><time>2026-04-25T09:24:40.742Z</time></trkpt><trkpt lat="43.8278383" lon="11.486093"><ele>112.0</ele><time>2026-04-25T09:24:42.743Z</time></trkpt><trkpt lat="43.8279076" lon="11.4860584"><ele>112.00000000000001</ele><time>2026-04-25T09:24:43.743Z</time></trkpt><trkpt lat="43.8279903" lon="11.4859997"><ele>112.0</ele><time>2026-04-25T09:24:44.743Z</time></trkpt><trkpt lat="43.8280756" lon="11.4859304"><ele>111.8</ele><time>2026-04-25T09:24:45.743Z</time></trkpt><trkpt lat="43.8281611" lon="11.4858667"><ele>111.6</ele><time>2026-04-25T09:24:46.742Z</time></trkpt><trkpt lat="43.8282433" lon="11.4858131"><ele>111.39999999999999</ele><time>2026-04-25T09:24:47.742Z</time></trkpt><trkpt lat="43.8283446" lon="11.4857593"><ele>111.19999999999999</ele><time>2026-04-25T09:24:49.742Z</time></trkpt><trkpt lat="43.8284167" lon="11.4856793"><ele>111.0</ele><time>2026-04-25T09:24:51.742Z</time></trkpt><trkpt lat="43.828449" lon="11.4855569"><ele>111.0</ele><time>2026-04-25T09:24:53.743Z</time></trkpt><trkpt lat="43.8284479" lon="11.4853725"><ele>111.0</ele><time>2026-04-25T09:24:55.742Z</time></trkpt><trkpt lat="43.8284133" lon="11.4852569"><ele>111.0</ele><time>2026-04-25T09:24:56.743Z</time></trkpt><trkpt lat="43.8283891" lon="11.4851222"><ele>111.0</ele><time>2026-04-25T09:24:57.743Z</time></trkpt><trkpt lat="43.8283726" lon="11.4849975"><ele>111.0</ele><time>2026-04-25T09:24:58.742Z</time></trkpt><trkpt lat="43.8283711" lon="11.4848846"><ele>111.0</ele><time>2026-04-25T09:24:59.743Z</time></trkpt><trkpt lat="43.8283557" lon="11.4847628"><ele>111.0</ele><time>2026-04-25T09:25:00.742Z</time></trkpt><trkpt lat="43.8283286" lon="11.4846547"><ele>111.0</ele><time>2026-04-25T09:25:01.742Z</time></trkpt><trkpt lat="43.8282858" lon="11.4845473"><ele>111.0</ele><time>2026-04-25T09:25:02.742Z</time></trkpt><trkpt lat="43.8282423" lon="11.4844348"><ele>111.0</ele><time>2026-04-25T09:25:03.743Z</time></trkpt><trkpt lat="43.828206" lon="11.4843151"><ele>111.0</ele><time>2026-04-25T09:25:04.742Z</time></trkpt><trkpt lat="43.8281619" lon="11.4841946"><ele>110.8</ele><time>2026-04-25T09:25:05.742Z</time></trkpt><trkpt lat="43.8281237" lon="11.4840781"><ele>110.6</ele><time>2026-04-25T09:25:06.742Z</time></trkpt><trkpt lat="43.8280862" lon="11.4839558"><ele>110.4</ele><time>2026-04-25T09:25:07.742Z</time></trkpt><trkpt lat="43.82806" lon="11.483843"><ele>110.2</ele><time>2026-04-25T09:25:08.743Z</time></trkpt><trkpt lat="43.8280288" lon="11.4837239"><ele>110.0</ele><time>2026-04-25T09:25:09.742Z</time></trkpt><trkpt lat="43.8279961" lon="11.4836113"><ele>109.99999999999999</ele><time>2026-04-25T09:25:10.742Z</time></trkpt><trkpt lat="43.8279746" lon="11.4835149"><ele>110.0</ele><time>2026-04-25T09:25:11.743Z</time></trkpt><trkpt lat="43.8279495" lon="11.4834204"><ele>110.0</ele><time>2026-04-25T09:25:12.742Z</time></trkpt><trkpt lat="43.8279285" lon="11.4833361"><ele>110.0</ele><time>2026-04-25T09:25:13.743Z</time></trkpt><trkpt lat="43.8278752" lon="11.4831888"><ele>109.99999999999999</ele><time>2026-04-25T09:25:15.743Z</time></trkpt><trkpt lat="43.8278075" lon="11.4830666"><ele>110.0</ele><time>2026-04-25T09:25:17.743Z</time></trkpt><trkpt lat="43.8277361" lon="11.4829371"><ele>110.0</ele><time>2026-04-25T09:25:19.742Z</time></trkpt><trkpt lat="43.827683" lon="11.4828078"><ele>110.0</ele><time>2026-04-25T09:25:21.742Z</time></trkpt><trkpt lat="43.8276363" lon="11.4826671"><ele>110.0</ele><time>2026-04-25T09:25:23.742Z</time></trkpt><trkpt lat="43.8275712" lon="11.4825589"><ele>110.0</ele><time>2026-04-25T09:25:25.742Z</time></trkpt><trkpt lat="43.8274824" lon="11.4824674"><ele>110.0</ele><time>2026-04-25T09:25:27.743Z</time></trkpt><trkpt lat="43.8274366" lon="11.4824052"><ele>109.99999999999999</ele><time>2026-04-25T09:25:28.742Z</time></trkpt><trkpt lat="43.8273629" lon="11.482298"><ele>110.0</ele><time>2026-04-25T09:25:30.743Z</time></trkpt><trkpt lat="43.8272906" lon="11.4822652"><ele>110.0</ele><time>2026-04-25T09:25:32.743Z</time></trkpt><trkpt lat="43.8272081" lon="11.4823278"><ele>110.0</ele><time>2026-04-25T09:25:34.742Z</time></trkpt><trkpt lat="43.8271622" lon="11.4823984"><ele>109.99999999999999</ele><time>2026-04-25T09:25:35.742Z</time></trkpt><trkpt lat="43.8271044" lon="11.4824653"><ele>110.0</ele><time>2026-04-25T09:25:36.742Z</time></trkpt><trkpt lat="43.8270429" lon="11.4825154"><ele>109.99999999999999</ele><time>2026-04-25T09:25:37.742Z</time></trkpt><trkpt lat="43.8269706" lon="11.4824676"><ele>110.0</ele><time>2026-04-25T09:25:40.743Z</time></trkpt><trkpt lat="43.8268948" lon="11.482415"><ele>110.0</ele><time>2026-04-25T09:25:41.742Z</time></trkpt><trkpt lat="43.8268272" lon="11.4823277"><ele>110.0</ele><time>2026-04-25T09:25:42.742Z</time></trkpt><trkpt lat="43.8267453" lon="11.4822389"><ele>109.99999999999999</ele><time>2026-04-25T09:25:43.742Z</time></trkpt><trkpt lat="43.8266814" lon="11.4821679"><ele>110.0</ele><time>2026-04-25T09:25:44.742Z</time></trkpt><trkpt lat="43.8266078" lon="11.4820986"><ele>109.8</ele><time>2026-04-25T09:25:45.742Z</time></trkpt><trkpt lat="43.8265332" lon="11.48203"><ele>109.6</ele><time>2026-04-25T09:25:46.743Z</time></trkpt><trkpt lat="43.8264552" lon="11.4819525"><ele>109.4</ele><time>2026-04-25T09:25:47.742Z</time></trkpt><trkpt lat="43.826375" lon="11.4818764"><ele>109.2</ele><time>2026-04-25T09:25:48.742Z</time></trkpt><trkpt lat="43.826302" lon="11.481805"><ele>109.0</ele><time>2026-04-25T09:25:49.743Z</time></trkpt><trkpt lat="43.8262113" lon="11.4817113"><ele>109.00000000000001</ele><time>2026-04-25T09:25:50.743Z</time></trkpt><trkpt lat="43.8261475" lon="11.4816336"><ele>109.0</ele><time>2026-04-25T09:25:51.743Z</time></trkpt><trkpt lat="43.8260773" lon="11.4815759"><ele>109.0</ele><time>2026-04-25T09:25:52.743Z</time></trkpt><trkpt lat="43.826014" lon="11.4815129"><ele>109.0</ele><time>2026-04-25T09:25:53.743Z</time></trkpt><trkpt lat="43.825947" lon="11.4814487"><ele>109.00000000000001</ele><time>2026-04-25T09:25:54.743Z</time></trkpt><trkpt lat="43.8258897" lon="11.4813729"><ele>109.0</ele><time>2026-04-25T09:25:55.744Z</time></trkpt><trkpt lat="43.8257872" lon="11.4813004"><ele>108.83333333333334</ele><time>2026-04-25T09:25:56.742Z</time></trkpt><trkpt lat="43.8257175" lon="11.4812371"><ele>108.66666666666667</ele><time>2026-04-25T09:25:57.742Z</time></trkpt><trkpt lat="43.8256694" lon="11.4811655"><ele>108.5</ele><time>2026-04-25T09:25:58.742Z</time></trkpt><trkpt lat="43.8256082" lon="11.4810973"><ele>108.33333333333334</ele><time>2026-04-25T09:25:59.744Z</time></trkpt><trkpt lat="43.8255298" lon="11.481035"><ele>108.16666666666667</ele><time>2026-04-25T09:26:01.743Z</time></trkpt><trkpt lat="43.8254257" lon="11.4809602"><ele>108.0</ele><time>2026-04-25T09:26:03.742Z</time></trkpt><trkpt lat="43.8253585" lon="11.480908"><ele>108.0</ele><time>2026-04-25T09:26:04.744Z</time></trkpt><trkpt lat="43.8252916" lon="11.4808578"><ele>108.0</ele><time>2026-04-25T09:26:05.742Z</time></trkpt><trkpt lat="43.8252358" lon="11.4808129"><ele>108.0</ele><time>2026-04-25T09:26:06.742Z</time></trkpt><trkpt lat="43.8251758" lon="11.4807713"><ele>108.0</ele><time>2026-04-25T09:26:07.743Z</time></trkpt><trkpt lat="43.8251093" lon="11.4807253"><ele>108.0</ele><time>2026-04-25T09:26:08.742Z</time></trkpt><trkpt lat="43.825015" lon="11.4806433"><ele>108.0</ele><time>2026-04-25T09:26:10.744Z</time></trkpt><trkpt lat="43.8249551" lon="11.4805943"><ele>108.0</ele><time>2026-04-25T09:26:11.743Z</time></trkpt><trkpt lat="43.8248863" lon="11.4805576"><ele>108.0</ele><time>2026-04-25T09:26:12.742Z</time></trkpt><trkpt lat="43.8248251" lon="11.4805232"><ele>108.0</ele><time>2026-04-25T09:26:13.743Z</time></trkpt><trkpt lat="43.8247322" lon="11.4804644"><ele>108.0</ele><time>2026-04-25T09:26:15.743Z</time></trkpt><trkpt lat="43.8246371" lon="11.480448"><ele>108.0</ele><time>2026-04-25T09:26:17.743Z</time></trkpt><trkpt lat="43.8245541" lon="11.4804281"><ele>108.0</ele><time>2026-04-25T09:26:19.742Z</time></trkpt><trkpt lat="43.8244513" lon="11.4804362"><ele>108.0</ele><time>2026-04-25T09:26:21.742Z</time></trkpt><trkpt lat="43.8243838" lon="11.4804411"><ele>108.00000000000001</ele><time>2026-04-25T09:26:22.742Z</time></trkpt><trkpt lat="43.8242565" lon="11.4804597"><ele>108.00000000000001</ele><time>2026-04-25T09:26:24.743Z</time></trkpt><trkpt lat="43.8241863" lon="11.4804775"><ele>108.0</ele><time>2026-04-25T09:26:25.743Z</time></trkpt><trkpt lat="43.8240712" lon="11.4805056"><ele>108.0</ele><time>2026-04-25T09:26:27.742Z</time></trkpt><trkpt lat="43.8239795" lon="11.4805335"><ele>108.0</ele><time>2026-04-25T09:26:29.743Z</time></trkpt><trkpt lat="43.8238606" lon="11.4805763"><ele>108.00000000000001</ele><time>2026-04-25T09:26:31.742Z</time></trkpt><trkpt lat="43.8237991" lon="11.4805974"><ele>108.00000000000001</ele><time>2026-04-25T09:26:32.742Z</time></trkpt><trkpt lat="43.8236737" lon="11.4806252"><ele>108.0</ele><time>2026-04-25T09:26:34.743Z</time></trkpt><trkpt lat="43.8235747" lon="11.4806434"><ele>108.0</ele><time>2026-04-25T09:26:36.743Z</time></trkpt><trkpt lat="43.8234727" lon="11.4806756"><ele>107.80000000000001</ele><time>2026-04-25T09:26:38.744Z</time></trkpt><trkpt lat="43.8233635" lon="11.4807306"><ele>107.60000000000001</ele><time>2026-04-25T09:26:40.742Z</time></trkpt><trkpt lat="43.8232598" lon="11.4807633"><ele>107.39999999999999</ele><time>2026-04-25T09:26:42.742Z</time></trkpt><trkpt lat="43.8231793" lon="11.4807614"><ele>107.19999999999999</ele><time>2026-04-25T09:26:44.744Z</time></trkpt><trkpt lat="43.8231643" lon="11.4806741"><ele>107.0</ele><time>2026-04-25T09:26:46.742Z</time></trkpt><trkpt lat="43.8231598" lon="11.4805099"><ele>107.0</ele><time>2026-04-25T09:26:48.742Z</time></trkpt><trkpt lat="43.8231192" lon="11.4803947"><ele>106.99999999999999</ele><time>2026-04-25T09:26:50.742Z</time></trkpt><trkpt lat="43.8230005" lon="11.4803612"><ele>106.99999999999999</ele><time>2026-04-25T09:26:52.743Z</time></trkpt><trkpt lat="43.822906" lon="11.4803724"><ele>107.0</ele><time>2026-04-25T09:26:53.743Z</time></trkpt><trkpt lat="43.822806" lon="11.4803995"><ele>107.0</ele><time>2026-04-25T09:26:54.742Z</time></trkpt><trkpt lat="43.8227228" lon="11.4804239"><ele>106.99999999999999</ele><time>2026-04-25T09:26:55.742Z</time></trkpt><trkpt lat="43.8226376" lon="11.4804469"><ele>107.0</ele><time>2026-04-25T09:26:56.742Z</time></trkpt><trkpt lat="43.8225661" lon="11.4804602"><ele>107.0</ele><time>2026-04-25T09:26:57.742Z</time></trkpt><trkpt lat="43.8224956" lon="11.480477"><ele>107.0</ele><time>2026-04-25T09:26:58.743Z</time></trkpt><trkpt lat="43.8224307" lon="11.4804949"><ele>106.99999999999999</ele><time>2026-04-25T09:26:59.742Z</time></trkpt><trkpt lat="43.8223382" lon="11.4805093"><ele>107.0</ele><time>2026-04-25T09:27:01.742Z</time></trkpt><trkpt lat="43.822244" lon="11.4805224"><ele>107.0</ele><time>2026-04-25T09:27:03.743Z</time></trkpt><trkpt lat="43.8221745" lon="11.4805265"><ele>106.99999999999999</ele><time>2026-04-25T09:27:04.742Z</time></trkpt><trkpt lat="43.8220856" lon="11.4805381"><ele>106.99999999999999</ele><time>2026-04-25T09:27:05.742Z</time></trkpt><trkpt lat="43.8219778" lon="11.4805674"><ele>107.0</ele><time>2026-04-25T09:27:06.742Z</time></trkpt><trkpt lat="43.8218871" lon="11.480594"><ele>107.0</ele><time>2026-04-25T09:27:07.743Z</time></trkpt><trkpt lat="43.8217901" lon="11.480623"><ele>106.83333333333333</ele><time>2026-04-25T09:27:08.743Z</time></trkpt><trkpt lat="43.8216995" lon="11.4806569"><ele>106.66666666666666</ele><time>2026-04-25T09:27:09.743Z</time></trkpt><trkpt lat="43.8216024" lon="11.4807027"><ele>106.5</ele><time>2026-04-25T09:27:10.742Z</time></trkpt><trkpt lat="43.8215252" lon="11.4807434"><ele>106.33333333333334</ele><time>2026-04-25T09:27:11.742Z</time></trkpt><trkpt lat="43.8214574" lon="11.4807898"><ele>106.16666666666667</ele><time>2026-04-25T09:27:12.743Z</time></trkpt><trkpt lat="43.8213852" lon="11.4808445"><ele>106.0</ele><time>2026-04-25T09:27:13.743Z</time></trkpt><trkpt lat="43.821316" lon="11.4808974"><ele>106.0</ele><time>2026-04-25T09:27:14.742Z</time></trkpt><trkpt lat="43.8212404" lon="11.4809525"><ele>106.0</ele><time>2026-04-25T09:27:15.742Z</time></trkpt><trkpt lat="43.8211625" lon="11.4810094"><ele>106.0</ele><time>2026-04-25T09:27:16.742Z</time></trkpt><trkpt lat="43.821071" lon="11.4810879"><ele>106.0</ele><time>2026-04-25T09:27:17.742Z</time></trkpt><trkpt lat="43.820967" lon="11.481175"><ele>106.0</ele><time>2026-04-25T09:27:18.742Z</time></trkpt><trkpt lat="43.8208702" lon="11.481245"><ele>106.16666666666667</ele><time>2026-04-25T09:27:19.743Z</time></trkpt><trkpt lat="43.8207791" lon="11.4813126"><ele>106.33333333333334</ele><time>2026-04-25T09:27:20.743Z</time></trkpt><trkpt lat="43.8206964" lon="11.4813742"><ele>106.5</ele><time>2026-04-25T09:27:21.743Z</time></trkpt><trkpt lat="43.820633" lon="11.4814279"><ele>106.66666666666666</ele><time>2026-04-25T09:27:22.743Z</time></trkpt><trkpt lat="43.8205821" lon="11.4814906"><ele>106.83333333333333</ele><time>2026-04-25T09:27:23.742Z</time></trkpt><trkpt lat="43.8205417" lon="11.4815732"><ele>107.0</ele><time>2026-04-25T09:27:24.742Z</time></trkpt><trkpt lat="43.8205212" lon="11.4817176"><ele>106.99999999999999</ele><time>2026-04-25T09:27:26.743Z</time></trkpt><trkpt lat="43.8205244" lon="11.4818441"><ele>107.0</ele><time>2026-04-25T09:27:28.744Z</time></trkpt><trkpt lat="43.820524" lon="11.4819392"><ele>107.0</ele><time>2026-04-25T09:27:29.742Z</time></trkpt><trkpt lat="43.8205152" lon="11.4820443"><ele>107.0</ele><time>2026-04-25T09:27:30.743Z</time></trkpt><trkpt lat="43.8204958" lon="11.4821632"><ele>106.99999999999999</ele><time>2026-04-25T09:27:31.742Z</time></trkpt><trkpt lat="43.8204784" lon="11.4822679"><ele>107.0</ele><time>2026-04-25T09:27:32.743Z</time></trkpt><trkpt lat="43.8204519" lon="11.4824242"><ele>107.33333333333333</ele><time>2026-04-25T09:27:34.743Z</time></trkpt><trkpt lat="43.8204357" lon="11.4825111"><ele>107.66666666666666</ele><time>2026-04-25T09:27:36.742Z</time></trkpt><trkpt lat="43.820419" lon="11.4826136"><ele>108.0</ele><time>2026-04-25T09:27:38.743Z</time></trkpt><trkpt lat="43.8203997" lon="11.4827276"><ele>108.33333333333334</ele><time>2026-04-25T09:27:39.743Z</time></trkpt><trkpt lat="43.8203748" lon="11.4828507"><ele>108.66666666666667</ele><time>2026-04-25T09:27:40.743Z</time></trkpt><trkpt lat="43.820342" lon="11.48299"><ele>109.0</ele><time>2026-04-25T09:27:41.742Z</time></trkpt><trkpt lat="43.8203136" lon="11.4831328"><ele>109.0</ele><time>2026-04-25T09:27:42.742Z</time></trkpt><trkpt lat="43.8202866" lon="11.4832697"><ele>109.0</ele><time>2026-04-25T09:27:43.743Z</time></trkpt><trkpt lat="43.8202533" lon="11.4834112"><ele>109.0</ele><time>2026-04-25T09:27:44.742Z</time></trkpt><trkpt lat="43.8202135" lon="11.4835515"><ele>109.0</ele><time>2026-04-25T09:27:45.742Z</time></trkpt><trkpt lat="43.8201739" lon="11.4836803"><ele>109.0</ele><time>2026-04-25T09:27:46.744Z</time></trkpt><trkpt lat="43.8201401" lon="11.4837941"><ele>109.00000000000001</ele><time>2026-04-25T09:27:47.742Z</time></trkpt><trkpt lat="43.8201122" lon="11.4839032"><ele>109.0</ele><time>2026-04-25T09:27:48.742Z</time></trkpt><trkpt lat="43.8200885" lon="11.4839943"><ele>109.0</ele><time>2026-04-25T09:27:49.742Z</time></trkpt><trkpt lat="43.8200559" lon="11.4841558"><ele>109.0</ele><time>2026-04-25T09:27:51.742Z</time></trkpt><trkpt lat="43.8200315" lon="11.4842469"><ele>109.00000000000001</ele><time>2026-04-25T09:27:53.742Z</time></trkpt><trkpt lat="43.8200058" lon="11.4843486"><ele>109.0</ele><time>2026-04-25T09:27:55.742Z</time></trkpt><trkpt lat="43.819973" lon="11.4844466"><ele>109.00000000000001</ele><time>2026-04-25T09:27:57.742Z</time></trkpt><trkpt lat="43.8199489" lon="11.4845306"><ele>109.0</ele><time>2026-04-25T09:27:59.742Z</time></trkpt><trkpt lat="43.8199109" lon="11.4846535"><ele>109.0</ele><time>2026-04-25T09:28:03.742Z</time></trkpt><trkpt lat="43.8198795" lon="11.4847424"><ele>109.0</ele><time>2026-04-25T09:28:04.742Z</time></trkpt><trkpt lat="43.8198456" lon="11.4848599"><ele>109.00000000000001</ele><time>2026-04-25T09:28:05.742Z</time></trkpt><trkpt lat="43.8197902" lon="11.4850137"><ele>109.0</ele><time>2026-04-25T09:28:06.742Z</time></trkpt><trkpt lat="43.8197453" lon="11.4851819"><ele>109.0</ele><time>2026-04-25T09:28:07.743Z</time></trkpt><trkpt lat="43.8197022" lon="11.4853582"><ele>109.0</ele><time>2026-04-25T09:28:08.743Z</time></trkpt><trkpt lat="43.8196668" lon="11.4855434"><ele>109.0</ele><time>2026-04-25T09:28:09.743Z</time></trkpt><trkpt lat="43.8196197" lon="11.4857375"><ele>109.0</ele><time>2026-04-25T09:28:10.742Z</time></trkpt><trkpt lat="43.8195569" lon="11.4859426"><ele>110.0</ele><time>2026-04-25T09:28:11.743Z</time></trkpt><trkpt lat="43.8194998" lon="11.4861355"><ele>111.0</ele><time>2026-04-25T09:28:12.743Z</time></trkpt><trkpt lat="43.8194482" lon="11.4863127"><ele>112.0</ele><time>2026-04-25T09:28:13.742Z</time></trkpt><trkpt lat="43.8193951" lon="11.4864985"><ele>113.0</ele><time>2026-04-25T09:28:14.742Z</time></trkpt><trkpt lat="43.8193345" lon="11.4867021"><ele>114.66666666666666</ele><time>2026-04-25T09:28:15.743Z</time></trkpt><trkpt lat="43.8192717" lon="11.4869105"><ele>116.33333333333334</ele><time>2026-04-25T09:28:16.742Z</time></trkpt><trkpt lat="43.8192023" lon="11.4871332"><ele>118.0</ele><time>2026-04-25T09:28:17.743Z</time></trkpt><trkpt lat="43.8191472" lon="11.4873218"><ele>119.2</ele><time>2026-04-25T09:28:18.742Z</time></trkpt><trkpt lat="43.819091" lon="11.4874842"><ele>120.4</ele><time>2026-04-25T09:28:19.742Z</time></trkpt><trkpt lat="43.8190324" lon="11.4876003"><ele>121.60000000000001</ele><time>2026-04-25T09:28:20.742Z</time></trkpt><trkpt lat="43.8189614" lon="11.4876529"><ele>122.80000000000001</ele><time>2026-04-25T09:28:21.742Z</time></trkpt><trkpt lat="43.8188931" lon="11.4877177"><ele>124.0</ele><time>2026-04-25T09:28:22.742Z</time></trkpt><trkpt lat="43.8187727" lon="11.4876568"><ele>124.0</ele><time>2026-04-25T09:28:23.743Z</time></trkpt><trkpt lat="43.8186814" lon="11.4876519"><ele>124.0</ele><time>2026-04-25T09:28:24.743Z</time></trkpt><trkpt lat="43.818589" lon="11.4876126"><ele>124.0</ele><time>2026-04-25T09:28:25.744Z</time></trkpt><trkpt lat="43.8184946" lon="11.4876059"><ele>124.0</ele><time>2026-04-25T09:28:26.742Z</time></trkpt><trkpt lat="43.8184011" lon="11.4875867"><ele>124.0</ele><time>2026-04-25T09:28:27.743Z</time></trkpt><trkpt lat="43.8182992" lon="11.4875782"><ele>125.0</ele><time>2026-04-25T09:28:28.742Z</time></trkpt><trkpt lat="43.8181987" lon="11.4875673"><ele>126.0</ele><time>2026-04-25T09:28:29.742Z</time></trkpt><trkpt lat="43.8180856" lon="11.4875553"><ele>127.0</ele><time>2026-04-25T09:28:30.743Z</time></trkpt><trkpt lat="43.8179637" lon="11.4875366"><ele>128.0</ele><time>2026-04-25T09:28:31.742Z</time></trkpt><trkpt lat="43.8178293" lon="11.4875145"><ele>128.0</ele><time>2026-04-25T09:28:32.742Z</time></trkpt><trkpt lat="43.8176872" lon="11.4874969"><ele>128.0</ele><time>2026-04-25T09:28:33.742Z</time></trkpt><trkpt lat="43.8175498" lon="11.4874797"><ele>128.0</ele><time>2026-04-25T09:28:34.742Z</time></trkpt><trkpt lat="43.8174267" lon="11.4874634"><ele>128.0</ele><time>2026-04-25T09:28:35.742Z</time></trkpt><trkpt lat="43.8173216" lon="11.4874529"><ele>128.66666666666666</ele><time>2026-04-25T09:28:36.743Z</time></trkpt><trkpt lat="43.8172244" lon="11.4874433"><ele>129.33333333333331</ele><time>2026-04-25T09:28:37.742Z</time></trkpt><trkpt lat="43.8171536" lon="11.4874284"><ele>130.0</ele><time>2026-04-25T09:28:38.742Z</time></trkpt><trkpt lat="43.8170731" lon="11.4873907"><ele>130.66666666666666</ele><time>2026-04-25T09:28:40.743Z</time></trkpt><trkpt lat="43.8170286" lon="11.4872773"><ele>131.33333333333334</ele><time>2026-04-25T09:28:42.744Z</time></trkpt><trkpt lat="43.8169538" lon="11.4872271"><ele>132.0</ele><time>2026-04-25T09:28:45.744Z</time></trkpt><trkpt lat="43.8168886" lon="11.4872599"><ele>131.6</ele><time>2026-04-25T09:28:47.742Z</time></trkpt><trkpt lat="43.8168183" lon="11.4872912"><ele>131.2</ele><time>2026-04-25T09:28:49.742Z</time></trkpt><trkpt lat="43.8167316" lon="11.4873222"><ele>130.8</ele><time>2026-04-25T09:28:51.742Z</time></trkpt><trkpt lat="43.8166479" lon="11.487359"><ele>130.4</ele><time>2026-04-25T09:28:53.743Z</time></trkpt><trkpt lat="43.8165331" lon="11.4873659"><ele>130.0</ele><time>2026-04-25T09:28:55.742Z</time></trkpt><trkpt lat="43.8164128" lon="11.4873497"><ele>130.0</ele><time>2026-04-25T09:28:57.743Z</time></trkpt><trkpt lat="43.8163145" lon="11.487351"><ele>130.0</ele><time>2026-04-25T09:28:59.742Z</time></trkpt><trkpt lat="43.8162542" lon="11.4873814"><ele>130.0</ele><time>2026-04-25T09:29:02.742Z</time></trkpt><trkpt lat="43.8162483" lon="11.4875431"><ele>130.0</ele><time>2026-04-25T09:29:05.743Z</time></trkpt><trkpt lat="43.816251" lon="11.4876414"><ele>130.0</ele><time>2026-04-25T09:29:06.742Z</time></trkpt><trkpt lat="43.8162493" lon="11.4877489"><ele>130.0</ele><time>2026-04-25T09:29:07.742Z</time></trkpt><trkpt lat="43.8162605" lon="11.4878825"><ele>130.0</ele><time>2026-04-25T09:29:08.742Z</time></trkpt><trkpt lat="43.816266" lon="11.4880207"><ele>130.0</ele><time>2026-04-25T09:29:09.742Z</time></trkpt><trkpt lat="43.8162693" lon="11.4881655"><ele>130.0</ele><time>2026-04-25T09:29:10.742Z</time></trkpt><trkpt lat="43.8162758" lon="11.4883196"><ele>130.0</ele><time>2026-04-25T09:29:11.742Z</time></trkpt><trkpt lat="43.8162777" lon="11.4884856"><ele>130.0</ele><time>2026-04-25T09:29:12.742Z</time></trkpt><trkpt lat="43.8162849" lon="11.4886347"><ele>131.2</ele><time>2026-04-25T09:29:13.743Z</time></trkpt><trkpt lat="43.8162915" lon="11.4887668"><ele>132.4</ele><time>2026-04-25T09:29:14.743Z</time></trkpt><trkpt lat="43.8162981" lon="11.4888827"><ele>133.6</ele><time>2026-04-25T09:29:15.744Z</time></trkpt><trkpt lat="43.8162702" lon="11.4890594"><ele>134.8</ele><time>2026-04-25T09:29:17.742Z</time></trkpt><trkpt lat="43.8162019" lon="11.4891821"><ele>136.0</ele><time>2026-04-25T09:29:19.743Z</time></trkpt><trkpt lat="43.8160871" lon="11.4892057"><ele>136.0</ele><time>2026-04-25T09:29:21.744Z</time></trkpt><trkpt lat="43.816016" lon="11.4891939"><ele>136.0</ele><time>2026-04-25T09:29:22.742Z</time></trkpt><trkpt lat="43.8159411" lon="11.48917"><ele>136.0</ele><time>2026-04-25T09:29:23.743Z</time></trkpt><trkpt lat="43.8158727" lon="11.4891482"><ele>136.0</ele><time>2026-04-25T09:29:24.744Z</time></trkpt><trkpt lat="43.8157483" lon="11.4891174"><ele>136.0</ele><time>2026-04-25T09:29:26.742Z</time></trkpt><trkpt lat="43.8156642" lon="11.4891412"><ele>136.0</ele><time>2026-04-25T09:29:28.742Z</time></trkpt><trkpt lat="43.8156018" lon="11.4892147"><ele>135.6</ele><time>2026-04-25T09:29:30.743Z</time></trkpt><trkpt lat="43.8155619" lon="11.4892993"><ele>135.2</ele><time>2026-04-25T09:29:31.742Z</time></trkpt><trkpt lat="43.8155036" lon="11.4894483"><ele>134.8</ele><time>2026-04-25T09:29:33.743Z</time></trkpt><trkpt lat="43.8154462" lon="11.4895718"><ele>134.4</ele><time>2026-04-25T09:29:35.743Z</time></trkpt><trkpt lat="43.8153494" lon="11.4896796"><ele>134.0</ele><time>2026-04-25T09:29:37.742Z</time></trkpt><trkpt lat="43.8152651" lon="11.4897459"><ele>135.6</ele><time>2026-04-25T09:29:39.742Z</time></trkpt><trkpt lat="43.8151373" lon="11.4897776"><ele>137.2</ele><time>2026-04-25T09:29:41.743Z</time></trkpt><trkpt lat="43.8150525" lon="11.4898327"><ele>138.79999999999998</ele><time>2026-04-25T09:29:42.743Z</time></trkpt><trkpt lat="43.8149788" lon="11.489881"><ele>140.4</ele><time>2026-04-25T09:29:43.743Z</time></trkpt><trkpt lat="43.8149068" lon="11.4899253"><ele>142.0</ele><time>2026-04-25T09:29:44.742Z</time></trkpt><trkpt lat="43.8148326" lon="11.4899693"><ele>142.0</ele><time>2026-04-25T09:29:45.742Z</time></trkpt><trkpt lat="43.814758" lon="11.4900102"><ele>142.0</ele><time>2026-04-25T09:29:46.742Z</time></trkpt><trkpt lat="43.8146744" lon="11.4900031"><ele>142.0</ele><time>2026-04-25T09:29:49.742Z</time></trkpt><trkpt lat="43.8146341" lon="11.4899118"><ele>142.0</ele><time>2026-04-25T09:29:53.742Z</time></trkpt><trkpt lat="43.8146263" lon="11.4897756"><ele>142.0</ele><time>2026-04-25T09:29:55.743Z</time></trkpt><trkpt lat="43.8145695" lon="11.4896437"><ele>142.16666666666669</ele><time>2026-04-25T09:29:57.742Z</time></trkpt><trkpt lat="43.8144851" lon="11.4895304"><ele>142.33333333333334</ele><time>2026-04-25T09:29:59.743Z</time></trkpt><trkpt lat="43.8144277" lon="11.4894735"><ele>142.5</ele><time>2026-04-25T09:30:00.742Z</time></trkpt><trkpt lat="43.8143727" lon="11.48943"><ele>142.66666666666666</ele><time>2026-04-25T09:30:01.743Z</time></trkpt><trkpt lat="43.814289" lon="11.4893744"><ele>142.83333333333331</ele><time>2026-04-25T09:30:03.743Z</time></trkpt><trkpt lat="43.8142108" lon="11.4893489"><ele>143.0</ele><time>2026-04-25T09:30:05.743Z</time></trkpt><trkpt lat="43.8142168" lon="11.4892487"><ele>143.0</ele><time>2026-04-25T09:30:10.743Z</time></trkpt><trkpt lat="43.8142653" lon="11.4891291"><ele>143.0</ele><time>2026-04-25T09:30:12.743Z</time></trkpt><trkpt lat="43.8143086" lon="11.4890176"><ele>143.0</ele><time>2026-04-25T09:30:14.742Z</time></trkpt><trkpt lat="43.8143424" lon="11.4888641"><ele>143.0</ele><time>2026-04-25T09:30:16.743Z</time></trkpt><trkpt lat="43.8143913" lon="11.488741"><ele>143.0</ele><time>2026-04-25T09:30:18.742Z</time></trkpt><trkpt lat="43.8144195" lon="11.4886189"><ele>142.8</ele><time>2026-04-25T09:30:20.742Z</time></trkpt><trkpt lat="43.8143956" lon="11.4885026"><ele>142.60000000000002</ele><time>2026-04-25T09:30:22.742Z</time></trkpt><trkpt lat="43.8143222" lon="11.4884262"><ele>142.39999999999998</ele><time>2026-04-25T09:30:24.743Z</time></trkpt><trkpt lat="43.814258" lon="11.4883928"><ele>142.2</ele><time>2026-04-25T09:30:25.743Z</time></trkpt><trkpt lat="43.8141571" lon="11.4883433"><ele>142.0</ele><time>2026-04-25T09:30:27.742Z</time></trkpt><trkpt lat="43.8140463" lon="11.4882784"><ele>142.83333333333334</ele><time>2026-04-25T09:30:29.742Z</time></trkpt><trkpt lat="43.8139906" lon="11.4882345"><ele>143.66666666666669</ele><time>2026-04-25T09:30:30.742Z</time></trkpt><trkpt lat="43.8138789" lon="11.4881685"><ele>144.5</ele><time>2026-04-25T09:30:32.742Z</time></trkpt><trkpt lat="43.8137961" lon="11.4881339"><ele>145.33333333333334</ele><time>2026-04-25T09:30:34.742Z</time></trkpt><trkpt lat="43.8137228" lon="11.4880844"><ele>146.16666666666666</ele><time>2026-04-25T09:30:36.742Z</time></trkpt><trkpt lat="43.8136323" lon="11.4880587"><ele>147.0</ele><time>2026-04-25T09:30:38.742Z</time></trkpt><trkpt lat="43.8135477" lon="11.488032"><ele>148.66666666666666</ele><time>2026-04-25T09:30:42.744Z</time></trkpt><trkpt lat="43.8134626" lon="11.4880011"><ele>150.33333333333334</ele><time>2026-04-25T09:30:44.742Z</time></trkpt><trkpt lat="43.8133965" lon="11.4879973"><ele>152.0</ele><time>2026-04-25T09:30:47.743Z</time></trkpt><trkpt lat="43.8133338" lon="11.4880195"><ele>153.66666666666669</ele><time>2026-04-25T09:30:51.742Z</time></trkpt><trkpt lat="43.8132687" lon="11.4879984"><ele>155.33333333333334</ele><time>2026-04-25T09:30:58.744Z</time></trkpt><trkpt lat="43.8132362" lon="11.4878863"><ele>157.0</ele><time>2026-04-25T09:31:00.742Z</time></trkpt><trkpt lat="43.8131763" lon="11.4877502"><ele>158.33333333333334</ele><time>2026-04-25T09:31:02.743Z</time></trkpt><trkpt lat="43.8131696" lon="11.4876343"><ele>159.66666666666669</ele><time>2026-04-25T09:31:04.742Z</time></trkpt><trkpt lat="43.8131842" lon="11.4874761"><ele>161.0</ele><time>2026-04-25T09:31:06.742Z</time></trkpt><trkpt lat="43.8131992" lon="11.4873851"><ele>162.33333333333334</ele><time>2026-04-25T09:31:07.742Z</time></trkpt><trkpt lat="43.8132219" lon="11.4872883"><ele>163.66666666666666</ele><time>2026-04-25T09:31:08.742Z</time></trkpt><trkpt lat="43.8132521" lon="11.487191"><ele>165.0</ele><time>2026-04-25T09:31:09.742Z</time></trkpt><trkpt lat="43.8132836" lon="11.4870945"><ele>167.83333333333334</ele><time>2026-04-25T09:31:10.743Z</time></trkpt><trkpt lat="43.8133194" lon="11.4870076"><ele>170.66666666666666</ele><time>2026-04-25T09:31:11.742Z</time></trkpt><trkpt lat="43.8133494" lon="11.4869271"><ele>173.5</ele><time>2026-04-25T09:31:12.742Z</time></trkpt><trkpt lat="43.8133456" lon="11.4867795"><ele>176.33333333333331</ele><time>2026-04-25T09:31:14.742Z</time></trkpt><trkpt lat="43.8132791" lon="11.4867056"><ele>179.16666666666666</ele><time>2026-04-25T09:31:15.742Z</time></trkpt><trkpt lat="43.8132319" lon="11.4866418"><ele>182.0</ele><time>2026-04-25T09:31:16.744Z</time></trkpt><trkpt lat="43.8131385" lon="11.4865272"><ele>182.0</ele><time>2026-04-25T09:31:18.744Z</time></trkpt><trkpt lat="43.8130885" lon="11.4864651"><ele>182.0</ele><time>2026-04-25T09:31:19.743Z</time></trkpt><trkpt lat="43.8130395" lon="11.4863991"><ele>182.0</ele><time>2026-04-25T09:31:20.744Z</time></trkpt><trkpt lat="43.8129873" lon="11.4863328"><ele>182.0</ele><time>2026-04-25T09:31:21.743Z</time></trkpt><trkpt lat="43.812942" lon="11.4862697"><ele>182.0</ele><time>2026-04-25T09:31:22.742Z</time></trkpt><trkpt lat="43.8128516" lon="11.4861593"><ele>182.0</ele><time>2026-04-25T09:31:24.742Z</time></trkpt><trkpt lat="43.8127657" lon="11.4861233"><ele>183.2</ele><time>2026-04-25T09:31:25.743Z</time></trkpt><trkpt lat="43.8126806" lon="11.4860942"><ele>184.39999999999998</ele><time>2026-04-25T09:31:26.743Z</time></trkpt><trkpt lat="43.8125719" lon="11.4860806"><ele>185.60000000000002</ele><time>2026-04-25T09:31:27.742Z</time></trkpt><trkpt lat="43.8124481" lon="11.486069"><ele>186.8</ele><time>2026-04-25T09:31:28.743Z</time></trkpt><trkpt lat="43.8123501" lon="11.4860555"><ele>188.0</ele><time>2026-04-25T09:31:29.742Z</time></trkpt><trkpt lat="43.8122655" lon="11.4860442"><ele>187.66666666666666</ele><time>2026-04-25T09:31:30.742Z</time></trkpt><trkpt lat="43.812195" lon="11.4860431"><ele>187.33333333333331</ele><time>2026-04-25T09:31:31.743Z</time></trkpt><trkpt lat="43.8120964" lon="11.4861054"><ele>187.0</ele><time>2026-04-25T09:31:33.742Z</time></trkpt><trkpt lat="43.8120475" lon="11.4861731"><ele>186.66666666666666</ele><time>2026-04-25T09:31:34.742Z</time></trkpt><trkpt lat="43.8120045" lon="11.4862435"><ele>186.33333333333334</ele><time>2026-04-25T09:31:35.742Z</time></trkpt><trkpt lat="43.8119542" lon="11.4863155"><ele>186.0</ele><time>2026-04-25T09:31:36.742Z</time></trkpt><trkpt lat="43.8119047" lon="11.4863787"><ele>186.0</ele><time>2026-04-25T09:31:37.743Z</time></trkpt><trkpt lat="43.8118508" lon="11.4864481"><ele>186.0</ele><time>2026-04-25T09:31:39.742Z</time></trkpt><trkpt lat="43.8118927" lon="11.4863496"><ele>186.0</ele><time>2026-04-25T09:31:59.742Z</time></trkpt><trkpt lat="43.8119962" lon="11.486227"><ele>186.0</ele><time>2026-04-25T09:32:01.742Z</time></trkpt><trkpt lat="43.8120684" lon="11.486144"><ele>186.0</ele><time>2026-04-25T09:32:03.742Z</time></trkpt><trkpt lat="43.8121256" lon="11.4860655"><ele>187.5</ele><time>2026-04-25T09:32:08.742Z</time></trkpt><trkpt lat="43.8122242" lon="11.4860469"><ele>189.0</ele><time>2026-04-25T09:32:11.742Z</time></trkpt><trkpt lat="43.8123395" lon="11.4860588"><ele>190.5</ele><time>2026-04-25T09:32:13.742Z</time></trkpt><trkpt lat="43.8124546" lon="11.4860801"><ele>192.0</ele><time>2026-04-25T09:32:15.743Z</time></trkpt><trkpt lat="43.8125755" lon="11.4860933"><ele>192.0</ele><time>2026-04-25T09:32:17.742Z</time></trkpt><trkpt lat="43.8126406" lon="11.4861054"><ele>192.0</ele><time>2026-04-25T09:32:18.742Z</time></trkpt><trkpt lat="43.812705" lon="11.4861161"><ele>192.0</ele><time>2026-04-25T09:32:19.742Z</time></trkpt><trkpt lat="43.8128132" lon="11.4861555"><ele>192.0</ele><time>2026-04-25T09:32:21.742Z</time></trkpt><trkpt lat="43.8128799" lon="11.486215"><ele>192.0</ele><time>2026-04-25T09:32:23.742Z</time></trkpt><trkpt lat="43.8129461" lon="11.4862269"><ele>192.0</ele><time>2026-04-25T09:32:25.743Z</time></trkpt><trkpt lat="43.8130225" lon="11.486151"><ele>192.0</ele><time>2026-04-25T09:32:28.742Z</time></trkpt><trkpt lat="43.8129998" lon="11.4860681"><ele>192.0</ele><time>2026-04-25T09:32:30.742Z</time></trkpt><trkpt lat="43.8128999" lon="11.4859982"><ele>192.0</ele><time>2026-04-25T09:32:32.742Z</time></trkpt><trkpt lat="43.8127874" lon="11.4859419"><ele>192.0</ele><time>2026-04-25T09:32:34.743Z</time></trkpt><trkpt lat="43.8127248" lon="11.4859269"><ele>192.0</ele><time>2026-04-25T09:32:35.743Z</time></trkpt><trkpt lat="43.8126127" lon="11.485916"><ele>192.0</ele><time>2026-04-25T09:32:37.742Z</time></trkpt><trkpt lat="43.8125404" lon="11.4859095"><ele>192.0</ele><time>2026-04-25T09:32:39.743Z</time></trkpt><trkpt lat="43.8124754" lon="11.4859003"><ele>192.0</ele><time>2026-04-25T09:32:42.743Z</time></trkpt><trkpt lat="43.8123973" lon="11.4858818"><ele>192.0</ele><time>2026-04-25T09:32:45.743Z</time></trkpt><trkpt lat="43.8123179" lon="11.4858453"><ele>192.0</ele><time>2026-04-25T09:32:47.743Z</time></trkpt><trkpt lat="43.8122569" lon="11.4857781"><ele>192.0</ele><time>2026-04-25T09:32:50.742Z</time></trkpt><trkpt lat="43.8122792" lon="11.4856757"><ele>192.0</ele><time>2026-04-25T09:32:52.742Z</time></trkpt><trkpt lat="43.812334" lon="11.4855642"><ele>192.0</ele><time>2026-04-25T09:32:54.743Z</time></trkpt><trkpt lat="43.8123498" lon="11.4854725"><ele>192.0</ele><time>2026-04-25T09:32:56.742Z</time></trkpt><trkpt lat="43.8122957" lon="11.4853977"><ele>192.0</ele><time>2026-04-25T09:33:01.742Z</time></trkpt><trkpt lat="43.8122332" lon="11.4853368"><ele>192.0</ele><time>2026-04-25T09:33:04.742Z</time></trkpt><trkpt lat="43.8121295" lon="11.4852831"><ele>192.0</ele><time>2026-04-25T09:33:07.743Z</time></trkpt><trkpt lat="43.8120225" lon="11.4852039"><ele>191.5</ele><time>2026-04-25T09:33:09.742Z</time></trkpt><trkpt lat="43.8119598" lon="11.4851577"><ele>191.0</ele><time>2026-04-25T09:33:10.742Z</time></trkpt><trkpt lat="43.8118942" lon="11.4851076"><ele>190.5</ele><time>2026-04-25T09:33:11.742Z</time></trkpt><trkpt lat="43.8118382" lon="11.4850634"><ele>190.0</ele><time>2026-04-25T09:33:12.743Z</time></trkpt><trkpt lat="43.811748" lon="11.4849846"><ele>189.5</ele><time>2026-04-25T09:33:14.743Z</time></trkpt><trkpt lat="43.8116861" lon="11.4848948"><ele>189.0</ele><time>2026-04-25T09:33:16.743Z</time></trkpt><trkpt lat="43.8116063" lon="11.4848132"><ele>189.0</ele><time>2026-04-25T09:33:18.742Z</time></trkpt><trkpt lat="43.8115287" lon="11.4847275"><ele>189.0</ele><time>2026-04-25T09:33:20.743Z</time></trkpt><trkpt lat="43.8114522" lon="11.4846555"><ele>189.0</ele><time>2026-04-25T09:33:22.742Z</time></trkpt><trkpt lat="43.811378" lon="11.4846477"><ele>189.0</ele><time>2026-04-25T09:33:24.742Z</time></trkpt><trkpt lat="43.8113324" lon="11.4847135"><ele>189.0</ele><time>2026-04-25T09:33:25.742Z</time></trkpt><trkpt lat="43.8112745" lon="11.4847754"><ele>189.0</ele><time>2026-04-25T09:33:26.742Z</time></trkpt><trkpt lat="43.8112168" lon="11.4848458"><ele>189.0</ele><time>2026-04-25T09:33:27.742Z</time></trkpt><trkpt lat="43.8111599" lon="11.4849183"><ele>189.0</ele><time>2026-04-25T09:33:28.741Z</time></trkpt><trkpt lat="43.8111021" lon="11.484991"><ele>189.0</ele><time>2026-04-25T09:33:29.743Z</time></trkpt><trkpt lat="43.8110442" lon="11.4850611"><ele>189.0</ele><time>2026-04-25T09:33:30.741Z</time></trkpt><trkpt lat="43.8109916" lon="11.4851155"><ele>189.0</ele><time>2026-04-25T09:33:31.741Z</time></trkpt><trkpt lat="43.8109034" lon="11.4851801"><ele>189.0</ele><time>2026-04-25T09:33:33.742Z</time></trkpt><trkpt lat="43.8108093" lon="11.4851257"><ele>188.2</ele><time>2026-04-25T09:33:35.741Z</time></trkpt><trkpt lat="43.8107124" lon="11.4850326"><ele>187.39999999999998</ele><time>2026-04-25T09:33:37.741Z</time></trkpt><trkpt lat="43.8106088" lon="11.4849036"><ele>186.6</ele><time>2026-04-25T09:33:39.742Z</time></trkpt><trkpt lat="43.8105517" lon="11.4848374"><ele>185.8</ele><time>2026-04-25T09:33:40.742Z</time></trkpt><trkpt lat="43.8104996" lon="11.4847706"><ele>185.0</ele><time>2026-04-25T09:33:41.741Z</time></trkpt><trkpt lat="43.8104518" lon="11.4847007"><ele>184.99999999999997</ele><time>2026-04-25T09:33:42.741Z</time></trkpt><trkpt lat="43.8104069" lon="11.4846361"><ele>185.0</ele><time>2026-04-25T09:33:43.742Z</time></trkpt><trkpt lat="43.8103504" lon="11.4845588"><ele>185.0</ele><time>2026-04-25T09:33:44.742Z</time></trkpt><trkpt lat="43.8102863" lon="11.4844789"><ele>185.0</ele><time>2026-04-25T09:33:45.741Z</time></trkpt><trkpt lat="43.8102281" lon="11.4844084"><ele>185.0</ele><time>2026-04-25T09:33:46.742Z</time></trkpt><trkpt lat="43.8101756" lon="11.4843357"><ele>184.99999999999997</ele><time>2026-04-25T09:33:47.742Z</time></trkpt><trkpt lat="43.8101322" lon="11.4842659"><ele>185.0</ele><time>2026-04-25T09:33:48.741Z</time></trkpt><trkpt lat="43.8100967" lon="11.4841924"><ele>182.8</ele><time>2026-04-25T09:33:49.742Z</time></trkpt><trkpt lat="43.810053" lon="11.4840275"><ele>180.6</ele><time>2026-04-25T09:33:51.741Z</time></trkpt><trkpt lat="43.8100333" lon="11.4839431"><ele>178.39999999999998</ele><time>2026-04-25T09:33:52.742Z</time></trkpt><trkpt lat="43.8099874" lon="11.48378"><ele>176.2</ele><time>2026-04-25T09:33:54.741Z</time></trkpt><trkpt lat="43.8099534" lon="11.4836916"><ele>174.0</ele><time>2026-04-25T09:33:55.742Z</time></trkpt><trkpt lat="43.8099116" lon="11.4836193"><ele>172.16666666666666</ele><time>2026-04-25T09:33:56.743Z</time></trkpt><trkpt lat="43.8098211" lon="11.4835226"><ele>170.33333333333334</ele><time>2026-04-25T09:33:58.741Z</time></trkpt><trkpt lat="43.8097391" lon="11.4835095"><ele>168.5</ele><time>2026-04-25T09:34:00.741Z</time></trkpt><trkpt lat="43.8096524" lon="11.4835592"><ele>166.66666666666669</ele><time>2026-04-25T09:34:02.741Z</time></trkpt><trkpt lat="43.8095985" lon="11.4836161"><ele>164.83333333333334</ele><time>2026-04-25T09:34:03.741Z</time></trkpt><trkpt lat="43.8095441" lon="11.4836805"><ele>163.0</ele><time>2026-04-25T09:34:04.741Z</time></trkpt><trkpt lat="43.8094847" lon="11.4837508"><ele>164.57142857142858</ele><time>2026-04-25T09:34:06.741Z</time></trkpt><trkpt lat="43.8095144" lon="11.4838341"><ele>166.14285714285714</ele><time>2026-04-25T09:34:12.741Z</time></trkpt><trkpt lat="43.8095905" lon="11.4838134"><ele>167.71428571428572</ele><time>2026-04-25T09:34:13.741Z</time></trkpt><trkpt lat="43.8096602" lon="11.4838135"><ele>169.28571428571428</ele><time>2026-04-25T09:34:14.742Z</time></trkpt><trkpt lat="43.8097311" lon="11.4838459"><ele>170.85714285714286</ele><time>2026-04-25T09:34:15.742Z</time></trkpt><trkpt lat="43.809786" lon="11.4838917"><ele>172.42857142857142</ele><time>2026-04-25T09:34:16.741Z</time></trkpt><trkpt lat="43.8098474" lon="11.4839449"><ele>174.0</ele><time>2026-04-25T09:34:17.741Z</time></trkpt><trkpt lat="43.8098619" lon="11.4840854"><ele>174.0</ele><time>2026-04-25T09:34:18.741Z</time></trkpt><trkpt lat="43.8098965" lon="11.4842014"><ele>174.0</ele><time>2026-04-25T09:34:19.741Z</time></trkpt><trkpt lat="43.8099379" lon="11.4843128"><ele>174.0</ele><time>2026-04-25T09:34:20.741Z</time></trkpt><trkpt lat="43.8099997" lon="11.4844166"><ele>174.0</ele><time>2026-04-25T09:34:21.741Z</time></trkpt><trkpt lat="43.8100888" lon="11.4845253"><ele>174.0</ele><time>2026-04-25T09:34:22.743Z</time></trkpt><trkpt lat="43.8101819" lon="11.4846391"><ele>176.75</ele><time>2026-04-25T09:34:23.741Z</time></trkpt><trkpt lat="43.8102732" lon="11.4847666"><ele>179.5</ele><time>2026-04-25T09:34:24.741Z</time></trkpt><trkpt lat="43.8103993" lon="11.4848956"><ele>182.25</ele><time>2026-04-25T09:34:25.741Z</time></trkpt><trkpt lat="43.8105077" lon="11.4850292"><ele>185.0</ele><time>2026-04-25T09:34:26.741Z</time></trkpt><trkpt lat="43.8106138" lon="11.4851569"><ele>185.0</ele><time>2026-04-25T09:34:27.741Z</time></trkpt><trkpt lat="43.8107203" lon="11.4852751"><ele>185.0</ele><time>2026-04-25T09:34:28.741Z</time></trkpt><trkpt lat="43.8108269" lon="11.4853966"><ele>185.0</ele><time>2026-04-25T09:34:29.741Z</time></trkpt><trkpt lat="43.810926" lon="11.4855164"><ele>185.0</ele><time>2026-04-25T09:34:30.741Z</time></trkpt><trkpt lat="43.8110122" lon="11.4856222"><ele>187.16666666666666</ele><time>2026-04-25T09:34:31.741Z</time></trkpt><trkpt lat="43.8110782" lon="11.4857076"><ele>189.33333333333331</ele><time>2026-04-25T09:34:32.741Z</time></trkpt><trkpt lat="43.8111371" lon="11.4857921"><ele>191.5</ele><time>2026-04-25T09:34:33.742Z</time></trkpt><trkpt lat="43.8111922" lon="11.4858723"><ele>193.66666666666666</ele><time>2026-04-25T09:34:34.743Z</time></trkpt><trkpt lat="43.811215" lon="11.4860247"><ele>195.83333333333334</ele><time>2026-04-25T09:34:36.742Z</time></trkpt><trkpt lat="43.8111931" lon="11.4861322"><ele>198.0</ele><time>2026-04-25T09:34:38.742Z</time></trkpt><trkpt lat="43.8111407" lon="11.4862348"><ele>197.16666666666666</ele><time>2026-04-25T09:34:40.742Z</time></trkpt><trkpt lat="43.8110963" lon="11.486304"><ele>196.33333333333331</ele><time>2026-04-25T09:34:41.741Z</time></trkpt><trkpt lat="43.8110447" lon="11.4863766"><ele>195.5</ele><time>2026-04-25T09:34:42.742Z</time></trkpt><trkpt lat="43.8109829" lon="11.4864615"><ele>194.66666666666666</ele><time>2026-04-25T09:34:43.741Z</time></trkpt><trkpt lat="43.81091" lon="11.486549"><ele>193.83333333333331</ele><time>2026-04-25T09:34:44.742Z</time></trkpt><trkpt lat="43.8108313" lon="11.4866384"><ele>193.0</ele><time>2026-04-25T09:34:45.741Z</time></trkpt><trkpt lat="43.8107509" lon="11.4867349"><ele>195.2</ele><time>2026-04-25T09:34:46.742Z</time></trkpt><trkpt lat="43.8106784" lon="11.4868424"><ele>197.4</ele><time>2026-04-25T09:34:47.742Z</time></trkpt><trkpt lat="43.8106306" lon="11.4869632"><ele>199.6</ele><time>2026-04-25T09:34:48.742Z</time></trkpt><trkpt lat="43.8106049" lon="11.487104"><ele>201.79999999999998</ele><time>2026-04-25T09:34:49.741Z</time></trkpt><trkpt lat="43.8105855" lon="11.487227"><ele>204.0</ele><time>2026-04-25T09:34:50.742Z</time></trkpt><trkpt lat="43.8105466" lon="11.4873203"><ele>204.6</ele><time>2026-04-25T09:34:51.742Z</time></trkpt><trkpt lat="43.8104882" lon="11.4873991"><ele>205.2</ele><time>2026-04-25T09:34:52.741Z</time></trkpt><trkpt lat="43.8104076" lon="11.4874471"><ele>205.79999999999998</ele><time>2026-04-25T09:34:53.742Z</time></trkpt><trkpt lat="43.8102985" lon="11.4874901"><ele>206.39999999999998</ele><time>2026-04-25T09:34:54.741Z</time></trkpt><trkpt lat="43.8101757" lon="11.4875536"><ele>207.0</ele><time>2026-04-25T09:34:55.741Z</time></trkpt><trkpt lat="43.8100626" lon="11.4876163"><ele>209.5</ele><time>2026-04-25T09:34:56.742Z</time></trkpt><trkpt lat="43.8099689" lon="11.487668"><ele>212.0</ele><time>2026-04-25T09:34:57.741Z</time></trkpt><trkpt lat="43.8098893" lon="11.487709"><ele>214.5</ele><time>2026-04-25T09:34:58.742Z</time></trkpt><trkpt lat="43.8098153" lon="11.4877348"><ele>217.0</ele><time>2026-04-25T09:35:00.741Z</time></trkpt><trkpt lat="43.8097575" lon="11.4877855"><ele>219.5</ele><time>2026-04-25T09:35:02.741Z</time></trkpt><trkpt lat="43.8096943" lon="11.4878108"><ele>222.0</ele><time>2026-04-25T09:35:03.741Z</time></trkpt><trkpt lat="43.8096007" lon="11.4878367"><ele>222.0</ele><time>2026-04-25T09:35:04.743Z</time></trkpt><trkpt lat="43.8094997" lon="11.4878847"><ele>222.0</ele><time>2026-04-25T09:35:05.742Z</time></trkpt><trkpt lat="43.8093959" lon="11.487964"><ele>222.0</ele><time>2026-04-25T09:35:06.741Z</time></trkpt><trkpt lat="43.809283" lon="11.4880522"><ele>222.0</ele><time>2026-04-25T09:35:07.741Z</time></trkpt><trkpt lat="43.809167" lon="11.4881759"><ele>225.5</ele><time>2026-04-25T09:35:08.741Z</time></trkpt><trkpt lat="43.8090624" lon="11.4883237"><ele>229.0</ele><time>2026-04-25T09:35:09.742Z</time></trkpt><trkpt lat="43.8089592" lon="11.4884745"><ele>232.5</ele><time>2026-04-25T09:35:10.742Z</time></trkpt><trkpt lat="43.8088787" lon="11.4886013"><ele>236.0</ele><time>2026-04-25T09:35:11.741Z</time></trkpt><trkpt lat="43.8088065" lon="11.4887257"><ele>236.5</ele><time>2026-04-25T09:35:12.741Z</time></trkpt><trkpt lat="43.8087338" lon="11.4888753"><ele>237.0</ele><time>2026-04-25T09:35:13.741Z</time></trkpt><trkpt lat="43.8086508" lon="11.489045"><ele>237.5</ele><time>2026-04-25T09:35:14.742Z</time></trkpt><trkpt lat="43.8085693" lon="11.4892007"><ele>238.0</ele><time>2026-04-25T09:35:15.741Z</time></trkpt><trkpt lat="43.8085" lon="11.4893598"><ele>238.2</ele><time>2026-04-25T09:35:16.741Z</time></trkpt><trkpt lat="43.8084511" lon="11.489464"><ele>238.4</ele><time>2026-04-25T09:35:17.741Z</time></trkpt><trkpt lat="43.8083972" lon="11.4895751"><ele>238.59999999999997</ele><time>2026-04-25T09:35:18.742Z</time></trkpt><trkpt lat="43.8083967" lon="11.489688"><ele>238.79999999999998</ele><time>2026-04-25T09:35:19.741Z</time></trkpt><trkpt lat="43.8083952" lon="11.4898399"><ele>239.0</ele><time>2026-04-25T09:35:20.742Z</time></trkpt><trkpt lat="43.8084047" lon="11.4900159"><ele>239.66666666666669</ele><time>2026-04-25T09:35:21.741Z</time></trkpt><trkpt lat="43.8084115" lon="11.4902194"><ele>240.33333333333331</ele><time>2026-04-25T09:35:22.741Z</time></trkpt><trkpt lat="43.8084155" lon="11.4904534"><ele>241.0</ele><time>2026-04-25T09:35:23.741Z</time></trkpt><trkpt lat="43.8084197" lon="11.4906734"><ele>241.0</ele><time>2026-04-25T09:35:24.741Z</time></trkpt><trkpt lat="43.8084287" lon="11.4908697"><ele>241.00000000000003</ele><time>2026-04-25T09:35:25.742Z</time></trkpt><trkpt lat="43.8084456" lon="11.4910327"><ele>241.00000000000003</ele><time>2026-04-25T09:35:26.742Z</time></trkpt><trkpt lat="43.8084607" lon="11.491162"><ele>241.0</ele><time>2026-04-25T09:35:27.741Z</time></trkpt><trkpt lat="43.8084642" lon="11.4912768"><ele>241.0</ele><time>2026-04-25T09:35:28.741Z</time></trkpt><trkpt lat="43.808453" lon="11.4913884"><ele>240.5</ele><time>2026-04-25T09:35:29.742Z</time></trkpt><trkpt lat="43.8084228" lon="11.4915064"><ele>240.0</ele><time>2026-04-25T09:35:30.742Z</time></trkpt><trkpt lat="43.8083768" lon="11.4916431"><ele>239.5</ele><time>2026-04-25T09:35:31.742Z</time></trkpt><trkpt lat="43.8083183" lon="11.4918147"><ele>239.0</ele><time>2026-04-25T09:35:32.742Z</time></trkpt><trkpt lat="43.8082459" lon="11.4920083"><ele>237.5</ele><time>2026-04-25T09:35:33.741Z</time></trkpt><trkpt lat="43.8081788" lon="11.4921966"><ele>236.0</ele><time>2026-04-25T09:35:34.741Z</time></trkpt><trkpt lat="43.8081165" lon="11.4923783"><ele>234.5</ele><time>2026-04-25T09:35:35.742Z</time></trkpt><trkpt lat="43.8080577" lon="11.4925556"><ele>233.0</ele><time>2026-04-25T09:35:36.741Z</time></trkpt><trkpt lat="43.8080045" lon="11.4927275"><ele>233.0</ele><time>2026-04-25T09:35:37.741Z</time></trkpt><trkpt lat="43.8079655" lon="11.4928871"><ele>233.0</ele><time>2026-04-25T09:35:38.741Z</time></trkpt><trkpt lat="43.8079277" lon="11.4930404"><ele>233.0</ele><time>2026-04-25T09:35:39.741Z</time></trkpt><trkpt lat="43.807898" lon="11.4931577"><ele>233.0</ele><time>2026-04-25T09:35:40.741Z</time></trkpt><trkpt lat="43.8078752" lon="11.4932641"><ele>233.0</ele><time>2026-04-25T09:35:41.741Z</time></trkpt><trkpt lat="43.8078529" lon="11.4933546"><ele>232.8</ele><time>2026-04-25T09:35:42.743Z</time></trkpt><trkpt lat="43.8077902" lon="11.493473"><ele>232.60000000000002</ele><time>2026-04-25T09:35:44.741Z</time></trkpt><trkpt lat="43.807673" lon="11.4934871"><ele>232.39999999999998</ele><time>2026-04-25T09:35:46.741Z</time></trkpt><trkpt lat="43.807573" lon="11.4935901"><ele>232.2</ele><time>2026-04-25T09:35:48.742Z</time></trkpt><trkpt lat="43.8075239" lon="11.4936449"><ele>232.0</ele><time>2026-04-25T09:35:49.741Z</time></trkpt><trkpt lat="43.8074703" lon="11.4937575"><ele>234.75</ele><time>2026-04-25T09:35:50.742Z</time></trkpt><trkpt lat="43.8074264" lon="11.4939569"><ele>237.5</ele><time>2026-04-25T09:35:51.741Z</time></trkpt><trkpt lat="43.8073719" lon="11.4940988"><ele>240.25</ele><time>2026-04-25T09:35:52.741Z</time></trkpt><trkpt lat="43.8073213" lon="11.4942515"><ele>243.0</ele><time>2026-04-25T09:35:53.742Z</time></trkpt><trkpt lat="43.8072523" lon="11.4943979"><ele>243.0</ele><time>2026-04-25T09:35:54.742Z</time></trkpt><trkpt lat="43.8071809" lon="11.4945346"><ele>243.0</ele><time>2026-04-25T09:35:55.741Z</time></trkpt><trkpt lat="43.8070946" lon="11.4946198"><ele>243.0</ele><time>2026-04-25T09:35:56.741Z</time></trkpt><trkpt lat="43.8069875" lon="11.4946883"><ele>243.0</ele><time>2026-04-25T09:35:57.741Z</time></trkpt><trkpt lat="43.8068874" lon="11.4947393"><ele>246.75</ele><time>2026-04-25T09:35:58.741Z</time></trkpt><trkpt lat="43.8067703" lon="11.4947635"><ele>250.5</ele><time>2026-04-25T09:35:59.742Z</time></trkpt><trkpt lat="43.8066527" lon="11.4947766"><ele>254.25</ele><time>2026-04-25T09:36:00.741Z</time></trkpt><trkpt lat="43.8065191" lon="11.4947631"><ele>258.0</ele><time>2026-04-25T09:36:01.741Z</time></trkpt><trkpt lat="43.8063828" lon="11.4947355"><ele>258.0</ele><time>2026-04-25T09:36:02.742Z</time></trkpt><trkpt lat="43.8062405" lon="11.4946988"><ele>258.0</ele><time>2026-04-25T09:36:03.742Z</time></trkpt><trkpt lat="43.8060826" lon="11.4946626"><ele>258.0</ele><time>2026-04-25T09:36:04.741Z</time></trkpt><trkpt lat="43.8059359" lon="11.4946298"><ele>262.75</ele><time>2026-04-25T09:36:05.741Z</time></trkpt><trkpt lat="43.8057777" lon="11.4945906"><ele>267.5</ele><time>2026-04-25T09:36:06.741Z</time></trkpt><trkpt lat="43.8056264" lon="11.4945567"><ele>272.25</ele><time>2026-04-25T09:36:07.742Z</time></trkpt><trkpt lat="43.805502" lon="11.4945419"><ele>277.0</ele><time>2026-04-25T09:36:08.742Z</time></trkpt><trkpt lat="43.8053908" lon="11.4945255"><ele>278.16666666666663</ele><time>2026-04-25T09:36:09.741Z</time></trkpt><trkpt lat="43.8052959" lon="11.4945154"><ele>279.3333333333333</ele><time>2026-04-25T09:36:10.741Z</time></trkpt><trkpt lat="43.8052213" lon="11.4945078"><ele>280.5</ele><time>2026-04-25T09:36:11.741Z</time></trkpt><trkpt lat="43.8051336" lon="11.4944744"><ele>281.6666666666667</ele><time>2026-04-25T09:36:13.742Z</time></trkpt><trkpt lat="43.8050884" lon="11.4944034"><ele>282.83333333333337</ele><time>2026-04-25T09:36:32.743Z</time></trkpt><trkpt lat="43.8051131" lon="11.4944986"><ele>284.0</ele><time>2026-04-25T09:36:47.741Z</time></trkpt><trkpt lat="43.8051522" lon="11.4945709"><ele>284.0</ele><time>2026-04-25T09:37:00.741Z</time></trkpt><trkpt lat="43.8052127" lon="11.4945314"><ele>284.0</ele><time>2026-04-25T09:40:19.741Z</time></trkpt><trkpt lat="43.8053117" lon="11.4945271"><ele>284.0</ele><time>2026-04-25T09:40:21.741Z</time></trkpt><trkpt lat="43.8054176" lon="11.4945473"><ele>284.0</ele><time>2026-04-25T09:40:23.741Z</time></trkpt><trkpt lat="43.8055483" lon="11.4945319"><ele>284.0</ele><time>2026-04-25T09:40:25.742Z</time></trkpt><trkpt lat="43.8056162" lon="11.4945635"><ele>284.0</ele><time>2026-04-25T09:40:26.743Z</time></trkpt><trkpt lat="43.8056859" lon="11.494582"><ele>284.0</ele><time>2026-04-25T09:40:27.741Z</time></trkpt><trkpt lat="43.805756" lon="11.4945978"><ele>284.0</ele><time>2026-04-25T09:40:28.742Z</time></trkpt><trkpt lat="43.8058263" lon="11.4946226"><ele>284.0</ele><time>2026-04-25T09:40:29.742Z</time></trkpt><trkpt lat="43.8059054" lon="11.4946394"><ele>284.0</ele><time>2026-04-25T09:40:30.742Z</time></trkpt><trkpt lat="43.8059842" lon="11.4946627"><ele>284.0</ele><time>2026-04-25T09:40:31.741Z</time></trkpt><trkpt lat="43.8060683" lon="11.4946781"><ele>278.8</ele><time>2026-04-25T09:40:32.742Z</time></trkpt><trkpt lat="43.8061544" lon="11.4947075"><ele>273.59999999999997</ele><time>2026-04-25T09:40:33.741Z</time></trkpt><trkpt lat="43.8062441" lon="11.4947432"><ele>268.4</ele><time>2026-04-25T09:40:34.742Z</time></trkpt><trkpt lat="43.8063393" lon="11.4947793"><ele>263.2</ele><time>2026-04-25T09:40:35.741Z</time></trkpt><trkpt lat="43.8064259" lon="11.4947872"><ele>258.0</ele><time>2026-04-25T09:40:36.741Z</time></trkpt><trkpt lat="43.806516" lon="11.4948088"><ele>258.0</ele><time>2026-04-25T09:40:37.742Z</time></trkpt><trkpt lat="43.8066008" lon="11.4948078"><ele>258.0</ele><time>2026-04-25T09:40:38.741Z</time></trkpt><trkpt lat="43.8066913" lon="11.4948217"><ele>258.0</ele><time>2026-04-25T09:40:39.742Z</time></trkpt><trkpt lat="43.8067775" lon="11.4948335"><ele>258.0</ele><time>2026-04-25T09:40:40.742Z</time></trkpt><trkpt lat="43.8068582" lon="11.4947732"><ele>258.0</ele><time>2026-04-25T09:40:41.741Z</time></trkpt><trkpt lat="43.8069473" lon="11.4947407"><ele>258.0</ele><time>2026-04-25T09:40:42.742Z</time></trkpt><trkpt lat="43.8070327" lon="11.4946874"><ele>255.0</ele><time>2026-04-25T09:40:43.742Z</time></trkpt><trkpt lat="43.8071121" lon="11.4946264"><ele>252.0</ele><time>2026-04-25T09:40:44.741Z</time></trkpt><trkpt lat="43.8071835" lon="11.4945445"><ele>249.0</ele><time>2026-04-25T09:40:45.742Z</time></trkpt><trkpt lat="43.8072456" lon="11.4944454"><ele>246.0</ele><time>2026-04-25T09:40:46.741Z</time></trkpt><trkpt lat="43.8073039" lon="11.4943394"><ele>243.0</ele><time>2026-04-25T09:40:47.741Z</time></trkpt><trkpt lat="43.8073487" lon="11.4942311"><ele>243.0</ele><time>2026-04-25T09:40:48.742Z</time></trkpt><trkpt lat="43.8073884" lon="11.494116"><ele>243.0</ele><time>2026-04-25T09:40:49.741Z</time></trkpt><trkpt lat="43.8074251" lon="11.4939896"><ele>243.0</ele><time>2026-04-25T09:40:50.741Z</time></trkpt><trkpt lat="43.8074621" lon="11.4938475"><ele>243.0</ele><time>2026-04-25T09:40:51.742Z</time></trkpt><trkpt lat="43.8075074" lon="11.493731"><ele>243.0</ele><time>2026-04-25T09:40:52.741Z</time></trkpt><trkpt lat="43.8075505" lon="11.4936204"><ele>243.5</ele><time>2026-04-25T09:40:53.741Z</time></trkpt><trkpt lat="43.8075919" lon="11.4935287"><ele>244.0</ele><time>2026-04-25T09:40:54.741Z</time></trkpt><trkpt lat="43.8076596" lon="11.4934634"><ele>244.5</ele><time>2026-04-25T09:40:55.741Z</time></trkpt><trkpt lat="43.8077542" lon="11.4935756"><ele>245.0</ele><time>2026-04-25T09:40:57.742Z</time></trkpt><trkpt lat="43.8077992" lon="11.4936398"><ele>245.5</ele><time>2026-04-25T09:40:58.741Z</time></trkpt><trkpt lat="43.80783" lon="11.4937383"><ele>246.0</ele><time>2026-04-25T09:40:59.742Z</time></trkpt><trkpt lat="43.8078499" lon="11.4938519"><ele>243.20000000000002</ele><time>2026-04-25T09:41:00.741Z</time></trkpt><trkpt lat="43.8078862" lon="11.4939775"><ele>240.40000000000003</ele><time>2026-04-25T09:41:01.742Z</time></trkpt><trkpt lat="43.807925" lon="11.4941049"><ele>237.6</ele><time>2026-04-25T09:41:02.741Z</time></trkpt><trkpt lat="43.8079701" lon="11.4942456"><ele>234.8</ele><time>2026-04-25T09:41:03.742Z</time></trkpt><trkpt lat="43.8080124" lon="11.4943734"><ele>232.0</ele><time>2026-04-25T09:41:04.741Z</time></trkpt><trkpt lat="43.8080428" lon="11.494498"><ele>232.2</ele><time>2026-04-25T09:41:05.742Z</time></trkpt><trkpt lat="43.8080536" lon="11.4946058"><ele>232.39999999999998</ele><time>2026-04-25T09:41:06.742Z</time></trkpt><trkpt lat="43.8080467" lon="11.4947133"><ele>232.60000000000002</ele><time>2026-04-25T09:41:07.742Z</time></trkpt><trkpt lat="43.8080172" lon="11.4948388"><ele>232.8</ele><time>2026-04-25T09:41:08.741Z</time></trkpt><trkpt lat="43.80797" lon="11.4949836"><ele>233.0</ele><time>2026-04-25T09:41:09.741Z</time></trkpt><trkpt lat="43.8079107" lon="11.495142"><ele>233.0</ele><time>2026-04-25T09:41:10.742Z</time></trkpt><trkpt lat="43.8078526" lon="11.4953187"><ele>233.0</ele><time>2026-04-25T09:41:11.741Z</time></trkpt><trkpt lat="43.8077941" lon="11.4954865"><ele>233.0</ele><time>2026-04-25T09:41:12.741Z</time></trkpt><trkpt lat="43.8077439" lon="11.4956267"><ele>233.0</ele><time>2026-04-25T09:41:13.743Z</time></trkpt><trkpt lat="43.807699" lon="11.4957441"><ele>235.00000000000003</ele><time>2026-04-25T09:41:14.741Z</time></trkpt><trkpt lat="43.8076574" lon="11.4958591"><ele>237.0</ele><time>2026-04-25T09:41:15.741Z</time></trkpt><trkpt lat="43.8076128" lon="11.4959573"><ele>239.0</ele><time>2026-04-25T09:41:16.742Z</time></trkpt><trkpt lat="43.8075615" lon="11.4960332"><ele>241.0</ele><time>2026-04-25T09:41:17.741Z</time></trkpt><trkpt lat="43.8075007" lon="11.4961011"><ele>243.00000000000003</ele><time>2026-04-25T09:41:18.742Z</time></trkpt><trkpt lat="43.8074198" lon="11.4961528"><ele>245.0</ele><time>2026-04-25T09:41:19.741Z</time></trkpt><trkpt lat="43.807334" lon="11.4962204"><ele>245.6</ele><time>2026-04-25T09:41:20.742Z</time></trkpt><trkpt lat="43.8072419" lon="11.4962798"><ele>246.2</ele><time>2026-04-25T09:41:21.741Z</time></trkpt><trkpt lat="43.807152" lon="11.4963471"><ele>246.8</ele><time>2026-04-25T09:41:22.741Z</time></trkpt><trkpt lat="43.8070823" lon="11.4964281"><ele>247.4</ele><time>2026-04-25T09:41:23.741Z</time></trkpt><trkpt lat="43.8070433" lon="11.4965206"><ele>248.0</ele><time>2026-04-25T09:41:24.742Z</time></trkpt><trkpt lat="43.8070244" lon="11.4966325"><ele>248.0</ele><time>2026-04-25T09:41:25.742Z</time></trkpt><trkpt lat="43.8070096" lon="11.4967554"><ele>248.0</ele><time>2026-04-25T09:41:26.743Z</time></trkpt><trkpt lat="43.8069936" lon="11.4969026"><ele>248.0</ele><time>2026-04-25T09:41:27.742Z</time></trkpt><trkpt lat="43.8069734" lon="11.4970523"><ele>248.0</ele><time>2026-04-25T09:41:28.741Z</time></trkpt><trkpt lat="43.80695" lon="11.4972065"><ele>248.0</ele><time>2026-04-25T09:41:29.742Z</time></trkpt><trkpt lat="43.8069191" lon="11.4973398"><ele>247.5</ele><time>2026-04-25T09:41:30.742Z</time></trkpt><trkpt lat="43.8068674" lon="11.4974679"><ele>247.0</ele><time>2026-04-25T09:41:31.741Z</time></trkpt><trkpt lat="43.8068075" lon="11.4975949"><ele>246.5</ele><time>2026-04-25T09:41:32.742Z</time></trkpt><trkpt lat="43.8067382" lon="11.4977315"><ele>246.0</ele><time>2026-04-25T09:41:33.742Z</time></trkpt><trkpt lat="43.8066667" lon="11.497876"><ele>248.8</ele><time>2026-04-25T09:41:34.742Z</time></trkpt><trkpt lat="43.8065917" lon="11.4980196"><ele>251.60000000000002</ele><time>2026-04-25T09:41:35.742Z</time></trkpt><trkpt lat="43.806529" lon="11.4981513"><ele>254.4</ele><time>2026-04-25T09:41:36.742Z</time></trkpt><trkpt lat="43.8064686" lon="11.4982608"><ele>257.2</ele><time>2026-04-25T09:41:37.742Z</time></trkpt><trkpt lat="43.8064137" lon="11.4983557"><ele>260.0</ele><time>2026-04-25T09:41:38.741Z</time></trkpt><trkpt lat="43.8063559" lon="11.4984451"><ele>260.0</ele><time>2026-04-25T09:41:39.741Z</time></trkpt><trkpt lat="43.8062874" lon="11.4985362"><ele>260.0</ele><time>2026-04-25T09:41:40.743Z</time></trkpt><trkpt lat="43.8062116" lon="11.4986302"><ele>260.0</ele><time>2026-04-25T09:41:41.742Z</time></trkpt><trkpt lat="43.8061258" lon="11.4987232"><ele>260.0</ele><time>2026-04-25T09:41:42.741Z</time></trkpt><trkpt lat="43.806026" lon="11.4988201"><ele>260.0</ele><time>2026-04-25T09:41:43.741Z</time></trkpt><trkpt lat="43.8059278" lon="11.4989176"><ele>261.33333333333337</ele><time>2026-04-25T09:41:44.742Z</time></trkpt><trkpt lat="43.8058395" lon="11.4989997"><ele>262.6666666666667</ele><time>2026-04-25T09:41:45.741Z</time></trkpt><trkpt lat="43.8057661" lon="11.4990706"><ele>264.0</ele><time>2026-04-25T09:41:46.742Z</time></trkpt><trkpt lat="43.805717" lon="11.4991382"><ele>265.3333333333333</ele><time>2026-04-25T09:41:47.741Z</time></trkpt><trkpt lat="43.8056827" lon="11.499221"><ele>266.66666666666663</ele><time>2026-04-25T09:41:48.742Z</time></trkpt><trkpt lat="43.8056568" lon="11.4993241"><ele>268.0</ele><time>2026-04-25T09:41:49.742Z</time></trkpt><trkpt lat="43.8056403" lon="11.4994149"><ele>268.0</ele><time>2026-04-25T09:41:50.741Z</time></trkpt><trkpt lat="43.8056164" lon="11.499572"><ele>268.0</ele><time>2026-04-25T09:41:52.741Z</time></trkpt><trkpt lat="43.8055968" lon="11.4996869"><ele>268.0</ele><time>2026-04-25T09:41:54.742Z</time></trkpt><trkpt lat="43.8055844" lon="11.4997891"><ele>268.0</ele><time>2026-04-25T09:41:56.741Z</time></trkpt><trkpt lat="43.8055651" lon="11.4998781"><ele>268.0</ele><time>2026-04-25T09:42:19.741Z</time></trkpt><trkpt lat="43.8054776" lon="11.4998682"><ele>268.0</ele><time>2026-04-25T09:42:23.741Z</time></trkpt><trkpt lat="43.8053811" lon="11.4997688"><ele>267.5</ele><time>2026-04-25T09:42:25.741Z</time></trkpt><trkpt lat="43.8053315" lon="11.4997117"><ele>267.0</ele><time>2026-04-25T09:42:26.742Z</time></trkpt><trkpt lat="43.8052739" lon="11.4996676"><ele>266.5</ele><time>2026-04-25T09:42:27.741Z</time></trkpt><trkpt lat="43.8051565" lon="11.4996027"><ele>266.0</ele><time>2026-04-25T09:42:29.742Z</time></trkpt><trkpt lat="43.8050895" lon="11.4995716"><ele>265.5</ele><time>2026-04-25T09:42:30.741Z</time></trkpt><trkpt lat="43.8050139" lon="11.4995513"><ele>265.0</ele><time>2026-04-25T09:42:31.741Z</time></trkpt><trkpt lat="43.8049446" lon="11.4995757"><ele>268.0</ele><time>2026-04-25T09:42:32.742Z</time></trkpt><trkpt lat="43.8048654" lon="11.4995618"><ele>271.0</ele><time>2026-04-25T09:42:33.741Z</time></trkpt><trkpt lat="43.8047833" lon="11.4995397"><ele>274.0</ele><time>2026-04-25T09:42:34.742Z</time></trkpt><trkpt lat="43.8047064" lon="11.4995215"><ele>277.0</ele><time>2026-04-25T09:42:35.741Z</time></trkpt><trkpt lat="43.8046326" lon="11.499497"><ele>280.0</ele><time>2026-04-25T09:42:36.741Z</time></trkpt><trkpt lat="43.8045736" lon="11.4994293"><ele>283.0</ele><time>2026-04-25T09:42:38.742Z</time></trkpt><trkpt lat="43.804535" lon="11.4993037"><ele>283.0</ele><time>2026-04-25T09:42:40.741Z</time></trkpt><trkpt lat="43.8045367" lon="11.4991875"><ele>283.0</ele><time>2026-04-25T09:42:41.741Z</time></trkpt><trkpt lat="43.8045669" lon="11.4990563"><ele>283.0</ele><time>2026-04-25T09:42:42.741Z</time></trkpt><trkpt lat="43.8045767" lon="11.4989571"><ele>283.0</ele><time>2026-04-25T09:42:43.741Z</time></trkpt><trkpt lat="43.8045708" lon="11.498858"><ele>283.0</ele><time>2026-04-25T09:42:44.742Z</time></trkpt><trkpt lat="43.804564" lon="11.4987408"><ele>283.0</ele><time>2026-04-25T09:42:45.742Z</time></trkpt><trkpt lat="43.8045584" lon="11.4986122"><ele>283.6</ele><time>2026-04-25T09:42:46.742Z</time></trkpt><trkpt lat="43.8045545" lon="11.4984753"><ele>284.20000000000005</ele><time>2026-04-25T09:42:47.741Z</time></trkpt><trkpt lat="43.8045479" lon="11.4983284"><ele>284.8</ele><time>2026-04-25T09:42:48.741Z</time></trkpt><trkpt lat="43.8045286" lon="11.4981722"><ele>285.40000000000003</ele><time>2026-04-25T09:42:49.742Z</time></trkpt><trkpt lat="43.8044954" lon="11.4980266"><ele>286.0</ele><time>2026-04-25T09:42:50.741Z</time></trkpt><trkpt lat="43.8044584" lon="11.4978975"><ele>287.40000000000003</ele><time>2026-04-25T09:42:51.741Z</time></trkpt><trkpt lat="43.8044236" lon="11.4977778"><ele>288.8</ele><time>2026-04-25T09:42:52.741Z</time></trkpt><trkpt lat="43.80439" lon="11.4976576"><ele>290.20000000000005</ele><time>2026-04-25T09:42:53.742Z</time></trkpt><trkpt lat="43.8043515" lon="11.4975323"><ele>291.6</ele><time>2026-04-25T09:42:54.741Z</time></trkpt><trkpt lat="43.8043119" lon="11.4974132"><ele>293.0</ele><time>2026-04-25T09:42:55.741Z</time></trkpt><trkpt lat="43.8042739" lon="11.4973"><ele>295.83333333333337</ele><time>2026-04-25T09:42:56.743Z</time></trkpt><trkpt lat="43.8042438" lon="11.4971918"><ele>298.6666666666667</ele><time>2026-04-25T09:42:57.742Z</time></trkpt><trkpt lat="43.804211" lon="11.4970787"><ele>301.5</ele><time>2026-04-25T09:42:58.741Z</time></trkpt><trkpt lat="43.8041884" lon="11.4969777"><ele>304.3333333333333</ele><time>2026-04-25T09:42:59.741Z</time></trkpt><trkpt lat="43.8041558" lon="11.4968523"><ele>307.16666666666663</ele><time>2026-04-25T09:43:00.741Z</time></trkpt><trkpt lat="43.8041254" lon="11.4967489"><ele>310.0</ele><time>2026-04-25T09:43:01.741Z</time></trkpt><trkpt lat="43.8040963" lon="11.4966656"><ele>311.16666666666663</ele><time>2026-04-25T09:43:02.741Z</time></trkpt><trkpt lat="43.8040603" lon="11.4965792"><ele>312.3333333333333</ele><time>2026-04-25T09:43:03.742Z</time></trkpt><trkpt lat="43.8039962" lon="11.4964543"><ele>313.5</ele><time>2026-04-25T09:43:05.742Z</time></trkpt><trkpt lat="43.8039322" lon="11.4963792"><ele>314.6666666666667</ele><time>2026-04-25T09:43:07.741Z</time></trkpt><trkpt lat="43.8038472" lon="11.4964153"><ele>315.83333333333337</ele><time>2026-04-25T09:43:09.742Z</time></trkpt><trkpt lat="43.8038054" lon="11.4965006"><ele>317.0</ele><time>2026-04-25T09:43:11.741Z</time></trkpt><trkpt lat="43.8037568" lon="11.4966684"><ele>317.0</ele><time>2026-04-25T09:43:13.741Z</time></trkpt><trkpt lat="43.8037131" lon="11.4967877"><ele>317.0</ele><time>2026-04-25T09:43:14.742Z</time></trkpt><trkpt lat="43.8036542" lon="11.4968934"><ele>317.0</ele><time>2026-04-25T09:43:15.742Z</time></trkpt><trkpt lat="43.803612" lon="11.4969995"><ele>317.0</ele><time>2026-04-25T09:43:16.742Z</time></trkpt><trkpt lat="43.8035657" lon="11.497112"><ele>317.0</ele><time>2026-04-25T09:43:17.741Z</time></trkpt><trkpt lat="43.8035253" lon="11.4972077"><ele>321.83333333333337</ele><time>2026-04-25T09:43:18.741Z</time></trkpt><trkpt lat="43.8034405" lon="11.4973421"><ele>326.6666666666667</ele><time>2026-04-25T09:43:20.742Z</time></trkpt><trkpt lat="43.8034026" lon="11.4974211"><ele>331.5</ele><time>2026-04-25T09:43:21.742Z</time></trkpt><trkpt lat="43.8033473" lon="11.4974995"><ele>336.3333333333333</ele><time>2026-04-25T09:43:22.741Z</time></trkpt><trkpt lat="43.8033042" lon="11.4975793"><ele>341.16666666666663</ele><time>2026-04-25T09:43:23.742Z</time></trkpt><trkpt lat="43.8032544" lon="11.4976466"><ele>346.0</ele><time>2026-04-25T09:43:24.741Z</time></trkpt><trkpt lat="43.8031821" lon="11.4978052"><ele>346.0</ele><time>2026-04-25T09:43:26.742Z</time></trkpt><trkpt lat="43.8031578" lon="11.4979045"><ele>346.0</ele><time>2026-04-25T09:43:27.742Z</time></trkpt><trkpt lat="43.8031336" lon="11.4980122"><ele>346.0</ele><time>2026-04-25T09:43:28.741Z</time></trkpt><trkpt lat="43.8031256" lon="11.4980991"><ele>346.0</ele><time>2026-04-25T09:43:29.741Z</time></trkpt><trkpt lat="43.8031144" lon="11.498196"><ele>346.0</ele><time>2026-04-25T09:43:30.741Z</time></trkpt><trkpt lat="43.8031171" lon="11.498293"><ele>346.0</ele><time>2026-04-25T09:43:31.741Z</time></trkpt><trkpt lat="43.8030917" lon="11.4984148"><ele>343.4</ele><time>2026-04-25T09:43:33.742Z</time></trkpt><trkpt lat="43.8030303" lon="11.4984834"><ele>340.8</ele><time>2026-04-25T09:43:34.741Z</time></trkpt><trkpt lat="43.8029925" lon="11.4985736"><ele>338.2</ele><time>2026-04-25T09:43:35.741Z</time></trkpt><trkpt lat="43.8029268" lon="11.4987155"><ele>335.59999999999997</ele><time>2026-04-25T09:43:37.741Z</time></trkpt><trkpt lat="43.8028917" lon="11.4988315"><ele>333.0</ele><time>2026-04-25T09:43:39.741Z</time></trkpt><trkpt lat="43.802882" lon="11.4989854"><ele>333.79999999999995</ele><time>2026-04-25T09:43:41.742Z</time></trkpt><trkpt lat="43.8028542" lon="11.4991452"><ele>334.6</ele><time>2026-04-25T09:43:43.742Z</time></trkpt><trkpt lat="43.8027859" lon="11.4992692"><ele>335.4</ele><time>2026-04-25T09:43:45.742Z</time></trkpt><trkpt lat="43.8027105" lon="11.4993606"><ele>336.20000000000005</ele><time>2026-04-25T09:43:47.741Z</time></trkpt><trkpt lat="43.802621" lon="11.4994545"><ele>337.0</ele><time>2026-04-25T09:43:49.742Z</time></trkpt><trkpt lat="43.802562" lon="11.499585"><ele>337.0</ele><time>2026-04-25T09:43:51.741Z</time></trkpt><trkpt lat="43.8025095" lon="11.499777"><ele>337.0</ele><time>2026-04-25T09:43:53.741Z</time></trkpt><trkpt lat="43.8024723" lon="11.4998688"><ele>337.0</ele><time>2026-04-25T09:43:54.742Z</time></trkpt><trkpt lat="43.8024295" lon="11.5000181"><ele>337.0</ele><time>2026-04-25T09:43:56.741Z</time></trkpt><trkpt lat="43.8024002" lon="11.500103"><ele>337.0</ele><time>2026-04-25T09:43:57.742Z</time></trkpt><trkpt lat="43.802368" lon="11.5001788"><ele>337.0</ele><time>2026-04-25T09:43:58.742Z</time></trkpt><trkpt lat="43.802342" lon="11.5002631"><ele>337.0</ele><time>2026-04-25T09:44:00.741Z</time></trkpt><trkpt lat="43.8023375" lon="11.5003518"><ele>337.0</ele><time>2026-04-25T09:45:07.741Z</time></trkpt></trkseg><trkseg><trkpt lat="43.8022816" lon="11.5004066"><ele>335.75</ele><time>2026-04-25T10:05:28.743Z</time></trkpt><trkpt lat="43.8021824" lon="11.5004681"><ele>334.5</ele><time>2026-04-25T10:05:30.742Z</time></trkpt><trkpt lat="43.8020592" lon="11.5005216"><ele>333.25</ele><time>2026-04-25T10:05:32.742Z</time></trkpt><trkpt lat="43.8019821" lon="11.5006282"><ele>332.0</ele><time>2026-04-25T10:05:34.742Z</time></trkpt><trkpt lat="43.8018802" lon="11.5007427"><ele>334.2857142857143</ele><time>2026-04-25T10:05:36.743Z</time></trkpt><trkpt lat="43.8018246" lon="11.5007976"><ele>336.5714285714286</ele><time>2026-04-25T10:05:37.742Z</time></trkpt><trkpt lat="43.8017702" lon="11.5008561"><ele>338.8571428571429</ele><time>2026-04-25T10:05:38.743Z</time></trkpt><trkpt lat="43.80172" lon="11.5009101"><ele>341.1428571428571</ele><time>2026-04-25T10:05:39.742Z</time></trkpt><trkpt lat="43.8016569" lon="11.5009703"><ele>343.42857142857144</ele><time>2026-04-25T10:05:40.742Z</time></trkpt><trkpt lat="43.8015919" lon="11.5010285"><ele>345.7142857142857</ele><time>2026-04-25T10:05:41.742Z</time></trkpt><trkpt lat="43.8015346" lon="11.5010843"><ele>348.0</ele><time>2026-04-25T10:05:42.743Z</time></trkpt><trkpt lat="43.8014877" lon="11.5011466"><ele>347.2</ele><time>2026-04-25T10:05:43.742Z</time></trkpt><trkpt lat="43.8014165" lon="11.5012547"><ele>346.4</ele><time>2026-04-25T10:05:45.743Z</time></trkpt><trkpt lat="43.80134" lon="11.501351"><ele>345.59999999999997</ele><time>2026-04-25T10:05:47.744Z</time></trkpt><trkpt lat="43.8012887" lon="11.5014377"><ele>344.79999999999995</ele><time>2026-04-25T10:05:49.742Z</time></trkpt><trkpt lat="43.8012495" lon="11.5015568"><ele>344.0</ele><time>2026-04-25T10:05:51.742Z</time></trkpt><trkpt lat="43.8012668" lon="11.5016463"><ele>344.0</ele><time>2026-04-25T10:05:52.742Z</time></trkpt><trkpt lat="43.8012813" lon="11.5017328"><ele>344.0</ele><time>2026-04-25T10:05:53.743Z</time></trkpt><trkpt lat="43.8013008" lon="11.5018299"><ele>344.0</ele><time>2026-04-25T10:05:54.743Z</time></trkpt><trkpt lat="43.8013181" lon="11.5019311"><ele>344.0</ele><time>2026-04-25T10:05:55.742Z</time></trkpt><trkpt lat="43.8013317" lon="11.5020387"><ele>344.0</ele><time>2026-04-25T10:05:56.742Z</time></trkpt><trkpt lat="43.8013478" lon="11.5021444"><ele>344.0</ele><time>2026-04-25T10:05:57.742Z</time></trkpt><trkpt lat="43.8013994" lon="11.502301"><ele>345.6</ele><time>2026-04-25T10:05:59.743Z</time></trkpt><trkpt lat="43.8014808" lon="11.502399"><ele>347.2</ele><time>2026-04-25T10:06:01.742Z</time></trkpt><trkpt lat="43.8015898" lon="11.5024909"><ele>348.8</ele><time>2026-04-25T10:06:03.743Z</time></trkpt><trkpt lat="43.80168" lon="11.5025577"><ele>350.40000000000003</ele><time>2026-04-25T10:06:05.742Z</time></trkpt><trkpt lat="43.8017293" lon="11.502627"><ele>352.0</ele><time>2026-04-25T10:06:07.743Z</time></trkpt><trkpt lat="43.8017316" lon="11.5027234"><ele>352.0</ele><time>2026-04-25T10:06:10.742Z</time></trkpt><trkpt lat="43.8016564" lon="11.5027257"><ele>352.0</ele><time>2026-04-25T10:06:13.742Z</time></trkpt><trkpt lat="43.8015897" lon="11.5026432"><ele>352.0</ele><time>2026-04-25T10:06:15.744Z</time></trkpt><trkpt lat="43.8015093" lon="11.502575"><ele>352.0</ele><time>2026-04-25T10:06:17.744Z</time></trkpt><trkpt lat="43.8014515" lon="11.5025269"><ele>352.0</ele><time>2026-04-25T10:06:19.744Z</time></trkpt><trkpt lat="43.8013883" lon="11.5024882"><ele>352.0</ele><time>2026-04-25T10:06:29.743Z</time></trkpt><trkpt lat="43.8014611" lon="11.5025421"><ele>352.0</ele><time>2026-04-25T10:06:43.742Z</time></trkpt><trkpt lat="43.8015139" lon="11.502591"><ele>352.0</ele><time>2026-04-25T10:06:45.742Z</time></trkpt><trkpt lat="43.8015776" lon="11.5026334"><ele>352.0</ele><time>2026-04-25T10:07:35.742Z</time></trkpt><trkpt lat="43.8016436" lon="11.5026728"><ele>352.0</ele><time>2026-04-25T10:07:39.742Z</time></trkpt><trkpt lat="43.8017004" lon="11.5027272"><ele>352.0</ele><time>2026-04-25T10:07:44.742Z</time></trkpt><trkpt lat="43.8017507" lon="11.5027902"><ele>352.0</ele><time>2026-04-25T10:07:49.743Z</time></trkpt><trkpt lat="43.8017598" lon="11.5028834"><ele>352.0</ele><time>2026-04-25T10:07:54.743Z</time></trkpt><trkpt lat="43.8017291" lon="11.5029671"><ele>353.8333333333333</ele><time>2026-04-25T10:08:22.742Z</time></trkpt><trkpt lat="43.8016701" lon="11.5030298"><ele>355.66666666666663</ele><time>2026-04-25T10:08:31.742Z</time></trkpt><trkpt lat="43.8015908" lon="11.5030652"><ele>357.5</ele><time>2026-04-25T10:08:33.742Z</time></trkpt><trkpt lat="43.8015151" lon="11.5031068"><ele>359.3333333333333</ele><time>2026-04-25T10:08:35.742Z</time></trkpt><trkpt lat="43.8014424" lon="11.5031464"><ele>361.1666666666667</ele><time>2026-04-25T10:08:39.742Z</time></trkpt><trkpt lat="43.801378" lon="11.503211"><ele>363.0</ele><time>2026-04-25T10:08:41.742Z</time></trkpt><trkpt lat="43.8013207" lon="11.5032973"><ele>363.0</ele><time>2026-04-25T10:08:44.742Z</time></trkpt><trkpt lat="43.8012917" lon="11.5033952"><ele>363.0</ele><time>2026-04-25T10:08:47.742Z</time></trkpt><trkpt lat="43.8012428" lon="11.5034519"><ele>363.0</ele><time>2026-04-25T10:08:49.743Z</time></trkpt><trkpt lat="43.8011567" lon="11.5034953"><ele>363.0</ele><time>2026-04-25T10:08:53.743Z</time></trkpt><trkpt lat="43.8011158" lon="11.5035728"><ele>363.0</ele><time>2026-04-25T10:08:57.743Z</time></trkpt><trkpt lat="43.8010628" lon="11.5036513"><ele>363.0</ele><time>2026-04-25T10:09:01.498Z</time></trkpt><trkpt lat="43.8010203" lon="11.5037664"><ele>364.85714285714283</ele><time>2026-04-25T10:09:04.743Z</time></trkpt><trkpt lat="43.8009619" lon="11.5038154"><ele>366.7142857142857</ele><time>2026-04-25T10:09:06.743Z</time></trkpt><trkpt lat="43.8009672" lon="11.5039116"><ele>368.57142857142856</ele><time>2026-04-25T10:09:19.743Z</time></trkpt><trkpt lat="43.8010111" lon="11.5039786"><ele>370.42857142857144</ele><time>2026-04-25T10:09:25.742Z</time></trkpt><trkpt lat="43.8010756" lon="11.5039806"><ele>372.2857142857143</ele><time>2026-04-25T10:09:28.742Z</time></trkpt><trkpt lat="43.8011284" lon="11.5040316"><ele>374.1428571428571</ele><time>2026-04-25T10:09:35.744Z</time></trkpt><trkpt lat="43.8011287" lon="11.5041434"><ele>376.0</ele><time>2026-04-25T10:09:40.743Z</time></trkpt><trkpt lat="43.8011063" lon="11.5042535"><ele>376.0</ele><time>2026-04-25T10:09:43.742Z</time></trkpt><trkpt lat="43.8010761" lon="11.5043584"><ele>376.0</ele><time>2026-04-25T10:09:45.742Z</time></trkpt><trkpt lat="43.8010332" lon="11.5044735"><ele>376.0</ele><time>2026-04-25T10:09:47.742Z</time></trkpt><trkpt lat="43.8009739" lon="11.5045419"><ele>376.0</ele><time>2026-04-25T10:09:49.743Z</time></trkpt><trkpt lat="43.8009208" lon="11.5046324"><ele>376.0</ele><time>2026-04-25T10:09:51.742Z</time></trkpt><trkpt lat="43.8008915" lon="11.5047201"><ele>376.0</ele><time>2026-04-25T10:09:53.742Z</time></trkpt><trkpt lat="43.800853" lon="11.5048065"><ele>379.6</ele><time>2026-04-25T10:09:55.743Z</time></trkpt><trkpt lat="43.800758" lon="11.5048825"><ele>383.20000000000005</ele><time>2026-04-25T10:09:57.742Z</time></trkpt><trkpt lat="43.800674" lon="11.5049806"><ele>386.79999999999995</ele><time>2026-04-25T10:09:59.742Z</time></trkpt><trkpt lat="43.8006086" lon="11.5050742"><ele>390.4</ele><time>2026-04-25T10:10:01.744Z</time></trkpt><trkpt lat="43.8005826" lon="11.5051695"><ele>394.0</ele><time>2026-04-25T10:16:37.742Z</time></trkpt><trkpt lat="43.8005597" lon="11.5052648"><ele>394.0</ele><time>2026-04-25T10:16:42.744Z</time></trkpt><trkpt lat="43.8005152" lon="11.505344"><ele>394.0</ele><time>2026-04-25T10:16:46.742Z</time></trkpt><trkpt lat="43.8004861" lon="11.5054247"><ele>394.0</ele><time>2026-04-25T10:16:49.742Z</time></trkpt><trkpt lat="43.8004317" lon="11.5055138"><ele>394.0</ele><time>2026-04-25T10:16:53.742Z</time></trkpt><trkpt lat="43.8003895" lon="11.5055998"><ele>394.0</ele><time>2026-04-25T10:16:57.742Z</time></trkpt><trkpt lat="43.8003427" lon="11.5056894"><ele>394.0</ele><time>2026-04-25T10:17:01.742Z</time></trkpt><trkpt lat="43.8003334" lon="11.505787"><ele>394.0</ele><time>2026-04-25T10:17:02.743Z</time></trkpt><trkpt lat="43.8003189" lon="11.5058976"><ele>396.33333333333337</ele><time>2026-04-25T10:17:05.742Z</time></trkpt><trkpt lat="43.8003066" lon="11.5059984"><ele>398.6666666666667</ele><time>2026-04-25T10:17:08.742Z</time></trkpt><trkpt lat="43.8003337" lon="11.5061121"><ele>401.0</ele><time>2026-04-25T10:17:12.742Z</time></trkpt><trkpt lat="43.8003687" lon="11.506213"><ele>403.33333333333337</ele><time>2026-04-25T10:17:16.742Z</time></trkpt><trkpt lat="43.8004473" lon="11.5062066"><ele>405.6666666666667</ele><time>2026-04-25T10:17:23.743Z</time></trkpt><trkpt lat="43.8005144" lon="11.5062028"><ele>408.0</ele><time>2026-04-25T10:17:26.742Z</time></trkpt><trkpt lat="43.8006088" lon="11.5062159"><ele>410.5</ele><time>2026-04-25T10:17:29.742Z</time></trkpt><trkpt lat="43.8006563" lon="11.5062956"><ele>413.0</ele><time>2026-04-25T10:17:33.742Z</time></trkpt><trkpt lat="43.8006269" lon="11.5063831"><ele>415.5</ele><time>2026-04-25T10:17:35.742Z</time></trkpt><trkpt lat="43.8005996" lon="11.5064962"><ele>418.0</ele><time>2026-04-25T10:17:37.742Z</time></trkpt><trkpt lat="43.800616" lon="11.5065999"><ele>420.5</ele><time>2026-04-25T10:17:39.743Z</time></trkpt><trkpt lat="43.8006462" lon="11.5067152"><ele>423.0</ele><time>2026-04-25T10:17:41.742Z</time></trkpt><trkpt lat="43.8006333" lon="11.5068469"><ele>423.0</ele><time>2026-04-25T10:17:43.743Z</time></trkpt><trkpt lat="43.8006115" lon="11.5069312"><ele>423.0</ele><time>2026-04-25T10:17:44.743Z</time></trkpt><trkpt lat="43.8005747" lon="11.5070288"><ele>423.0</ele><time>2026-04-25T10:17:45.742Z</time></trkpt><trkpt lat="43.8005451" lon="11.5071274"><ele>423.0</ele><time>2026-04-25T10:17:46.742Z</time></trkpt><trkpt lat="43.8005084" lon="11.5072062"><ele>423.0</ele><time>2026-04-25T10:17:47.742Z</time></trkpt><trkpt lat="43.8004029" lon="11.5072994"><ele>423.0</ele><time>2026-04-25T10:17:49.743Z</time></trkpt><trkpt lat="43.800332" lon="11.5073195"><ele>423.3333333333333</ele><time>2026-04-25T10:17:50.742Z</time></trkpt><trkpt lat="43.800237" lon="11.5072798"><ele>423.66666666666663</ele><time>2026-04-25T10:17:52.743Z</time></trkpt><trkpt lat="43.8001511" lon="11.5072497"><ele>424.0</ele><time>2026-04-25T10:17:54.742Z</time></trkpt><trkpt lat="43.8000915" lon="11.5073132"><ele>424.3333333333333</ele><time>2026-04-25T10:17:56.743Z</time></trkpt><trkpt lat="43.800072" lon="11.5073991"><ele>424.66666666666663</ele><time>2026-04-25T10:17:59.743Z</time></trkpt><trkpt lat="43.8000795" lon="11.5074924"><ele>425.0</ele><time>2026-04-25T10:18:01.742Z</time></trkpt><trkpt lat="43.800083" lon="11.5076055"><ele>427.49999999999994</ele><time>2026-04-25T10:18:03.743Z</time></trkpt><trkpt lat="43.8000588" lon="11.5076893"><ele>430.0</ele><time>2026-04-25T10:18:04.742Z</time></trkpt><trkpt lat="43.7999844" lon="11.5078728"><ele>432.5</ele><time>2026-04-25T10:18:06.743Z</time></trkpt><trkpt lat="43.7999438" lon="11.507953"><ele>435.0</ele><time>2026-04-25T10:18:07.742Z</time></trkpt><trkpt lat="43.7999277" lon="11.5080448"><ele>437.49999999999994</ele><time>2026-04-25T10:18:08.744Z</time></trkpt><trkpt lat="43.7999015" lon="11.5081366"><ele>440.0</ele><time>2026-04-25T10:18:09.742Z</time></trkpt><trkpt lat="43.7999334" lon="11.5082735"><ele>440.3333333333333</ele><time>2026-04-25T10:18:10.742Z</time></trkpt><trkpt lat="43.7999613" lon="11.5083683"><ele>440.66666666666663</ele><time>2026-04-25T10:18:11.742Z</time></trkpt><trkpt lat="43.8000034" lon="11.508468"><ele>441.0</ele><time>2026-04-25T10:18:12.742Z</time></trkpt><trkpt lat="43.8000825" lon="11.5085018"><ele>441.33333333333337</ele><time>2026-04-25T10:18:13.742Z</time></trkpt><trkpt lat="43.8001612" lon="11.5085488"><ele>441.6666666666667</ele><time>2026-04-25T10:18:14.742Z</time></trkpt><trkpt lat="43.8002614" lon="11.508584"><ele>442.0</ele><time>2026-04-25T10:18:15.742Z</time></trkpt><trkpt lat="43.8003811" lon="11.5085799"><ele>441.0</ele><time>2026-04-25T10:18:16.741Z</time></trkpt><trkpt lat="43.80047" lon="11.5086001"><ele>440.00000000000006</ele><time>2026-04-25T10:18:17.742Z</time></trkpt><trkpt lat="43.8005683" lon="11.5086304"><ele>439.00000000000006</ele><time>2026-04-25T10:18:18.742Z</time></trkpt><trkpt lat="43.80066" lon="11.50871"><ele>438.0</ele><time>2026-04-25T10:18:19.741Z</time></trkpt><trkpt lat="43.8007507" lon="11.5088082"><ele>437.0</ele><time>2026-04-25T10:18:20.741Z</time></trkpt><trkpt lat="43.8008305" lon="11.5089005"><ele>437.0</ele><time>2026-04-25T10:18:21.741Z</time></trkpt><trkpt lat="43.8008825" lon="11.5090285"><ele>437.00000000000006</ele><time>2026-04-25T10:18:22.741Z</time></trkpt><trkpt lat="43.8009406" lon="11.5091644"><ele>437.00000000000006</ele><time>2026-04-25T10:18:23.741Z</time></trkpt><trkpt lat="43.8009932" lon="11.5093002"><ele>437.0</ele><time>2026-04-25T10:18:24.741Z</time></trkpt><trkpt lat="43.8010206" lon="11.5094246"><ele>437.0</ele><time>2026-04-25T10:18:25.742Z</time></trkpt><trkpt lat="43.8010422" lon="11.5095522"><ele>438.40000000000003</ele><time>2026-04-25T10:18:26.743Z</time></trkpt><trkpt lat="43.8010304" lon="11.50972"><ele>439.80000000000007</ele><time>2026-04-25T10:18:27.742Z</time></trkpt><trkpt lat="43.8010245" lon="11.509871"><ele>441.2</ele><time>2026-04-25T10:18:28.741Z</time></trkpt><trkpt lat="43.8010074" lon="11.509998"><ele>442.6</ele><time>2026-04-25T10:18:29.741Z</time></trkpt><trkpt lat="43.8009935" lon="11.5101457"><ele>444.0</ele><time>2026-04-25T10:18:30.741Z</time></trkpt><trkpt lat="43.8009817" lon="11.5102791"><ele>443.8333333333333</ele><time>2026-04-25T10:18:31.741Z</time></trkpt><trkpt lat="43.8009734" lon="11.5104172"><ele>443.66666666666663</ele><time>2026-04-25T10:18:32.742Z</time></trkpt><trkpt lat="43.8009778" lon="11.5105375"><ele>443.5</ele><time>2026-04-25T10:18:33.741Z</time></trkpt><trkpt lat="43.8010331" lon="11.5106119"><ele>443.3333333333333</ele><time>2026-04-25T10:18:34.741Z</time></trkpt><trkpt lat="43.8010823" lon="11.5106813"><ele>443.16666666666663</ele><time>2026-04-25T10:18:35.742Z</time></trkpt><trkpt lat="43.801154" lon="11.5107221"><ele>443.0</ele><time>2026-04-25T10:18:36.741Z</time></trkpt><trkpt lat="43.8012261" lon="11.5106843"><ele>441.4</ele><time>2026-04-25T10:18:37.741Z</time></trkpt><trkpt lat="43.8013293" lon="11.5106353"><ele>439.79999999999995</ele><time>2026-04-25T10:18:38.741Z</time></trkpt><trkpt lat="43.8014296" lon="11.5106065"><ele>438.2</ele><time>2026-04-25T10:18:39.741Z</time></trkpt><trkpt lat="43.8015243" lon="11.510603"><ele>436.6</ele><time>2026-04-25T10:18:40.741Z</time></trkpt><trkpt lat="43.8016365" lon="11.5106136"><ele>435.0</ele><time>2026-04-25T10:18:41.741Z</time></trkpt><trkpt lat="43.8017476" lon="11.5106382"><ele>433.4</ele><time>2026-04-25T10:18:42.742Z</time></trkpt><trkpt lat="43.8018608" lon="11.5106886"><ele>431.8</ele><time>2026-04-25T10:18:43.741Z</time></trkpt><trkpt lat="43.801962" lon="11.5107356"><ele>430.20000000000005</ele><time>2026-04-25T10:18:44.742Z</time></trkpt><trkpt lat="43.8020566" lon="11.5107886"><ele>428.6</ele><time>2026-04-25T10:18:45.742Z</time></trkpt><trkpt lat="43.802136" lon="11.5108381"><ele>427.0</ele><time>2026-04-25T10:18:46.741Z</time></trkpt><trkpt lat="43.8022194" lon="11.5108905"><ele>427.0</ele><time>2026-04-25T10:18:47.743Z</time></trkpt><trkpt lat="43.8023016" lon="11.5109467"><ele>427.00000000000006</ele><time>2026-04-25T10:18:48.741Z</time></trkpt><trkpt lat="43.802382" lon="11.5110181"><ele>427.00000000000006</ele><time>2026-04-25T10:18:49.741Z</time></trkpt><trkpt lat="43.8024619" lon="11.5110911"><ele>427.0</ele><time>2026-04-25T10:18:50.741Z</time></trkpt><trkpt lat="43.8025308" lon="11.511159"><ele>427.0</ele><time>2026-04-25T10:18:51.742Z</time></trkpt><trkpt lat="43.8026025" lon="11.5112337"><ele>430.25</ele><time>2026-04-25T10:18:52.742Z</time></trkpt><trkpt lat="43.8026964" lon="11.5113058"><ele>433.5</ele><time>2026-04-25T10:18:53.742Z</time></trkpt><trkpt lat="43.802797" lon="11.5113723"><ele>436.75</ele><time>2026-04-25T10:18:54.742Z</time></trkpt><trkpt lat="43.8029171" lon="11.5114622"><ele>440.0</ele><time>2026-04-25T10:18:55.741Z</time></trkpt><trkpt lat="43.8030316" lon="11.5115657"><ele>440.0</ele><time>2026-04-25T10:18:56.741Z</time></trkpt><trkpt lat="43.8031267" lon="11.5116454"><ele>440.0</ele><time>2026-04-25T10:18:57.741Z</time></trkpt><trkpt lat="43.8032251" lon="11.5117227"><ele>440.0</ele><time>2026-04-25T10:18:58.741Z</time></trkpt><trkpt lat="43.8033058" lon="11.5117526"><ele>440.0</ele><time>2026-04-25T10:18:59.741Z</time></trkpt><trkpt lat="43.8033823" lon="11.5117577"><ele>440.0</ele><time>2026-04-25T10:19:00.742Z</time></trkpt><trkpt lat="43.8034622" lon="11.5116605"><ele>440.0</ele><time>2026-04-25T10:19:02.742Z</time></trkpt><trkpt lat="43.8034869" lon="11.5115314"><ele>440.0</ele><time>2026-04-25T10:19:03.741Z</time></trkpt><trkpt lat="43.8035061" lon="11.5114288"><ele>440.0</ele><time>2026-04-25T10:19:04.741Z</time></trkpt><trkpt lat="43.8035398" lon="11.511345"><ele>440.0</ele><time>2026-04-25T10:19:06.741Z</time></trkpt><trkpt lat="43.8036437" lon="11.5113459"><ele>440.0</ele><time>2026-04-25T10:19:09.741Z</time></trkpt><trkpt lat="43.8037575" lon="11.5113144"><ele>438.8</ele><time>2026-04-25T10:19:11.742Z</time></trkpt><trkpt lat="43.803864" lon="11.5112686"><ele>437.6</ele><time>2026-04-25T10:19:13.741Z</time></trkpt><trkpt lat="43.8039789" lon="11.5112308"><ele>436.4</ele><time>2026-04-25T10:19:15.741Z</time></trkpt><trkpt lat="43.8040394" lon="11.5112595"><ele>435.2</ele><time>2026-04-25T10:19:44.742Z</time></trkpt><trkpt lat="43.8040621" lon="11.5113873"><ele>434.0</ele><time>2026-04-25T10:19:46.741Z</time></trkpt><trkpt lat="43.8040971" lon="11.5115027"><ele>436.2857142857143</ele><time>2026-04-25T10:19:48.743Z</time></trkpt><trkpt lat="43.8041196" lon="11.511585"><ele>438.57142857142856</ele><time>2026-04-25T10:19:51.742Z</time></trkpt><trkpt lat="43.8041672" lon="11.5116768"><ele>440.8571428571429</ele><time>2026-04-25T10:19:57.742Z</time></trkpt><trkpt lat="43.8042429" lon="11.5116856"><ele>443.14285714285717</ele><time>2026-04-25T10:20:00.742Z</time></trkpt><trkpt lat="43.8042832" lon="11.5116151"><ele>445.42857142857144</ele><time>2026-04-25T10:20:02.741Z</time></trkpt><trkpt lat="43.8043336" lon="11.5115564"><ele>447.7142857142858</ele><time>2026-04-25T10:20:05.741Z</time></trkpt><trkpt lat="43.8042672" lon="11.511576"><ele>450.00000000000006</ele><time>2026-04-25T10:20:26.743Z</time></trkpt><trkpt lat="43.804181" lon="11.5116154"><ele>450.0</ele><time>2026-04-25T10:20:28.741Z</time></trkpt><trkpt lat="43.8040969" lon="11.5116465"><ele>450.0</ele><time>2026-04-25T10:20:31.741Z</time></trkpt><trkpt lat="43.8039964" lon="11.5117209"><ele>450.0</ele><time>2026-04-25T10:20:33.741Z</time></trkpt><trkpt lat="43.8038918" lon="11.5118192"><ele>450.0</ele><time>2026-04-25T10:20:35.741Z</time></trkpt><trkpt lat="43.8038015" lon="11.5119228"><ele>450.0</ele><time>2026-04-25T10:20:37.741Z</time></trkpt><trkpt lat="43.8037489" lon="11.5120784"><ele>452.1666666666667</ele><time>2026-04-25T10:20:39.742Z</time></trkpt><trkpt lat="43.8037523" lon="11.5121689"><ele>454.33333333333337</ele><time>2026-04-25T10:20:40.741Z</time></trkpt><trkpt lat="43.8037706" lon="11.5122615"><ele>456.5</ele><time>2026-04-25T10:20:41.742Z</time></trkpt><trkpt lat="43.8038028" lon="11.5123538"><ele>458.6666666666667</ele><time>2026-04-25T10:20:42.741Z</time></trkpt><trkpt lat="43.8038394" lon="11.51245"><ele>460.83333333333337</ele><time>2026-04-25T10:20:43.742Z</time></trkpt><trkpt lat="43.8038775" lon="11.5125508"><ele>463.0</ele><time>2026-04-25T10:20:44.741Z</time></trkpt><trkpt lat="43.8039135" lon="11.5126596"><ele>463.00000000000006</ele><time>2026-04-25T10:20:45.741Z</time></trkpt><trkpt lat="43.8039345" lon="11.5127692"><ele>463.0</ele><time>2026-04-25T10:20:46.742Z</time></trkpt><trkpt lat="43.8039477" lon="11.5128856"><ele>463.0</ele><time>2026-04-25T10:20:47.741Z</time></trkpt><trkpt lat="43.8039581" lon="11.513003"><ele>463.0</ele><time>2026-04-25T10:20:48.741Z</time></trkpt><trkpt lat="43.8039679" lon="11.5131268"><ele>463.00000000000006</ele><time>2026-04-25T10:20:49.742Z</time></trkpt><trkpt lat="43.8039688" lon="11.5132534"><ele>463.0</ele><time>2026-04-25T10:20:50.742Z</time></trkpt><trkpt lat="43.8039725" lon="11.5133779"><ele>464.33333333333337</ele><time>2026-04-25T10:20:51.741Z</time></trkpt><trkpt lat="43.8039719" lon="11.5134916"><ele>465.6666666666667</ele><time>2026-04-25T10:20:52.741Z</time></trkpt><trkpt lat="43.8039625" lon="11.5135911"><ele>467.0</ele><time>2026-04-25T10:20:53.742Z</time></trkpt><trkpt lat="43.8039453" lon="11.5136976"><ele>468.33333333333337</ele><time>2026-04-25T10:20:54.743Z</time></trkpt><trkpt lat="43.8039297" lon="11.5138089"><ele>469.6666666666667</ele><time>2026-04-25T10:20:55.742Z</time></trkpt><trkpt lat="43.8039165" lon="11.5139213"><ele>471.0</ele><time>2026-04-25T10:20:56.741Z</time></trkpt><trkpt lat="43.8039017" lon="11.514032"><ele>472.6666666666667</ele><time>2026-04-25T10:20:57.741Z</time></trkpt><trkpt lat="43.8038894" lon="11.5141338"><ele>474.33333333333337</ele><time>2026-04-25T10:20:58.742Z</time></trkpt><trkpt lat="43.8039309" lon="11.5142608"><ele>476.0</ele><time>2026-04-25T10:21:00.741Z</time></trkpt><trkpt lat="43.8040355" lon="11.5143054"><ele>477.6666666666667</ele><time>2026-04-25T10:21:02.741Z</time></trkpt><trkpt lat="43.8041033" lon="11.5143053"><ele>479.33333333333337</ele><time>2026-04-25T10:21:03.741Z</time></trkpt><trkpt lat="43.8041749" lon="11.5142904"><ele>481.0</ele><time>2026-04-25T10:21:04.741Z</time></trkpt><trkpt lat="43.8042436" lon="11.5142775"><ele>480.99999999999994</ele><time>2026-04-25T10:21:05.741Z</time></trkpt><trkpt lat="43.8043123" lon="11.5142376"><ele>481.0</ele><time>2026-04-25T10:21:06.741Z</time></trkpt><trkpt lat="43.8043809" lon="11.5142011"><ele>480.99999999999994</ele><time>2026-04-25T10:21:07.741Z</time></trkpt><trkpt lat="43.8044451" lon="11.5141581"><ele>480.99999999999994</ele><time>2026-04-25T10:21:08.742Z</time></trkpt><trkpt lat="43.8045033" lon="11.5141106"><ele>481.0</ele><time>2026-04-25T10:21:09.741Z</time></trkpt><trkpt lat="43.8045587" lon="11.5140543"><ele>480.99999999999994</ele><time>2026-04-25T10:21:10.741Z</time></trkpt><trkpt lat="43.8046129" lon="11.5139913"><ele>480.99999999999994</ele><time>2026-04-25T10:21:11.741Z</time></trkpt><trkpt lat="43.8046587" lon="11.5139262"><ele>483.8</ele><time>2026-04-25T10:21:12.741Z</time></trkpt><trkpt lat="43.8046872" lon="11.5137686"><ele>486.6</ele><time>2026-04-25T10:21:14.741Z</time></trkpt><trkpt lat="43.8047129" lon="11.5136452"><ele>489.4</ele><time>2026-04-25T10:21:16.742Z</time></trkpt><trkpt lat="43.8047866" lon="11.5135347"><ele>492.2</ele><time>2026-04-25T10:21:18.741Z</time></trkpt><trkpt lat="43.8048569" lon="11.5134792"><ele>495.0</ele><time>2026-04-25T10:21:20.741Z</time></trkpt><trkpt lat="43.8049026" lon="11.5135428"><ele>495.0</ele><time>2026-04-25T10:21:23.742Z</time></trkpt><trkpt lat="43.8048866" lon="11.5136356"><ele>495.0</ele><time>2026-04-25T10:21:26.742Z</time></trkpt><trkpt lat="43.8048357" lon="11.5137522"><ele>495.0</ele><time>2026-04-25T10:21:33.67Z</time></trkpt><trkpt lat="43.804792" lon="11.5138185"><ele>495.0</ele><time>2026-04-25T10:21:34.742Z</time></trkpt><trkpt lat="43.8047681" lon="11.5139382"><ele>495.0</ele><time>2026-04-25T10:21:36.743Z</time></trkpt><trkpt lat="43.804809" lon="11.5140228"><ele>495.0</ele><time>2026-04-25T10:21:40.743Z</time></trkpt><trkpt lat="43.8048661" lon="11.5139775"><ele>495.0</ele><time>2026-04-25T10:21:42.742Z</time></trkpt><trkpt lat="43.804901" lon="11.513849"><ele>495.0</ele><time>2026-04-25T10:21:44.742Z</time></trkpt><trkpt lat="43.804903" lon="11.5136897"><ele>495.0</ele><time>2026-04-25T10:21:46.742Z</time></trkpt><trkpt lat="43.8049016" lon="11.513576"><ele>495.0</ele><time>2026-04-25T10:21:48.743Z</time></trkpt><trkpt lat="43.8048679" lon="11.5134729"><ele>495.0</ele><time>2026-04-25T10:23:29.742Z</time></trkpt><trkpt lat="43.804782" lon="11.5135"><ele>495.0</ele><time>2026-04-25T10:23:33.742Z</time></trkpt><trkpt lat="43.8047271" lon="11.513608"><ele>495.0</ele><time>2026-04-25T10:23:35.742Z</time></trkpt><trkpt lat="43.8046963" lon="11.5137325"><ele>495.0</ele><time>2026-04-25T10:23:38.742Z</time></trkpt><trkpt lat="43.8046783" lon="11.5138454"><ele>495.0</ele><time>2026-04-25T10:23:40.742Z</time></trkpt><trkpt lat="43.8046269" lon="11.5139511"><ele>495.0</ele><time>2026-04-25T10:23:42.742Z</time></trkpt><trkpt lat="43.8045343" lon="11.5140488"><ele>496.4</ele><time>2026-04-25T10:23:44.741Z</time></trkpt><trkpt lat="43.8044357" lon="11.5141221"><ele>497.8</ele><time>2026-04-25T10:23:46.741Z</time></trkpt><trkpt lat="43.8043279" lon="11.5141819"><ele>499.20000000000005</ele><time>2026-04-25T10:23:48.741Z</time></trkpt><trkpt lat="43.8042009" lon="11.5142353"><ele>500.6</ele><time>2026-04-25T10:23:50.742Z</time></trkpt><trkpt lat="43.8041344" lon="11.5142503"><ele>502.0</ele><time>2026-04-25T10:23:51.741Z</time></trkpt><trkpt lat="43.8040706" lon="11.5142603"><ele>498.50000000000006</ele><time>2026-04-25T10:23:52.741Z</time></trkpt><trkpt lat="43.8039662" lon="11.5142443"><ele>495.0</ele><time>2026-04-25T10:23:54.741Z</time></trkpt><trkpt lat="43.803905" lon="11.5141869"><ele>491.5</ele><time>2026-04-25T10:23:56.741Z</time></trkpt><trkpt lat="43.8038849" lon="11.5140957"><ele>488.0</ele><time>2026-04-25T10:23:58.741Z</time></trkpt><trkpt lat="43.8039074" lon="11.5139475"><ele>484.50000000000006</ele><time>2026-04-25T10:24:00.742Z</time></trkpt><trkpt lat="43.8039241" lon="11.513862"><ele>481.0</ele><time>2026-04-25T10:24:01.742Z</time></trkpt><trkpt lat="43.8039419" lon="11.5137047"><ele>479.33333333333337</ele><time>2026-04-25T10:24:03.742Z</time></trkpt><trkpt lat="43.8039583" lon="11.5136129"><ele>477.6666666666667</ele><time>2026-04-25T10:24:04.741Z</time></trkpt><trkpt lat="43.8039694" lon="11.5135253"><ele>476.0</ele><time>2026-04-25T10:24:05.741Z</time></trkpt><trkpt lat="43.803976" lon="11.5133526"><ele>474.33333333333337</ele><time>2026-04-25T10:24:07.742Z</time></trkpt><trkpt lat="43.8039752" lon="11.5132584"><ele>472.6666666666667</ele><time>2026-04-25T10:24:08.741Z</time></trkpt><trkpt lat="43.8039724" lon="11.5131494"><ele>471.0</ele><time>2026-04-25T10:24:09.741Z</time></trkpt><trkpt lat="43.8039692" lon="11.513049"><ele>471.00000000000006</ele><time>2026-04-25T10:24:10.741Z</time></trkpt><trkpt lat="43.8039641" lon="11.5129547"><ele>471.0</ele><time>2026-04-25T10:24:11.741Z</time></trkpt><trkpt lat="43.8039554" lon="11.5128638"><ele>471.00000000000006</ele><time>2026-04-25T10:24:12.742Z</time></trkpt><trkpt lat="43.8039459" lon="11.5127767"><ele>471.00000000000006</ele><time>2026-04-25T10:24:13.741Z</time></trkpt><trkpt lat="43.8039292" lon="11.5126868"><ele>471.0</ele><time>2026-04-25T10:24:14.742Z</time></trkpt><trkpt lat="43.8039024" lon="11.5125952"><ele>471.00000000000006</ele><time>2026-04-25T10:24:15.741Z</time></trkpt><trkpt lat="43.8038666" lon="11.5125012"><ele>471.00000000000006</ele><time>2026-04-25T10:24:16.743Z</time></trkpt><trkpt lat="43.8038256" lon="11.5124027"><ele>469.6666666666667</ele><time>2026-04-25T10:24:17.742Z</time></trkpt><trkpt lat="43.8037887" lon="11.5123021"><ele>468.33333333333337</ele><time>2026-04-25T10:24:18.741Z</time></trkpt><trkpt lat="43.8037632" lon="11.5122055"><ele>467.0</ele><time>2026-04-25T10:24:19.741Z</time></trkpt><trkpt lat="43.8037493" lon="11.5121175"><ele>465.6666666666667</ele><time>2026-04-25T10:24:20.741Z</time></trkpt><trkpt lat="43.8037797" lon="11.5119671"><ele>464.33333333333337</ele><time>2026-04-25T10:24:22.741Z</time></trkpt><trkpt lat="43.8038581" lon="11.511858"><ele>463.0</ele><time>2026-04-25T10:24:24.742Z</time></trkpt><trkpt lat="43.8039333" lon="11.5117748"><ele>460.83333333333337</ele><time>2026-04-25T10:24:26.742Z</time></trkpt><trkpt lat="43.8039957" lon="11.5117248"><ele>458.6666666666667</ele><time>2026-04-25T10:24:28.741Z</time></trkpt><trkpt lat="43.8040921" lon="11.5116666"><ele>456.5</ele><time>2026-04-25T10:24:55.741Z</time></trkpt><trkpt lat="43.8041612" lon="11.5116421"><ele>454.33333333333337</ele><time>2026-04-25T10:24:57.741Z</time></trkpt><trkpt lat="43.8040631" lon="11.5116501"><ele>452.1666666666667</ele><time>2026-04-25T10:25:03.741Z</time></trkpt><trkpt lat="43.8039798" lon="11.5117091"><ele>450.0</ele><time>2026-04-25T10:25:05.741Z</time></trkpt><trkpt lat="43.8039088" lon="11.5117619"><ele>450.0</ele><time>2026-04-25T10:25:07.742Z</time></trkpt><trkpt lat="43.8040124" lon="11.5117065"><ele>450.0</ele><time>2026-04-25T10:25:22.742Z</time></trkpt><trkpt lat="43.8041049" lon="11.5116439"><ele>450.0</ele><time>2026-04-25T10:25:24.742Z</time></trkpt><trkpt lat="43.804118" lon="11.511508"><ele>450.0</ele><time>2026-04-25T10:25:27.743Z</time></trkpt><trkpt lat="43.8040644" lon="11.5113851"><ele>450.0</ele><time>2026-04-25T10:25:29.741Z</time></trkpt><trkpt lat="43.8040395" lon="11.511278"><ele>450.0</ele><time>2026-04-25T10:25:31.741Z</time></trkpt><trkpt lat="43.8039543" lon="11.5112362"><ele>450.0</ele><time>2026-04-25T10:25:34.741Z</time></trkpt><trkpt lat="43.803842" lon="11.5112764"><ele>450.0</ele><time>2026-04-25T10:25:36.741Z</time></trkpt><trkpt lat="43.8037262" lon="11.511311"><ele>450.0</ele><time>2026-04-25T10:25:38.741Z</time></trkpt><trkpt lat="43.803635" lon="11.5113315"><ele>450.0</ele><time>2026-04-25T10:25:40.741Z</time></trkpt><trkpt lat="43.8035679" lon="11.511343"><ele>447.3333333333333</ele><time>2026-04-25T10:25:43.742Z</time></trkpt><trkpt lat="43.8035661" lon="11.5112271"><ele>444.66666666666663</ele><time>2026-04-25T10:25:47.742Z</time></trkpt><trkpt lat="43.8036414" lon="11.5111241"><ele>442.0</ele><time>2026-04-25T10:25:49.741Z</time></trkpt><trkpt lat="43.8036945" lon="11.5110574"><ele>439.3333333333333</ele><time>2026-04-25T10:25:50.741Z</time></trkpt><trkpt lat="43.8037448" lon="11.5109885"><ele>436.66666666666663</ele><time>2026-04-25T10:25:51.743Z</time></trkpt><trkpt lat="43.8037932" lon="11.5109136"><ele>434.0</ele><time>2026-04-25T10:25:52.741Z</time></trkpt><trkpt lat="43.8038381" lon="11.5108365"><ele>433.99999999999994</ele><time>2026-04-25T10:25:53.742Z</time></trkpt><trkpt lat="43.8038901" lon="11.5107648"><ele>434.0</ele><time>2026-04-25T10:25:54.742Z</time></trkpt><trkpt lat="43.8039421" lon="11.5106915"><ele>434.0</ele><time>2026-04-25T10:25:55.741Z</time></trkpt><trkpt lat="43.8039928" lon="11.510636"><ele>434.0</ele><time>2026-04-25T10:25:56.741Z</time></trkpt><trkpt lat="43.804091" lon="11.5105125"><ele>433.99999999999994</ele><time>2026-04-25T10:25:58.742Z</time></trkpt><trkpt lat="43.8041431" lon="11.5104417"><ele>434.0</ele><time>2026-04-25T10:25:59.741Z</time></trkpt><trkpt lat="43.8041966" lon="11.5103779"><ele>433.4</ele><time>2026-04-25T10:26:00.742Z</time></trkpt><trkpt lat="43.8042892" lon="11.5102755"><ele>432.79999999999995</ele><time>2026-04-25T10:26:02.741Z</time></trkpt><trkpt lat="43.8043838" lon="11.5101885"><ele>432.20000000000005</ele><time>2026-04-25T10:26:04.741Z</time></trkpt><trkpt lat="43.8044805" lon="11.5100996"><ele>431.6</ele><time>2026-04-25T10:26:06.741Z</time></trkpt><trkpt lat="43.804539" lon="11.5100599"><ele>431.0</ele><time>2026-04-25T10:26:07.741Z</time></trkpt><trkpt lat="43.80461" lon="11.5100255"><ele>430.99999999999994</ele><time>2026-04-25T10:26:08.741Z</time></trkpt><trkpt lat="43.8046901" lon="11.509994"><ele>431.0</ele><time>2026-04-25T10:26:09.741Z</time></trkpt><trkpt lat="43.8047674" lon="11.5099636"><ele>431.0</ele><time>2026-04-25T10:26:10.742Z</time></trkpt><trkpt lat="43.8048485" lon="11.50995"><ele>431.0</ele><time>2026-04-25T10:26:11.742Z</time></trkpt><trkpt lat="43.8049208" lon="11.5099189"><ele>430.99999999999994</ele><time>2026-04-25T10:26:12.741Z</time></trkpt><trkpt lat="43.8049846" lon="11.5098835"><ele>431.0</ele><time>2026-04-25T10:26:13.741Z</time></trkpt><trkpt lat="43.8050685" lon="11.5098333"><ele>430.99999999999994</ele><time>2026-04-25T10:26:15.741Z</time></trkpt><trkpt lat="43.80516" lon="11.5098126"><ele>431.0</ele><time>2026-04-25T10:26:34.742Z</time></trkpt><trkpt lat="43.805222" lon="11.5097886"><ele>431.0</ele><time>2026-04-25T10:26:35.741Z</time></trkpt><trkpt lat="43.8052936" lon="11.5097635"><ele>431.0</ele><time>2026-04-25T10:26:36.742Z</time></trkpt><trkpt lat="43.8053782" lon="11.5097411"><ele>430.99999999999994</ele><time>2026-04-25T10:26:37.741Z</time></trkpt><trkpt lat="43.8054615" lon="11.509714"><ele>431.0</ele><time>2026-04-25T10:26:38.741Z</time></trkpt><trkpt lat="43.8055502" lon="11.5096967"><ele>432.99999999999994</ele><time>2026-04-25T10:26:39.742Z</time></trkpt><trkpt lat="43.8056325" lon="11.5096623"><ele>435.0</ele><time>2026-04-25T10:26:40.742Z</time></trkpt><trkpt lat="43.8057191" lon="11.5096485"><ele>437.0</ele><time>2026-04-25T10:26:41.741Z</time></trkpt><trkpt lat="43.8058004" lon="11.5096375"><ele>439.0</ele><time>2026-04-25T10:26:42.741Z</time></trkpt><trkpt lat="43.8058747" lon="11.5096285"><ele>440.99999999999994</ele><time>2026-04-25T10:26:43.742Z</time></trkpt><trkpt lat="43.8059511" lon="11.5096187"><ele>443.0</ele><time>2026-04-25T10:26:44.741Z</time></trkpt><trkpt lat="43.8060226" lon="11.5096301"><ele>442.57142857142856</ele><time>2026-04-25T10:26:45.742Z</time></trkpt><trkpt lat="43.806096" lon="11.5096173"><ele>442.14285714285717</ele><time>2026-04-25T10:26:46.742Z</time></trkpt><trkpt lat="43.8061656" lon="11.5095909"><ele>441.71428571428567</ele><time>2026-04-25T10:26:47.741Z</time></trkpt><trkpt lat="43.8062313" lon="11.5095571"><ele>441.2857142857143</ele><time>2026-04-25T10:26:48.743Z</time></trkpt><trkpt lat="43.8062862" lon="11.5094889"><ele>440.85714285714283</ele><time>2026-04-25T10:26:49.741Z</time></trkpt><trkpt lat="43.8063358" lon="11.5094251"><ele>440.4285714285714</ele><time>2026-04-25T10:26:50.741Z</time></trkpt><trkpt lat="43.8063942" lon="11.5093718"><ele>440.0</ele><time>2026-04-25T10:26:51.741Z</time></trkpt><trkpt lat="43.8064528" lon="11.5092927"><ele>440.0</ele><time>2026-04-25T10:26:52.741Z</time></trkpt><trkpt lat="43.8065124" lon="11.5092215"><ele>440.0</ele><time>2026-04-25T10:26:53.743Z</time></trkpt><trkpt lat="43.8065584" lon="11.5091613"><ele>440.0</ele><time>2026-04-25T10:26:54.741Z</time></trkpt><trkpt lat="43.8066387" lon="11.5090443"><ele>440.0</ele><time>2026-04-25T10:26:56.742Z</time></trkpt><trkpt lat="43.8067313" lon="11.5089394"><ele>440.0</ele><time>2026-04-25T10:26:58.741Z</time></trkpt><trkpt lat="43.8068026" lon="11.5088364"><ele>439.3333333333333</ele><time>2026-04-25T10:27:00.741Z</time></trkpt><trkpt lat="43.8068543" lon="11.5087352"><ele>438.66666666666663</ele><time>2026-04-25T10:27:02.741Z</time></trkpt><trkpt lat="43.8069155" lon="11.508784"><ele>438.0</ele><time>2026-04-25T10:27:04.743Z</time></trkpt><trkpt lat="43.8070001" lon="11.5088571"><ele>437.33333333333337</ele><time>2026-04-25T10:27:06.742Z</time></trkpt><trkpt lat="43.8070706" lon="11.508868"><ele>436.6666666666667</ele><time>2026-04-25T10:27:08.742Z</time></trkpt><trkpt lat="43.8071189" lon="11.5087916"><ele>436.0</ele><time>2026-04-25T10:27:11.742Z</time></trkpt><trkpt lat="43.8071436" lon="11.5086888"><ele>436.00000000000006</ele><time>2026-04-25T10:27:14.741Z</time></trkpt><trkpt lat="43.8071536" lon="11.508561"><ele>436.0</ele><time>2026-04-25T10:27:17.742Z</time></trkpt><trkpt lat="43.8072141" lon="11.5084782"><ele>436.0</ele><time>2026-04-25T10:27:20.74Z</time></trkpt><trkpt lat="43.8072829" lon="11.5085313"><ele>436.0</ele><time>2026-04-25T10:27:22.74Z</time></trkpt><trkpt lat="43.8073514" lon="11.5085586"><ele>436.00000000000006</ele><time>2026-04-25T10:27:24.74Z</time></trkpt><trkpt lat="43.8074262" lon="11.5085424"><ele>436.0</ele><time>2026-04-25T10:27:26.74Z</time></trkpt><trkpt lat="43.8074941" lon="11.5085099"><ele>436.00000000000006</ele><time>2026-04-25T10:27:28.74Z</time></trkpt><trkpt lat="43.8075627" lon="11.5084835"><ele>436.0</ele><time>2026-04-25T10:27:30.74Z</time></trkpt><trkpt lat="43.8076339" lon="11.5085126"><ele>436.0</ele><time>2026-04-25T10:27:32.741Z</time></trkpt><trkpt lat="43.8076802" lon="11.5085774"><ele>436.0</ele><time>2026-04-25T10:27:34.741Z</time></trkpt><trkpt lat="43.8077403" lon="11.508671"><ele>436.00000000000006</ele><time>2026-04-25T10:27:36.741Z</time></trkpt><trkpt lat="43.807791" lon="11.5087902"><ele>436.0</ele><time>2026-04-25T10:27:38.74Z</time></trkpt><trkpt lat="43.807825" lon="11.5088707"><ele>437.20000000000005</ele><time>2026-04-25T10:27:58.741Z</time></trkpt><trkpt lat="43.8078713" lon="11.5089591"><ele>438.40000000000003</ele><time>2026-04-25T10:28:00.741Z</time></trkpt><trkpt lat="43.8079211" lon="11.509075"><ele>439.6</ele><time>2026-04-25T10:28:02.74Z</time></trkpt><trkpt lat="43.8079488" lon="11.5091799"><ele>440.8</ele><time>2026-04-25T10:28:04.74Z</time></trkpt><trkpt lat="43.8079781" lon="11.509277"><ele>442.0</ele><time>2026-04-25T10:28:06.74Z</time></trkpt><trkpt lat="43.8080589" lon="11.5094166"><ele>442.0</ele><time>2026-04-25T10:28:08.74Z</time></trkpt><trkpt lat="43.8081611" lon="11.5094939"><ele>442.0</ele><time>2026-04-25T10:28:10.74Z</time></trkpt><trkpt lat="43.8082325" lon="11.5096031"><ele>442.0</ele><time>2026-04-25T10:28:12.74Z</time></trkpt><trkpt lat="43.8083219" lon="11.509716"><ele>442.0</ele><time>2026-04-25T10:28:14.74Z</time></trkpt><trkpt lat="43.8083916" lon="11.5098533"><ele>442.0</ele><time>2026-04-25T10:28:16.741Z</time></trkpt><trkpt lat="43.8084531" lon="11.5099847"><ele>442.00000000000006</ele><time>2026-04-25T10:28:18.741Z</time></trkpt><trkpt lat="43.8084838" lon="11.5100669"><ele>442.00000000000006</ele><time>2026-04-25T10:28:19.74Z</time></trkpt><trkpt lat="43.8085423" lon="11.5102048"><ele>442.0</ele><time>2026-04-25T10:28:21.74Z</time></trkpt><trkpt lat="43.8085852" lon="11.5102995"><ele>442.0</ele><time>2026-04-25T10:28:23.741Z</time></trkpt><trkpt lat="43.8086224" lon="11.5104295"><ele>446.6</ele><time>2026-04-25T10:28:25.742Z</time></trkpt><trkpt lat="43.8086621" lon="11.510546"><ele>451.20000000000005</ele><time>2026-04-25T10:28:27.74Z</time></trkpt><trkpt lat="43.8086958" lon="11.5106214"><ele>455.8</ele><time>2026-04-25T10:28:28.74Z</time></trkpt><trkpt lat="43.8086784" lon="11.5107411"><ele>460.4</ele><time>2026-04-25T10:28:30.741Z</time></trkpt><trkpt lat="43.8086331" lon="11.5109068"><ele>465.0</ele><time>2026-04-25T10:28:32.741Z</time></trkpt><trkpt lat="43.8086005" lon="11.5110566"><ele>465.0</ele><time>2026-04-25T10:28:34.74Z</time></trkpt><trkpt lat="43.8085821" lon="11.5111503"><ele>465.0</ele><time>2026-04-25T10:28:35.74Z</time></trkpt><trkpt lat="43.8085505" lon="11.5113117"><ele>465.0</ele><time>2026-04-25T10:28:37.74Z</time></trkpt><trkpt lat="43.8085309" lon="11.5114624"><ele>465.0</ele><time>2026-04-25T10:28:39.74Z</time></trkpt><trkpt lat="43.808535" lon="11.5115689"><ele>465.0</ele><time>2026-04-25T10:28:41.741Z</time></trkpt><trkpt lat="43.8085632" lon="11.5117216"><ele>467.3333333333333</ele><time>2026-04-25T10:28:43.74Z</time></trkpt><trkpt lat="43.8086387" lon="11.5118561"><ele>469.66666666666663</ele><time>2026-04-25T10:28:45.741Z</time></trkpt><trkpt lat="43.8086928" lon="11.5119962"><ele>472.0</ele><time>2026-04-25T10:28:47.74Z</time></trkpt><trkpt lat="43.8087087" lon="11.5120818"><ele>474.3333333333333</ele><time>2026-04-25T10:28:48.742Z</time></trkpt><trkpt lat="43.8087256" lon="11.5121767"><ele>476.66666666666663</ele><time>2026-04-25T10:28:49.74Z</time></trkpt><trkpt lat="43.8087368" lon="11.5122735"><ele>479.0</ele><time>2026-04-25T10:28:50.741Z</time></trkpt><trkpt lat="43.8087734" lon="11.5124447"><ele>480.79999999999995</ele><time>2026-04-25T10:28:52.742Z</time></trkpt><trkpt lat="43.8087849" lon="11.5125824"><ele>482.59999999999997</ele><time>2026-04-25T10:28:54.74Z</time></trkpt><trkpt lat="43.8087063" lon="11.5126396"><ele>484.4</ele><time>2026-04-25T10:29:14.74Z</time></trkpt><trkpt lat="43.8085936" lon="11.5126936"><ele>486.2</ele><time>2026-04-25T10:29:16.741Z</time></trkpt><trkpt lat="43.8085279" lon="11.5127322"><ele>488.0</ele><time>2026-04-25T10:29:17.74Z</time></trkpt><trkpt lat="43.8084304" lon="11.5127817"><ele>488.79999999999995</ele><time>2026-04-25T10:29:19.74Z</time></trkpt><trkpt lat="43.8083196" lon="11.5127764"><ele>489.59999999999997</ele><time>2026-04-25T10:29:21.741Z</time></trkpt><trkpt lat="43.8082047" lon="11.5127973"><ele>490.40000000000003</ele><time>2026-04-25T10:29:23.741Z</time></trkpt><trkpt lat="43.8080995" lon="11.5128084"><ele>491.20000000000005</ele><time>2026-04-25T10:29:25.741Z</time></trkpt><trkpt lat="43.8079985" lon="11.5128133"><ele>492.0</ele><time>2026-04-25T10:29:27.742Z</time></trkpt><trkpt lat="43.8078943" lon="11.512798"><ele>492.0</ele><time>2026-04-25T10:29:29.741Z</time></trkpt><trkpt lat="43.8078028" lon="11.5128104"><ele>492.00000000000006</ele><time>2026-04-25T10:29:33.741Z</time></trkpt><trkpt lat="43.8077176" lon="11.5128314"><ele>492.00000000000006</ele><time>2026-04-25T10:29:35.74Z</time></trkpt><trkpt lat="43.8076221" lon="11.5128561"><ele>492.0</ele><time>2026-04-25T10:29:37.741Z</time></trkpt><trkpt lat="43.8075106" lon="11.5128671"><ele>492.0</ele><time>2026-04-25T10:29:39.74Z</time></trkpt><trkpt lat="43.8074065" lon="11.512848"><ele>492.8</ele><time>2026-04-25T10:29:41.74Z</time></trkpt><trkpt lat="43.807315" lon="11.5128142"><ele>493.6</ele><time>2026-04-25T10:29:43.741Z</time></trkpt><trkpt lat="43.8072032" lon="11.5127434"><ele>494.40000000000003</ele><time>2026-04-25T10:29:45.741Z</time></trkpt><trkpt lat="43.8071417" lon="11.5127141"><ele>495.20000000000005</ele><time>2026-04-25T10:29:46.74Z</time></trkpt><trkpt lat="43.8070359" lon="11.5126527"><ele>496.0</ele><time>2026-04-25T10:29:48.741Z</time></trkpt><trkpt lat="43.8069305" lon="11.5126521"><ele>498.0</ele><time>2026-04-25T10:29:50.741Z</time></trkpt><trkpt lat="43.8068177" lon="11.5126618"><ele>500.0</ele><time>2026-04-25T10:29:52.742Z</time></trkpt><trkpt lat="43.8067207" lon="11.5127607"><ele>502.0</ele><time>2026-04-25T10:29:54.74Z</time></trkpt><trkpt lat="43.8065907" lon="11.5128273"><ele>504.0</ele><time>2026-04-25T10:29:56.74Z</time></trkpt><trkpt lat="43.8065262" lon="11.5128594"><ele>506.0</ele><time>2026-04-25T10:29:57.741Z</time></trkpt><trkpt lat="43.8064619" lon="11.5128878"><ele>509.0</ele><time>2026-04-25T10:29:58.74Z</time></trkpt><trkpt lat="43.8063708" lon="11.5129406"><ele>512.0</ele><time>2026-04-25T10:30:00.74Z</time></trkpt><trkpt lat="43.8063186" lon="11.5130284"><ele>515.0</ele><time>2026-04-25T10:30:02.741Z</time></trkpt><trkpt lat="43.8062973" lon="11.513163"><ele>518.0</ele><time>2026-04-25T10:30:04.741Z</time></trkpt><trkpt lat="43.8063007" lon="11.5133336"><ele>521.0</ele><time>2026-04-25T10:30:06.741Z</time></trkpt><trkpt lat="43.8062959" lon="11.5134666"><ele>521.0</ele><time>2026-04-25T10:30:08.74Z</time></trkpt><trkpt lat="43.8062904" lon="11.5136348"><ele>521.0</ele><time>2026-04-25T10:30:10.74Z</time></trkpt><trkpt lat="43.8062891" lon="11.5138087"><ele>521.0</ele><time>2026-04-25T10:30:12.74Z</time></trkpt><trkpt lat="43.8062861" lon="11.5139395"><ele>521.0</ele><time>2026-04-25T10:30:14.742Z</time></trkpt><trkpt lat="43.8062861" lon="11.5140646"><ele>521.0</ele><time>2026-04-25T10:30:17.741Z</time></trkpt><trkpt lat="43.8062784" lon="11.5141841"><ele>521.8571428571429</ele><time>2026-04-25T10:30:19.741Z</time></trkpt><trkpt lat="43.8062686" lon="11.5142726"><ele>522.7142857142858</ele><time>2026-04-25T10:30:20.74Z</time></trkpt><trkpt lat="43.806253" lon="11.5143665"><ele>523.5714285714287</ele><time>2026-04-25T10:30:21.74Z</time></trkpt><trkpt lat="43.8062362" lon="11.5144653"><ele>524.4285714285714</ele><time>2026-04-25T10:30:22.74Z</time></trkpt><trkpt lat="43.8062183" lon="11.5145697"><ele>525.2857142857143</ele><time>2026-04-25T10:30:23.74Z</time></trkpt><trkpt lat="43.8062024" lon="11.5146752"><ele>526.1428571428572</ele><time>2026-04-25T10:30:24.74Z</time></trkpt><trkpt lat="43.8061865" lon="11.5147743"><ele>527.0</ele><time>2026-04-25T10:30:25.741Z</time></trkpt><trkpt lat="43.8061722" lon="11.5148796"><ele>527.8000000000001</ele><time>2026-04-25T10:30:26.74Z</time></trkpt><trkpt lat="43.8061576" lon="11.5149772"><ele>528.6</ele><time>2026-04-25T10:30:27.74Z</time></trkpt><trkpt lat="43.8061591" lon="11.5151472"><ele>529.4000000000001</ele><time>2026-04-25T10:30:29.74Z</time></trkpt><trkpt lat="43.8061507" lon="11.5152557"><ele>530.2</ele><time>2026-04-25T10:30:30.741Z</time></trkpt><trkpt lat="43.8061342" lon="11.5153743"><ele>531.0</ele><time>2026-04-25T10:30:31.74Z</time></trkpt><trkpt lat="43.8061216" lon="11.5154972"><ele>531.1666666666666</ele><time>2026-04-25T10:30:32.74Z</time></trkpt><trkpt lat="43.8060996" lon="11.5155941"><ele>531.3333333333334</ele><time>2026-04-25T10:30:33.74Z</time></trkpt><trkpt lat="43.8060643" lon="11.5157043"><ele>531.5</ele><time>2026-04-25T10:30:34.74Z</time></trkpt><trkpt lat="43.8060419" lon="11.5158277"><ele>531.6666666666667</ele><time>2026-04-25T10:30:35.741Z</time></trkpt><trkpt lat="43.8060151" lon="11.5159499"><ele>531.8333333333334</ele><time>2026-04-25T10:30:36.74Z</time></trkpt><trkpt lat="43.8059873" lon="11.5160442"><ele>532.0</ele><time>2026-04-25T10:30:37.74Z</time></trkpt><trkpt lat="43.8059623" lon="11.5161371"><ele>533.6666666666667</ele><time>2026-04-25T10:30:38.742Z</time></trkpt><trkpt lat="43.8059251" lon="11.5162396"><ele>535.3333333333334</ele><time>2026-04-25T10:30:39.74Z</time></trkpt><trkpt lat="43.8058812" lon="11.5163352"><ele>537.0</ele><time>2026-04-25T10:30:40.741Z</time></trkpt><trkpt lat="43.8058466" lon="11.5164246"><ele>538.6666666666666</ele><time>2026-04-25T10:30:41.74Z</time></trkpt><trkpt lat="43.8058075" lon="11.5165116"><ele>540.3333333333333</ele><time>2026-04-25T10:30:42.741Z</time></trkpt><trkpt lat="43.8057776" lon="11.516591"><ele>542.0</ele><time>2026-04-25T10:30:43.741Z</time></trkpt><trkpt lat="43.8057501" lon="11.5167304"><ele>542.0</ele><time>2026-04-25T10:30:45.741Z</time></trkpt><trkpt lat="43.8057676" lon="11.5168952"><ele>542.0</ele><time>2026-04-25T10:30:47.74Z</time></trkpt><trkpt lat="43.8057829" lon="11.5170006"><ele>542.0</ele><time>2026-04-25T10:30:48.74Z</time></trkpt><trkpt lat="43.8057941" lon="11.517098"><ele>542.0</ele><time>2026-04-25T10:30:49.741Z</time></trkpt><trkpt lat="43.8057998" lon="11.5172041"><ele>542.0</ele><time>2026-04-25T10:30:50.74Z</time></trkpt><trkpt lat="43.805769" lon="11.5172943"><ele>542.0</ele><time>2026-04-25T10:30:51.74Z</time></trkpt><trkpt lat="43.8057508" lon="11.5173996"><ele>544.1666666666666</ele><time>2026-04-25T10:30:52.74Z</time></trkpt><trkpt lat="43.8057195" lon="11.5174934"><ele>546.3333333333333</ele><time>2026-04-25T10:30:53.74Z</time></trkpt><trkpt lat="43.8056959" lon="11.5175995"><ele>548.5</ele><time>2026-04-25T10:30:54.741Z</time></trkpt><trkpt lat="43.8056757" lon="11.5177195"><ele>550.6666666666666</ele><time>2026-04-25T10:30:55.74Z</time></trkpt><trkpt lat="43.8056526" lon="11.5178163"><ele>552.8333333333334</ele><time>2026-04-25T10:30:56.741Z</time></trkpt><trkpt lat="43.8056455" lon="11.5179375"><ele>555.0</ele><time>2026-04-25T10:30:57.741Z</time></trkpt><trkpt lat="43.8056462" lon="11.518047"><ele>557.8</ele><time>2026-04-25T10:30:58.74Z</time></trkpt><trkpt lat="43.8056586" lon="11.5182317"><ele>560.6</ele><time>2026-04-25T10:31:00.741Z</time></trkpt><trkpt lat="43.8055877" lon="11.5183965"><ele>563.4</ele><time>2026-04-25T10:31:02.741Z</time></trkpt><trkpt lat="43.805536" lon="11.5184903"><ele>566.2</ele><time>2026-04-25T10:31:03.741Z</time></trkpt><trkpt lat="43.8054864" lon="11.5185747"><ele>569.0</ele><time>2026-04-25T10:31:04.742Z</time></trkpt><trkpt lat="43.8054244" lon="11.5186558"><ele>567.3333333333333</ele><time>2026-04-25T10:31:05.74Z</time></trkpt><trkpt lat="43.8053585" lon="11.5187406"><ele>565.6666666666666</ele><time>2026-04-25T10:31:06.74Z</time></trkpt><trkpt lat="43.8052952" lon="11.5188324"><ele>564.0</ele><time>2026-04-25T10:31:07.74Z</time></trkpt><trkpt lat="43.8052616" lon="11.5189319"><ele>562.3333333333334</ele><time>2026-04-25T10:31:08.741Z</time></trkpt><trkpt lat="43.805226" lon="11.5190579"><ele>560.6666666666667</ele><time>2026-04-25T10:31:09.741Z</time></trkpt><trkpt lat="43.8051936" lon="11.5191721"><ele>559.0</ele><time>2026-04-25T10:31:10.74Z</time></trkpt><trkpt lat="43.8051598" lon="11.5192715"><ele>559.0</ele><time>2026-04-25T10:31:11.74Z</time></trkpt><trkpt lat="43.8051577" lon="11.5193702"><ele>559.0</ele><time>2026-04-25T10:31:12.74Z</time></trkpt><trkpt lat="43.8051607" lon="11.5194761"><ele>559.0</ele><time>2026-04-25T10:31:13.742Z</time></trkpt><trkpt lat="43.8051659" lon="11.5195674"><ele>559.0</ele><time>2026-04-25T10:31:14.741Z</time></trkpt><trkpt lat="43.805149" lon="11.519729"><ele>559.0</ele><time>2026-04-25T10:31:16.741Z</time></trkpt><trkpt lat="43.8050678" lon="11.5198326"><ele>559.0</ele><time>2026-04-25T10:31:18.741Z</time></trkpt><trkpt lat="43.8050084" lon="11.5198913"><ele>560.5</ele><time>2026-04-25T10:31:19.74Z</time></trkpt><trkpt lat="43.8049435" lon="11.5199418"><ele>562.0</ele><time>2026-04-25T10:31:20.741Z</time></trkpt><trkpt lat="43.804828" lon="11.5200143"><ele>563.5</ele><time>2026-04-25T10:31:22.74Z</time></trkpt><trkpt lat="43.8047609" lon="11.5200539"><ele>565.0</ele><time>2026-04-25T10:31:23.741Z</time></trkpt><trkpt lat="43.8046819" lon="11.5201515"><ele>566.5</ele><time>2026-04-25T10:31:25.741Z</time></trkpt><trkpt lat="43.8046732" lon="11.5202388"><ele>568.0</ele><time>2026-04-25T10:31:27.74Z</time></trkpt><trkpt lat="43.8046893" lon="11.5203325"><ele>568.4</ele><time>2026-04-25T10:31:34.741Z</time></trkpt><trkpt lat="43.8047404" lon="11.5205104"><ele>568.8</ele><time>2026-04-25T10:31:36.742Z</time></trkpt><trkpt lat="43.8047726" lon="11.5206319"><ele>569.2</ele><time>2026-04-25T10:31:37.74Z</time></trkpt><trkpt lat="43.8048005" lon="11.520759"><ele>569.6</ele><time>2026-04-25T10:31:38.74Z</time></trkpt><trkpt lat="43.8048335" lon="11.5208904"><ele>570.0</ele><time>2026-04-25T10:31:39.74Z</time></trkpt><trkpt lat="43.8048633" lon="11.5210219"><ele>570.0</ele><time>2026-04-25T10:31:40.74Z</time></trkpt><trkpt lat="43.804895" lon="11.5211471"><ele>570.0</ele><time>2026-04-25T10:31:41.741Z</time></trkpt><trkpt lat="43.804927" lon="11.5212714"><ele>570.0</ele><time>2026-04-25T10:31:42.74Z</time></trkpt><trkpt lat="43.8049583" lon="11.5213927"><ele>570.0</ele><time>2026-04-25T10:31:43.741Z</time></trkpt><trkpt lat="43.8049904" lon="11.5215252"><ele>570.0</ele><time>2026-04-25T10:31:44.741Z</time></trkpt><trkpt lat="43.805027" lon="11.5216443"><ele>570.0</ele><time>2026-04-25T10:31:45.74Z</time></trkpt><trkpt lat="43.8050571" lon="11.5217498"><ele>570.0</ele><time>2026-04-25T10:31:46.741Z</time></trkpt><trkpt lat="43.8050871" lon="11.5218576"><ele>570.0</ele><time>2026-04-25T10:31:47.74Z</time></trkpt><trkpt lat="43.8051228" lon="11.5219837"><ele>570.0</ele><time>2026-04-25T10:31:48.741Z</time></trkpt><trkpt lat="43.8051551" lon="11.5221127"><ele>570.0</ele><time>2026-04-25T10:31:49.74Z</time></trkpt><trkpt lat="43.8051776" lon="11.5222185"><ele>570.0</ele><time>2026-04-25T10:31:50.741Z</time></trkpt><trkpt lat="43.8051986" lon="11.5223116"><ele>570.5</ele><time>2026-04-25T10:31:51.742Z</time></trkpt><trkpt lat="43.8052127" lon="11.5224754"><ele>571.0</ele><time>2026-04-25T10:31:53.74Z</time></trkpt><trkpt lat="43.8051747" lon="11.522633"><ele>571.5</ele><time>2026-04-25T10:31:55.74Z</time></trkpt><trkpt lat="43.8051421" lon="11.5227091"><ele>572.0</ele><time>2026-04-25T10:31:56.74Z</time></trkpt><trkpt lat="43.8050824" lon="11.5227697"><ele>572.5</ele><time>2026-04-25T10:31:57.74Z</time></trkpt><trkpt lat="43.8050279" lon="11.5228278"><ele>573.0</ele><time>2026-04-25T10:31:58.74Z</time></trkpt><trkpt lat="43.8049618" lon="11.5229108"><ele>571.4</ele><time>2026-04-25T10:32:00.74Z</time></trkpt><trkpt lat="43.8049025" lon="11.522978"><ele>569.8</ele><time>2026-04-25T10:32:05.74Z</time></trkpt><trkpt lat="43.8048452" lon="11.5230264"><ele>568.2</ele><time>2026-04-25T10:32:06.74Z</time></trkpt><trkpt lat="43.8047231" lon="11.5231533"><ele>566.6</ele><time>2026-04-25T10:32:08.74Z</time></trkpt><trkpt lat="43.80465" lon="11.523219"><ele>565.0</ele><time>2026-04-25T10:32:09.741Z</time></trkpt><trkpt lat="43.8045629" lon="11.5232724"><ele>565.0</ele><time>2026-04-25T10:32:10.74Z</time></trkpt><trkpt lat="43.8044902" lon="11.523324"><ele>565.0</ele><time>2026-04-25T10:32:11.74Z</time></trkpt><trkpt lat="43.8044252" lon="11.5233637"><ele>565.0</ele><time>2026-04-25T10:32:12.742Z</time></trkpt><trkpt lat="43.8043129" lon="11.523427"><ele>565.0</ele><time>2026-04-25T10:32:14.74Z</time></trkpt><trkpt lat="43.8042459" lon="11.5234547"><ele>565.0</ele><time>2026-04-25T10:32:15.741Z</time></trkpt><trkpt lat="43.8041821" lon="11.5234891"><ele>565.0</ele><time>2026-04-25T10:32:16.74Z</time></trkpt><trkpt lat="43.8041219" lon="11.5235317"><ele>566.0</ele><time>2026-04-25T10:32:17.74Z</time></trkpt><trkpt lat="43.8040617" lon="11.5235921"><ele>567.0</ele><time>2026-04-25T10:32:18.74Z</time></trkpt><trkpt lat="43.8040104" lon="11.5236437"><ele>568.0</ele><time>2026-04-25T10:32:19.741Z</time></trkpt><trkpt lat="43.8039664" lon="11.5237161"><ele>569.0</ele><time>2026-04-25T10:32:20.74Z</time></trkpt><trkpt lat="43.8038881" lon="11.5238279"><ele>570.0</ele><time>2026-04-25T10:32:22.74Z</time></trkpt><trkpt lat="43.8037873" lon="11.5238904"><ele>571.0</ele><time>2026-04-25T10:32:24.74Z</time></trkpt><trkpt lat="43.8037201" lon="11.5239049"><ele>571.0</ele><time>2026-04-25T10:32:25.741Z</time></trkpt><trkpt lat="43.8036519" lon="11.5239131"><ele>571.0</ele><time>2026-04-25T10:32:26.741Z</time></trkpt><trkpt lat="43.8035232" lon="11.5239446"><ele>571.0</ele><time>2026-04-25T10:32:28.741Z</time></trkpt><trkpt lat="43.8034597" lon="11.5239473"><ele>571.0</ele><time>2026-04-25T10:32:29.74Z</time></trkpt><trkpt lat="43.8033901" lon="11.5239473"><ele>571.0</ele><time>2026-04-25T10:32:30.741Z</time></trkpt><trkpt lat="43.8033159" lon="11.5239404"><ele>571.0</ele><time>2026-04-25T10:32:31.741Z</time></trkpt><trkpt lat="43.8032382" lon="11.5239388"><ele>574.6666666666667</ele><time>2026-04-25T10:32:32.742Z</time></trkpt><trkpt lat="43.8031479" lon="11.5239373"><ele>578.3333333333334</ele><time>2026-04-25T10:32:33.74Z</time></trkpt><trkpt lat="43.8030814" lon="11.5239512"><ele>582.0</ele><time>2026-04-25T10:32:34.741Z</time></trkpt><trkpt lat="43.802999" lon="11.5239705"><ele>585.6666666666666</ele><time>2026-04-25T10:32:35.74Z</time></trkpt><trkpt lat="43.8029346" lon="11.5240083"><ele>589.3333333333333</ele><time>2026-04-25T10:32:36.74Z</time></trkpt><trkpt lat="43.8028834" lon="11.5240625"><ele>593.0</ele><time>2026-04-25T10:32:37.74Z</time></trkpt><trkpt lat="43.8028306" lon="11.5241428"><ele>593.0</ele><time>2026-04-25T10:32:38.741Z</time></trkpt><trkpt lat="43.8027701" lon="11.524213"><ele>593.0</ele><time>2026-04-25T10:32:39.741Z</time></trkpt><trkpt lat="43.8027055" lon="11.5242981"><ele>593.0</ele><time>2026-04-25T10:32:40.74Z</time></trkpt><trkpt lat="43.8026324" lon="11.5243746"><ele>593.0</ele><time>2026-04-25T10:32:41.741Z</time></trkpt><trkpt lat="43.8025475" lon="11.524437"><ele>593.0</ele><time>2026-04-25T10:32:42.74Z</time></trkpt><trkpt lat="43.802498" lon="11.5245202"><ele>593.0</ele><time>2026-04-25T10:32:43.74Z</time></trkpt><trkpt lat="43.8024127" lon="11.5245475"><ele>594.6666666666666</ele><time>2026-04-25T10:32:44.74Z</time></trkpt><trkpt lat="43.8023524" lon="11.5245989"><ele>596.3333333333333</ele><time>2026-04-25T10:32:45.74Z</time></trkpt><trkpt lat="43.8022943" lon="11.5246567"><ele>598.0</ele><time>2026-04-25T10:32:46.74Z</time></trkpt><trkpt lat="43.8022356" lon="11.5247187"><ele>599.6666666666666</ele><time>2026-04-25T10:32:47.742Z</time></trkpt><trkpt lat="43.8021814" lon="11.524805"><ele>601.3333333333334</ele><time>2026-04-25T10:32:48.741Z</time></trkpt><trkpt lat="43.8021004" lon="11.5249442"><ele>603.0</ele><time>2026-04-25T10:32:50.74Z</time></trkpt><trkpt lat="43.8020618" lon="11.5250362"><ele>603.0</ele><time>2026-04-25T10:32:51.74Z</time></trkpt><trkpt lat="43.8020048" lon="11.5251307"><ele>603.0</ele><time>2026-04-25T10:32:52.741Z</time></trkpt><trkpt lat="43.8019282" lon="11.5252875"><ele>603.0</ele><time>2026-04-25T10:32:54.741Z</time></trkpt><trkpt lat="43.8018775" lon="11.5253733"><ele>603.0</ele><time>2026-04-25T10:32:55.74Z</time></trkpt><trkpt lat="43.8018269" lon="11.5254505"><ele>603.0</ele><time>2026-04-25T10:32:56.74Z</time></trkpt><trkpt lat="43.8017676" lon="11.5255245"><ele>603.8333333333334</ele><time>2026-04-25T10:32:57.74Z</time></trkpt><trkpt lat="43.8017128" lon="11.5255848"><ele>604.6666666666666</ele><time>2026-04-25T10:32:58.74Z</time></trkpt><trkpt lat="43.8016651" lon="11.525655"><ele>605.5</ele><time>2026-04-25T10:32:59.74Z</time></trkpt><trkpt lat="43.8015852" lon="11.525737"><ele>606.3333333333333</ele><time>2026-04-25T10:33:00.74Z</time></trkpt><trkpt lat="43.801518" lon="11.5258134"><ele>607.1666666666666</ele><time>2026-04-25T10:33:01.741Z</time></trkpt><trkpt lat="43.8014517" lon="11.5258918"><ele>608.0</ele><time>2026-04-25T10:33:02.74Z</time></trkpt><trkpt lat="43.8013746" lon="11.525959"><ele>608.0</ele><time>2026-04-25T10:33:03.74Z</time></trkpt><trkpt lat="43.8012932" lon="11.5260209"><ele>608.0</ele><time>2026-04-25T10:33:04.74Z</time></trkpt><trkpt lat="43.8012093" lon="11.5260719"><ele>608.0</ele><time>2026-04-25T10:33:05.741Z</time></trkpt><trkpt lat="43.8011315" lon="11.5261145"><ele>608.0</ele><time>2026-04-25T10:33:06.74Z</time></trkpt><trkpt lat="43.8010414" lon="11.5261455"><ele>608.0</ele><time>2026-04-25T10:33:07.74Z</time></trkpt><trkpt lat="43.8009448" lon="11.5261743"><ele>610.0</ele><time>2026-04-25T10:33:08.74Z</time></trkpt><trkpt lat="43.8008562" lon="11.526218"><ele>612.0</ele><time>2026-04-25T10:33:09.741Z</time></trkpt><trkpt lat="43.8007847" lon="11.5262517"><ele>614.0</ele><time>2026-04-25T10:33:10.742Z</time></trkpt><trkpt lat="43.8007143" lon="11.5262892"><ele>616.0</ele><time>2026-04-25T10:33:11.74Z</time></trkpt><trkpt lat="43.8006547" lon="11.5264402"><ele>618.0</ele><time>2026-04-25T10:33:13.741Z</time></trkpt><trkpt lat="43.8006109" lon="11.5265112"><ele>620.0</ele><time>2026-04-25T10:33:14.74Z</time></trkpt><trkpt lat="43.8005413" lon="11.5265738"><ele>620.1666666666666</ele><time>2026-04-25T10:33:15.741Z</time></trkpt><trkpt lat="43.8004666" lon="11.5266451"><ele>620.3333333333333</ele><time>2026-04-25T10:33:16.741Z</time></trkpt><trkpt lat="43.8003932" lon="11.5267037"><ele>620.5</ele><time>2026-04-25T10:33:17.741Z</time></trkpt><trkpt lat="43.800305" lon="11.5267502"><ele>620.6666666666666</ele><time>2026-04-25T10:33:18.74Z</time></trkpt><trkpt lat="43.8002391" lon="11.5267878"><ele>620.8333333333334</ele><time>2026-04-25T10:33:19.74Z</time></trkpt><trkpt lat="43.8001525" lon="11.5268226"><ele>621.0</ele><time>2026-04-25T10:33:20.74Z</time></trkpt><trkpt lat="43.8000572" lon="11.5268483"><ele>621.6666666666666</ele><time>2026-04-25T10:33:21.74Z</time></trkpt><trkpt lat="43.799978" lon="11.5268878"><ele>622.3333333333334</ele><time>2026-04-25T10:33:22.741Z</time></trkpt><trkpt lat="43.7998938" lon="11.5269382"><ele>623.0</ele><time>2026-04-25T10:33:23.74Z</time></trkpt><trkpt lat="43.7998055" lon="11.5269813"><ele>623.6666666666667</ele><time>2026-04-25T10:33:24.741Z</time></trkpt><trkpt lat="43.7997222" lon="11.5270124"><ele>624.3333333333334</ele><time>2026-04-25T10:33:25.74Z</time></trkpt><trkpt lat="43.7996349" lon="11.5270401"><ele>625.0</ele><time>2026-04-25T10:33:26.741Z</time></trkpt><trkpt lat="43.799558" lon="11.5270642"><ele>625.0</ele><time>2026-04-25T10:33:27.74Z</time></trkpt><trkpt lat="43.7994845" lon="11.5270905"><ele>625.0</ele><time>2026-04-25T10:33:28.74Z</time></trkpt><trkpt lat="43.7994172" lon="11.5271168"><ele>625.0</ele><time>2026-04-25T10:33:29.74Z</time></trkpt><trkpt lat="43.7993485" lon="11.5271814"><ele>625.0</ele><time>2026-04-25T10:33:30.741Z</time></trkpt><trkpt lat="43.7992908" lon="11.5272767"><ele>625.0</ele><time>2026-04-25T10:33:31.74Z</time></trkpt><trkpt lat="43.7992441" lon="11.5273794"><ele>625.0</ele><time>2026-04-25T10:33:32.74Z</time></trkpt><trkpt lat="43.7992052" lon="11.5274663"><ele>625.6666666666667</ele><time>2026-04-25T10:33:33.741Z</time></trkpt><trkpt lat="43.7991557" lon="11.5275429"><ele>626.3333333333334</ele><time>2026-04-25T10:33:34.741Z</time></trkpt><trkpt lat="43.7990742" lon="11.5276071"><ele>627.0</ele><time>2026-04-25T10:33:35.74Z</time></trkpt><trkpt lat="43.7990018" lon="11.5276906"><ele>627.6666666666666</ele><time>2026-04-25T10:33:36.741Z</time></trkpt><trkpt lat="43.798932" lon="11.5277733"><ele>628.3333333333333</ele><time>2026-04-25T10:33:37.74Z</time></trkpt><trkpt lat="43.7988776" lon="11.527877"><ele>629.0</ele><time>2026-04-25T10:33:38.741Z</time></trkpt><trkpt lat="43.7988437" lon="11.5279735"><ele>629.0</ele><time>2026-04-25T10:33:39.741Z</time></trkpt><trkpt lat="43.7987968" lon="11.528063"><ele>629.0</ele><time>2026-04-25T10:33:40.74Z</time></trkpt><trkpt lat="43.7987761" lon="11.5281811"><ele>629.0</ele><time>2026-04-25T10:33:41.74Z</time></trkpt><trkpt lat="43.7987482" lon="11.5282849"><ele>629.0</ele><time>2026-04-25T10:33:42.741Z</time></trkpt><trkpt lat="43.7987146" lon="11.5283884"><ele>629.0</ele><time>2026-04-25T10:33:43.742Z</time></trkpt><trkpt lat="43.7986967" lon="11.5284775"><ele>629.0</ele><time>2026-04-25T10:33:44.74Z</time></trkpt><trkpt lat="43.7986966" lon="11.5285972"><ele>629.0</ele><time>2026-04-25T10:33:45.74Z</time></trkpt><trkpt lat="43.7986903" lon="11.5287155"><ele>629.0</ele><time>2026-04-25T10:33:46.74Z</time></trkpt><trkpt lat="43.7987014" lon="11.5288438"><ele>629.0</ele><time>2026-04-25T10:33:47.74Z</time></trkpt><trkpt lat="43.7987454" lon="11.5289605"><ele>629.0</ele><time>2026-04-25T10:33:48.741Z</time></trkpt><trkpt lat="43.7987702" lon="11.5290844"><ele>629.0</ele><time>2026-04-25T10:33:49.74Z</time></trkpt><trkpt lat="43.7988159" lon="11.5292152"><ele>629.0</ele><time>2026-04-25T10:33:50.74Z</time></trkpt><trkpt lat="43.7988603" lon="11.5293343"><ele>629.0</ele><time>2026-04-25T10:33:51.741Z</time></trkpt><trkpt lat="43.798878" lon="11.5294343"><ele>629.0</ele><time>2026-04-25T10:33:52.741Z</time></trkpt><trkpt lat="43.7989044" lon="11.5295329"><ele>629.0</ele><time>2026-04-25T10:33:53.741Z</time></trkpt><trkpt lat="43.7989361" lon="11.5296431"><ele>629.0</ele><time>2026-04-25T10:33:54.741Z</time></trkpt><trkpt lat="43.7989505" lon="11.5297493"><ele>629.0</ele><time>2026-04-25T10:33:55.741Z</time></trkpt><trkpt lat="43.7989453" lon="11.529846"><ele>630.2</ele><time>2026-04-25T10:33:56.741Z</time></trkpt><trkpt lat="43.7989526" lon="11.52994"><ele>631.4</ele><time>2026-04-25T10:33:57.741Z</time></trkpt><trkpt lat="43.7989633" lon="11.5300989"><ele>632.6</ele><time>2026-04-25T10:33:59.74Z</time></trkpt><trkpt lat="43.7989872" lon="11.5302295"><ele>633.8</ele><time>2026-04-25T10:34:01.74Z</time></trkpt><trkpt lat="43.799015" lon="11.5303869"><ele>635.0</ele><time>2026-04-25T10:34:03.741Z</time></trkpt><trkpt lat="43.7990163" lon="11.5304824"><ele>636.3333333333333</ele><time>2026-04-25T10:34:04.741Z</time></trkpt><trkpt lat="43.7990101" lon="11.530595"><ele>637.6666666666666</ele><time>2026-04-25T10:34:05.741Z</time></trkpt><trkpt lat="43.7989994" lon="11.5307016"><ele>639.0</ele><time>2026-04-25T10:34:06.74Z</time></trkpt><trkpt lat="43.7989807" lon="11.5308291"><ele>640.3333333333334</ele><time>2026-04-25T10:34:07.742Z</time></trkpt><trkpt lat="43.7989828" lon="11.5309477"><ele>641.6666666666667</ele><time>2026-04-25T10:34:08.741Z</time></trkpt><trkpt lat="43.7989789" lon="11.5310545"><ele>643.0</ele><time>2026-04-25T10:34:09.741Z</time></trkpt><trkpt lat="43.7989546" lon="11.5311356"><ele>642.8333333333334</ele><time>2026-04-25T10:34:10.74Z</time></trkpt><trkpt lat="43.7989385" lon="11.5312401"><ele>642.6666666666667</ele><time>2026-04-25T10:34:11.74Z</time></trkpt><trkpt lat="43.7989097" lon="11.5313399"><ele>642.5</ele><time>2026-04-25T10:34:12.741Z</time></trkpt><trkpt lat="43.7988917" lon="11.5314567"><ele>642.3333333333334</ele><time>2026-04-25T10:34:13.74Z</time></trkpt><trkpt lat="43.7988741" lon="11.5315595"><ele>642.1666666666666</ele><time>2026-04-25T10:34:14.741Z</time></trkpt><trkpt lat="43.7988564" lon="11.5316483"><ele>642.0</ele><time>2026-04-25T10:34:15.741Z</time></trkpt><trkpt lat="43.7987875" lon="11.5318116"><ele>642.0</ele><time>2026-04-25T10:34:17.74Z</time></trkpt><trkpt lat="43.7987548" lon="11.5318905"><ele>642.0</ele><time>2026-04-25T10:34:18.74Z</time></trkpt><trkpt lat="43.7986983" lon="11.5319292"><ele>642.0</ele><time>2026-04-25T10:34:19.74Z</time></trkpt><trkpt lat="43.7985841" lon="11.5320087"><ele>642.0</ele><time>2026-04-25T10:34:21.74Z</time></trkpt><trkpt lat="43.7984916" lon="11.5320316"><ele>642.0</ele><time>2026-04-25T10:34:22.74Z</time></trkpt><trkpt lat="43.7984051" lon="11.5320652"><ele>642.0</ele><time>2026-04-25T10:34:23.74Z</time></trkpt><trkpt lat="43.7983385" lon="11.5321006"><ele>643.6666666666666</ele><time>2026-04-25T10:34:24.74Z</time></trkpt><trkpt lat="43.7982505" lon="11.5321481"><ele>645.3333333333334</ele><time>2026-04-25T10:34:25.741Z</time></trkpt><trkpt lat="43.7981702" lon="11.5321819"><ele>647.0</ele><time>2026-04-25T10:34:26.741Z</time></trkpt><trkpt lat="43.7980789" lon="11.5321858"><ele>648.6666666666667</ele><time>2026-04-25T10:34:27.74Z</time></trkpt><trkpt lat="43.7980006" lon="11.5322161"><ele>650.3333333333334</ele><time>2026-04-25T10:34:28.741Z</time></trkpt><trkpt lat="43.7979247" lon="11.5322397"><ele>652.0</ele><time>2026-04-25T10:34:29.739Z</time></trkpt><trkpt lat="43.797857" lon="11.5322922"><ele>652.0</ele><time>2026-04-25T10:34:30.74Z</time></trkpt><trkpt lat="43.7977897" lon="11.532349"><ele>652.0</ele><time>2026-04-25T10:34:31.74Z</time></trkpt><trkpt lat="43.797726" lon="11.5324106"><ele>652.0</ele><time>2026-04-25T10:34:32.74Z</time></trkpt><trkpt lat="43.7976779" lon="11.5324814"><ele>652.0</ele><time>2026-04-25T10:34:33.741Z</time></trkpt><trkpt lat="43.7976217" lon="11.5325555"><ele>652.0</ele><time>2026-04-25T10:34:34.74Z</time></trkpt><trkpt lat="43.7975632" lon="11.5326101"><ele>652.0</ele><time>2026-04-25T10:34:35.74Z</time></trkpt><trkpt lat="43.7974891" lon="11.5326817"><ele>654.6666666666667</ele><time>2026-04-25T10:34:36.74Z</time></trkpt><trkpt lat="43.797418" lon="11.5327477"><ele>657.3333333333334</ele><time>2026-04-25T10:34:37.741Z</time></trkpt><trkpt lat="43.7973449" lon="11.5328039"><ele>660.0</ele><time>2026-04-25T10:34:38.741Z</time></trkpt><trkpt lat="43.797274" lon="11.5328539"><ele>662.6666666666666</ele><time>2026-04-25T10:34:39.741Z</time></trkpt><trkpt lat="43.7971951" lon="11.5329072"><ele>665.3333333333333</ele><time>2026-04-25T10:34:40.74Z</time></trkpt><trkpt lat="43.7971311" lon="11.5329635"><ele>668.0</ele><time>2026-04-25T10:34:41.74Z</time></trkpt><trkpt lat="43.7970632" lon="11.5330388"><ele>668.0</ele><time>2026-04-25T10:34:42.741Z</time></trkpt><trkpt lat="43.7970053" lon="11.5331208"><ele>668.0</ele><time>2026-04-25T10:34:43.741Z</time></trkpt><trkpt lat="43.7969354" lon="11.5331963"><ele>668.0</ele><time>2026-04-25T10:34:44.74Z</time></trkpt><trkpt lat="43.7968652" lon="11.5332914"><ele>668.0</ele><time>2026-04-25T10:34:45.742Z</time></trkpt><trkpt lat="43.7967797" lon="11.5333896"><ele>668.0</ele><time>2026-04-25T10:34:46.74Z</time></trkpt><trkpt lat="43.7967283" lon="11.5334641"><ele>672.6666666666666</ele><time>2026-04-25T10:34:47.741Z</time></trkpt><trkpt lat="43.796675" lon="11.5335381"><ele>677.3333333333333</ele><time>2026-04-25T10:34:48.741Z</time></trkpt><trkpt lat="43.7966528" lon="11.5336322"><ele>682.0</ele><time>2026-04-25T10:34:49.74Z</time></trkpt><trkpt lat="43.7966248" lon="11.5337676"><ele>686.6666666666666</ele><time>2026-04-25T10:34:50.741Z</time></trkpt><trkpt lat="43.7966129" lon="11.5338939"><ele>691.3333333333334</ele><time>2026-04-25T10:34:51.74Z</time></trkpt><trkpt lat="43.7965873" lon="11.5340379"><ele>696.0</ele><time>2026-04-25T10:34:52.74Z</time></trkpt><trkpt lat="43.7965505" lon="11.5341465"><ele>696.0</ele><time>2026-04-25T10:34:53.741Z</time></trkpt><trkpt lat="43.7965251" lon="11.5342818"><ele>696.0</ele><time>2026-04-25T10:34:54.741Z</time></trkpt><trkpt lat="43.7965085" lon="11.5344068"><ele>696.0</ele><time>2026-04-25T10:34:55.74Z</time></trkpt><trkpt lat="43.7964885" lon="11.534528"><ele>696.0</ele><time>2026-04-25T10:34:56.74Z</time></trkpt><trkpt lat="43.7964738" lon="11.5346435"><ele>696.0</ele><time>2026-04-25T10:34:57.741Z</time></trkpt><trkpt lat="43.7964401" lon="11.5347568"><ele>695.4</ele><time>2026-04-25T10:34:58.74Z</time></trkpt><trkpt lat="43.7964057" lon="11.5348729"><ele>694.8</ele><time>2026-04-25T10:34:59.74Z</time></trkpt><trkpt lat="43.7963655" lon="11.5349772"><ele>694.1999999999999</ele><time>2026-04-25T10:35:00.74Z</time></trkpt><trkpt lat="43.7963175" lon="11.5350887"><ele>693.5999999999999</ele><time>2026-04-25T10:35:01.741Z</time></trkpt><trkpt lat="43.7962749" lon="11.5351828"><ele>693.0</ele><time>2026-04-25T10:35:02.741Z</time></trkpt><trkpt lat="43.7962374" lon="11.5353119"><ele>693.6666666666666</ele><time>2026-04-25T10:35:03.74Z</time></trkpt><trkpt lat="43.7962106" lon="11.5354175"><ele>694.3333333333334</ele><time>2026-04-25T10:35:04.74Z</time></trkpt><trkpt lat="43.7961744" lon="11.5355306"><ele>695.0</ele><time>2026-04-25T10:35:05.74Z</time></trkpt><trkpt lat="43.7961415" lon="11.5356546"><ele>695.6666666666667</ele><time>2026-04-25T10:35:06.74Z</time></trkpt><trkpt lat="43.7961451" lon="11.5357602"><ele>696.3333333333334</ele><time>2026-04-25T10:35:07.74Z</time></trkpt><trkpt lat="43.796122" lon="11.5358726"><ele>697.0</ele><time>2026-04-25T10:35:08.741Z</time></trkpt><trkpt lat="43.7961088" lon="11.5359786"><ele>697.0</ele><time>2026-04-25T10:35:09.741Z</time></trkpt><trkpt lat="43.7961155" lon="11.5360984"><ele>697.0</ele><time>2026-04-25T10:35:10.741Z</time></trkpt><trkpt lat="43.7961208" lon="11.5361977"><ele>697.0</ele><time>2026-04-25T10:35:11.74Z</time></trkpt><trkpt lat="43.7960764" lon="11.5362926"><ele>697.0</ele><time>2026-04-25T10:35:13.74Z</time></trkpt><trkpt lat="43.7960017" lon="11.5362951"><ele>697.0</ele><time>2026-04-25T10:35:17.74Z</time></trkpt><trkpt lat="43.7959691" lon="11.5361761"><ele>697.0</ele><time>2026-04-25T10:35:19.74Z</time></trkpt><trkpt lat="43.7958975" lon="11.5360797"><ele>701.8</ele><time>2026-04-25T10:35:21.74Z</time></trkpt><trkpt lat="43.7957663" lon="11.5360718"><ele>706.6</ele><time>2026-04-25T10:35:23.74Z</time></trkpt><trkpt lat="43.7957015" lon="11.5360966"><ele>711.4</ele><time>2026-04-25T10:35:24.741Z</time></trkpt><trkpt lat="43.7956374" lon="11.5361867"><ele>716.1999999999999</ele><time>2026-04-25T10:35:25.741Z</time></trkpt><trkpt lat="43.7956015" lon="11.5363148"><ele>721.0</ele><time>2026-04-25T10:35:26.74Z</time></trkpt><trkpt lat="43.7956091" lon="11.5365109"><ele>721.0</ele><time>2026-04-25T10:35:27.74Z</time></trkpt><trkpt lat="43.7955867" lon="11.5366873"><ele>721.0</ele><time>2026-04-25T10:35:28.741Z</time></trkpt><trkpt lat="43.7955734" lon="11.5368834"><ele>721.0</ele><time>2026-04-25T10:35:29.74Z</time></trkpt><trkpt lat="43.7955642" lon="11.5370933"><ele>721.0</ele><time>2026-04-25T10:35:30.74Z</time></trkpt><trkpt lat="43.7955419" lon="11.5373228"><ele>720.6666666666667</ele><time>2026-04-25T10:35:31.74Z</time></trkpt><trkpt lat="43.7955253" lon="11.5375658"><ele>720.3333333333334</ele><time>2026-04-25T10:35:32.74Z</time></trkpt><trkpt lat="43.7955099" lon="11.5378026"><ele>720.0</ele><time>2026-04-25T10:35:33.74Z</time></trkpt><trkpt lat="43.795506" lon="11.5380232"><ele>719.5</ele><time>2026-04-25T10:35:34.741Z</time></trkpt><trkpt lat="43.7955167" lon="11.5382273"><ele>719.0</ele><time>2026-04-25T10:35:35.74Z</time></trkpt><trkpt lat="43.7955366" lon="11.5384148"><ele>718.5</ele><time>2026-04-25T10:35:36.74Z</time></trkpt><trkpt lat="43.7955625" lon="11.5385872"><ele>718.0</ele><time>2026-04-25T10:35:37.74Z</time></trkpt><trkpt lat="43.7955934" lon="11.5387432"><ele>719.3333333333334</ele><time>2026-04-25T10:35:38.74Z</time></trkpt><trkpt lat="43.7956163" lon="11.538874"><ele>720.6666666666667</ele><time>2026-04-25T10:35:39.741Z</time></trkpt><trkpt lat="43.7956394" lon="11.5389962"><ele>722.0</ele><time>2026-04-25T10:35:40.741Z</time></trkpt><trkpt lat="43.7956579" lon="11.5391087"><ele>723.3333333333334</ele><time>2026-04-25T10:35:41.741Z</time></trkpt><trkpt lat="43.7956778" lon="11.5392245"><ele>724.6666666666666</ele><time>2026-04-25T10:35:42.74Z</time></trkpt><trkpt lat="43.7956934" lon="11.5393387"><ele>726.0</ele><time>2026-04-25T10:35:43.741Z</time></trkpt><trkpt lat="43.7957009" lon="11.5394456"><ele>727.3333333333334</ele><time>2026-04-25T10:35:44.74Z</time></trkpt><trkpt lat="43.7956941" lon="11.5395869"><ele>728.6666666666666</ele><time>2026-04-25T10:35:46.74Z</time></trkpt><trkpt lat="43.7956579" lon="11.5396705"><ele>730.0</ele><time>2026-04-25T10:35:51.741Z</time></trkpt><trkpt lat="43.7955729" lon="11.5397395"><ele>731.3333333333333</ele><time>2026-04-25T10:35:57.742Z</time></trkpt><trkpt lat="43.7955104" lon="11.5397988"><ele>732.6666666666666</ele><time>2026-04-25T10:36:01.741Z</time></trkpt><trkpt lat="43.7954424" lon="11.5398006"><ele>734.0</ele><time>2026-04-25T10:36:04.74Z</time></trkpt><trkpt lat="43.7953808" lon="11.5397044"><ele>734.0</ele><time>2026-04-25T10:36:11.647Z</time></trkpt><trkpt lat="43.795423" lon="11.539772"><ele>734.0</ele><time>2026-04-25T10:38:23.741Z</time></trkpt><trkpt lat="43.7955107" lon="11.5398337"><ele>734.0</ele><time>2026-04-25T10:38:27.74Z</time></trkpt><trkpt lat="43.7955828" lon="11.5399248"><ele>734.0</ele><time>2026-04-25T10:38:29.741Z</time></trkpt><trkpt lat="43.7956325" lon="11.5399987"><ele>734.0</ele><time>2026-04-25T10:38:30.741Z</time></trkpt><trkpt lat="43.795681" lon="11.5400875"><ele>734.0</ele><time>2026-04-25T10:38:35.74Z</time></trkpt><trkpt lat="43.7956649" lon="11.5401956"><ele>734.0</ele><time>2026-04-25T10:38:38.74Z</time></trkpt><trkpt lat="43.7956301" lon="11.5403293"><ele>734.0</ele><time>2026-04-25T10:38:40.74Z</time></trkpt><trkpt lat="43.7955926" lon="11.5404154"><ele>734.0</ele><time>2026-04-25T10:38:41.74Z</time></trkpt><trkpt lat="43.7955967" lon="11.540511"><ele>734.0</ele><time>2026-04-25T10:38:42.74Z</time></trkpt><trkpt lat="43.795579" lon="11.5406186"><ele>734.0</ele><time>2026-04-25T10:38:43.741Z</time></trkpt><trkpt lat="43.7955796" lon="11.5407965"><ele>735.2</ele><time>2026-04-25T10:38:44.74Z</time></trkpt><trkpt lat="43.7955936" lon="11.5409272"><ele>736.4000000000001</ele><time>2026-04-25T10:38:45.741Z</time></trkpt><trkpt lat="43.7956753" lon="11.541018"><ele>737.6</ele><time>2026-04-25T10:38:46.741Z</time></trkpt><trkpt lat="43.7957681" lon="11.5411194"><ele>738.8</ele><time>2026-04-25T10:38:47.74Z</time></trkpt><trkpt lat="43.7958513" lon="11.5412066"><ele>740.0</ele><time>2026-04-25T10:38:48.741Z</time></trkpt><trkpt lat="43.7959066" lon="11.5412903"><ele>741.2</ele><time>2026-04-25T10:38:49.74Z</time></trkpt><trkpt lat="43.795947" lon="11.5413801"><ele>742.4</ele><time>2026-04-25T10:38:50.74Z</time></trkpt><trkpt lat="43.7959708" lon="11.5414917"><ele>743.5999999999999</ele><time>2026-04-25T10:38:51.741Z</time></trkpt><trkpt lat="43.7959833" lon="11.5416203"><ele>744.8</ele><time>2026-04-25T10:38:52.74Z</time></trkpt><trkpt lat="43.7959861" lon="11.541758"><ele>746.0</ele><time>2026-04-25T10:38:53.74Z</time></trkpt><trkpt lat="43.7959955" lon="11.541907"><ele>746.4</ele><time>2026-04-25T10:38:54.74Z</time></trkpt><trkpt lat="43.7960058" lon="11.5420554"><ele>746.8</ele><time>2026-04-25T10:38:55.74Z</time></trkpt><trkpt lat="43.7960336" lon="11.542178"><ele>747.1999999999999</ele><time>2026-04-25T10:38:56.742Z</time></trkpt><trkpt lat="43.7960559" lon="11.542289"><ele>747.5999999999999</ele><time>2026-04-25T10:38:57.74Z</time></trkpt><trkpt lat="43.7960253" lon="11.5424501"><ele>748.0</ele><time>2026-04-25T10:38:59.741Z</time></trkpt><trkpt lat="43.7959907" lon="11.5425284"><ele>748.0</ele><time>2026-04-25T10:39:00.741Z</time></trkpt><trkpt lat="43.7959388" lon="11.5426118"><ele>748.0</ele><time>2026-04-25T10:39:01.74Z</time></trkpt><trkpt lat="43.7958828" lon="11.5426915"><ele>748.0</ele><time>2026-04-25T10:39:02.74Z</time></trkpt><trkpt lat="43.795822" lon="11.5427642"><ele>748.0</ele><time>2026-04-25T10:39:03.74Z</time></trkpt><trkpt lat="43.795768" lon="11.5428267"><ele>748.0</ele><time>2026-04-25T10:39:04.741Z</time></trkpt><trkpt lat="43.795711" lon="11.542901"><ele>748.0</ele><time>2026-04-25T10:39:05.741Z</time></trkpt><trkpt lat="43.7956593" lon="11.5429859"><ele>747.1666666666667</ele><time>2026-04-25T10:39:06.741Z</time></trkpt><trkpt lat="43.7956226" lon="11.5430748"><ele>746.3333333333334</ele><time>2026-04-25T10:39:07.741Z</time></trkpt><trkpt lat="43.7955971" lon="11.5431891"><ele>745.5</ele><time>2026-04-25T10:39:08.741Z</time></trkpt><trkpt lat="43.7955745" lon="11.5433065"><ele>744.6666666666666</ele><time>2026-04-25T10:39:09.74Z</time></trkpt><trkpt lat="43.7955612" lon="11.5434297"><ele>743.8333333333333</ele><time>2026-04-25T10:39:10.74Z</time></trkpt><trkpt lat="43.7955619" lon="11.5435416"><ele>743.0</ele><time>2026-04-25T10:39:11.74Z</time></trkpt><trkpt lat="43.7955625" lon="11.543631"><ele>743.0</ele><time>2026-04-25T10:39:12.741Z</time></trkpt><trkpt lat="43.7955493" lon="11.543727"><ele>743.0</ele><time>2026-04-25T10:39:14.74Z</time></trkpt><trkpt lat="43.7955453" lon="11.5438188"><ele>743.0</ele><time>2026-04-25T10:39:23.74Z</time></trkpt><trkpt lat="43.795581" lon="11.5437407"><ele>743.0</ele><time>2026-04-25T10:42:13.74Z</time></trkpt><trkpt lat="43.7955673" lon="11.5436343"><ele>743.0</ele><time>2026-04-25T10:42:15.741Z</time></trkpt><trkpt lat="43.7955608" lon="11.543522"><ele>743.0</ele><time>2026-04-25T10:42:17.742Z</time></trkpt><trkpt lat="43.7955634" lon="11.5434083"><ele>743.0</ele><time>2026-04-25T10:42:19.741Z</time></trkpt><trkpt lat="43.7955851" lon="11.5432617"><ele>743.0</ele><time>2026-04-25T10:42:21.74Z</time></trkpt><trkpt lat="43.7956075" lon="11.5431772"><ele>743.0</ele><time>2026-04-25T10:42:22.741Z</time></trkpt><trkpt lat="43.7956339" lon="11.543094"><ele>743.0</ele><time>2026-04-25T10:42:23.74Z</time></trkpt><trkpt lat="43.7956673" lon="11.5430171"><ele>743.0</ele><time>2026-04-25T10:42:24.74Z</time></trkpt><trkpt lat="43.7957065" lon="11.5429452"><ele>743.0</ele><time>2026-04-25T10:42:25.741Z</time></trkpt><trkpt lat="43.7957584" lon="11.5428766"><ele>743.0</ele><time>2026-04-25T10:42:26.74Z</time></trkpt><trkpt lat="43.795818" lon="11.5428068"><ele>743.0</ele><time>2026-04-25T10:42:27.74Z</time></trkpt><trkpt lat="43.7958804" lon="11.542735"><ele>743.7142857142858</ele><time>2026-04-25T10:42:28.74Z</time></trkpt><trkpt lat="43.795938" lon="11.5426588"><ele>744.4285714285713</ele><time>2026-04-25T10:42:29.74Z</time></trkpt><trkpt lat="43.7959908" lon="11.5425802"><ele>745.1428571428571</ele><time>2026-04-25T10:42:30.74Z</time></trkpt><trkpt lat="43.7960333" lon="11.5425092"><ele>745.8571428571429</ele><time>2026-04-25T10:42:31.741Z</time></trkpt><trkpt lat="43.7960555" lon="11.5424247"><ele>746.5714285714287</ele><time>2026-04-25T10:42:32.74Z</time></trkpt><trkpt lat="43.7960567" lon="11.5423264"><ele>747.2857142857142</ele><time>2026-04-25T10:42:33.74Z</time></trkpt><trkpt lat="43.7960367" lon="11.5422234"><ele>748.0</ele><time>2026-04-25T10:42:34.741Z</time></trkpt><trkpt lat="43.7960072" lon="11.5421031"><ele>747.5999999999999</ele><time>2026-04-25T10:42:35.74Z</time></trkpt><trkpt lat="43.7959904" lon="11.5419683"><ele>747.1999999999999</ele><time>2026-04-25T10:42:36.741Z</time></trkpt><trkpt lat="43.7959849" lon="11.5418257"><ele>746.8</ele><time>2026-04-25T10:42:37.74Z</time></trkpt><trkpt lat="43.7959871" lon="11.5416894"><ele>746.4</ele><time>2026-04-25T10:42:38.74Z</time></trkpt><trkpt lat="43.795976" lon="11.5415396"><ele>746.0</ele><time>2026-04-25T10:42:39.741Z</time></trkpt><trkpt lat="43.7959517" lon="11.5414205"><ele>746.0</ele><time>2026-04-25T10:42:40.742Z</time></trkpt><trkpt lat="43.7959269" lon="11.5413376"><ele>746.0</ele><time>2026-04-25T10:42:41.74Z</time></trkpt><trkpt lat="43.7958624" lon="11.5412391"><ele>746.0</ele><time>2026-04-25T10:42:43.74Z</time></trkpt><trkpt lat="43.7957967" lon="11.5411787"><ele>746.0</ele><time>2026-04-25T10:42:44.74Z</time></trkpt><trkpt lat="43.7957218" lon="11.5411079"><ele>746.0</ele><time>2026-04-25T10:42:45.741Z</time></trkpt><trkpt lat="43.7956545" lon="11.5410269"><ele>746.0</ele><time>2026-04-25T10:42:46.74Z</time></trkpt><trkpt lat="43.7956089" lon="11.5409447"><ele>745.0</ele><time>2026-04-25T10:42:47.74Z</time></trkpt><trkpt lat="43.7955705" lon="11.5408615"><ele>744.0</ele><time>2026-04-25T10:42:48.74Z</time></trkpt><trkpt lat="43.7955697" lon="11.5407508"><ele>743.0</ele><time>2026-04-25T10:42:49.741Z</time></trkpt><trkpt lat="43.795564" lon="11.5406469"><ele>742.0</ele><time>2026-04-25T10:42:50.741Z</time></trkpt><trkpt lat="43.795565" lon="11.5404982"><ele>741.0</ele><time>2026-04-25T10:42:52.741Z</time></trkpt><trkpt lat="43.7955921" lon="11.54041"><ele>740.0</ele><time>2026-04-25T10:42:53.741Z</time></trkpt><trkpt lat="43.7956261" lon="11.5403301"><ele>739.0</ele><time>2026-04-25T10:42:54.74Z</time></trkpt><trkpt lat="43.7956716" lon="11.5402401"><ele>738.0</ele><time>2026-04-25T10:42:55.741Z</time></trkpt><trkpt lat="43.7957057" lon="11.5401575"><ele>737.0</ele><time>2026-04-25T10:42:56.74Z</time></trkpt><trkpt lat="43.7957288" lon="11.5400561"><ele>736.0</ele><time>2026-04-25T10:42:58.741Z</time></trkpt><trkpt lat="43.795641" lon="11.5399275"><ele>735.0</ele><time>2026-04-25T10:43:00.741Z</time></trkpt><trkpt lat="43.7955813" lon="11.5398372"><ele>734.0</ele><time>2026-04-25T10:43:02.74Z</time></trkpt><trkpt lat="43.7956254" lon="11.5397433"><ele>734.0</ele><time>2026-04-25T10:43:04.74Z</time></trkpt><trkpt lat="43.7957092" lon="11.5395505"><ele>734.0</ele><time>2026-04-25T10:43:06.74Z</time></trkpt><trkpt lat="43.7957216" lon="11.5394111"><ele>734.0</ele><time>2026-04-25T10:43:07.741Z</time></trkpt><trkpt lat="43.7957016" lon="11.5392637"><ele>734.0</ele><time>2026-04-25T10:43:08.741Z</time></trkpt><trkpt lat="43.7956641" lon="11.5390757"><ele>731.3333333333333</ele><time>2026-04-25T10:43:09.74Z</time></trkpt><trkpt lat="43.7956262" lon="11.5388664"><ele>728.6666666666666</ele><time>2026-04-25T10:43:10.741Z</time></trkpt><trkpt lat="43.7955832" lon="11.5386489"><ele>726.0</ele><time>2026-04-25T10:43:11.74Z</time></trkpt><trkpt lat="43.7955473" lon="11.5384513"><ele>724.5</ele><time>2026-04-25T10:43:12.74Z</time></trkpt><trkpt lat="43.7955306" lon="11.5382591"><ele>723.0</ele><time>2026-04-25T10:43:13.742Z</time></trkpt><trkpt lat="43.7955248" lon="11.5380828"><ele>721.5</ele><time>2026-04-25T10:43:14.74Z</time></trkpt><trkpt lat="43.7955281" lon="11.5379089"><ele>720.0</ele><time>2026-04-25T10:43:15.742Z</time></trkpt><trkpt lat="43.7955429" lon="11.5377185"><ele>720.0</ele><time>2026-04-25T10:43:16.741Z</time></trkpt><trkpt lat="43.7955653" lon="11.537507"><ele>720.0</ele><time>2026-04-25T10:43:17.741Z</time></trkpt><trkpt lat="43.7955827" lon="11.5372783"><ele>720.0</ele><time>2026-04-25T10:43:18.74Z</time></trkpt><trkpt lat="43.7955939" lon="11.53707"><ele>720.25</ele><time>2026-04-25T10:43:19.741Z</time></trkpt><trkpt lat="43.795607" lon="11.5368729"><ele>720.5</ele><time>2026-04-25T10:43:20.74Z</time></trkpt><trkpt lat="43.7956227" lon="11.5366898"><ele>720.75</ele><time>2026-04-25T10:43:21.74Z</time></trkpt><trkpt lat="43.7956365" lon="11.5365151"><ele>721.0</ele><time>2026-04-25T10:43:22.74Z</time></trkpt><trkpt lat="43.7956491" lon="11.5363599"><ele>721.0</ele><time>2026-04-25T10:43:23.741Z</time></trkpt><trkpt lat="43.7956905" lon="11.536227"><ele>721.0</ele><time>2026-04-25T10:43:24.74Z</time></trkpt><trkpt lat="43.7957248" lon="11.5360903"><ele>721.0</ele><time>2026-04-25T10:43:25.74Z</time></trkpt><trkpt lat="43.7957881" lon="11.5359946"><ele>721.0</ele><time>2026-04-25T10:43:26.74Z</time></trkpt><trkpt lat="43.7958987" lon="11.5360789"><ele>721.0</ele><time>2026-04-25T10:43:27.741Z</time></trkpt><trkpt lat="43.7959422" lon="11.5362515"><ele>721.0</ele><time>2026-04-25T10:43:28.741Z</time></trkpt><trkpt lat="43.7959952" lon="11.536424"><ele>721.0</ele><time>2026-04-25T10:43:29.74Z</time></trkpt><trkpt lat="43.7959984" lon="11.5366004"><ele>721.0</ele><time>2026-04-25T10:43:30.74Z</time></trkpt><trkpt lat="43.7959893" lon="11.5368059"><ele>721.0</ele><time>2026-04-25T10:43:31.741Z</time></trkpt><trkpt lat="43.7959786" lon="11.5370407"><ele>720.6666666666667</ele><time>2026-04-25T10:43:32.74Z</time></trkpt><trkpt lat="43.7959829" lon="11.5372989"><ele>720.3333333333334</ele><time>2026-04-25T10:43:33.74Z</time></trkpt><trkpt lat="43.7960022" lon="11.5375522"><ele>720.0</ele><time>2026-04-25T10:43:34.74Z</time></trkpt><trkpt lat="43.7960448" lon="11.5377939"><ele>713.0</ele><time>2026-04-25T10:43:35.741Z</time></trkpt><trkpt lat="43.7961114" lon="11.5380134"><ele>706.0</ele><time>2026-04-25T10:43:36.74Z</time></trkpt><trkpt lat="43.7962006" lon="11.5382083"><ele>699.0</ele><time>2026-04-25T10:43:37.74Z</time></trkpt><trkpt lat="43.7963078" lon="11.53839"><ele>699.0</ele><time>2026-04-25T10:43:38.741Z</time></trkpt><trkpt lat="43.7964186" lon="11.5385624"><ele>699.0</ele><time>2026-04-25T10:43:39.74Z</time></trkpt><trkpt lat="43.7965322" lon="11.53872"><ele>699.0</ele><time>2026-04-25T10:43:40.74Z</time></trkpt><trkpt lat="43.7966398" lon="11.5388669"><ele>697.5</ele><time>2026-04-25T10:43:41.742Z</time></trkpt><trkpt lat="43.796755" lon="11.5389901"><ele>696.0</ele><time>2026-04-25T10:43:42.741Z</time></trkpt><trkpt lat="43.7968873" lon="11.5390894"><ele>694.5</ele><time>2026-04-25T10:43:43.741Z</time></trkpt><trkpt lat="43.797026" lon="11.5391685"><ele>693.0</ele><time>2026-04-25T10:43:44.741Z</time></trkpt><trkpt lat="43.7971624" lon="11.5392307"><ele>693.0</ele><time>2026-04-25T10:43:45.741Z</time></trkpt><trkpt lat="43.7972929" lon="11.5393024"><ele>693.0</ele><time>2026-04-25T10:43:46.74Z</time></trkpt><trkpt lat="43.797406" lon="11.53939"><ele>693.0</ele><time>2026-04-25T10:43:47.74Z</time></trkpt><trkpt lat="43.7975075" lon="11.5394872"><ele>693.0</ele><time>2026-04-25T10:43:48.74Z</time></trkpt><trkpt lat="43.7975857" lon="11.5395936"><ele>693.8333333333334</ele><time>2026-04-25T10:43:49.741Z</time></trkpt><trkpt lat="43.7976512" lon="11.5396925"><ele>694.6666666666666</ele><time>2026-04-25T10:43:50.741Z</time></trkpt><trkpt lat="43.7977067" lon="11.5397811"><ele>695.5</ele><time>2026-04-25T10:43:51.74Z</time></trkpt><trkpt lat="43.7977556" lon="11.53986"><ele>696.3333333333333</ele><time>2026-04-25T10:43:52.74Z</time></trkpt><trkpt lat="43.7977974" lon="11.5399269"><ele>697.1666666666666</ele><time>2026-04-25T10:43:53.741Z</time></trkpt><trkpt lat="43.7978703" lon="11.5400712"><ele>698.0</ele><time>2026-04-25T10:43:55.741Z</time></trkpt><trkpt lat="43.797903" lon="11.5401532"><ele>693.0</ele><time>2026-04-25T10:43:56.74Z</time></trkpt><trkpt lat="43.7979227" lon="11.5402481"><ele>688.0</ele><time>2026-04-25T10:43:57.74Z</time></trkpt><trkpt lat="43.7979329" lon="11.5404087"><ele>683.0</ele><time>2026-04-25T10:43:59.74Z</time></trkpt><trkpt lat="43.7979149" lon="11.5405078"><ele>678.0</ele><time>2026-04-25T10:44:02.74Z</time></trkpt><trkpt lat="43.7979748" lon="11.5403631"><ele>673.0</ele><time>2026-04-25T10:44:06.74Z</time></trkpt><trkpt lat="43.7979506" lon="11.5402502"><ele>673.0</ele><time>2026-04-25T10:44:07.74Z</time></trkpt><trkpt lat="43.7979194" lon="11.5401357"><ele>673.0</ele><time>2026-04-25T10:44:08.741Z</time></trkpt><trkpt lat="43.7978789" lon="11.5400291"><ele>673.0</ele><time>2026-04-25T10:44:09.741Z</time></trkpt><trkpt lat="43.7978173" lon="11.5399212"><ele>673.0</ele><time>2026-04-25T10:44:10.741Z</time></trkpt><trkpt lat="43.7977559" lon="11.5398294"><ele>673.0</ele><time>2026-04-25T10:44:11.741Z</time></trkpt><trkpt lat="43.7976671" lon="11.5397563"><ele>677.1666666666667</ele><time>2026-04-25T10:44:13.741Z</time></trkpt><trkpt lat="43.797614" lon="11.5398371"><ele>681.3333333333334</ele><time>2026-04-25T10:44:15.741Z</time></trkpt><trkpt lat="43.7975733" lon="11.5399653"><ele>685.5</ele><time>2026-04-25T10:44:17.74Z</time></trkpt><trkpt lat="43.7975173" lon="11.54008"><ele>689.6666666666666</ele><time>2026-04-25T10:44:19.74Z</time></trkpt><trkpt lat="43.7974432" lon="11.5400699"><ele>693.8333333333333</ele><time>2026-04-25T10:44:20.74Z</time></trkpt><trkpt lat="43.797379" lon="11.5400912"><ele>698.0</ele><time>2026-04-25T10:44:21.74Z</time></trkpt><trkpt lat="43.7972973" lon="11.5401515"><ele>698.0</ele><time>2026-04-25T10:44:23.741Z</time></trkpt><trkpt lat="43.7973622" lon="11.540094"><ele>698.0</ele><time>2026-04-25T10:44:40.74Z</time></trkpt><trkpt lat="43.7974436" lon="11.5400768"><ele>698.0</ele><time>2026-04-25T10:44:43.74Z</time></trkpt><trkpt lat="43.7975324" lon="11.5400351"><ele>698.0</ele><time>2026-04-25T10:44:45.74Z</time></trkpt><trkpt lat="43.7976298" lon="11.5399534"><ele>698.0</ele><time>2026-04-25T10:44:47.74Z</time></trkpt><trkpt lat="43.7976507" lon="11.5398178"><ele>693.8333333333333</ele><time>2026-04-25T10:44:49.741Z</time></trkpt><trkpt lat="43.7977042" lon="11.5397571"><ele>689.6666666666666</ele><time>2026-04-25T10:44:52.74Z</time></trkpt><trkpt lat="43.7977686" lon="11.539816"><ele>685.5</ele><time>2026-04-25T10:44:54.74Z</time></trkpt><trkpt lat="43.7978072" lon="11.5399067"><ele>681.3333333333334</ele><time>2026-04-25T10:44:55.74Z</time></trkpt><trkpt lat="43.7978713" lon="11.5400499"><ele>677.1666666666667</ele><time>2026-04-25T10:44:56.74Z</time></trkpt><trkpt lat="43.7979091" lon="11.540155"><ele>673.0</ele><time>2026-04-25T10:44:57.74Z</time></trkpt><trkpt lat="43.7979224" lon="11.5402656"><ele>673.0</ele><time>2026-04-25T10:44:58.741Z</time></trkpt><trkpt lat="43.7979452" lon="11.5403757"><ele>673.0</ele><time>2026-04-25T10:44:59.74Z</time></trkpt><trkpt lat="43.7978874" lon="11.5405128"><ele>673.0</ele><time>2026-04-25T10:45:00.74Z</time></trkpt><trkpt lat="43.797861" lon="11.5406352"><ele>673.0</ele><time>2026-04-25T10:45:01.741Z</time></trkpt><trkpt lat="43.797824" lon="11.5407789"><ele>673.0</ele><time>2026-04-25T10:45:02.74Z</time></trkpt><trkpt lat="43.7977621" lon="11.5409572"><ele>671.5</ele><time>2026-04-25T10:45:03.74Z</time></trkpt><trkpt lat="43.7976962" lon="11.5411199"><ele>670.0</ele><time>2026-04-25T10:45:04.741Z</time></trkpt><trkpt lat="43.7976423" lon="11.541279"><ele>668.5</ele><time>2026-04-25T10:45:05.74Z</time></trkpt><trkpt lat="43.797615" lon="11.5414329"><ele>667.0</ele><time>2026-04-25T10:45:06.741Z</time></trkpt><trkpt lat="43.7975827" lon="11.5416012"><ele>670.75</ele><time>2026-04-25T10:45:07.74Z</time></trkpt><trkpt lat="43.7975678" lon="11.5417617"><ele>674.5</ele><time>2026-04-25T10:45:08.74Z</time></trkpt><trkpt lat="43.7976195" lon="11.5419382"><ele>678.25</ele><time>2026-04-25T10:45:09.74Z</time></trkpt><trkpt lat="43.7976502" lon="11.5421147"><ele>682.0</ele><time>2026-04-25T10:45:10.74Z</time></trkpt><trkpt lat="43.7976877" lon="11.5422946"><ele>674.5</ele><time>2026-04-25T10:45:11.74Z</time></trkpt><trkpt lat="43.7977252" lon="11.5424701"><ele>667.0</ele><time>2026-04-25T10:45:12.74Z</time></trkpt><trkpt lat="43.7977621" lon="11.5426538"><ele>659.5</ele><time>2026-04-25T10:45:13.74Z</time></trkpt><trkpt lat="43.7978035" lon="11.5428365"><ele>652.0</ele><time>2026-04-25T10:45:14.74Z</time></trkpt><trkpt lat="43.7978595" lon="11.5430089"><ele>652.0</ele><time>2026-04-25T10:45:15.741Z</time></trkpt><trkpt lat="43.7979128" lon="11.5431799"><ele>652.0</ele><time>2026-04-25T10:45:16.741Z</time></trkpt><trkpt lat="43.7979708" lon="11.5433519"><ele>652.0</ele><time>2026-04-25T10:45:17.74Z</time></trkpt><trkpt lat="43.7980246" lon="11.5435254"><ele>652.0</ele><time>2026-04-25T10:45:18.74Z</time></trkpt><trkpt lat="43.798067" lon="11.5436986"><ele>653.0</ele><time>2026-04-25T10:45:19.741Z</time></trkpt><trkpt lat="43.7980867" lon="11.5438752"><ele>654.0</ele><time>2026-04-25T10:45:20.74Z</time></trkpt><trkpt lat="43.7980845" lon="11.5440581"><ele>655.0</ele><time>2026-04-25T10:45:21.741Z</time></trkpt><trkpt lat="43.7980652" lon="11.5442564"><ele>656.0</ele><time>2026-04-25T10:45:22.741Z</time></trkpt><trkpt lat="43.7980372" lon="11.5444603"><ele>657.0</ele><time>2026-04-25T10:45:23.741Z</time></trkpt><trkpt lat="43.7980156" lon="11.5446689"><ele>658.0</ele><time>2026-04-25T10:45:24.741Z</time></trkpt><trkpt lat="43.7980161" lon="11.5448895"><ele>659.0</ele><time>2026-04-25T10:45:25.74Z</time></trkpt><trkpt lat="43.7980402" lon="11.5451209"><ele>659.0</ele><time>2026-04-25T10:45:26.74Z</time></trkpt><trkpt lat="43.7980829" lon="11.5453568"><ele>659.0</ele><time>2026-04-25T10:45:27.741Z</time></trkpt><trkpt lat="43.7981341" lon="11.545585"><ele>659.0</ele><time>2026-04-25T10:45:28.741Z</time></trkpt><trkpt lat="43.7981942" lon="11.5457863"><ele>660.0</ele><time>2026-04-25T10:45:29.74Z</time></trkpt><trkpt lat="43.7982667" lon="11.5459613"><ele>661.0</ele><time>2026-04-25T10:45:30.741Z</time></trkpt><trkpt lat="43.7983604" lon="11.5461242"><ele>662.0</ele><time>2026-04-25T10:45:31.74Z</time></trkpt><trkpt lat="43.7984619" lon="11.5462804"><ele>663.0</ele><time>2026-04-25T10:45:32.741Z</time></trkpt><trkpt lat="43.7985712" lon="11.5464186"><ele>659.0</ele><time>2026-04-25T10:45:33.74Z</time></trkpt><trkpt lat="43.79867" lon="11.5465589"><ele>655.0</ele><time>2026-04-25T10:45:34.74Z</time></trkpt><trkpt lat="43.7987565" lon="11.5467068"><ele>651.0</ele><time>2026-04-25T10:45:35.74Z</time></trkpt><trkpt lat="43.7988146" lon="11.5468704"><ele>647.0</ele><time>2026-04-25T10:45:36.74Z</time></trkpt><trkpt lat="43.7988485" lon="11.5470503"><ele>645.75</ele><time>2026-04-25T10:45:37.74Z</time></trkpt><trkpt lat="43.7988677" lon="11.5472472"><ele>644.5</ele><time>2026-04-25T10:45:38.74Z</time></trkpt><trkpt lat="43.7988599" lon="11.5474544"><ele>643.25</ele><time>2026-04-25T10:45:39.74Z</time></trkpt><trkpt lat="43.7988347" lon="11.5476589"><ele>642.0</ele><time>2026-04-25T10:45:40.741Z</time></trkpt><trkpt lat="43.7988095" lon="11.5478562"><ele>641.0</ele><time>2026-04-25T10:45:41.741Z</time></trkpt><trkpt lat="43.7987854" lon="11.5480451"><ele>640.0</ele><time>2026-04-25T10:45:42.74Z</time></trkpt><trkpt lat="43.7987753" lon="11.5482271"><ele>639.0</ele><time>2026-04-25T10:45:43.74Z</time></trkpt><trkpt lat="43.7987931" lon="11.5483883"><ele>638.0</ele><time>2026-04-25T10:45:44.74Z</time></trkpt><trkpt lat="43.7988263" lon="11.5485674"><ele>638.0</ele><time>2026-04-25T10:45:45.742Z</time></trkpt><trkpt lat="43.7989606" lon="11.5486691"><ele>638.0</ele><time>2026-04-25T10:45:46.74Z</time></trkpt><trkpt lat="43.7990576" lon="11.5488168"><ele>638.0</ele><time>2026-04-25T10:45:47.74Z</time></trkpt><trkpt lat="43.7992524" lon="11.5488524"><ele>635.0</ele><time>2026-04-25T10:45:48.74Z</time></trkpt><trkpt lat="43.7994177" lon="11.5489438"><ele>632.0</ele><time>2026-04-25T10:45:49.741Z</time></trkpt><trkpt lat="43.7996181" lon="11.5489992"><ele>629.0</ele><time>2026-04-25T10:45:50.74Z</time></trkpt><trkpt lat="43.7998023" lon="11.5490643"><ele>629.0</ele><time>2026-04-25T10:45:51.74Z</time></trkpt><trkpt lat="43.7999678" lon="11.5491392"><ele>629.0</ele><time>2026-04-25T10:45:52.742Z</time></trkpt><trkpt lat="43.8001239" lon="11.5492185"><ele>629.0</ele><time>2026-04-25T10:45:53.741Z</time></trkpt><trkpt lat="43.8002475" lon="11.5493042"><ele>625.0</ele><time>2026-04-25T10:45:54.74Z</time></trkpt><trkpt lat="43.8003534" lon="11.5494197"><ele>621.0</ele><time>2026-04-25T10:45:55.74Z</time></trkpt><trkpt lat="43.8004398" lon="11.5495749"><ele>617.0</ele><time>2026-04-25T10:45:56.741Z</time></trkpt><trkpt lat="43.8005183" lon="11.5497629"><ele>613.0</ele><time>2026-04-25T10:45:57.742Z</time></trkpt><trkpt lat="43.8005908" lon="11.5499807"><ele>613.0</ele><time>2026-04-25T10:45:58.74Z</time></trkpt><trkpt lat="43.8006663" lon="11.550212"><ele>613.0</ele><time>2026-04-25T10:45:59.74Z</time></trkpt><trkpt lat="43.8007419" lon="11.550431"><ele>613.0</ele><time>2026-04-25T10:46:00.741Z</time></trkpt><trkpt lat="43.8008117" lon="11.5506446"><ele>612.75</ele><time>2026-04-25T10:46:01.74Z</time></trkpt><trkpt lat="43.8008749" lon="11.550853"><ele>612.5</ele><time>2026-04-25T10:46:02.74Z</time></trkpt><trkpt lat="43.8008797" lon="11.5510477"><ele>612.25</ele><time>2026-04-25T10:46:03.741Z</time></trkpt><trkpt lat="43.8008548" lon="11.5512328"><ele>612.0</ele><time>2026-04-25T10:46:04.74Z</time></trkpt><trkpt lat="43.8007918" lon="11.551408"><ele>609.3333333333334</ele><time>2026-04-25T10:46:05.741Z</time></trkpt><trkpt lat="43.800701" lon="11.5515663"><ele>606.6666666666667</ele><time>2026-04-25T10:46:06.741Z</time></trkpt><trkpt lat="43.8005752" lon="11.5517156"><ele>604.0</ele><time>2026-04-25T10:46:07.74Z</time></trkpt><trkpt lat="43.8004526" lon="11.5518833"><ele>604.6666666666667</ele><time>2026-04-25T10:46:08.74Z</time></trkpt><trkpt lat="43.8003418" lon="11.5520895"><ele>605.3333333333334</ele><time>2026-04-25T10:46:09.74Z</time></trkpt><trkpt lat="43.8002452" lon="11.5523149"><ele>606.0</ele><time>2026-04-25T10:46:10.74Z</time></trkpt><trkpt lat="43.8001591" lon="11.5525434"><ele>606.0</ele><time>2026-04-25T10:46:11.741Z</time></trkpt><trkpt lat="43.8000798" lon="11.5527585"><ele>606.0</ele><time>2026-04-25T10:46:12.74Z</time></trkpt><trkpt lat="43.8000152" lon="11.5529542"><ele>606.0</ele><time>2026-04-25T10:46:13.74Z</time></trkpt><trkpt lat="43.7999985" lon="11.5531656"><ele>605.25</ele><time>2026-04-25T10:46:14.741Z</time></trkpt><trkpt lat="43.7999964" lon="11.5533466"><ele>604.5</ele><time>2026-04-25T10:46:15.741Z</time></trkpt><trkpt lat="43.7999865" lon="11.55353"><ele>603.75</ele><time>2026-04-25T10:46:16.74Z</time></trkpt><trkpt lat="43.8001052" lon="11.5536529"><ele>603.0</ele><time>2026-04-25T10:46:17.741Z</time></trkpt><trkpt lat="43.8002152" lon="11.5537763"><ele>598.0</ele><time>2026-04-25T10:46:18.741Z</time></trkpt><trkpt lat="43.8003224" lon="11.5538819"><ele>593.0</ele><time>2026-04-25T10:46:19.74Z</time></trkpt><trkpt lat="43.8004358" lon="11.5539648"><ele>588.0</ele><time>2026-04-25T10:46:20.74Z</time></trkpt><trkpt lat="43.8005316" lon="11.5540722"><ele>583.0</ele><time>2026-04-25T10:46:21.741Z</time></trkpt><trkpt lat="43.800594" lon="11.55421"><ele>583.0</ele><time>2026-04-25T10:46:22.741Z</time></trkpt><trkpt lat="43.800635" lon="11.55438"><ele>583.0</ele><time>2026-04-25T10:46:23.741Z</time></trkpt><trkpt lat="43.8006579" lon="11.5545758"><ele>583.0</ele><time>2026-04-25T10:46:24.741Z</time></trkpt><trkpt lat="43.8006756" lon="11.5547765"><ele>583.0</ele><time>2026-04-25T10:46:25.741Z</time></trkpt><trkpt lat="43.8006879" lon="11.5549734"><ele>583.25</ele><time>2026-04-25T10:46:26.74Z</time></trkpt><trkpt lat="43.8006956" lon="11.5551651"><ele>583.5</ele><time>2026-04-25T10:46:27.74Z</time></trkpt><trkpt lat="43.8006973" lon="11.5553528"><ele>583.75</ele><time>2026-04-25T10:46:28.74Z</time></trkpt><trkpt lat="43.8006915" lon="11.5555097"><ele>584.0</ele><time>2026-04-25T10:46:29.74Z</time></trkpt><trkpt lat="43.8006696" lon="11.5556135"><ele>584.0</ele><time>2026-04-25T10:46:30.741Z</time></trkpt><trkpt lat="43.8006277" lon="11.5557285"><ele>584.0</ele><time>2026-04-25T10:46:31.74Z</time></trkpt><trkpt lat="43.8005861" lon="11.5558534"><ele>584.0</ele><time>2026-04-25T10:46:32.74Z</time></trkpt><trkpt lat="43.8005586" lon="11.5560085"><ele>584.0</ele><time>2026-04-25T10:46:33.74Z</time></trkpt><trkpt lat="43.8005079" lon="11.5561813"><ele>584.0</ele><time>2026-04-25T10:46:34.74Z</time></trkpt><trkpt lat="43.8004747" lon="11.5563533"><ele>584.75</ele><time>2026-04-25T10:46:35.741Z</time></trkpt><trkpt lat="43.8004282" lon="11.5565435"><ele>585.5</ele><time>2026-04-25T10:46:36.74Z</time></trkpt><trkpt lat="43.8003942" lon="11.5566981"><ele>586.25</ele><time>2026-04-25T10:46:37.741Z</time></trkpt><trkpt lat="43.800381" lon="11.5568444"><ele>587.0</ele><time>2026-04-25T10:46:38.74Z</time></trkpt><trkpt lat="43.8003795" lon="11.5569703"><ele>588.4</ele><time>2026-04-25T10:46:39.742Z</time></trkpt><trkpt lat="43.8003969" lon="11.5570985"><ele>589.8000000000001</ele><time>2026-04-25T10:46:40.74Z</time></trkpt><trkpt lat="43.8004473" lon="11.5572471"><ele>591.2</ele><time>2026-04-25T10:46:41.741Z</time></trkpt><trkpt lat="43.8004935" lon="11.5574061"><ele>592.6</ele><time>2026-04-25T10:46:42.74Z</time></trkpt><trkpt lat="43.8005295" lon="11.5575453"><ele>594.0</ele><time>2026-04-25T10:46:43.741Z</time></trkpt><trkpt lat="43.800539" lon="11.5576745"><ele>594.0</ele><time>2026-04-25T10:46:44.741Z</time></trkpt><trkpt lat="43.8005441" lon="11.5578088"><ele>594.0</ele><time>2026-04-25T10:46:45.74Z</time></trkpt><trkpt lat="43.8005384" lon="11.5579318"><ele>594.0</ele><time>2026-04-25T10:46:46.74Z</time></trkpt><trkpt lat="43.8005773" lon="11.5580578"><ele>594.0</ele><time>2026-04-25T10:46:47.74Z</time></trkpt><trkpt lat="43.800636" lon="11.558181"><ele>594.0</ele><time>2026-04-25T10:46:48.74Z</time></trkpt><trkpt lat="43.8006827" lon="11.5583023"><ele>595.8</ele><time>2026-04-25T10:46:49.741Z</time></trkpt><trkpt lat="43.8007186" lon="11.5584121"><ele>597.5999999999999</ele><time>2026-04-25T10:46:50.74Z</time></trkpt><trkpt lat="43.8007337" lon="11.5585121"><ele>599.4</ele><time>2026-04-25T10:46:51.74Z</time></trkpt><trkpt lat="43.8006906" lon="11.5586504"><ele>601.1999999999999</ele><time>2026-04-25T10:46:53.741Z</time></trkpt><trkpt lat="43.8005754" lon="11.5587307"><ele>603.0</ele><time>2026-04-25T10:46:55.74Z</time></trkpt><trkpt lat="43.8004912" lon="11.5587518"><ele>603.0</ele><time>2026-04-25T10:46:56.741Z</time></trkpt><trkpt lat="43.8003808" lon="11.5587271"><ele>603.0</ele><time>2026-04-25T10:46:58.741Z</time></trkpt><trkpt lat="43.8003238" lon="11.5586897"><ele>603.0</ele><time>2026-04-25T10:46:59.742Z</time></trkpt><trkpt lat="43.8002119" lon="11.5586667"><ele>603.0</ele><time>2026-04-25T10:47:01.741Z</time></trkpt><trkpt lat="43.8001407" lon="11.5586615"><ele>603.0</ele><time>2026-04-25T10:47:02.74Z</time></trkpt><trkpt lat="43.8000751" lon="11.558663"><ele>603.0</ele><time>2026-04-25T10:47:03.74Z</time></trkpt><trkpt lat="43.7999927" lon="11.5586751"><ele>606.5</ele><time>2026-04-25T10:47:04.742Z</time></trkpt><trkpt lat="43.7998982" lon="11.5587853"><ele>610.0</ele><time>2026-04-25T10:47:05.742Z</time></trkpt><trkpt lat="43.799738" lon="11.5589273"><ele>613.5</ele><time>2026-04-25T10:47:07.741Z</time></trkpt><trkpt lat="43.7996604" lon="11.5590051"><ele>617.0</ele><time>2026-04-25T10:47:08.74Z</time></trkpt><trkpt lat="43.7995987" lon="11.5591017"><ele>617.0</ele><time>2026-04-25T10:47:09.74Z</time></trkpt><trkpt lat="43.7995327" lon="11.5591675"><ele>617.0</ele><time>2026-04-25T10:47:10.74Z</time></trkpt><trkpt lat="43.7994489" lon="11.5592453"><ele>617.0</ele><time>2026-04-25T10:47:11.74Z</time></trkpt><trkpt lat="43.7993675" lon="11.559326"><ele>617.0</ele><time>2026-04-25T10:47:12.741Z</time></trkpt><trkpt lat="43.7992966" lon="11.5594144"><ele>617.0</ele><time>2026-04-25T10:47:13.741Z</time></trkpt><trkpt lat="43.7992257" lon="11.5594965"><ele>620.4</ele><time>2026-04-25T10:47:14.74Z</time></trkpt><trkpt lat="43.7991679" lon="11.559625"><ele>623.8000000000001</ele><time>2026-04-25T10:47:15.742Z</time></trkpt><trkpt lat="43.7990957" lon="11.5597379"><ele>627.2</ele><time>2026-04-25T10:47:16.741Z</time></trkpt><trkpt lat="43.7990235" lon="11.5598319"><ele>630.6</ele><time>2026-04-25T10:47:17.74Z</time></trkpt><trkpt lat="43.7989527" lon="11.5599342"><ele>634.0</ele><time>2026-04-25T10:47:18.741Z</time></trkpt><trkpt lat="43.7988982" lon="11.5600459"><ele>634.0</ele><time>2026-04-25T10:47:19.741Z</time></trkpt><trkpt lat="43.7988282" lon="11.5601662"><ele>634.0</ele><time>2026-04-25T10:47:20.74Z</time></trkpt><trkpt lat="43.798763" lon="11.5603004"><ele>634.0</ele><time>2026-04-25T10:47:21.74Z</time></trkpt><trkpt lat="43.7986856" lon="11.5604323"><ele>634.0</ele><time>2026-04-25T10:47:22.741Z</time></trkpt><trkpt lat="43.7986236" lon="11.5605525"><ele>633.4</ele><time>2026-04-25T10:47:23.741Z</time></trkpt><trkpt lat="43.798559" lon="11.5606714"><ele>632.8</ele><time>2026-04-25T10:47:24.74Z</time></trkpt><trkpt lat="43.7985014" lon="11.5607742"><ele>632.2</ele><time>2026-04-25T10:47:25.74Z</time></trkpt><trkpt lat="43.7984247" lon="11.5608404"><ele>631.6</ele><time>2026-04-25T10:47:26.74Z</time></trkpt><trkpt lat="43.7983393" lon="11.5608991"><ele>631.0</ele><time>2026-04-25T10:47:27.74Z</time></trkpt><trkpt lat="43.798247" lon="11.5609692"><ele>635.6</ele><time>2026-04-25T10:47:28.741Z</time></trkpt><trkpt lat="43.7981666" lon="11.5610329"><ele>640.2</ele><time>2026-04-25T10:47:29.74Z</time></trkpt><trkpt lat="43.7980938" lon="11.561113"><ele>644.8000000000001</ele><time>2026-04-25T10:47:30.741Z</time></trkpt><trkpt lat="43.7980061" lon="11.561196"><ele>649.4000000000001</ele><time>2026-04-25T10:47:31.741Z</time></trkpt><trkpt lat="43.7979004" lon="11.5612567"><ele>654.0</ele><time>2026-04-25T10:47:32.74Z</time></trkpt><trkpt lat="43.7978033" lon="11.5613286"><ele>654.0</ele><time>2026-04-25T10:47:33.74Z</time></trkpt><trkpt lat="43.7977074" lon="11.5614269"><ele>654.0</ele><time>2026-04-25T10:47:34.741Z</time></trkpt><trkpt lat="43.7976225" lon="11.5615612"><ele>654.0</ele><time>2026-04-25T10:47:35.741Z</time></trkpt><trkpt lat="43.7975277" lon="11.5616859"><ele>654.0</ele><time>2026-04-25T10:47:36.74Z</time></trkpt><trkpt lat="43.7974431" lon="11.561812"><ele>657.25</ele><time>2026-04-25T10:47:37.741Z</time></trkpt><trkpt lat="43.7973492" lon="11.561934"><ele>660.5</ele><time>2026-04-25T10:47:38.74Z</time></trkpt><trkpt lat="43.7972892" lon="11.5620404"><ele>663.75</ele><time>2026-04-25T10:47:39.74Z</time></trkpt><trkpt lat="43.7972086" lon="11.5621948"><ele>667.0</ele><time>2026-04-25T10:47:40.741Z</time></trkpt><trkpt lat="43.7971097" lon="11.5623098"><ele>667.5</ele><time>2026-04-25T10:47:41.74Z</time></trkpt><trkpt lat="43.7969941" lon="11.5624132"><ele>668.0</ele><time>2026-04-25T10:47:42.74Z</time></trkpt><trkpt lat="43.7968838" lon="11.5625252"><ele>668.5</ele><time>2026-04-25T10:47:43.74Z</time></trkpt><trkpt lat="43.7967849" lon="11.5626251"><ele>669.0</ele><time>2026-04-25T10:47:44.74Z</time></trkpt><trkpt lat="43.7966994" lon="11.5627388"><ele>671.6666666666666</ele><time>2026-04-25T10:47:45.74Z</time></trkpt><trkpt lat="43.7967337" lon="11.5628885"><ele>674.3333333333334</ele><time>2026-04-25T10:47:46.741Z</time></trkpt><trkpt lat="43.796711" lon="11.563017"><ele>677.0</ele><time>2026-04-25T10:47:47.74Z</time></trkpt><trkpt lat="43.7966935" lon="11.5631194"><ele>679.6666666666667</ele><time>2026-04-25T10:47:48.74Z</time></trkpt><trkpt lat="43.7966727" lon="11.5632156"><ele>682.3333333333334</ele><time>2026-04-25T10:47:49.742Z</time></trkpt><trkpt lat="43.7966095" lon="11.5632606"><ele>685.0</ele><time>2026-04-25T10:47:51.741Z</time></trkpt><trkpt lat="43.7965684" lon="11.5631648"><ele>685.0</ele><time>2026-04-25T10:47:53.741Z</time></trkpt><trkpt lat="43.7964993" lon="11.563005"><ele>685.0</ele><time>2026-04-25T10:47:55.74Z</time></trkpt><trkpt lat="43.7964756" lon="11.5628956"><ele>685.0</ele><time>2026-04-25T10:47:56.741Z</time></trkpt><trkpt lat="43.7964601" lon="11.562742"><ele>685.0</ele><time>2026-04-25T10:47:57.74Z</time></trkpt><trkpt lat="43.7964482" lon="11.5626073"><ele>685.0</ele><time>2026-04-25T10:47:58.741Z</time></trkpt><trkpt lat="43.7964352" lon="11.5624535"><ele>685.2</ele><time>2026-04-25T10:47:59.74Z</time></trkpt><trkpt lat="43.7964189" lon="11.5623433"><ele>685.4</ele><time>2026-04-25T10:48:00.741Z</time></trkpt><trkpt lat="43.7963887" lon="11.5621972"><ele>685.5999999999999</ele><time>2026-04-25T10:48:01.74Z</time></trkpt><trkpt lat="43.7963834" lon="11.5620547"><ele>685.8</ele><time>2026-04-25T10:48:02.74Z</time></trkpt><trkpt lat="43.7963866" lon="11.5619274"><ele>686.0</ele><time>2026-04-25T10:48:03.74Z</time></trkpt><trkpt lat="43.7963969" lon="11.5617883"><ele>688.5</ele><time>2026-04-25T10:48:04.741Z</time></trkpt><trkpt lat="43.7964454" lon="11.5616379"><ele>691.0</ele><time>2026-04-25T10:48:05.74Z</time></trkpt><trkpt lat="43.7965199" lon="11.5614675"><ele>693.5</ele><time>2026-04-25T10:48:06.74Z</time></trkpt><trkpt lat="43.7965793" lon="11.5613288"><ele>696.0</ele><time>2026-04-25T10:48:07.74Z</time></trkpt><trkpt lat="43.7966311" lon="11.5611861"><ele>700.0</ele><time>2026-04-25T10:48:08.741Z</time></trkpt><trkpt lat="43.796694" lon="11.561067"><ele>704.0</ele><time>2026-04-25T10:48:09.742Z</time></trkpt><trkpt lat="43.7967632" lon="11.5609493"><ele>708.0</ele><time>2026-04-25T10:48:10.74Z</time></trkpt><trkpt lat="43.7968461" lon="11.5608273"><ele>712.0</ele><time>2026-04-25T10:48:11.74Z</time></trkpt><trkpt lat="43.7969318" lon="11.5606879"><ele>708.4000000000001</ele><time>2026-04-25T10:48:12.74Z</time></trkpt><trkpt lat="43.797009" lon="11.5605313"><ele>704.8000000000001</ele><time>2026-04-25T10:48:13.741Z</time></trkpt><trkpt lat="43.7970685" lon="11.5603881"><ele>701.2</ele><time>2026-04-25T10:48:14.74Z</time></trkpt><trkpt lat="43.7971267" lon="11.5602664"><ele>697.6</ele><time>2026-04-25T10:48:15.742Z</time></trkpt><trkpt lat="43.7971666" lon="11.5601691"><ele>694.0</ele><time>2026-04-25T10:48:16.74Z</time></trkpt><trkpt lat="43.7972013" lon="11.5600916"><ele>694.0</ele><time>2026-04-25T10:48:17.74Z</time></trkpt><trkpt lat="43.7972069" lon="11.5599952"><ele>694.0</ele><time>2026-04-25T10:48:20.74Z</time></trkpt><trkpt lat="43.797106" lon="11.5600621"><ele>694.0</ele><time>2026-04-25T10:48:23.74Z</time></trkpt><trkpt lat="43.7970234" lon="11.5601619"><ele>694.0</ele><time>2026-04-25T10:48:25.74Z</time></trkpt><trkpt lat="43.7969665" lon="11.5602695"><ele>694.0</ele><time>2026-04-25T10:48:27.741Z</time></trkpt><trkpt lat="43.7969382" lon="11.5603532"><ele>691.3333333333334</ele><time>2026-04-25T10:48:28.74Z</time></trkpt><trkpt lat="43.7968952" lon="11.560438"><ele>688.6666666666667</ele><time>2026-04-25T10:48:29.741Z</time></trkpt><trkpt lat="43.7968375" lon="11.5605201"><ele>686.0</ele><time>2026-04-25T10:48:30.741Z</time></trkpt><trkpt lat="43.7967822" lon="11.5606019"><ele>683.3333333333334</ele><time>2026-04-25T10:48:31.741Z</time></trkpt><trkpt lat="43.7967217" lon="11.5606855"><ele>680.6666666666666</ele><time>2026-04-25T10:48:32.74Z</time></trkpt><trkpt lat="43.7966396" lon="11.5607432"><ele>678.0</ele><time>2026-04-25T10:48:33.74Z</time></trkpt><trkpt lat="43.7965613" lon="11.5608263"><ele>681.0</ele><time>2026-04-25T10:48:34.74Z</time></trkpt><trkpt lat="43.7964978" lon="11.5609028"><ele>684.0</ele><time>2026-04-25T10:48:35.741Z</time></trkpt><trkpt lat="43.7964368" lon="11.5609766"><ele>687.0</ele><time>2026-04-25T10:48:36.74Z</time></trkpt><trkpt lat="43.7963815" lon="11.5610666"><ele>690.0</ele><time>2026-04-25T10:48:37.74Z</time></trkpt><trkpt lat="43.7963304" lon="11.5611537"><ele>693.0</ele><time>2026-04-25T10:48:38.74Z</time></trkpt><trkpt lat="43.7962748" lon="11.5612042"><ele>696.0</ele><time>2026-04-25T10:48:39.74Z</time></trkpt><trkpt lat="43.7962228" lon="11.5612673"><ele>696.0</ele><time>2026-04-25T10:48:40.741Z</time></trkpt><trkpt lat="43.7961572" lon="11.5612938"><ele>696.0</ele><time>2026-04-25T10:48:41.74Z</time></trkpt><trkpt lat="43.7960838" lon="11.5613582"><ele>696.0</ele><time>2026-04-25T10:48:42.74Z</time></trkpt><trkpt lat="43.7960222" lon="11.5613996"><ele>696.0</ele><time>2026-04-25T10:48:43.74Z</time></trkpt><trkpt lat="43.7959701" lon="11.5614647"><ele>696.0</ele><time>2026-04-25T10:48:44.74Z</time></trkpt><trkpt lat="43.795932" lon="11.5615905"><ele>696.0</ele><time>2026-04-25T10:48:45.74Z</time></trkpt><trkpt lat="43.7958805" lon="11.5617122"><ele>702.3333333333334</ele><time>2026-04-25T10:48:46.74Z</time></trkpt><trkpt lat="43.7958327" lon="11.5618141"><ele>708.6666666666666</ele><time>2026-04-25T10:48:47.74Z</time></trkpt><trkpt lat="43.795787" lon="11.5619291"><ele>715.0</ele><time>2026-04-25T10:48:48.74Z</time></trkpt><trkpt lat="43.7957232" lon="11.5620326"><ele>721.3333333333333</ele><time>2026-04-25T10:48:49.741Z</time></trkpt><trkpt lat="43.7956865" lon="11.5621128"><ele>727.6666666666666</ele><time>2026-04-25T10:48:50.741Z</time></trkpt><trkpt lat="43.7956567" lon="11.5622013"><ele>734.0</ele><time>2026-04-25T10:48:51.74Z</time></trkpt><trkpt lat="43.7956179" lon="11.5622762"><ele>734.0</ele><time>2026-04-25T10:48:52.741Z</time></trkpt><trkpt lat="43.7955645" lon="11.5623573"><ele>734.0</ele><time>2026-04-25T10:48:53.741Z</time></trkpt><trkpt lat="43.7955124" lon="11.5624232"><ele>734.0</ele><time>2026-04-25T10:48:54.74Z</time></trkpt><trkpt lat="43.7954684" lon="11.5625155"><ele>734.0</ele><time>2026-04-25T10:48:55.74Z</time></trkpt><trkpt lat="43.7954072" lon="11.5626556"><ele>734.0</ele><time>2026-04-25T10:48:56.74Z</time></trkpt><trkpt lat="43.795379" lon="11.5627887"><ele>734.0</ele><time>2026-04-25T10:48:57.74Z</time></trkpt><trkpt lat="43.7953489" lon="11.5629187"><ele>732.6666666666666</ele><time>2026-04-25T10:48:58.74Z</time></trkpt><trkpt lat="43.795308" lon="11.5630309"><ele>731.3333333333333</ele><time>2026-04-25T10:48:59.74Z</time></trkpt><trkpt lat="43.7952769" lon="11.5631375"><ele>730.0</ele><time>2026-04-25T10:49:00.74Z</time></trkpt><trkpt lat="43.7952375" lon="11.5632432"><ele>728.6666666666666</ele><time>2026-04-25T10:49:01.74Z</time></trkpt><trkpt lat="43.7951811" lon="11.5633543"><ele>727.3333333333334</ele><time>2026-04-25T10:49:02.74Z</time></trkpt><trkpt lat="43.7951465" lon="11.5634659"><ele>726.0</ele><time>2026-04-25T10:49:03.741Z</time></trkpt><trkpt lat="43.7951071" lon="11.5635901"><ele>734.0</ele><time>2026-04-25T10:49:04.74Z</time></trkpt><trkpt lat="43.7950963" lon="11.563688"><ele>742.0</ele><time>2026-04-25T10:49:05.74Z</time></trkpt><trkpt lat="43.7950998" lon="11.5637863"><ele>750.0</ele><time>2026-04-25T10:49:06.741Z</time></trkpt><trkpt lat="43.7950911" lon="11.5638905"><ele>758.0</ele><time>2026-04-25T10:49:07.74Z</time></trkpt><trkpt lat="43.7951099" lon="11.5639919"><ele>766.0</ele><time>2026-04-25T10:49:08.741Z</time></trkpt><trkpt lat="43.7951264" lon="11.5641016"><ele>774.0</ele><time>2026-04-25T10:49:09.741Z</time></trkpt><trkpt lat="43.7951581" lon="11.5641981"><ele>773.0</ele><time>2026-04-25T10:49:10.74Z</time></trkpt><trkpt lat="43.7951894" lon="11.5643936"><ele>772.0</ele><time>2026-04-25T10:49:12.741Z</time></trkpt><trkpt lat="43.7951744" lon="11.5645054"><ele>771.0</ele><time>2026-04-25T10:49:13.74Z</time></trkpt><trkpt lat="43.7951314" lon="11.5645933"><ele>770.0</ele><time>2026-04-25T10:49:14.74Z</time></trkpt><trkpt lat="43.7951082" lon="11.5646793"><ele>769.0</ele><time>2026-04-25T10:49:15.741Z</time></trkpt><trkpt lat="43.7949957" lon="11.5647824"><ele>769.0</ele><time>2026-04-25T10:49:17.741Z</time></trkpt><trkpt lat="43.794925" lon="11.5648349"><ele>769.0</ele><time>2026-04-25T10:49:18.74Z</time></trkpt><trkpt lat="43.7948324" lon="11.5649496"><ele>769.0</ele><time>2026-04-25T10:49:20.74Z</time></trkpt><trkpt lat="43.7947867" lon="11.5651322"><ele>769.0</ele><time>2026-04-25T10:49:22.741Z</time></trkpt><trkpt lat="43.794755" lon="11.5652095"><ele>769.0</ele><time>2026-04-25T10:49:23.74Z</time></trkpt><trkpt lat="43.7947117" lon="11.5652905"><ele>769.0</ele><time>2026-04-25T10:49:24.74Z</time></trkpt><trkpt lat="43.7946567" lon="11.5653446"><ele>769.0</ele><time>2026-04-25T10:49:25.741Z</time></trkpt><trkpt lat="43.7945578" lon="11.565396"><ele>769.0</ele><time>2026-04-25T10:49:26.741Z</time></trkpt><trkpt lat="43.7944868" lon="11.565435"><ele>769.0</ele><time>2026-04-25T10:49:27.74Z</time></trkpt><trkpt lat="43.7944126" lon="11.5655649"><ele>769.0</ele><time>2026-04-25T10:49:29.741Z</time></trkpt><trkpt lat="43.7944186" lon="11.5656896"><ele>768.9999999999999</ele><time>2026-04-25T10:49:30.74Z</time></trkpt><trkpt lat="43.7944514" lon="11.5658147"><ele>769.0</ele><time>2026-04-25T10:49:31.742Z</time></trkpt><trkpt lat="43.7944988" lon="11.5659039"><ele>769.0</ele><time>2026-04-25T10:49:32.741Z</time></trkpt><trkpt lat="43.7945527" lon="11.5660164"><ele>769.0</ele><time>2026-04-25T10:49:33.74Z</time></trkpt><trkpt lat="43.7945813" lon="11.5661138"><ele>768.9999999999999</ele><time>2026-04-25T10:49:34.74Z</time></trkpt><trkpt lat="43.794599" lon="11.5662166"><ele>769.0</ele><time>2026-04-25T10:49:35.74Z</time></trkpt><trkpt lat="43.7946232" lon="11.5663318"><ele>769.3333333333333</ele><time>2026-04-25T10:49:36.74Z</time></trkpt><trkpt lat="43.7946192" lon="11.5664936"><ele>769.6666666666666</ele><time>2026-04-25T10:49:38.741Z</time></trkpt><trkpt lat="43.7945637" lon="11.5665628"><ele>770.0</ele><time>2026-04-25T10:49:39.742Z</time></trkpt><trkpt lat="43.7945262" lon="11.5666456"><ele>770.3333333333333</ele><time>2026-04-25T10:49:40.74Z</time></trkpt><trkpt lat="43.7944805" lon="11.5667461"><ele>770.6666666666666</ele><time>2026-04-25T10:49:41.741Z</time></trkpt><trkpt lat="43.7944206" lon="11.5668297"><ele>771.0</ele><time>2026-04-25T10:49:42.74Z</time></trkpt><trkpt lat="43.7943728" lon="11.5668962"><ele>776.4</ele><time>2026-04-25T10:49:43.741Z</time></trkpt><trkpt lat="43.7943115" lon="11.5669604"><ele>781.8</ele><time>2026-04-25T10:49:44.74Z</time></trkpt><trkpt lat="43.7942468" lon="11.5670447"><ele>787.1999999999999</ele><time>2026-04-25T10:49:45.74Z</time></trkpt><trkpt lat="43.7941564" lon="11.567128"><ele>792.5999999999999</ele><time>2026-04-25T10:49:46.741Z</time></trkpt><trkpt lat="43.7940628" lon="11.5672081"><ele>798.0</ele><time>2026-04-25T10:49:47.741Z</time></trkpt><trkpt lat="43.7939848" lon="11.5672768"><ele>798.0</ele><time>2026-04-25T10:49:48.741Z</time></trkpt><trkpt lat="43.7939039" lon="11.5673169"><ele>798.0</ele><time>2026-04-25T10:49:49.74Z</time></trkpt><trkpt lat="43.7938169" lon="11.5673535"><ele>798.0</ele><time>2026-04-25T10:49:50.74Z</time></trkpt><trkpt lat="43.7937356" lon="11.5674098"><ele>798.0</ele><time>2026-04-25T10:49:51.74Z</time></trkpt><trkpt lat="43.7936893" lon="11.5674887"><ele>798.0</ele><time>2026-04-25T10:49:52.741Z</time></trkpt><trkpt lat="43.7936463" lon="11.5675942"><ele>798.0</ele><time>2026-04-25T10:49:53.74Z</time></trkpt><trkpt lat="43.7935997" lon="11.5677185"><ele>801.5999999999999</ele><time>2026-04-25T10:49:55.74Z</time></trkpt><trkpt lat="43.793478" lon="11.5677828"><ele>805.1999999999999</ele><time>2026-04-25T10:49:57.741Z</time></trkpt><trkpt lat="43.79341" lon="11.5678237"><ele>808.8</ele><time>2026-04-25T10:49:58.741Z</time></trkpt><trkpt lat="43.7933377" lon="11.5679334"><ele>812.4</ele><time>2026-04-25T10:50:00.74Z</time></trkpt><trkpt lat="43.7933239" lon="11.5680431"><ele>816.0</ele><time>2026-04-25T10:50:01.74Z</time></trkpt><trkpt lat="43.7933184" lon="11.5681476"><ele>816.0</ele><time>2026-04-25T10:50:02.74Z</time></trkpt><trkpt lat="43.793317" lon="11.5682493"><ele>816.0</ele><time>2026-04-25T10:50:03.74Z</time></trkpt><trkpt lat="43.7933008" lon="11.5683443"><ele>816.0</ele><time>2026-04-25T10:50:04.741Z</time></trkpt><trkpt lat="43.7932514" lon="11.5684693"><ele>816.0</ele><time>2026-04-25T10:50:05.74Z</time></trkpt><trkpt lat="43.7932248" lon="11.5685966"><ele>816.0</ele><time>2026-04-25T10:50:06.74Z</time></trkpt><trkpt lat="43.7931898" lon="11.5687125"><ele>816.0</ele><time>2026-04-25T10:50:07.74Z</time></trkpt><trkpt lat="43.7931534" lon="11.5688386"><ele>816.4</ele><time>2026-04-25T10:50:08.741Z</time></trkpt><trkpt lat="43.7931156" lon="11.5689706"><ele>816.8</ele><time>2026-04-25T10:50:09.74Z</time></trkpt><trkpt lat="43.7931119" lon="11.5691039"><ele>817.1999999999999</ele><time>2026-04-25T10:50:10.74Z</time></trkpt><trkpt lat="43.7930941" lon="11.5692363"><ele>817.5999999999999</ele><time>2026-04-25T10:50:11.741Z</time></trkpt><trkpt lat="43.7930601" lon="11.5693337"><ele>818.0</ele><time>2026-04-25T10:50:12.741Z</time></trkpt><trkpt lat="43.7930143" lon="11.5694625"><ele>818.1428571428571</ele><time>2026-04-25T10:50:14.741Z</time></trkpt><trkpt lat="43.7929741" lon="11.5695351"><ele>818.2857142857143</ele><time>2026-04-25T10:50:15.74Z</time></trkpt><trkpt lat="43.7929041" lon="11.5695845"><ele>818.4285714285714</ele><time>2026-04-25T10:50:16.741Z</time></trkpt><trkpt lat="43.7928519" lon="11.5696433"><ele>818.5714285714286</ele><time>2026-04-25T10:50:17.74Z</time></trkpt><trkpt lat="43.7927971" lon="11.5696921"><ele>818.7142857142858</ele><time>2026-04-25T10:50:18.741Z</time></trkpt><trkpt lat="43.7927398" lon="11.5697322"><ele>818.8571428571429</ele><time>2026-04-25T10:50:19.74Z</time></trkpt><trkpt lat="43.7926732" lon="11.5697587"><ele>819.0</ele><time>2026-04-25T10:50:20.74Z</time></trkpt><trkpt lat="43.7926017" lon="11.5697723"><ele>821.2</ele><time>2026-04-25T10:50:21.741Z</time></trkpt><trkpt lat="43.7925213" lon="11.5697713"><ele>823.4000000000001</ele><time>2026-04-25T10:50:22.74Z</time></trkpt><trkpt lat="43.792436" lon="11.5697734"><ele>825.6</ele><time>2026-04-25T10:50:23.74Z</time></trkpt><trkpt lat="43.7923337" lon="11.5697791"><ele>827.8</ele><time>2026-04-25T10:50:24.74Z</time></trkpt><trkpt lat="43.792228" lon="11.5697982"><ele>830.0</ele><time>2026-04-25T10:50:25.74Z</time></trkpt><trkpt lat="43.7921163" lon="11.5698131"><ele>830.0</ele><time>2026-04-25T10:50:26.74Z</time></trkpt><trkpt lat="43.7920177" lon="11.569835"><ele>830.0</ele><time>2026-04-25T10:50:27.741Z</time></trkpt><trkpt lat="43.7919149" lon="11.5698755"><ele>830.0</ele><time>2026-04-25T10:50:28.74Z</time></trkpt><trkpt lat="43.7919175" lon="11.5700013"><ele>830.0</ele><time>2026-04-25T10:50:29.74Z</time></trkpt><trkpt lat="43.7918997" lon="11.5701255"><ele>830.0</ele><time>2026-04-25T10:50:30.741Z</time></trkpt><trkpt lat="43.7918535" lon="11.5702702"><ele>832.4</ele><time>2026-04-25T10:50:31.741Z</time></trkpt><trkpt lat="43.7918088" lon="11.5704086"><ele>834.8</ele><time>2026-04-25T10:50:32.741Z</time></trkpt><trkpt lat="43.7917543" lon="11.5705509"><ele>837.2</ele><time>2026-04-25T10:50:33.74Z</time></trkpt><trkpt lat="43.7917031" lon="11.5706918"><ele>839.6</ele><time>2026-04-25T10:50:34.74Z</time></trkpt><trkpt lat="43.7916841" lon="11.5708135"><ele>842.0</ele><time>2026-04-25T10:50:35.74Z</time></trkpt><trkpt lat="43.7916366" lon="11.5709301"><ele>842.0</ele><time>2026-04-25T10:50:36.741Z</time></trkpt><trkpt lat="43.7915385" lon="11.5710319"><ele>842.0</ele><time>2026-04-25T10:50:38.741Z</time></trkpt><trkpt lat="43.7914664" lon="11.5710609"><ele>842.0</ele><time>2026-04-25T10:50:39.741Z</time></trkpt><trkpt lat="43.7913395" lon="11.571065"><ele>842.0</ele><time>2026-04-25T10:50:40.74Z</time></trkpt><trkpt lat="43.7912071" lon="11.5710307"><ele>842.0</ele><time>2026-04-25T10:50:41.741Z</time></trkpt><trkpt lat="43.7910995" lon="11.5710344"><ele>842.0</ele><time>2026-04-25T10:50:42.74Z</time></trkpt><trkpt lat="43.7910162" lon="11.5710375"><ele>842.0</ele><time>2026-04-25T10:50:43.74Z</time></trkpt><trkpt lat="43.7909334" lon="11.5710609"><ele>842.0</ele><time>2026-04-25T10:50:44.741Z</time></trkpt><trkpt lat="43.7908516" lon="11.5711117"><ele>842.0</ele><time>2026-04-25T10:50:45.74Z</time></trkpt><trkpt lat="43.7908043" lon="11.5712979"><ele>845.2</ele><time>2026-04-25T10:50:46.74Z</time></trkpt><trkpt lat="43.790748" lon="11.5714015"><ele>848.4000000000001</ele><time>2026-04-25T10:50:47.74Z</time></trkpt><trkpt lat="43.7906968" lon="11.5714683"><ele>851.5999999999999</ele><time>2026-04-25T10:50:48.742Z</time></trkpt><trkpt lat="43.7906379" lon="11.571564"><ele>854.8</ele><time>2026-04-25T10:50:49.741Z</time></trkpt><trkpt lat="43.7905224" lon="11.571663"><ele>858.0</ele><time>2026-04-25T10:50:50.74Z</time></trkpt><trkpt lat="43.7904338" lon="11.571702"><ele>858.0</ele><time>2026-04-25T10:50:51.74Z</time></trkpt><trkpt lat="43.7903513" lon="11.5717387"><ele>858.0</ele><time>2026-04-25T10:50:52.74Z</time></trkpt><trkpt lat="43.7902446" lon="11.5717485"><ele>858.0</ele><time>2026-04-25T10:50:53.74Z</time></trkpt><trkpt lat="43.7901304" lon="11.5717577"><ele>858.0</ele><time>2026-04-25T10:50:54.741Z</time></trkpt><trkpt lat="43.7900089" lon="11.5717382"><ele>858.0</ele><time>2026-04-25T10:50:55.74Z</time></trkpt><trkpt lat="43.7899256" lon="11.5717591"><ele>863.0</ele><time>2026-04-25T10:50:56.74Z</time></trkpt><trkpt lat="43.7898261" lon="11.5718004"><ele>868.0</ele><time>2026-04-25T10:50:57.742Z</time></trkpt><trkpt lat="43.7897268" lon="11.5718303"><ele>873.0</ele><time>2026-04-25T10:50:58.741Z</time></trkpt><trkpt lat="43.789628" lon="11.5718299"><ele>878.0</ele><time>2026-04-25T10:50:59.74Z</time></trkpt><trkpt lat="43.7895301" lon="11.5717947"><ele>883.0</ele><time>2026-04-25T10:51:00.74Z</time></trkpt><trkpt lat="43.7894181" lon="11.5717779"><ele>885.0</ele><time>2026-04-25T10:51:01.74Z</time></trkpt><trkpt lat="43.7893152" lon="11.5718066"><ele>887.0</ele><time>2026-04-25T10:51:02.741Z</time></trkpt><trkpt lat="43.7892375" lon="11.5718272"><ele>889.0</ele><time>2026-04-25T10:51:03.74Z</time></trkpt><trkpt lat="43.7891385" lon="11.5719202"><ele>891.0</ele><time>2026-04-25T10:51:04.74Z</time></trkpt><trkpt lat="43.7890555" lon="11.5719674"><ele>893.0</ele><time>2026-04-25T10:51:05.741Z</time></trkpt><trkpt lat="43.7889771" lon="11.5719984"><ele>893.0000000000001</ele><time>2026-04-25T10:51:06.74Z</time></trkpt><trkpt lat="43.7888892" lon="11.572022"><ele>893.0</ele><time>2026-04-25T10:51:07.74Z</time></trkpt><trkpt lat="43.7887967" lon="11.5720492"><ele>893.0</ele><time>2026-04-25T10:51:08.74Z</time></trkpt><trkpt lat="43.788716" lon="11.5720699"><ele>893.0</ele><time>2026-04-25T10:51:09.741Z</time></trkpt><trkpt lat="43.7886455" lon="11.5720829"><ele>893.0000000000001</ele><time>2026-04-25T10:51:10.741Z</time></trkpt><trkpt lat="43.7885685" lon="11.5720856"><ele>893.0</ele><time>2026-04-25T10:51:11.741Z</time></trkpt><trkpt lat="43.788494" lon="11.572078"><ele>891.5000000000001</ele><time>2026-04-25T10:51:12.74Z</time></trkpt><trkpt lat="43.7884175" lon="11.5720665"><ele>890.0</ele><time>2026-04-25T10:51:13.741Z</time></trkpt><trkpt lat="43.7883352" lon="11.5720577"><ele>888.5</ele><time>2026-04-25T10:51:14.742Z</time></trkpt><trkpt lat="43.7882456" lon="11.5720643"><ele>887.0</ele><time>2026-04-25T10:51:15.741Z</time></trkpt><trkpt lat="43.7881532" lon="11.5720995"><ele>885.5000000000001</ele><time>2026-04-25T10:51:16.741Z</time></trkpt><trkpt lat="43.7880601" lon="11.5721561"><ele>884.0</ele><time>2026-04-25T10:51:17.741Z</time></trkpt><trkpt lat="43.7879662" lon="11.5722182"><ele>884.0</ele><time>2026-04-25T10:51:18.74Z</time></trkpt><trkpt lat="43.7878727" lon="11.5722865"><ele>884.0000000000001</ele><time>2026-04-25T10:51:19.74Z</time></trkpt><trkpt lat="43.7877953" lon="11.5723716"><ele>884.0000000000001</ele><time>2026-04-25T10:51:20.74Z</time></trkpt><trkpt lat="43.7877137" lon="11.572448"><ele>884.0</ele><time>2026-04-25T10:51:21.741Z</time></trkpt><trkpt lat="43.7876564" lon="11.5725743"><ele>884.0</ele><time>2026-04-25T10:51:22.74Z</time></trkpt><trkpt lat="43.7876075" lon="11.5726697"><ele>885.0</ele><time>2026-04-25T10:51:23.74Z</time></trkpt><trkpt lat="43.7875712" lon="11.5727542"><ele>886.0000000000001</ele><time>2026-04-25T10:51:24.74Z</time></trkpt><trkpt lat="43.7875163" lon="11.5729057"><ele>887.0000000000001</ele><time>2026-04-25T10:51:26.741Z</time></trkpt><trkpt lat="43.7874805" lon="11.5730551"><ele>888.0</ele><time>2026-04-25T10:51:28.74Z</time></trkpt><trkpt lat="43.7874515" lon="11.5732189"><ele>889.0</ele><time>2026-04-25T10:51:30.741Z</time></trkpt><trkpt lat="43.7872848" lon="11.5735381"><ele>891.75</ele><time>2026-04-25T10:51:33.741Z</time></trkpt><trkpt lat="43.7872319" lon="11.5736974"><ele>894.5</ele><time>2026-04-25T10:51:34.741Z</time></trkpt><trkpt lat="43.7871512" lon="11.5738289"><ele>897.25</ele><time>2026-04-25T10:51:35.74Z</time></trkpt><trkpt lat="43.7870744" lon="11.5739503"><ele>900.0</ele><time>2026-04-25T10:51:36.74Z</time></trkpt><trkpt lat="43.7870025" lon="11.5740522"><ele>900.0</ele><time>2026-04-25T10:51:37.74Z</time></trkpt><trkpt lat="43.7869368" lon="11.5741474"><ele>900.0</ele><time>2026-04-25T10:51:38.741Z</time></trkpt><trkpt lat="43.7868532" lon="11.5742309"><ele>900.0</ele><time>2026-04-25T10:51:39.741Z</time></trkpt><trkpt lat="43.7867543" lon="11.5743084"><ele>900.0</ele><time>2026-04-25T10:51:40.74Z</time></trkpt><trkpt lat="43.7866701" lon="11.5743723"><ele>900.0</ele><time>2026-04-25T10:51:41.74Z</time></trkpt><trkpt lat="43.7866109" lon="11.5744487"><ele>902.0</ele><time>2026-04-25T10:51:42.74Z</time></trkpt><trkpt lat="43.7865749" lon="11.5745388"><ele>904.0</ele><time>2026-04-25T10:51:43.741Z</time></trkpt><trkpt lat="43.7865537" lon="11.5746514"><ele>906.0</ele><time>2026-04-25T10:51:44.741Z</time></trkpt><trkpt lat="43.7865504" lon="11.5747782"><ele>908.0</ele><time>2026-04-25T10:51:45.741Z</time></trkpt><trkpt lat="43.7865608" lon="11.5749191"><ele>910.0</ele><time>2026-04-25T10:51:46.74Z</time></trkpt><trkpt lat="43.7865623" lon="11.5750659"><ele>909.9999999999999</ele><time>2026-04-25T10:51:47.74Z</time></trkpt><trkpt lat="43.7865505" lon="11.5751783"><ele>910.0</ele><time>2026-04-25T10:51:48.742Z</time></trkpt><trkpt lat="43.7865319" lon="11.5752816"><ele>910.0</ele><time>2026-04-25T10:51:49.74Z</time></trkpt><trkpt lat="43.7864871" lon="11.5753474"><ele>910.0</ele><time>2026-04-25T10:51:50.741Z</time></trkpt><trkpt lat="43.7864354" lon="11.5754085"><ele>909.9999999999999</ele><time>2026-04-25T10:51:51.74Z</time></trkpt><trkpt lat="43.7863274" lon="11.5754298"><ele>910.0</ele><time>2026-04-25T10:51:53.741Z</time></trkpt><trkpt lat="43.7861849" lon="11.5753726"><ele>910.6666666666666</ele><time>2026-04-25T10:51:55.74Z</time></trkpt><trkpt lat="43.7861106" lon="11.5753605"><ele>911.3333333333333</ele><time>2026-04-25T10:51:56.74Z</time></trkpt><trkpt lat="43.7860353" lon="11.5753764"><ele>912.0</ele><time>2026-04-25T10:51:57.74Z</time></trkpt><trkpt lat="43.7859711" lon="11.5754131"><ele>912.6666666666667</ele><time>2026-04-25T10:51:58.741Z</time></trkpt><trkpt lat="43.7859036" lon="11.5754847"><ele>913.3333333333334</ele><time>2026-04-25T10:51:59.74Z</time></trkpt><trkpt lat="43.785841" lon="11.5755774"><ele>914.0</ele><time>2026-04-25T10:52:00.74Z</time></trkpt><trkpt lat="43.7857723" lon="11.5756985"><ele>914.8000000000001</ele><time>2026-04-25T10:52:01.742Z</time></trkpt><trkpt lat="43.7856987" lon="11.5758178"><ele>915.6000000000001</ele><time>2026-04-25T10:52:02.742Z</time></trkpt><trkpt lat="43.785642" lon="11.5759236"><ele>916.4</ele><time>2026-04-25T10:52:03.74Z</time></trkpt><trkpt lat="43.7856049" lon="11.5760226"><ele>917.2</ele><time>2026-04-25T10:52:04.741Z</time></trkpt><trkpt lat="43.7855953" lon="11.576111"><ele>918.0</ele><time>2026-04-25T10:52:05.74Z</time></trkpt><trkpt lat="43.785666" lon="11.5762618"><ele>919.3333333333334</ele><time>2026-04-25T10:52:07.74Z</time></trkpt><trkpt lat="43.7857302" lon="11.5763396"><ele>920.6666666666667</ele><time>2026-04-25T10:52:08.74Z</time></trkpt><trkpt lat="43.7857875" lon="11.576422"><ele>922.0</ele><time>2026-04-25T10:52:09.741Z</time></trkpt><trkpt lat="43.7858332" lon="11.5765109"><ele>923.3333333333334</ele><time>2026-04-25T10:52:10.741Z</time></trkpt><trkpt lat="43.7858719" lon="11.5766229"><ele>924.6666666666667</ele><time>2026-04-25T10:52:11.74Z</time></trkpt><trkpt lat="43.7859083" lon="11.5767503"><ele>926.0</ele><time>2026-04-25T10:52:12.741Z</time></trkpt><trkpt lat="43.785945" lon="11.5768739"><ele>926.0</ele><time>2026-04-25T10:52:13.742Z</time></trkpt><trkpt lat="43.7859895" lon="11.5769982"><ele>925.9999999999999</ele><time>2026-04-25T10:52:14.741Z</time></trkpt><trkpt lat="43.7860417" lon="11.5771109"><ele>925.9999999999999</ele><time>2026-04-25T10:52:15.741Z</time></trkpt><trkpt lat="43.7860979" lon="11.5772142"><ele>926.0</ele><time>2026-04-25T10:52:16.741Z</time></trkpt><trkpt lat="43.7861433" lon="11.5773189"><ele>926.0</ele><time>2026-04-25T10:52:17.741Z</time></trkpt><trkpt lat="43.7862018" lon="11.577429"><ele>926.8333333333334</ele><time>2026-04-25T10:52:18.741Z</time></trkpt><trkpt lat="43.7862614" lon="11.5775121"><ele>927.6666666666667</ele><time>2026-04-25T10:52:19.74Z</time></trkpt><trkpt lat="43.7863296" lon="11.5775535"><ele>928.5</ele><time>2026-04-25T10:52:20.741Z</time></trkpt><trkpt lat="43.7864018" lon="11.5776736"><ele>929.3333333333333</ele><time>2026-04-25T10:52:22.74Z</time></trkpt><trkpt lat="43.7864328" lon="11.5777692"><ele>930.1666666666666</ele><time>2026-04-25T10:52:23.74Z</time></trkpt><trkpt lat="43.7864365" lon="11.5778644"><ele>931.0</ele><time>2026-04-25T10:52:25.74Z</time></trkpt><trkpt lat="43.786438" lon="11.5779526"><ele>932.5714285714286</ele><time>2026-04-25T10:52:27.74Z</time></trkpt><trkpt lat="43.786422" lon="11.5780463"><ele>934.1428571428571</ele><time>2026-04-25T10:52:29.74Z</time></trkpt><trkpt lat="43.7864138" lon="11.5781496"><ele>935.7142857142858</ele><time>2026-04-25T10:52:31.74Z</time></trkpt><trkpt lat="43.7863686" lon="11.5782462"><ele>937.2857142857143</ele><time>2026-04-25T10:52:33.742Z</time></trkpt><trkpt lat="43.7863309" lon="11.5783267"><ele>938.8571428571429</ele><time>2026-04-25T10:52:34.74Z</time></trkpt><trkpt lat="43.7863088" lon="11.5784105"><ele>940.4285714285716</ele><time>2026-04-25T10:52:35.74Z</time></trkpt><trkpt lat="43.7862914" lon="11.5785148"><ele>942.0000000000001</ele><time>2026-04-25T10:52:36.74Z</time></trkpt><trkpt lat="43.7863006" lon="11.5786538"><ele>942.4000000000001</ele><time>2026-04-25T10:52:37.741Z</time></trkpt><trkpt lat="43.7863205" lon="11.5788149"><ele>942.8000000000001</ele><time>2026-04-25T10:52:38.74Z</time></trkpt><trkpt lat="43.7863274" lon="11.5789585"><ele>943.2</ele><time>2026-04-25T10:52:39.74Z</time></trkpt><trkpt lat="43.7863276" lon="11.5791111"><ele>943.6</ele><time>2026-04-25T10:52:40.74Z</time></trkpt><trkpt lat="43.7863035" lon="11.5792667"><ele>944.0</ele><time>2026-04-25T10:52:41.741Z</time></trkpt><trkpt lat="43.7862774" lon="11.5794469"><ele>944.2</ele><time>2026-04-25T10:52:42.74Z</time></trkpt><trkpt lat="43.7862607" lon="11.5795958"><ele>944.4000000000001</ele><time>2026-04-25T10:52:43.74Z</time></trkpt><trkpt lat="43.7862593" lon="11.5797487"><ele>944.6</ele><time>2026-04-25T10:52:44.74Z</time></trkpt><trkpt lat="43.7862717" lon="11.5799191"><ele>944.8</ele><time>2026-04-25T10:52:45.741Z</time></trkpt><trkpt lat="43.7862872" lon="11.5800549"><ele>945.0</ele><time>2026-04-25T10:52:46.74Z</time></trkpt><trkpt lat="43.7862637" lon="11.5801834"><ele>945.0</ele><time>2026-04-25T10:52:47.741Z</time></trkpt><trkpt lat="43.7862286" lon="11.5803243"><ele>945.0</ele><time>2026-04-25T10:52:48.74Z</time></trkpt><trkpt lat="43.7862149" lon="11.5804799"><ele>945.0</ele><time>2026-04-25T10:52:49.74Z</time></trkpt><trkpt lat="43.7862208" lon="11.5806099"><ele>945.0</ele><time>2026-04-25T10:52:50.741Z</time></trkpt><trkpt lat="43.7862417" lon="11.5807376"><ele>945.0</ele><time>2026-04-25T10:52:51.741Z</time></trkpt><trkpt lat="43.7862662" lon="11.5808479"><ele>946.5</ele><time>2026-04-25T10:52:52.741Z</time></trkpt><trkpt lat="43.786294" lon="11.5809489"><ele>948.0</ele><time>2026-04-25T10:52:53.74Z</time></trkpt><trkpt lat="43.7863167" lon="11.5810356"><ele>949.5</ele><time>2026-04-25T10:52:54.741Z</time></trkpt><trkpt lat="43.786278" lon="11.5812081"><ele>951.0</ele><time>2026-04-25T10:52:56.741Z</time></trkpt><trkpt lat="43.7862486" lon="11.5812869"><ele>952.5</ele><time>2026-04-25T10:52:57.74Z</time></trkpt><trkpt lat="43.786172" lon="11.5813806"><ele>954.0</ele><time>2026-04-25T10:52:59.742Z</time></trkpt><trkpt lat="43.7861037" lon="11.5814168"><ele>954.0</ele><time>2026-04-25T10:53:00.74Z</time></trkpt><trkpt lat="43.7860288" lon="11.5814318"><ele>954.0</ele><time>2026-04-25T10:53:01.741Z</time></trkpt><trkpt lat="43.7859571" lon="11.5814594"><ele>954.0</ele><time>2026-04-25T10:53:02.74Z</time></trkpt><trkpt lat="43.7858712" lon="11.5814658"><ele>954.0</ele><time>2026-04-25T10:53:03.74Z</time></trkpt><trkpt lat="43.7857865" lon="11.5814779"><ele>954.0</ele><time>2026-04-25T10:53:04.741Z</time></trkpt><trkpt lat="43.7857007" lon="11.5814995"><ele>954.0</ele><time>2026-04-25T10:53:05.74Z</time></trkpt><trkpt lat="43.7856114" lon="11.5815646"><ele>954.0</ele><time>2026-04-25T10:53:06.74Z</time></trkpt><trkpt lat="43.7855287" lon="11.5816322"><ele>954.0</ele><time>2026-04-25T10:53:07.74Z</time></trkpt><trkpt lat="43.785461" lon="11.5817748"><ele>954.0</ele><time>2026-04-25T10:53:08.741Z</time></trkpt><trkpt lat="43.7853781" lon="11.5819575"><ele>954.0</ele><time>2026-04-25T10:53:09.74Z</time></trkpt><trkpt lat="43.7852956" lon="11.5821438"><ele>951.75</ele><time>2026-04-25T10:53:10.741Z</time></trkpt><trkpt lat="43.7852198" lon="11.5823527"><ele>949.5</ele><time>2026-04-25T10:53:11.741Z</time></trkpt><trkpt lat="43.7851469" lon="11.5825053"><ele>947.25</ele><time>2026-04-25T10:53:12.741Z</time></trkpt><trkpt lat="43.7850694" lon="11.5826577"><ele>945.0</ele><time>2026-04-25T10:53:13.74Z</time></trkpt><trkpt lat="43.7850164" lon="11.5827853"><ele>946.4</ele><time>2026-04-25T10:53:14.741Z</time></trkpt><trkpt lat="43.7849451" lon="11.58288"><ele>947.8</ele><time>2026-04-25T10:53:15.74Z</time></trkpt><trkpt lat="43.7848541" lon="11.582964"><ele>949.2</ele><time>2026-04-25T10:53:16.741Z</time></trkpt><trkpt lat="43.7847561" lon="11.5829702"><ele>950.6</ele><time>2026-04-25T10:53:17.741Z</time></trkpt><trkpt lat="43.7846822" lon="11.5830404"><ele>952.0</ele><time>2026-04-25T10:53:18.741Z</time></trkpt><trkpt lat="43.7846093" lon="11.5832045"><ele>952.0</ele><time>2026-04-25T10:53:20.74Z</time></trkpt><trkpt lat="43.7845865" lon="11.5833577"><ele>952.0</ele><time>2026-04-25T10:53:21.741Z</time></trkpt><trkpt lat="43.7845653" lon="11.5834979"><ele>952.0</ele><time>2026-04-25T10:53:22.741Z</time></trkpt><trkpt lat="43.784552" lon="11.5836067"><ele>952.0</ele><time>2026-04-25T10:53:23.741Z</time></trkpt><trkpt lat="43.7845936" lon="11.5837339"><ele>952.0</ele><time>2026-04-25T10:53:25.74Z</time></trkpt><trkpt lat="43.7846626" lon="11.5837921"><ele>952.8333333333333</ele><time>2026-04-25T10:53:29.741Z</time></trkpt><trkpt lat="43.7847841" lon="11.5837952"><ele>953.6666666666666</ele><time>2026-04-25T10:53:40.74Z</time></trkpt><trkpt lat="43.7848403" lon="11.5838412"><ele>954.5</ele><time>2026-04-25T10:53:41.741Z</time></trkpt><trkpt lat="43.7848988" lon="11.5838888"><ele>955.3333333333333</ele><time>2026-04-25T10:53:42.74Z</time></trkpt><trkpt lat="43.7849532" lon="11.5839486"><ele>956.1666666666666</ele><time>2026-04-25T10:53:43.741Z</time></trkpt><trkpt lat="43.7850125" lon="11.584029"><ele>957.0</ele><time>2026-04-25T10:53:44.74Z</time></trkpt><trkpt lat="43.7850775" lon="11.5840996"><ele>957.0</ele><time>2026-04-25T10:53:45.741Z</time></trkpt><trkpt lat="43.7851388" lon="11.5841777"><ele>957.0</ele><time>2026-04-25T10:53:46.741Z</time></trkpt><trkpt lat="43.7851729" lon="11.5842763"><ele>957.0</ele><time>2026-04-25T10:53:47.74Z</time></trkpt><trkpt lat="43.7852012" lon="11.584377"><ele>957.0</ele><time>2026-04-25T10:53:48.74Z</time></trkpt><trkpt lat="43.7852165" lon="11.5845008"><ele>957.0</ele><time>2026-04-25T10:53:49.74Z</time></trkpt><trkpt lat="43.7852452" lon="11.5846369"><ele>957.0</ele><time>2026-04-25T10:53:50.741Z</time></trkpt><trkpt lat="43.7852451" lon="11.5847899"><ele>956.0</ele><time>2026-04-25T10:53:51.74Z</time></trkpt><trkpt lat="43.7852437" lon="11.5849285"><ele>955.0</ele><time>2026-04-25T10:53:52.74Z</time></trkpt><trkpt lat="43.7852439" lon="11.5850616"><ele>954.0</ele><time>2026-04-25T10:53:53.74Z</time></trkpt><trkpt lat="43.7852232" lon="11.5851665"><ele>953.0</ele><time>2026-04-25T10:53:54.74Z</time></trkpt><trkpt lat="43.7851873" lon="11.5852797"><ele>952.0</ele><time>2026-04-25T10:53:55.741Z</time></trkpt><trkpt lat="43.7851385" lon="11.5853571"><ele>951.0</ele><time>2026-04-25T10:53:56.74Z</time></trkpt><trkpt lat="43.7851003" lon="11.5854367"><ele>951.0</ele><time>2026-04-25T10:53:57.74Z</time></trkpt><trkpt lat="43.7850396" lon="11.5855049"><ele>951.0</ele><time>2026-04-25T10:53:58.74Z</time></trkpt><trkpt lat="43.7849681" lon="11.5855667"><ele>951.0</ele><time>2026-04-25T10:53:59.74Z</time></trkpt><trkpt lat="43.7849012" lon="11.5856456"><ele>951.0</ele><time>2026-04-25T10:54:00.741Z</time></trkpt><trkpt lat="43.7848317" lon="11.5857307"><ele>951.0</ele><time>2026-04-25T10:54:01.741Z</time></trkpt><trkpt lat="43.7847696" lon="11.5858296"><ele>951.0</ele><time>2026-04-25T10:54:02.74Z</time></trkpt><trkpt lat="43.7847139" lon="11.5859316"><ele>951.0</ele><time>2026-04-25T10:54:03.74Z</time></trkpt><trkpt lat="43.7846608" lon="11.5860494"><ele>950.9999999999999</ele><time>2026-04-25T10:54:04.74Z</time></trkpt><trkpt lat="43.7846129" lon="11.5861628"><ele>950.9999999999999</ele><time>2026-04-25T10:54:05.74Z</time></trkpt><trkpt lat="43.7845981" lon="11.5862926"><ele>951.0</ele><time>2026-04-25T10:54:06.741Z</time></trkpt><trkpt lat="43.7845654" lon="11.5864239"><ele>951.0</ele><time>2026-04-25T10:54:07.741Z</time></trkpt><trkpt lat="43.7845329" lon="11.586547"><ele>951.0</ele><time>2026-04-25T10:54:08.742Z</time></trkpt><trkpt lat="43.7844907" lon="11.586649"><ele>950.9999999999999</ele><time>2026-04-25T10:54:09.74Z</time></trkpt><trkpt lat="43.7844604" lon="11.5867436"><ele>950.9999999999999</ele><time>2026-04-25T10:54:10.741Z</time></trkpt><trkpt lat="43.7844022" lon="11.5868375"><ele>951.0</ele><time>2026-04-25T10:54:11.741Z</time></trkpt><trkpt lat="43.7843223" lon="11.5869309"><ele>951.0</ele><time>2026-04-25T10:54:12.74Z</time></trkpt><trkpt lat="43.7842284" lon="11.5870495"><ele>951.0</ele><time>2026-04-25T10:54:13.741Z</time></trkpt><trkpt lat="43.7841414" lon="11.5871505"><ele>950.9999999999999</ele><time>2026-04-25T10:54:14.74Z</time></trkpt><trkpt lat="43.7840542" lon="11.5872444"><ele>950.9999999999999</ele><time>2026-04-25T10:54:15.74Z</time></trkpt><trkpt lat="43.7839747" lon="11.5873358"><ele>951.0</ele><time>2026-04-25T10:54:16.74Z</time></trkpt><trkpt lat="43.7838919" lon="11.5874537"><ele>951.0</ele><time>2026-04-25T10:54:17.741Z</time></trkpt><trkpt lat="43.7838019" lon="11.5875564"><ele>951.0</ele><time>2026-04-25T10:54:18.741Z</time></trkpt><trkpt lat="43.7837209" lon="11.5876729"><ele>950.9999999999999</ele><time>2026-04-25T10:54:19.741Z</time></trkpt><trkpt lat="43.7836373" lon="11.5877697"><ele>950.9999999999999</ele><time>2026-04-25T10:54:20.741Z</time></trkpt><trkpt lat="43.7835775" lon="11.5878683"><ele>951.0</ele><time>2026-04-25T10:54:21.74Z</time></trkpt><trkpt lat="43.7835089" lon="11.587953"><ele>951.0</ele><time>2026-04-25T10:54:22.74Z</time></trkpt><trkpt lat="43.7833747" lon="11.5880645"><ele>952.4</ele><time>2026-04-25T10:54:24.74Z</time></trkpt><trkpt lat="43.783288" lon="11.5881205"><ele>953.8</ele><time>2026-04-25T10:54:25.742Z</time></trkpt><trkpt lat="43.7832073" lon="11.5882006"><ele>955.1999999999999</ele><time>2026-04-25T10:54:26.74Z</time></trkpt><trkpt lat="43.7831189" lon="11.5882683"><ele>956.5999999999999</ele><time>2026-04-25T10:54:27.741Z</time></trkpt><trkpt lat="43.7830205" lon="11.5883821"><ele>958.0</ele><time>2026-04-25T10:54:28.741Z</time></trkpt><trkpt lat="43.7829395" lon="11.5884801"><ele>958.0</ele><time>2026-04-25T10:54:29.741Z</time></trkpt><trkpt lat="43.782861" lon="11.5885981"><ele>958.0</ele><time>2026-04-25T10:54:30.741Z</time></trkpt><trkpt lat="43.782776" lon="11.588727"><ele>958.0</ele><time>2026-04-25T10:54:31.74Z</time></trkpt><trkpt lat="43.7827027" lon="11.5888786"><ele>958.0</ele><time>2026-04-25T10:54:32.74Z</time></trkpt><trkpt lat="43.7826503" lon="11.5890181"><ele>957.1666666666666</ele><time>2026-04-25T10:54:33.74Z</time></trkpt><trkpt lat="43.7825931" lon="11.5891338"><ele>956.3333333333333</ele><time>2026-04-25T10:54:34.74Z</time></trkpt><trkpt lat="43.7825326" lon="11.5892354"><ele>955.5</ele><time>2026-04-25T10:54:35.741Z</time></trkpt><trkpt lat="43.7824691" lon="11.5893365"><ele>954.6666666666667</ele><time>2026-04-25T10:54:36.741Z</time></trkpt><trkpt lat="43.7824166" lon="11.5894033"><ele>953.8333333333334</ele><time>2026-04-25T10:54:37.741Z</time></trkpt><trkpt lat="43.7823487" lon="11.589472"><ele>953.0</ele><time>2026-04-25T10:54:38.741Z</time></trkpt><trkpt lat="43.7822896" lon="11.5895288"><ele>955.0000000000001</ele><time>2026-04-25T10:54:39.741Z</time></trkpt><trkpt lat="43.7821819" lon="11.5894949"><ele>957.0</ele><time>2026-04-25T10:54:40.74Z</time></trkpt><trkpt lat="43.7821112" lon="11.5894815"><ele>959.0</ele><time>2026-04-25T10:54:41.742Z</time></trkpt><trkpt lat="43.7820394" lon="11.5894437"><ele>961.0</ele><time>2026-04-25T10:54:42.742Z</time></trkpt><trkpt lat="43.781961" lon="11.5894082"><ele>963.0000000000001</ele><time>2026-04-25T10:54:43.74Z</time></trkpt><trkpt lat="43.7818908" lon="11.5893662"><ele>965.0</ele><time>2026-04-25T10:54:44.741Z</time></trkpt><trkpt lat="43.7818181" lon="11.5893259"><ele>966.2</ele><time>2026-04-25T10:54:45.74Z</time></trkpt><trkpt lat="43.7817496" lon="11.5893338"><ele>967.4</ele><time>2026-04-25T10:54:46.741Z</time></trkpt><trkpt lat="43.7816655" lon="11.5893204"><ele>968.5999999999999</ele><time>2026-04-25T10:54:48.741Z</time></trkpt><trkpt lat="43.781614" lon="11.5894886"><ele>969.8</ele><time>2026-04-25T10:54:52.742Z</time></trkpt><trkpt lat="43.7815786" lon="11.5895839"><ele>971.0</ele><time>2026-04-25T10:54:53.741Z</time></trkpt><trkpt lat="43.781557" lon="11.5897064"><ele>969.5</ele><time>2026-04-25T10:54:54.742Z</time></trkpt><trkpt lat="43.781512" lon="11.5898551"><ele>968.0</ele><time>2026-04-25T10:54:56.741Z</time></trkpt><trkpt lat="43.7814993" lon="11.5899884"><ele>966.5</ele><time>2026-04-25T10:54:58.741Z</time></trkpt><trkpt lat="43.7813736" lon="11.5901814"><ele>965.0</ele><time>2026-04-25T10:55:07.741Z</time></trkpt><trkpt lat="43.7813802" lon="11.5904138"><ele>965.0</ele><time>2026-04-25T10:55:10.741Z</time></trkpt><trkpt lat="43.7814138" lon="11.5905197"><ele>965.0</ele><time>2026-04-25T10:55:11.741Z</time></trkpt><trkpt lat="43.7814423" lon="11.5906229"><ele>965.0</ele><time>2026-04-25T10:55:12.74Z</time></trkpt><trkpt lat="43.7815479" lon="11.590706"><ele>965.0</ele><time>2026-04-25T10:55:14.742Z</time></trkpt><trkpt lat="43.7816792" lon="11.5906927"><ele>965.0</ele><time>2026-04-25T10:55:16.741Z</time></trkpt><trkpt lat="43.7817472" lon="11.59068"><ele>965.0000000000001</ele><time>2026-04-25T10:55:17.74Z</time></trkpt><trkpt lat="43.78181" lon="11.5906738"><ele>965.0</ele><time>2026-04-25T10:55:18.741Z</time></trkpt><trkpt lat="43.7819077" lon="11.5907348"><ele>965.0</ele><time>2026-04-25T10:55:20.741Z</time></trkpt><trkpt lat="43.781953" lon="11.5908221"><ele>965.0</ele><time>2026-04-25T10:55:22.741Z</time></trkpt><trkpt lat="43.7819612" lon="11.5909279"><ele>965.0000000000001</ele><time>2026-04-25T10:55:24.74Z</time></trkpt><trkpt lat="43.7819029" lon="11.5910504"><ele>965.0</ele><time>2026-04-25T10:55:26.74Z</time></trkpt><trkpt lat="43.7818415" lon="11.5911279"><ele>966.0</ele><time>2026-04-25T10:55:27.741Z</time></trkpt><trkpt lat="43.7817865" lon="11.5912004"><ele>967.0</ele><time>2026-04-25T10:55:28.741Z</time></trkpt><trkpt lat="43.7817531" lon="11.5912969"><ele>968.0</ele><time>2026-04-25T10:55:30.741Z</time></trkpt><trkpt lat="43.7818493" lon="11.5914173"><ele>969.0</ele><time>2026-04-25T10:55:40.74Z</time></trkpt><trkpt lat="43.7819148" lon="11.5914303"><ele>970.0</ele><time>2026-04-25T10:55:41.741Z</time></trkpt><trkpt lat="43.7820447" lon="11.5914736"><ele>970.0</ele><time>2026-04-25T10:55:42.74Z</time></trkpt><trkpt lat="43.7821197" lon="11.5915221"><ele>970.0</ele><time>2026-04-25T10:55:43.741Z</time></trkpt><trkpt lat="43.7821928" lon="11.5915629"><ele>970.0</ele><time>2026-04-25T10:55:44.74Z</time></trkpt><trkpt lat="43.7822606" lon="11.5916112"><ele>970.0</ele><time>2026-04-25T10:55:45.74Z</time></trkpt><trkpt lat="43.7823633" lon="11.591545"><ele>970.0</ele><time>2026-04-25T10:55:47.741Z</time></trkpt><trkpt lat="43.7824677" lon="11.5915113"><ele>969.9999999999999</ele><time>2026-04-25T10:55:49.741Z</time></trkpt><trkpt lat="43.7825902" lon="11.5915713"><ele>970.0</ele><time>2026-04-25T10:55:51.74Z</time></trkpt><trkpt lat="43.7826812" lon="11.591592"><ele>970.0</ele><time>2026-04-25T10:55:52.741Z</time></trkpt><trkpt lat="43.7827499" lon="11.591612"><ele>970.0</ele><time>2026-04-25T10:55:53.74Z</time></trkpt><trkpt lat="43.7828315" lon="11.5916155"><ele>969.9999999999999</ele><time>2026-04-25T10:55:54.741Z</time></trkpt><trkpt lat="43.7829032" lon="11.5915867"><ele>970.0</ele><time>2026-04-25T10:55:55.741Z</time></trkpt><trkpt lat="43.7829203" lon="11.5914892"><ele>969.4</ele><time>2026-04-25T10:55:57.741Z</time></trkpt><trkpt lat="43.7828165" lon="11.5913318"><ele>968.8</ele><time>2026-04-25T10:55:59.74Z</time></trkpt><trkpt lat="43.7827571" lon="11.5912677"><ele>968.2</ele><time>2026-04-25T10:56:00.741Z</time></trkpt><trkpt lat="43.782694" lon="11.5911389"><ele>967.6</ele><time>2026-04-25T10:56:02.74Z</time></trkpt><trkpt lat="43.7826934" lon="11.5910462"><ele>967.0</ele><time>2026-04-25T10:56:03.74Z</time></trkpt><trkpt lat="43.7826966" lon="11.5909521"><ele>966.9999999999999</ele><time>2026-04-25T10:56:04.74Z</time></trkpt><trkpt lat="43.7827292" lon="11.5908501"><ele>967.0</ele><time>2026-04-25T10:56:05.74Z</time></trkpt><trkpt lat="43.7827683" lon="11.590757"><ele>967.0</ele><time>2026-04-25T10:56:06.741Z</time></trkpt><trkpt lat="43.782811" lon="11.5906721"><ele>967.0</ele><time>2026-04-25T10:56:07.74Z</time></trkpt><trkpt lat="43.7828402" lon="11.5905827"><ele>966.9999999999999</ele><time>2026-04-25T10:56:08.74Z</time></trkpt><trkpt lat="43.7829385" lon="11.5905114"><ele>967.0</ele><time>2026-04-25T10:56:10.742Z</time></trkpt><trkpt lat="43.7831648" lon="11.5905551"><ele>970.0</ele><time>2026-04-25T10:56:14.741Z</time></trkpt><trkpt lat="43.7821197" lon="11.5915221"><ele>970.0</ele><time>2026-04-25T10:55:43.741Z</time></trkpt><trkpt lat="43.7821928" lon="11.5915629"><ele>970.0</ele><time>2026-04-25T10:55:44.74Z</time></trkpt><trkpt lat="43.7822606" lon="11.5916112"><ele>970.0</ele><time>2026-04-25T10:55:45.74Z</time></trkpt><trkpt lat="43.7823633" lon="11.591545"><ele>970.0</ele><time>2026-04-25T10:55:47.741Z</time></trkpt><trkpt lat="43.7824677" lon="11.5915113"><ele>970.0</ele><time>2026-04-25T10:55:49.741Z</time></trkpt><trkpt lat="43.7825902" lon="11.5915713"><ele>971.4999999999999</ele><time>2026-04-25T10:55:51.74Z</time></trkpt><trkpt lat="43.7826812" lon="11.591592"><ele>973.0</ele><time>2026-04-25T10:55:52.741Z</time></trkpt><trkpt lat="43.7827499" lon="11.591612"><ele>974.5</ele><time>2026-04-25T10:55:53.74Z</time></trkpt><trkpt lat="43.7828315" lon="11.5916155"><ele>976.0</ele><time>2026-04-25T10:55:54.741Z</time></trkpt><trkpt lat="43.7829032" lon="11.5915867"><ele>977.4999999999999</ele><time>2026-04-25T10:55:55.741Z</time></trkpt><trkpt lat="43.7829203" lon="11.5914892"><ele>979.0</ele><time>2026-04-25T10:55:57.741Z</time></trkpt><trkpt lat="43.7828165" lon="11.5913318"><ele>978.9999999999999</ele><time>2026-04-25T10:55:59.74Z</time></trkpt><trkpt lat="43.7827571" lon="11.5912677"><ele>979.0</ele><time>2026-04-25T10:56:00.741Z</time></trkpt><trkpt lat="43.782694" lon="11.5911389"><ele>979.0</ele><time>2026-04-25T10:56:02.74Z</time></trkpt><trkpt lat="43.7826934" lon="11.5910462"><ele>979.0</ele><time>2026-04-25T10:56:03.74Z</time></trkpt><trkpt lat="43.7826966" lon="11.5909521"><ele>978.9999999999999</ele><time>2026-04-25T10:56:04.74Z</time></trkpt><trkpt lat="43.7827292" lon="11.5908501"><ele>979.0</ele><time>2026-04-25T10:56:05.74Z</time></trkpt><trkpt lat="43.7827683" lon="11.590757"><ele>976.0</ele><time>2026-04-25T10:56:06.741Z</time></trkpt><trkpt lat="43.782811" lon="11.5906721"><ele>973.0</ele><time>2026-04-25T10:56:07.74Z</time></trkpt><trkpt lat="43.7828402" lon="11.5905827"><ele>970.0</ele><time>2026-04-25T10:56:08.74Z</time></trkpt><trkpt lat="43.7829385" lon="11.5905114"><ele>967.0</ele><time>2026-04-25T10:56:10.742Z</time></trkpt><trkpt lat="43.7831648" lon="11.5905551"><ele>967.0</ele><time>2026-04-25T10:56:14.741Z</time></trkpt><trkpt lat="43.7832516" lon="11.5906018"><ele>967.0</ele><time>2026-04-25T10:56:16.741Z</time></trkpt><trkpt lat="43.7833613" lon="11.5905468"><ele>967.0</ele><time>2026-04-25T10:56:19.74Z</time></trkpt><trkpt lat="43.7834374" lon="11.5904549"><ele>967.0</ele><time>2026-04-25T10:56:21.74Z</time></trkpt><trkpt lat="43.7835155" lon="11.5903384"><ele>967.0</ele><time>2026-04-25T10:56:23.74Z</time></trkpt><trkpt lat="43.7836145" lon="11.5902736"><ele>965.4000000000001</ele><time>2026-04-25T10:56:25.741Z</time></trkpt><trkpt lat="43.7837273" lon="11.5902347"><ele>963.8000000000001</ele><time>2026-04-25T10:56:27.741Z</time></trkpt><trkpt lat="43.7838136" lon="11.5902268"><ele>962.2</ele><time>2026-04-25T10:56:28.741Z</time></trkpt><trkpt lat="43.78391" lon="11.5902124"><ele>960.6</ele><time>2026-04-25T10:56:29.74Z</time></trkpt><trkpt lat="43.7840101" lon="11.5901978"><ele>959.0</ele><time>2026-04-25T10:56:30.741Z</time></trkpt><trkpt lat="43.7840839" lon="11.5901706"><ele>959.0</ele><time>2026-04-25T10:56:31.741Z</time></trkpt><trkpt lat="43.7841608" lon="11.5901674"><ele>959.0000000000001</ele><time>2026-04-25T10:56:32.741Z</time></trkpt><trkpt lat="43.7842815" lon="11.5901802"><ele>959.0000000000001</ele><time>2026-04-25T10:56:34.74Z</time></trkpt><trkpt lat="43.7843491" lon="11.5902081"><ele>959.0</ele><time>2026-04-25T10:56:36.741Z</time></trkpt><trkpt lat="43.7844439" lon="11.5902929"><ele>959.0</ele><time>2026-04-25T10:56:38.74Z</time></trkpt><trkpt lat="43.784548" lon="11.590357"><ele>960.2</ele><time>2026-04-25T10:56:40.741Z</time></trkpt><trkpt lat="43.7846231" lon="11.5903618"><ele>961.4000000000001</ele><time>2026-04-25T10:56:41.74Z</time></trkpt><trkpt lat="43.7846896" lon="11.5903905"><ele>962.6</ele><time>2026-04-25T10:56:42.74Z</time></trkpt><trkpt lat="43.7848495" lon="11.5904317"><ele>963.8</ele><time>2026-04-25T10:56:45.74Z</time></trkpt><trkpt lat="43.7849501" lon="11.5904978"><ele>965.0</ele><time>2026-04-25T10:56:47.741Z</time></trkpt><trkpt lat="43.7850334" lon="11.5905999"><ele>965.0000000000001</ele><time>2026-04-25T10:56:49.741Z</time></trkpt><trkpt lat="43.7850898" lon="11.5907248"><ele>965.0</ele><time>2026-04-25T10:56:51.74Z</time></trkpt><trkpt lat="43.7851673" lon="11.590852"><ele>965.0</ele><time>2026-04-25T10:56:53.74Z</time></trkpt><trkpt lat="43.7851815" lon="11.5909396"><ele>965.0</ele><time>2026-04-25T10:56:55.741Z</time></trkpt><trkpt lat="43.7851802" lon="11.5910312"><ele>965.0000000000001</ele><time>2026-04-25T10:56:57.741Z</time></trkpt><trkpt lat="43.7852002" lon="11.5911236"><ele>965.0</ele><time>2026-04-25T10:57:01.74Z</time></trkpt><trkpt lat="43.7852806" lon="11.591084"><ele>964.6</ele><time>2026-04-25T10:57:31.74Z</time></trkpt><trkpt lat="43.7854215" lon="11.5910758"><ele>964.2</ele><time>2026-04-25T10:57:34.74Z</time></trkpt><trkpt lat="43.7855268" lon="11.5910798"><ele>963.8</ele><time>2026-04-25T10:57:36.74Z</time></trkpt><trkpt lat="43.785611" lon="11.5911046"><ele>963.4</ele><time>2026-04-25T10:57:37.741Z</time></trkpt><trkpt lat="43.7856754" lon="11.591114"><ele>963.0</ele><time>2026-04-25T10:57:38.74Z</time></trkpt><trkpt lat="43.7857391" lon="11.5911478"><ele>965.0</ele><time>2026-04-25T10:57:39.741Z</time></trkpt><trkpt lat="43.7858252" lon="11.5911936"><ele>967.0</ele><time>2026-04-25T10:57:41.74Z</time></trkpt><trkpt lat="43.7859076" lon="11.5912547"><ele>969.0</ele><time>2026-04-25T10:57:43.74Z</time></trkpt><trkpt lat="43.7859763" lon="11.5913014"><ele>971.0</ele><time>2026-04-25T10:57:45.741Z</time></trkpt><trkpt lat="43.7860371" lon="11.5913322"><ele>973.0</ele><time>2026-04-25T10:57:46.74Z</time></trkpt><trkpt lat="43.786124" lon="11.5913412"><ele>975.0</ele><time>2026-04-25T10:57:47.741Z</time></trkpt><trkpt lat="43.7862176" lon="11.5913508"><ele>975.0</ele><time>2026-04-25T10:57:48.74Z</time></trkpt><trkpt lat="43.7863341" lon="11.5913169"><ele>975.0</ele><time>2026-04-25T10:57:49.742Z</time></trkpt><trkpt lat="43.7864366" lon="11.5913063"><ele>975.0</ele><time>2026-04-25T10:57:50.74Z</time></trkpt><trkpt lat="43.7865252" lon="11.5913032"><ele>975.0</ele><time>2026-04-25T10:57:51.74Z</time></trkpt><trkpt lat="43.7866202" lon="11.5912978"><ele>975.0</ele><time>2026-04-25T10:57:52.74Z</time></trkpt><trkpt lat="43.7866975" lon="11.5912895"><ele>975.0</ele><time>2026-04-25T10:57:53.742Z</time></trkpt><trkpt lat="43.7867644" lon="11.5913091"><ele>975.0</ele><time>2026-04-25T10:57:54.741Z</time></trkpt><trkpt lat="43.7868227" lon="11.5913563"><ele>975.0</ele><time>2026-04-25T10:57:56.74Z</time></trkpt><trkpt lat="43.7868334" lon="11.5914516"><ele>975.0</ele><time>2026-04-25T10:57:58.74Z</time></trkpt><trkpt lat="43.7867928" lon="11.5915902"><ele>975.0</ele><time>2026-04-25T10:58:00.741Z</time></trkpt><trkpt lat="43.7867354" lon="11.5916762"><ele>975.0</ele><time>2026-04-25T10:58:02.74Z</time></trkpt><trkpt lat="43.7867091" lon="11.5917626"><ele>975.0</ele><time>2026-04-25T10:58:32.74Z</time></trkpt><trkpt lat="43.7866588" lon="11.5918257"><ele>975.0</ele><time>2026-04-25T10:58:35.74Z</time></trkpt><trkpt lat="43.7865903" lon="11.5918967"><ele>975.0</ele><time>2026-04-25T10:58:38.741Z</time></trkpt><trkpt lat="43.7865319" lon="11.5919605"><ele>975.0</ele><time>2026-04-25T10:58:40.741Z</time></trkpt><trkpt lat="43.7864227" lon="11.5920206"><ele>975.0</ele><time>2026-04-25T10:59:09.74Z</time></trkpt><trkpt lat="43.7863708" lon="11.5921165"><ele>975.0</ele><time>2026-04-25T10:59:11.741Z</time></trkpt><trkpt lat="43.7863033" lon="11.5922257"><ele>975.2</ele><time>2026-04-25T10:59:13.74Z</time></trkpt><trkpt lat="43.7862256" lon="11.592309"><ele>975.4</ele><time>2026-04-25T10:59:15.74Z</time></trkpt><trkpt lat="43.7861519" lon="11.5923983"><ele>975.5999999999999</ele><time>2026-04-25T10:59:17.74Z</time></trkpt><trkpt lat="43.7861023" lon="11.5924822"><ele>975.8</ele><time>2026-04-25T10:59:18.74Z</time></trkpt><trkpt lat="43.786007" lon="11.5925913"><ele>976.0</ele><time>2026-04-25T10:59:20.741Z</time></trkpt><trkpt lat="43.785907" lon="11.5926439"><ele>980.0</ele><time>2026-04-25T10:59:22.741Z</time></trkpt><trkpt lat="43.7858541" lon="11.5927442"><ele>983.9999999999999</ele><time>2026-04-25T10:59:23.74Z</time></trkpt><trkpt lat="43.7857775" lon="11.5928481"><ele>987.9999999999999</ele><time>2026-04-25T10:59:25.74Z</time></trkpt><trkpt lat="43.7856945" lon="11.592983"><ele>992.0</ele><time>2026-04-25T10:59:27.742Z</time></trkpt><trkpt lat="43.7856233" lon="11.59308"><ele>996.0</ele><time>2026-04-25T10:59:29.741Z</time></trkpt><trkpt lat="43.7855708" lon="11.5931349"><ele>997.4285714285713</ele><time>2026-04-25T10:59:30.74Z</time></trkpt><trkpt lat="43.7855254" lon="11.593205"><ele>998.8571428571428</ele><time>2026-04-25T10:59:31.74Z</time></trkpt><trkpt lat="43.7854723" lon="11.5932914"><ele>1000.2857142857142</ele><time>2026-04-25T10:59:32.74Z</time></trkpt><trkpt lat="43.7854232" lon="11.5933653"><ele>1001.7142857142858</ele><time>2026-04-25T10:59:33.74Z</time></trkpt><trkpt lat="43.7853775" lon="11.5934378"><ele>1003.1428571428572</ele><time>2026-04-25T10:59:34.74Z</time></trkpt><trkpt lat="43.78534" lon="11.5935283"><ele>1004.5714285714287</ele><time>2026-04-25T10:59:35.74Z</time></trkpt><trkpt lat="43.7853001" lon="11.5936264"><ele>1006.0</ele><time>2026-04-25T10:59:36.74Z</time></trkpt><trkpt lat="43.7852478" lon="11.5937178"><ele>1010.4</ele><time>2026-04-25T10:59:37.741Z</time></trkpt><trkpt lat="43.7851745" lon="11.5937959"><ele>1014.8</ele><time>2026-04-25T10:59:38.74Z</time></trkpt><trkpt lat="43.7851036" lon="11.5938885"><ele>1019.1999999999999</ele><time>2026-04-25T10:59:39.74Z</time></trkpt><trkpt lat="43.7850372" lon="11.5939729"><ele>1023.5999999999999</ele><time>2026-04-25T10:59:40.74Z</time></trkpt><trkpt lat="43.7849814" lon="11.5940726"><ele>1028.0</ele><time>2026-04-25T10:59:41.74Z</time></trkpt><trkpt lat="43.7849187" lon="11.5941609"><ele>1028.0</ele><time>2026-04-25T10:59:42.74Z</time></trkpt><trkpt lat="43.7848609" lon="11.5942556"><ele>1028.0</ele><time>2026-04-25T10:59:43.741Z</time></trkpt><trkpt lat="43.7848087" lon="11.5943301"><ele>1028.0</ele><time>2026-04-25T10:59:44.74Z</time></trkpt><trkpt lat="43.784748" lon="11.5944299"><ele>1028.0</ele><time>2026-04-25T10:59:45.741Z</time></trkpt><trkpt lat="43.7846861" lon="11.5944107"><ele>1028.0</ele><time>2026-04-25T10:59:55.741Z</time></trkpt><trkpt lat="43.7845742" lon="11.5944263"><ele>1028.0</ele><time>2026-04-25T11:00:00.74Z</time></trkpt><trkpt lat="43.7844401" lon="11.5944416"><ele>1028.0</ele><time>2026-04-25T11:00:02.741Z</time></trkpt><trkpt lat="43.784355" lon="11.5944265"><ele>1028.0</ele><time>2026-04-25T11:00:03.741Z</time></trkpt><trkpt lat="43.7842801" lon="11.5944364"><ele>1028.0</ele><time>2026-04-25T11:00:04.74Z</time></trkpt><trkpt lat="43.7842068" lon="11.5944368"><ele>1028.0</ele><time>2026-04-25T11:00:05.74Z</time></trkpt><trkpt lat="43.7841285" lon="11.5944541"><ele>1028.0</ele><time>2026-04-25T11:00:06.741Z</time></trkpt><trkpt lat="43.7840029" lon="11.5945125"><ele>1028.0</ele><time>2026-04-25T11:00:08.74Z</time></trkpt><trkpt lat="43.7839334" lon="11.5945559"><ele>1029.5</ele><time>2026-04-25T11:00:09.741Z</time></trkpt><trkpt lat="43.783862" lon="11.5946125"><ele>1031.0</ele><time>2026-04-25T11:00:10.741Z</time></trkpt><trkpt lat="43.7837878" lon="11.5946596"><ele>1032.5</ele><time>2026-04-25T11:00:11.741Z</time></trkpt><trkpt lat="43.7837172" lon="11.5947306"><ele>1034.0</ele><time>2026-04-25T11:00:13.74Z</time></trkpt><trkpt lat="43.7836941" lon="11.5948261"><ele>1035.5</ele><time>2026-04-25T11:00:15.74Z</time></trkpt><trkpt lat="43.7837095" lon="11.5949326"><ele>1037.0</ele><time>2026-04-25T11:00:19.74Z</time></trkpt><trkpt lat="43.7836929" lon="11.5950832"><ele>1037.0</ele><time>2026-04-25T11:00:20.741Z</time></trkpt><trkpt lat="43.7836945" lon="11.5951752"><ele>1037.0</ele><time>2026-04-25T11:00:21.74Z</time></trkpt><trkpt lat="43.7836622" lon="11.5953361"><ele>1037.0</ele><time>2026-04-25T11:00:23.74Z</time></trkpt><trkpt lat="43.7836009" lon="11.595386"><ele>1037.0</ele><time>2026-04-25T11:00:24.74Z</time></trkpt><trkpt lat="43.783479" lon="11.5954211"><ele>1037.0</ele><time>2026-04-25T11:00:25.74Z</time></trkpt><trkpt lat="43.7833751" lon="11.5954839"><ele>1039.0</ele><time>2026-04-25T11:00:26.741Z</time></trkpt><trkpt lat="43.7832506" lon="11.5955577"><ele>1041.0</ele><time>2026-04-25T11:00:27.74Z</time></trkpt><trkpt lat="43.7831334" lon="11.5956613"><ele>1043.0</ele><time>2026-04-25T11:00:28.741Z</time></trkpt><trkpt lat="43.7830264" lon="11.595765"><ele>1045.0</ele><time>2026-04-25T11:00:29.741Z</time></trkpt><trkpt lat="43.7829281" lon="11.5958447"><ele>1045.0</ele><time>2026-04-25T11:00:30.74Z</time></trkpt><trkpt lat="43.7828317" lon="11.5959073"><ele>1045.0</ele><time>2026-04-25T11:00:31.741Z</time></trkpt><trkpt lat="43.7827448" lon="11.5959526"><ele>1045.0</ele><time>2026-04-25T11:00:32.741Z</time></trkpt><trkpt lat="43.7826619" lon="11.5959872"><ele>1045.0</ele><time>2026-04-25T11:00:33.741Z</time></trkpt><trkpt lat="43.7825792" lon="11.5960044"><ele>1045.0</ele><time>2026-04-25T11:00:34.741Z</time></trkpt><trkpt lat="43.7825051" lon="11.596041"><ele>1045.0</ele><time>2026-04-25T11:00:35.741Z</time></trkpt><trkpt lat="43.7824374" lon="11.5961315"><ele>1043.25</ele><time>2026-04-25T11:00:36.74Z</time></trkpt><trkpt lat="43.7823767" lon="11.5962575"><ele>1041.5</ele><time>2026-04-25T11:00:37.741Z</time></trkpt><trkpt lat="43.7823065" lon="11.5964217"><ele>1039.75</ele><time>2026-04-25T11:00:38.741Z</time></trkpt><trkpt lat="43.7822504" lon="11.5966338"><ele>1038.0</ele><time>2026-04-25T11:00:39.74Z</time></trkpt><trkpt lat="43.7821919" lon="11.596806"><ele>1038.0</ele><time>2026-04-25T11:00:40.741Z</time></trkpt><trkpt lat="43.782136" lon="11.5969734"><ele>1038.0</ele><time>2026-04-25T11:00:41.741Z</time></trkpt><trkpt lat="43.7820891" lon="11.5971262"><ele>1038.0</ele><time>2026-04-25T11:00:42.74Z</time></trkpt><trkpt lat="43.782053" lon="11.5972596"><ele>1038.0</ele><time>2026-04-25T11:00:43.74Z</time></trkpt><trkpt lat="43.7820358" lon="11.5973747"><ele>1038.0</ele><time>2026-04-25T11:00:44.741Z</time></trkpt><trkpt lat="43.7820224" lon="11.597479"><ele>1038.5</ele><time>2026-04-25T11:00:45.742Z</time></trkpt><trkpt lat="43.7819925" lon="11.5976115"><ele>1039.0</ele><time>2026-04-25T11:00:47.74Z</time></trkpt><trkpt lat="43.7818973" lon="11.5976374"><ele>1039.5</ele><time>2026-04-25T11:00:51.74Z</time></trkpt><trkpt lat="43.7816938" lon="11.5974789"><ele>1040.0</ele><time>2026-04-25T11:00:53.74Z</time></trkpt><trkpt lat="43.7815686" lon="11.5973702"><ele>1036.25</ele><time>2026-04-25T11:00:54.74Z</time></trkpt><trkpt lat="43.7814502" lon="11.5972531"><ele>1032.5</ele><time>2026-04-25T11:00:55.74Z</time></trkpt><trkpt lat="43.7813651" lon="11.597087"><ele>1028.75</ele><time>2026-04-25T11:00:56.74Z</time></trkpt><trkpt lat="43.7812842" lon="11.5969497"><ele>1025.0</ele><time>2026-04-25T11:00:57.742Z</time></trkpt><trkpt lat="43.7812141" lon="11.596825"><ele>1024.4</ele><time>2026-04-25T11:00:58.74Z</time></trkpt><trkpt lat="43.7811493" lon="11.5967139"><ele>1023.8</ele><time>2026-04-25T11:00:59.741Z</time></trkpt><trkpt lat="43.7811024" lon="11.5966228"><ele>1023.2</ele><time>2026-04-25T11:01:00.74Z</time></trkpt><trkpt lat="43.7810566" lon="11.5965423"><ele>1022.6</ele><time>2026-04-25T11:01:01.74Z</time></trkpt><trkpt lat="43.7810146" lon="11.5964667"><ele>1022.0</ele><time>2026-04-25T11:01:02.74Z</time></trkpt><trkpt lat="43.7809144" lon="11.5963636"><ele>1022.0000000000001</ele><time>2026-04-25T11:01:04.74Z</time></trkpt><trkpt lat="43.7808383" lon="11.5962967"><ele>1022.0</ele><time>2026-04-25T11:01:06.74Z</time></trkpt><trkpt lat="43.7807717" lon="11.5962496"><ele>1022.0</ele><time>2026-04-25T11:01:08.741Z</time></trkpt><trkpt lat="43.7807099" lon="11.5961916"><ele>1022.0</ele><time>2026-04-25T11:01:11.74Z</time></trkpt><trkpt lat="43.7806375" lon="11.5961181"><ele>1022.0000000000001</ele><time>2026-04-25T11:01:14.741Z</time></trkpt><trkpt lat="43.7805893" lon="11.5960481"><ele>1022.0</ele><time>2026-04-25T11:01:17.74Z</time></trkpt><trkpt lat="43.7805318" lon="11.5960059"><ele>1017.0</ele><time>2026-04-25T11:01:20.742Z</time></trkpt></trkseg></trk></gpx>